<?xml version="1.0" encoding="UTF-8" standalone="no" ?>
<gpx xmlns="http://www.topografix.com/GPX/1/1" xmlns:xsi="http://www.w3.org/2001/XMLSchema-instance" xsi:schemaLocation="http://www.topografix.com/GPX/1/1 http://www.topografix.com/GPX/1/1/gpx.xsd" version="1.1" creator="VisuGPX - https://www.visugpx.com">
  <metadata>
    <name>Ile mouchet bord de loire jusqu au ghota en bouvle</name>
  </metadata>
  <trk>
    <name><![CDATA[Trace 1754124700000]]></name>
    <trkseg>
      <trkpt lat="47.37047" lon="-1.19549">
        <ele>77</ele>
        <time>2025-08-02T08:51:40.000Z</time>
      </trkpt>
      <trkpt lat="47.37046" lon="-1.19551">
        <ele>82</ele>
        <time>2025-08-02T08:52:02.000Z</time>
      </trkpt>
      <trkpt lat="47.37046" lon="-1.19551">
        <ele>81</ele>
        <time>2025-08-02T08:52:03.000Z</time>
      </trkpt>
      <trkpt lat="47.37047" lon="-1.19556">
        <ele>81</ele>
        <time>2025-08-02T08:52:04.000Z</time>
      </trkpt>
      <trkpt lat="47.37047" lon="-1.19556">
        <ele>81</ele>
        <time>2025-08-02T08:52:05.000Z</time>
      </trkpt>
      <trkpt lat="47.37047" lon="-1.19556">
        <ele>81</ele>
        <time>2025-08-02T08:52:06.000Z</time>
      </trkpt>
      <trkpt lat="47.37047" lon="-1.19556">
        <ele>81</ele>
        <time>2025-08-02T08:52:07.000Z</time>
      </trkpt>
      <trkpt lat="47.37047" lon="-1.19556">
        <ele>81</ele>
        <time>2025-08-02T08:52:08.000Z</time>
      </trkpt>
      <trkpt lat="47.37047" lon="-1.19556">
        <ele>81</ele>
        <time>2025-08-02T08:52:09.000Z</time>
      </trkpt>
      <trkpt lat="47.37047" lon="-1.19556">
        <ele>81</ele>
        <time>2025-08-02T08:52:10.000Z</time>
      </trkpt>
      <trkpt lat="47.37047" lon="-1.19556">
        <ele>81</ele>
        <time>2025-08-02T08:52:11.000Z</time>
      </trkpt>
      <trkpt lat="47.37047" lon="-1.19556">
        <ele>81</ele>
        <time>2025-08-02T08:52:12.000Z</time>
      </trkpt>
      <trkpt lat="47.37047" lon="-1.19556">
        <ele>81</ele>
        <time>2025-08-02T08:52:13.000Z</time>
      </trkpt>
      <trkpt lat="47.37047" lon="-1.19556">
        <ele>81</ele>
        <time>2025-08-02T08:52:14.000Z</time>
      </trkpt>
      <trkpt lat="47.37047" lon="-1.19556">
        <ele>81</ele>
        <time>2025-08-02T08:52:15.000Z</time>
      </trkpt>
      <trkpt lat="47.37047" lon="-1.19556">
        <ele>81</ele>
        <time>2025-08-02T08:52:16.000Z</time>
      </trkpt>
      <trkpt lat="47.37047" lon="-1.19556">
        <ele>81</ele>
        <time>2025-08-02T08:52:17.000Z</time>
      </trkpt>
      <trkpt lat="47.37047" lon="-1.19556">
        <ele>81</ele>
        <time>2025-08-02T08:52:18.000Z</time>
      </trkpt>
      <trkpt lat="47.37047" lon="-1.19556">
        <ele>81</ele>
        <time>2025-08-02T08:52:19.000Z</time>
      </trkpt>
      <trkpt lat="47.37047" lon="-1.19556">
        <ele>81</ele>
        <time>2025-08-02T08:52:20.000Z</time>
      </trkpt>
      <trkpt lat="47.37047" lon="-1.19556">
        <ele>81</ele>
        <time>2025-08-02T08:52:21.000Z</time>
      </trkpt>
      <trkpt lat="47.37047" lon="-1.19556">
        <ele>81</ele>
        <time>2025-08-02T08:52:22.000Z</time>
      </trkpt>
      <trkpt lat="47.37047" lon="-1.19556">
        <ele>81</ele>
        <time>2025-08-02T08:52:23.000Z</time>
      </trkpt>
      <trkpt lat="47.37047" lon="-1.19556">
        <ele>81</ele>
        <time>2025-08-02T08:52:24.000Z</time>
      </trkpt>
      <trkpt lat="47.37047" lon="-1.19556">
        <ele>81</ele>
        <time>2025-08-02T08:52:25.000Z</time>
      </trkpt>
      <trkpt lat="47.37047" lon="-1.19556">
        <ele>81</ele>
        <time>2025-08-02T08:52:26.000Z</time>
      </trkpt>
      <trkpt lat="47.37047" lon="-1.19556">
        <ele>81</ele>
        <time>2025-08-02T08:52:27.000Z</time>
      </trkpt>
      <trkpt lat="47.37047" lon="-1.19556">
        <ele>81</ele>
        <time>2025-08-02T08:52:28.000Z</time>
      </trkpt>
      <trkpt lat="47.37047" lon="-1.19556">
        <ele>81</ele>
        <time>2025-08-02T08:52:29.000Z</time>
      </trkpt>
      <trkpt lat="47.37047" lon="-1.19556">
        <ele>81</ele>
        <time>2025-08-02T08:52:30.000Z</time>
      </trkpt>
      <trkpt lat="47.37047" lon="-1.19556">
        <ele>81</ele>
        <time>2025-08-02T08:52:31.000Z</time>
      </trkpt>
      <trkpt lat="47.37047" lon="-1.19556">
        <ele>81</ele>
        <time>2025-08-02T08:52:32.000Z</time>
      </trkpt>
      <trkpt lat="47.37047" lon="-1.19556">
        <ele>81</ele>
        <time>2025-08-02T08:52:33.000Z</time>
      </trkpt>
      <trkpt lat="47.37047" lon="-1.19556">
        <ele>81</ele>
        <time>2025-08-02T08:52:34.000Z</time>
      </trkpt>
      <trkpt lat="47.37047" lon="-1.19556">
        <ele>81</ele>
        <time>2025-08-02T08:52:35.000Z</time>
      </trkpt>
      <trkpt lat="47.37047" lon="-1.19556">
        <ele>81</ele>
        <time>2025-08-02T08:52:36.000Z</time>
      </trkpt>
      <trkpt lat="47.37047" lon="-1.19556">
        <ele>81</ele>
        <time>2025-08-02T08:52:37.000Z</time>
      </trkpt>
      <trkpt lat="47.37047" lon="-1.19556">
        <ele>81</ele>
        <time>2025-08-02T08:52:38.000Z</time>
      </trkpt>
      <trkpt lat="47.37047" lon="-1.19556">
        <ele>81</ele>
        <time>2025-08-02T08:52:39.000Z</time>
      </trkpt>
      <trkpt lat="47.37047" lon="-1.19556">
        <ele>81</ele>
        <time>2025-08-02T08:52:40.000Z</time>
      </trkpt>
      <trkpt lat="47.37047" lon="-1.19556">
        <ele>81</ele>
        <time>2025-08-02T08:52:41.000Z</time>
      </trkpt>
      <trkpt lat="47.37047" lon="-1.19556">
        <ele>81</ele>
        <time>2025-08-02T08:52:42.000Z</time>
      </trkpt>
      <trkpt lat="47.37047" lon="-1.19556">
        <ele>81</ele>
        <time>2025-08-02T08:52:43.000Z</time>
      </trkpt>
      <trkpt lat="47.37047" lon="-1.19556">
        <ele>81</ele>
        <time>2025-08-02T08:52:44.000Z</time>
      </trkpt>
      <trkpt lat="47.37047" lon="-1.19556">
        <ele>81</ele>
        <time>2025-08-02T08:52:45.000Z</time>
      </trkpt>
      <trkpt lat="47.37047" lon="-1.19556">
        <ele>81</ele>
        <time>2025-08-02T08:52:46.000Z</time>
      </trkpt>
      <trkpt lat="47.37047" lon="-1.19556">
        <ele>81</ele>
        <time>2025-08-02T08:52:47.000Z</time>
      </trkpt>
      <trkpt lat="47.37047" lon="-1.19556">
        <ele>81</ele>
        <time>2025-08-02T08:52:48.000Z</time>
      </trkpt>
      <trkpt lat="47.37047" lon="-1.19556">
        <ele>81</ele>
        <time>2025-08-02T08:52:49.000Z</time>
      </trkpt>
      <trkpt lat="47.37047" lon="-1.19556">
        <ele>81</ele>
        <time>2025-08-02T08:52:50.000Z</time>
      </trkpt>
      <trkpt lat="47.37047" lon="-1.19556">
        <ele>81</ele>
        <time>2025-08-02T08:52:51.000Z</time>
      </trkpt>
      <trkpt lat="47.37047" lon="-1.19556">
        <ele>81</ele>
        <time>2025-08-02T08:52:52.000Z</time>
      </trkpt>
      <trkpt lat="47.37047" lon="-1.19556">
        <ele>81</ele>
        <time>2025-08-02T08:52:53.000Z</time>
      </trkpt>
      <trkpt lat="47.37047" lon="-1.19556">
        <ele>81</ele>
        <time>2025-08-02T08:52:54.000Z</time>
      </trkpt>
      <trkpt lat="47.37047" lon="-1.19556">
        <ele>81</ele>
        <time>2025-08-02T08:52:55.000Z</time>
      </trkpt>
      <trkpt lat="47.37047" lon="-1.19556">
        <ele>81</ele>
        <time>2025-08-02T08:52:56.000Z</time>
      </trkpt>
      <trkpt lat="47.37047" lon="-1.19556">
        <ele>81</ele>
        <time>2025-08-02T08:52:57.000Z</time>
      </trkpt>
      <trkpt lat="47.37047" lon="-1.19556">
        <ele>81</ele>
        <time>2025-08-02T08:52:58.000Z</time>
      </trkpt>
      <trkpt lat="47.37047" lon="-1.19556">
        <ele>81</ele>
        <time>2025-08-02T08:52:59.000Z</time>
      </trkpt>
      <trkpt lat="47.37047" lon="-1.19556">
        <ele>81</ele>
        <time>2025-08-02T08:53:00.000Z</time>
      </trkpt>
      <trkpt lat="47.37047" lon="-1.19556">
        <ele>81</ele>
        <time>2025-08-02T08:53:01.000Z</time>
      </trkpt>
      <trkpt lat="47.37047" lon="-1.19556">
        <ele>81</ele>
        <time>2025-08-02T08:53:02.000Z</time>
      </trkpt>
      <trkpt lat="47.37047" lon="-1.19556">
        <ele>81</ele>
        <time>2025-08-02T08:53:03.000Z</time>
      </trkpt>
      <trkpt lat="47.37047" lon="-1.19556">
        <ele>81</ele>
        <time>2025-08-02T08:53:04.000Z</time>
      </trkpt>
      <trkpt lat="47.37047" lon="-1.19556">
        <ele>81</ele>
        <time>2025-08-02T08:53:05.000Z</time>
      </trkpt>
      <trkpt lat="47.37047" lon="-1.19556">
        <ele>81</ele>
        <time>2025-08-02T08:53:06.000Z</time>
      </trkpt>
      <trkpt lat="47.37047" lon="-1.19556">
        <ele>81</ele>
        <time>2025-08-02T08:53:07.000Z</time>
      </trkpt>
      <trkpt lat="47.37047" lon="-1.19556">
        <ele>81</ele>
        <time>2025-08-02T08:53:08.000Z</time>
      </trkpt>
      <trkpt lat="47.37047" lon="-1.19556">
        <ele>81</ele>
        <time>2025-08-02T08:53:09.000Z</time>
      </trkpt>
      <trkpt lat="47.37047" lon="-1.19556">
        <ele>81</ele>
        <time>2025-08-02T08:53:10.000Z</time>
      </trkpt>
      <trkpt lat="47.37047" lon="-1.19556">
        <ele>81</ele>
        <time>2025-08-02T08:53:11.000Z</time>
      </trkpt>
      <trkpt lat="47.37047" lon="-1.19556">
        <ele>81</ele>
        <time>2025-08-02T08:53:12.000Z</time>
      </trkpt>
      <trkpt lat="47.37047" lon="-1.19556">
        <ele>81</ele>
        <time>2025-08-02T08:53:13.000Z</time>
      </trkpt>
      <trkpt lat="47.37047" lon="-1.19556">
        <ele>81</ele>
        <time>2025-08-02T08:53:14.000Z</time>
      </trkpt>
      <trkpt lat="47.37047" lon="-1.19556">
        <ele>81</ele>
        <time>2025-08-02T08:53:15.000Z</time>
      </trkpt>
      <trkpt lat="47.37047" lon="-1.19556">
        <ele>81</ele>
        <time>2025-08-02T08:53:16.000Z</time>
      </trkpt>
      <trkpt lat="47.37047" lon="-1.19556">
        <ele>81</ele>
        <time>2025-08-02T08:53:17.000Z</time>
      </trkpt>
      <trkpt lat="47.37047" lon="-1.19556">
        <ele>81</ele>
        <time>2025-08-02T08:53:18.000Z</time>
      </trkpt>
      <trkpt lat="47.37047" lon="-1.19556">
        <ele>81</ele>
        <time>2025-08-02T08:53:19.000Z</time>
      </trkpt>
      <trkpt lat="47.37047" lon="-1.19556">
        <ele>81</ele>
        <time>2025-08-02T08:53:20.000Z</time>
      </trkpt>
      <trkpt lat="47.37047" lon="-1.19556">
        <ele>81</ele>
        <time>2025-08-02T08:53:21.000Z</time>
      </trkpt>
      <trkpt lat="47.37047" lon="-1.19556">
        <ele>81</ele>
        <time>2025-08-02T08:53:22.000Z</time>
      </trkpt>
      <trkpt lat="47.37047" lon="-1.19556">
        <ele>81</ele>
        <time>2025-08-02T08:53:23.000Z</time>
      </trkpt>
      <trkpt lat="47.37047" lon="-1.19556">
        <ele>81</ele>
        <time>2025-08-02T08:53:24.000Z</time>
      </trkpt>
      <trkpt lat="47.37047" lon="-1.19556">
        <ele>81</ele>
        <time>2025-08-02T08:53:25.000Z</time>
      </trkpt>
      <trkpt lat="47.37047" lon="-1.19556">
        <ele>81</ele>
        <time>2025-08-02T08:53:26.000Z</time>
      </trkpt>
      <trkpt lat="47.37047" lon="-1.19556">
        <ele>81</ele>
        <time>2025-08-02T08:53:27.000Z</time>
      </trkpt>
      <trkpt lat="47.37047" lon="-1.19556">
        <ele>81</ele>
        <time>2025-08-02T08:53:28.000Z</time>
      </trkpt>
      <trkpt lat="47.37047" lon="-1.19556">
        <ele>81</ele>
        <time>2025-08-02T08:53:29.000Z</time>
      </trkpt>
      <trkpt lat="47.37047" lon="-1.19556">
        <ele>81</ele>
        <time>2025-08-02T08:53:30.000Z</time>
      </trkpt>
      <trkpt lat="47.37047" lon="-1.19556">
        <ele>81</ele>
        <time>2025-08-02T08:53:31.000Z</time>
      </trkpt>
      <trkpt lat="47.37047" lon="-1.19556">
        <ele>81</ele>
        <time>2025-08-02T08:53:32.000Z</time>
      </trkpt>
      <trkpt lat="47.37047" lon="-1.19556">
        <ele>81</ele>
        <time>2025-08-02T08:53:33.000Z</time>
      </trkpt>
      <trkpt lat="47.37047" lon="-1.19556">
        <ele>81</ele>
        <time>2025-08-02T08:53:34.000Z</time>
      </trkpt>
      <trkpt lat="47.37047" lon="-1.19556">
        <ele>81</ele>
        <time>2025-08-02T08:53:35.000Z</time>
      </trkpt>
      <trkpt lat="47.37047" lon="-1.19556">
        <ele>81</ele>
        <time>2025-08-02T08:53:36.000Z</time>
      </trkpt>
      <trkpt lat="47.37047" lon="-1.19556">
        <ele>81</ele>
        <time>2025-08-02T08:53:37.000Z</time>
      </trkpt>
      <trkpt lat="47.37047" lon="-1.19556">
        <ele>81</ele>
        <time>2025-08-02T08:53:38.000Z</time>
      </trkpt>
      <trkpt lat="47.37047" lon="-1.19556">
        <ele>81</ele>
        <time>2025-08-02T08:53:39.000Z</time>
      </trkpt>
      <trkpt lat="47.37047" lon="-1.19556">
        <ele>81</ele>
        <time>2025-08-02T08:53:40.000Z</time>
      </trkpt>
      <trkpt lat="47.37047" lon="-1.19556">
        <ele>81</ele>
        <time>2025-08-02T08:53:41.000Z</time>
      </trkpt>
      <trkpt lat="47.37047" lon="-1.19556">
        <ele>81</ele>
        <time>2025-08-02T08:53:42.000Z</time>
      </trkpt>
      <trkpt lat="47.37047" lon="-1.19556">
        <ele>81</ele>
        <time>2025-08-02T08:53:43.000Z</time>
      </trkpt>
      <trkpt lat="47.37046" lon="-1.19555">
        <ele>80</ele>
        <time>2025-08-02T08:53:44.000Z</time>
      </trkpt>
      <trkpt lat="47.37045" lon="-1.19554">
        <ele>80</ele>
        <time>2025-08-02T08:53:45.000Z</time>
      </trkpt>
      <trkpt lat="47.37044" lon="-1.19553">
        <ele>79</ele>
        <time>2025-08-02T08:53:46.000Z</time>
      </trkpt>
      <trkpt lat="47.37044" lon="-1.19551">
        <ele>79</ele>
        <time>2025-08-02T08:53:47.000Z</time>
      </trkpt>
      <trkpt lat="47.37044" lon="-1.1955">
        <ele>78</ele>
        <time>2025-08-02T08:53:48.000Z</time>
      </trkpt>
      <trkpt lat="47.37044" lon="-1.19549">
        <ele>78</ele>
        <time>2025-08-02T08:53:49.000Z</time>
      </trkpt>
      <trkpt lat="47.37044" lon="-1.19547">
        <ele>78</ele>
        <time>2025-08-02T08:53:50.000Z</time>
      </trkpt>
      <trkpt lat="47.37045" lon="-1.19546">
        <ele>78</ele>
        <time>2025-08-02T08:53:51.000Z</time>
      </trkpt>
      <trkpt lat="47.37045" lon="-1.19545">
        <ele>77</ele>
        <time>2025-08-02T08:53:52.000Z</time>
      </trkpt>
      <trkpt lat="47.37045" lon="-1.19543">
        <ele>77</ele>
        <time>2025-08-02T08:53:53.000Z</time>
      </trkpt>
      <trkpt lat="47.37045" lon="-1.19542">
        <ele>77</ele>
        <time>2025-08-02T08:53:54.000Z</time>
      </trkpt>
      <trkpt lat="47.37045" lon="-1.19541">
        <ele>77</ele>
        <time>2025-08-02T08:53:55.000Z</time>
      </trkpt>
      <trkpt lat="47.37045" lon="-1.19539">
        <ele>77</ele>
        <time>2025-08-02T08:53:56.000Z</time>
      </trkpt>
      <trkpt lat="47.37045" lon="-1.19537">
        <ele>78</ele>
        <time>2025-08-02T08:53:57.000Z</time>
      </trkpt>
      <trkpt lat="47.37045" lon="-1.19535">
        <ele>78</ele>
        <time>2025-08-02T08:53:58.000Z</time>
      </trkpt>
      <trkpt lat="47.36845" lon="-1.18618">
        <ele>76</ele>
        <time>2025-08-02T09:07:14.965Z</time>
      </trkpt>
      <trkpt lat="47.36852" lon="-1.18607">
        <ele>47</ele>
        <time>2025-08-02T09:07:17.022Z</time>
      </trkpt>
      <trkpt lat="47.36849" lon="-1.18617">
        <ele>45</ele>
        <time>2025-08-02T09:07:21.000Z</time>
      </trkpt>
      <trkpt lat="47.36848" lon="-1.18614">
        <ele>46</ele>
        <time>2025-08-02T09:07:22.000Z</time>
      </trkpt>
      <trkpt lat="47.36848" lon="-1.18614">
        <ele>47</ele>
        <time>2025-08-02T09:07:23.000Z</time>
      </trkpt>
      <trkpt lat="47.36848" lon="-1.18614">
        <ele>47</ele>
        <time>2025-08-02T09:07:24.000Z</time>
      </trkpt>
      <trkpt lat="47.36848" lon="-1.18614">
        <ele>47</ele>
        <time>2025-08-02T09:07:25.000Z</time>
      </trkpt>
      <trkpt lat="47.36848" lon="-1.18614">
        <ele>47</ele>
        <time>2025-08-02T09:07:26.000Z</time>
      </trkpt>
      <trkpt lat="47.36848" lon="-1.18614">
        <ele>47</ele>
        <time>2025-08-02T09:07:27.000Z</time>
      </trkpt>
      <trkpt lat="47.36848" lon="-1.18614">
        <ele>47</ele>
        <time>2025-08-02T09:07:28.000Z</time>
      </trkpt>
      <trkpt lat="47.36848" lon="-1.18614">
        <ele>47</ele>
        <time>2025-08-02T09:07:29.000Z</time>
      </trkpt>
      <trkpt lat="47.36848" lon="-1.18614">
        <ele>47</ele>
        <time>2025-08-02T09:07:30.000Z</time>
      </trkpt>
      <trkpt lat="47.36848" lon="-1.18614">
        <ele>47</ele>
        <time>2025-08-02T09:07:31.000Z</time>
      </trkpt>
      <trkpt lat="47.36848" lon="-1.18614">
        <ele>47</ele>
        <time>2025-08-02T09:07:32.000Z</time>
      </trkpt>
      <trkpt lat="47.36848" lon="-1.18614">
        <ele>47</ele>
        <time>2025-08-02T09:07:33.000Z</time>
      </trkpt>
      <trkpt lat="47.36848" lon="-1.18614">
        <ele>47</ele>
        <time>2025-08-02T09:07:34.000Z</time>
      </trkpt>
      <trkpt lat="47.36848" lon="-1.18614">
        <ele>47</ele>
        <time>2025-08-02T09:07:35.000Z</time>
      </trkpt>
      <trkpt lat="47.36848" lon="-1.18614">
        <ele>47</ele>
        <time>2025-08-02T09:07:36.000Z</time>
      </trkpt>
      <trkpt lat="47.36848" lon="-1.18614">
        <ele>47</ele>
        <time>2025-08-02T09:07:37.000Z</time>
      </trkpt>
      <trkpt lat="47.36848" lon="-1.18614">
        <ele>47</ele>
        <time>2025-08-02T09:07:38.000Z</time>
      </trkpt>
      <trkpt lat="47.36848" lon="-1.18614">
        <ele>47</ele>
        <time>2025-08-02T09:07:39.000Z</time>
      </trkpt>
      <trkpt lat="47.36848" lon="-1.18614">
        <ele>47</ele>
        <time>2025-08-02T09:07:40.000Z</time>
      </trkpt>
      <trkpt lat="47.36848" lon="-1.18614">
        <ele>47</ele>
        <time>2025-08-02T09:07:41.000Z</time>
      </trkpt>
      <trkpt lat="47.36848" lon="-1.18614">
        <ele>47</ele>
        <time>2025-08-02T09:07:42.000Z</time>
      </trkpt>
      <trkpt lat="47.36848" lon="-1.18614">
        <ele>47</ele>
        <time>2025-08-02T09:07:43.000Z</time>
      </trkpt>
      <trkpt lat="47.36848" lon="-1.18614">
        <ele>47</ele>
        <time>2025-08-02T09:07:44.000Z</time>
      </trkpt>
      <trkpt lat="47.36848" lon="-1.18614">
        <ele>47</ele>
        <time>2025-08-02T09:07:45.000Z</time>
      </trkpt>
      <trkpt lat="47.36848" lon="-1.18614">
        <ele>47</ele>
        <time>2025-08-02T09:07:46.000Z</time>
      </trkpt>
      <trkpt lat="47.36848" lon="-1.18614">
        <ele>47</ele>
        <time>2025-08-02T09:07:47.000Z</time>
      </trkpt>
      <trkpt lat="47.36848" lon="-1.18614">
        <ele>47</ele>
        <time>2025-08-02T09:07:48.000Z</time>
      </trkpt>
      <trkpt lat="47.36848" lon="-1.18614">
        <ele>47</ele>
        <time>2025-08-02T09:07:49.000Z</time>
      </trkpt>
      <trkpt lat="47.36848" lon="-1.18614">
        <ele>47</ele>
        <time>2025-08-02T09:07:50.000Z</time>
      </trkpt>
      <trkpt lat="47.36848" lon="-1.18614">
        <ele>47</ele>
        <time>2025-08-02T09:07:51.000Z</time>
      </trkpt>
      <trkpt lat="47.36848" lon="-1.18614">
        <ele>47</ele>
        <time>2025-08-02T09:07:52.000Z</time>
      </trkpt>
      <trkpt lat="47.36848" lon="-1.18614">
        <ele>47</ele>
        <time>2025-08-02T09:07:53.000Z</time>
      </trkpt>
      <trkpt lat="47.36848" lon="-1.18614">
        <ele>47</ele>
        <time>2025-08-02T09:07:54.000Z</time>
      </trkpt>
      <trkpt lat="47.36848" lon="-1.18614">
        <ele>47</ele>
        <time>2025-08-02T09:07:55.000Z</time>
      </trkpt>
      <trkpt lat="47.36848" lon="-1.18614">
        <ele>47</ele>
        <time>2025-08-02T09:07:56.000Z</time>
      </trkpt>
      <trkpt lat="47.36848" lon="-1.18614">
        <ele>47</ele>
        <time>2025-08-02T09:07:57.000Z</time>
      </trkpt>
      <trkpt lat="47.36848" lon="-1.18614">
        <ele>47</ele>
        <time>2025-08-02T09:07:58.000Z</time>
      </trkpt>
      <trkpt lat="47.36848" lon="-1.18614">
        <ele>47</ele>
        <time>2025-08-02T09:07:59.000Z</time>
      </trkpt>
      <trkpt lat="47.36848" lon="-1.18614">
        <ele>47</ele>
        <time>2025-08-02T09:08:00.000Z</time>
      </trkpt>
      <trkpt lat="47.36848" lon="-1.18614">
        <ele>47</ele>
        <time>2025-08-02T09:08:01.000Z</time>
      </trkpt>
      <trkpt lat="47.36848" lon="-1.18614">
        <ele>47</ele>
        <time>2025-08-02T09:08:02.000Z</time>
      </trkpt>
      <trkpt lat="47.36848" lon="-1.18614">
        <ele>47</ele>
        <time>2025-08-02T09:08:03.000Z</time>
      </trkpt>
      <trkpt lat="47.36848" lon="-1.18614">
        <ele>47</ele>
        <time>2025-08-02T09:08:04.000Z</time>
      </trkpt>
      <trkpt lat="47.36848" lon="-1.18614">
        <ele>47</ele>
        <time>2025-08-02T09:08:05.000Z</time>
      </trkpt>
      <trkpt lat="47.36848" lon="-1.18614">
        <ele>47</ele>
        <time>2025-08-02T09:08:06.000Z</time>
      </trkpt>
      <trkpt lat="47.36848" lon="-1.18614">
        <ele>47</ele>
        <time>2025-08-02T09:08:07.000Z</time>
      </trkpt>
      <trkpt lat="47.36848" lon="-1.18614">
        <ele>47</ele>
        <time>2025-08-02T09:08:08.000Z</time>
      </trkpt>
      <trkpt lat="47.36848" lon="-1.18614">
        <ele>47</ele>
        <time>2025-08-02T09:08:09.000Z</time>
      </trkpt>
      <trkpt lat="47.36848" lon="-1.18614">
        <ele>47</ele>
        <time>2025-08-02T09:08:10.000Z</time>
      </trkpt>
      <trkpt lat="47.36848" lon="-1.18614">
        <ele>47</ele>
        <time>2025-08-02T09:08:11.000Z</time>
      </trkpt>
      <trkpt lat="47.36848" lon="-1.18614">
        <ele>47</ele>
        <time>2025-08-02T09:08:12.000Z</time>
      </trkpt>
      <trkpt lat="47.36848" lon="-1.18614">
        <ele>47</ele>
        <time>2025-08-02T09:08:13.000Z</time>
      </trkpt>
      <trkpt lat="47.36848" lon="-1.18614">
        <ele>47</ele>
        <time>2025-08-02T09:08:14.000Z</time>
      </trkpt>
      <trkpt lat="47.36848" lon="-1.18614">
        <ele>47</ele>
        <time>2025-08-02T09:08:15.000Z</time>
      </trkpt>
      <trkpt lat="47.36848" lon="-1.18614">
        <ele>47</ele>
        <time>2025-08-02T09:08:16.000Z</time>
      </trkpt>
      <trkpt lat="47.36848" lon="-1.18614">
        <ele>47</ele>
        <time>2025-08-02T09:08:17.000Z</time>
      </trkpt>
      <trkpt lat="47.36848" lon="-1.18614">
        <ele>47</ele>
        <time>2025-08-02T09:08:18.000Z</time>
      </trkpt>
      <trkpt lat="47.36848" lon="-1.18614">
        <ele>47</ele>
        <time>2025-08-02T09:08:19.000Z</time>
      </trkpt>
      <trkpt lat="47.36848" lon="-1.18614">
        <ele>47</ele>
        <time>2025-08-02T09:08:20.000Z</time>
      </trkpt>
      <trkpt lat="47.36848" lon="-1.18614">
        <ele>47</ele>
        <time>2025-08-02T09:08:21.000Z</time>
      </trkpt>
      <trkpt lat="47.36848" lon="-1.18614">
        <ele>47</ele>
        <time>2025-08-02T09:08:22.000Z</time>
      </trkpt>
      <trkpt lat="47.36848" lon="-1.18614">
        <ele>47</ele>
        <time>2025-08-02T09:08:23.000Z</time>
      </trkpt>
      <trkpt lat="47.36848" lon="-1.18614">
        <ele>47</ele>
        <time>2025-08-02T09:08:24.000Z</time>
      </trkpt>
      <trkpt lat="47.36848" lon="-1.18614">
        <ele>47</ele>
        <time>2025-08-02T09:08:25.000Z</time>
      </trkpt>
      <trkpt lat="47.36848" lon="-1.18614">
        <ele>47</ele>
        <time>2025-08-02T09:08:26.000Z</time>
      </trkpt>
      <trkpt lat="47.36848" lon="-1.18614">
        <ele>47</ele>
        <time>2025-08-02T09:08:27.000Z</time>
      </trkpt>
      <trkpt lat="47.36848" lon="-1.18614">
        <ele>47</ele>
        <time>2025-08-02T09:08:28.000Z</time>
      </trkpt>
      <trkpt lat="47.36848" lon="-1.18614">
        <ele>47</ele>
        <time>2025-08-02T09:08:29.000Z</time>
      </trkpt>
      <trkpt lat="47.36848" lon="-1.18614">
        <ele>47</ele>
        <time>2025-08-02T09:08:30.000Z</time>
      </trkpt>
      <trkpt lat="47.36848" lon="-1.18614">
        <ele>47</ele>
        <time>2025-08-02T09:08:31.000Z</time>
      </trkpt>
      <trkpt lat="47.36848" lon="-1.18614">
        <ele>47</ele>
        <time>2025-08-02T09:08:32.000Z</time>
      </trkpt>
      <trkpt lat="47.36848" lon="-1.18614">
        <ele>47</ele>
        <time>2025-08-02T09:08:33.000Z</time>
      </trkpt>
      <trkpt lat="47.36848" lon="-1.18614">
        <ele>47</ele>
        <time>2025-08-02T09:08:34.000Z</time>
      </trkpt>
      <trkpt lat="47.36848" lon="-1.18614">
        <ele>47</ele>
        <time>2025-08-02T09:08:35.000Z</time>
      </trkpt>
      <trkpt lat="47.36848" lon="-1.18614">
        <ele>47</ele>
        <time>2025-08-02T09:08:36.000Z</time>
      </trkpt>
      <trkpt lat="47.36848" lon="-1.18614">
        <ele>47</ele>
        <time>2025-08-02T09:08:37.000Z</time>
      </trkpt>
      <trkpt lat="47.36848" lon="-1.18614">
        <ele>47</ele>
        <time>2025-08-02T09:08:38.000Z</time>
      </trkpt>
      <trkpt lat="47.36848" lon="-1.18614">
        <ele>47</ele>
        <time>2025-08-02T09:08:39.000Z</time>
      </trkpt>
      <trkpt lat="47.36848" lon="-1.18614">
        <ele>47</ele>
        <time>2025-08-02T09:08:40.000Z</time>
      </trkpt>
      <trkpt lat="47.36848" lon="-1.18614">
        <ele>47</ele>
        <time>2025-08-02T09:08:41.000Z</time>
      </trkpt>
      <trkpt lat="47.36848" lon="-1.18614">
        <ele>47</ele>
        <time>2025-08-02T09:08:42.000Z</time>
      </trkpt>
      <trkpt lat="47.36848" lon="-1.18614">
        <ele>47</ele>
        <time>2025-08-02T09:08:43.000Z</time>
      </trkpt>
      <trkpt lat="47.36848" lon="-1.18614">
        <ele>47</ele>
        <time>2025-08-02T09:08:44.000Z</time>
      </trkpt>
      <trkpt lat="47.36848" lon="-1.18614">
        <ele>47</ele>
        <time>2025-08-02T09:08:45.000Z</time>
      </trkpt>
      <trkpt lat="47.36848" lon="-1.18614">
        <ele>47</ele>
        <time>2025-08-02T09:08:46.000Z</time>
      </trkpt>
      <trkpt lat="47.36848" lon="-1.18614">
        <ele>47</ele>
        <time>2025-08-02T09:08:47.000Z</time>
      </trkpt>
      <trkpt lat="47.36848" lon="-1.18614">
        <ele>47</ele>
        <time>2025-08-02T09:08:48.000Z</time>
      </trkpt>
      <trkpt lat="47.36848" lon="-1.18614">
        <ele>47</ele>
        <time>2025-08-02T09:08:49.000Z</time>
      </trkpt>
      <trkpt lat="47.36848" lon="-1.18614">
        <ele>47</ele>
        <time>2025-08-02T09:08:50.000Z</time>
      </trkpt>
      <trkpt lat="47.36848" lon="-1.18614">
        <ele>47</ele>
        <time>2025-08-02T09:08:51.000Z</time>
      </trkpt>
      <trkpt lat="47.36848" lon="-1.18614">
        <ele>47</ele>
        <time>2025-08-02T09:08:52.000Z</time>
      </trkpt>
      <trkpt lat="47.36848" lon="-1.18614">
        <ele>47</ele>
        <time>2025-08-02T09:08:53.000Z</time>
      </trkpt>
      <trkpt lat="47.36848" lon="-1.18614">
        <ele>47</ele>
        <time>2025-08-02T09:08:54.000Z</time>
      </trkpt>
      <trkpt lat="47.36848" lon="-1.18614">
        <ele>47</ele>
        <time>2025-08-02T09:08:55.000Z</time>
      </trkpt>
      <trkpt lat="47.36848" lon="-1.18614">
        <ele>47</ele>
        <time>2025-08-02T09:08:56.000Z</time>
      </trkpt>
      <trkpt lat="47.36848" lon="-1.18614">
        <ele>47</ele>
        <time>2025-08-02T09:08:57.000Z</time>
      </trkpt>
      <trkpt lat="47.36848" lon="-1.18614">
        <ele>47</ele>
        <time>2025-08-02T09:08:58.000Z</time>
      </trkpt>
      <trkpt lat="47.36848" lon="-1.18614">
        <ele>47</ele>
        <time>2025-08-02T09:08:59.000Z</time>
      </trkpt>
      <trkpt lat="47.36848" lon="-1.18614">
        <ele>47</ele>
        <time>2025-08-02T09:09:00.000Z</time>
      </trkpt>
      <trkpt lat="47.36848" lon="-1.18614">
        <ele>47</ele>
        <time>2025-08-02T09:09:01.000Z</time>
      </trkpt>
      <trkpt lat="47.36848" lon="-1.18614">
        <ele>47</ele>
        <time>2025-08-02T09:09:02.000Z</time>
      </trkpt>
      <trkpt lat="47.36848" lon="-1.18614">
        <ele>47</ele>
        <time>2025-08-02T09:09:03.000Z</time>
      </trkpt>
      <trkpt lat="47.36848" lon="-1.18614">
        <ele>47</ele>
        <time>2025-08-02T09:09:04.000Z</time>
      </trkpt>
      <trkpt lat="47.36848" lon="-1.18614">
        <ele>47</ele>
        <time>2025-08-02T09:09:05.000Z</time>
      </trkpt>
      <trkpt lat="47.36848" lon="-1.18614">
        <ele>47</ele>
        <time>2025-08-02T09:09:06.000Z</time>
      </trkpt>
      <trkpt lat="47.36848" lon="-1.18614">
        <ele>47</ele>
        <time>2025-08-02T09:09:07.000Z</time>
      </trkpt>
      <trkpt lat="47.36848" lon="-1.18614">
        <ele>47</ele>
        <time>2025-08-02T09:09:08.000Z</time>
      </trkpt>
      <trkpt lat="47.36848" lon="-1.18614">
        <ele>47</ele>
        <time>2025-08-02T09:09:09.000Z</time>
      </trkpt>
      <trkpt lat="47.36848" lon="-1.18614">
        <ele>47</ele>
        <time>2025-08-02T09:09:10.000Z</time>
      </trkpt>
      <trkpt lat="47.36848" lon="-1.18614">
        <ele>47</ele>
        <time>2025-08-02T09:09:11.000Z</time>
      </trkpt>
      <trkpt lat="47.36848" lon="-1.18614">
        <ele>47</ele>
        <time>2025-08-02T09:09:12.000Z</time>
      </trkpt>
      <trkpt lat="47.36848" lon="-1.18614">
        <ele>47</ele>
        <time>2025-08-02T09:09:13.000Z</time>
      </trkpt>
      <trkpt lat="47.36848" lon="-1.18614">
        <ele>47</ele>
        <time>2025-08-02T09:09:14.000Z</time>
      </trkpt>
      <trkpt lat="47.36848" lon="-1.18614">
        <ele>47</ele>
        <time>2025-08-02T09:09:15.000Z</time>
      </trkpt>
      <trkpt lat="47.36848" lon="-1.18614">
        <ele>47</ele>
        <time>2025-08-02T09:09:16.000Z</time>
      </trkpt>
      <trkpt lat="47.36848" lon="-1.18614">
        <ele>47</ele>
        <time>2025-08-02T09:09:17.000Z</time>
      </trkpt>
      <trkpt lat="47.36848" lon="-1.18614">
        <ele>47</ele>
        <time>2025-08-02T09:09:18.000Z</time>
      </trkpt>
      <trkpt lat="47.36848" lon="-1.18614">
        <ele>47</ele>
        <time>2025-08-02T09:09:19.000Z</time>
      </trkpt>
      <trkpt lat="47.36848" lon="-1.18614">
        <ele>47</ele>
        <time>2025-08-02T09:09:20.000Z</time>
      </trkpt>
      <trkpt lat="47.36848" lon="-1.18614">
        <ele>47</ele>
        <time>2025-08-02T09:09:21.000Z</time>
      </trkpt>
      <trkpt lat="47.36848" lon="-1.18614">
        <ele>47</ele>
        <time>2025-08-02T09:09:22.000Z</time>
      </trkpt>
      <trkpt lat="47.36849" lon="-1.18613">
        <ele>49</ele>
        <time>2025-08-02T09:09:23.000Z</time>
      </trkpt>
      <trkpt lat="47.36848" lon="-1.18613">
        <ele>49</ele>
        <time>2025-08-02T09:09:24.000Z</time>
      </trkpt>
      <trkpt lat="47.36848" lon="-1.18612">
        <ele>50</ele>
        <time>2025-08-02T09:09:25.000Z</time>
      </trkpt>
      <trkpt lat="47.36848" lon="-1.18612">
        <ele>50</ele>
        <time>2025-08-02T09:09:26.000Z</time>
      </trkpt>
      <trkpt lat="47.36848" lon="-1.18612">
        <ele>50</ele>
        <time>2025-08-02T09:09:27.000Z</time>
      </trkpt>
      <trkpt lat="47.36848" lon="-1.18612">
        <ele>50</ele>
        <time>2025-08-02T09:09:28.000Z</time>
      </trkpt>
      <trkpt lat="47.36848" lon="-1.18612">
        <ele>50</ele>
        <time>2025-08-02T09:09:29.000Z</time>
      </trkpt>
      <trkpt lat="47.36848" lon="-1.18612">
        <ele>50</ele>
        <time>2025-08-02T09:09:30.000Z</time>
      </trkpt>
      <trkpt lat="47.36848" lon="-1.18612">
        <ele>50</ele>
        <time>2025-08-02T09:09:31.000Z</time>
      </trkpt>
      <trkpt lat="47.36848" lon="-1.18612">
        <ele>50</ele>
        <time>2025-08-02T09:09:32.000Z</time>
      </trkpt>
      <trkpt lat="47.36848" lon="-1.18612">
        <ele>50</ele>
        <time>2025-08-02T09:09:33.000Z</time>
      </trkpt>
      <trkpt lat="47.36848" lon="-1.18612">
        <ele>50</ele>
        <time>2025-08-02T09:09:34.000Z</time>
      </trkpt>
      <trkpt lat="47.36848" lon="-1.18612">
        <ele>50</ele>
        <time>2025-08-02T09:09:35.000Z</time>
      </trkpt>
      <trkpt lat="47.36848" lon="-1.18612">
        <ele>50</ele>
        <time>2025-08-02T09:09:36.000Z</time>
      </trkpt>
      <trkpt lat="47.36848" lon="-1.18612">
        <ele>50</ele>
        <time>2025-08-02T09:09:37.000Z</time>
      </trkpt>
      <trkpt lat="47.36848" lon="-1.18612">
        <ele>50</ele>
        <time>2025-08-02T09:09:38.000Z</time>
      </trkpt>
      <trkpt lat="47.36848" lon="-1.18612">
        <ele>50</ele>
        <time>2025-08-02T09:09:39.000Z</time>
      </trkpt>
      <trkpt lat="47.36848" lon="-1.18612">
        <ele>50</ele>
        <time>2025-08-02T09:09:40.000Z</time>
      </trkpt>
      <trkpt lat="47.36848" lon="-1.18612">
        <ele>50</ele>
        <time>2025-08-02T09:09:41.000Z</time>
      </trkpt>
      <trkpt lat="47.36848" lon="-1.18612">
        <ele>50</ele>
        <time>2025-08-02T09:09:42.000Z</time>
      </trkpt>
      <trkpt lat="47.36848" lon="-1.18612">
        <ele>50</ele>
        <time>2025-08-02T09:09:43.000Z</time>
      </trkpt>
      <trkpt lat="47.36848" lon="-1.18612">
        <ele>50</ele>
        <time>2025-08-02T09:09:44.000Z</time>
      </trkpt>
      <trkpt lat="47.36848" lon="-1.18612">
        <ele>50</ele>
        <time>2025-08-02T09:09:45.000Z</time>
      </trkpt>
      <trkpt lat="47.36848" lon="-1.18612">
        <ele>50</ele>
        <time>2025-08-02T09:09:46.000Z</time>
      </trkpt>
      <trkpt lat="47.36848" lon="-1.18612">
        <ele>50</ele>
        <time>2025-08-02T09:09:47.000Z</time>
      </trkpt>
      <trkpt lat="47.36848" lon="-1.18612">
        <ele>50</ele>
        <time>2025-08-02T09:09:48.000Z</time>
      </trkpt>
      <trkpt lat="47.36848" lon="-1.18612">
        <ele>50</ele>
        <time>2025-08-02T09:09:49.000Z</time>
      </trkpt>
      <trkpt lat="47.36848" lon="-1.18612">
        <ele>50</ele>
        <time>2025-08-02T09:09:50.000Z</time>
      </trkpt>
      <trkpt lat="47.36848" lon="-1.18612">
        <ele>50</ele>
        <time>2025-08-02T09:09:51.000Z</time>
      </trkpt>
      <trkpt lat="47.36848" lon="-1.18612">
        <ele>50</ele>
        <time>2025-08-02T09:09:52.000Z</time>
      </trkpt>
      <trkpt lat="47.36848" lon="-1.18613">
        <ele>51</ele>
        <time>2025-08-02T09:09:53.000Z</time>
      </trkpt>
      <trkpt lat="47.36848" lon="-1.18613">
        <ele>51</ele>
        <time>2025-08-02T09:09:54.000Z</time>
      </trkpt>
      <trkpt lat="47.36847" lon="-1.18612">
        <ele>51</ele>
        <time>2025-08-02T09:09:55.000Z</time>
      </trkpt>
      <trkpt lat="47.36847" lon="-1.18612">
        <ele>51</ele>
        <time>2025-08-02T09:09:56.000Z</time>
      </trkpt>
      <trkpt lat="47.36846" lon="-1.18612">
        <ele>52</ele>
        <time>2025-08-02T09:09:57.000Z</time>
      </trkpt>
      <trkpt lat="47.36845" lon="-1.18611">
        <ele>52</ele>
        <time>2025-08-02T09:09:58.000Z</time>
      </trkpt>
      <trkpt lat="47.36845" lon="-1.1861">
        <ele>53</ele>
        <time>2025-08-02T09:09:59.000Z</time>
      </trkpt>
      <trkpt lat="47.36844" lon="-1.1861">
        <ele>54</ele>
        <time>2025-08-02T09:10:00.000Z</time>
      </trkpt>
      <trkpt lat="47.36843" lon="-1.1861">
        <ele>54</ele>
        <time>2025-08-02T09:10:01.000Z</time>
      </trkpt>
      <trkpt lat="47.36841" lon="-1.18609">
        <ele>54</ele>
        <time>2025-08-02T09:10:03.000Z</time>
      </trkpt>
      <trkpt lat="47.3684" lon="-1.18609">
        <ele>54</ele>
        <time>2025-08-02T09:10:04.000Z</time>
      </trkpt>
      <trkpt lat="47.36839" lon="-1.18608">
        <ele>54</ele>
        <time>2025-08-02T09:10:05.000Z</time>
      </trkpt>
      <trkpt lat="47.36838" lon="-1.18607">
        <ele>54</ele>
        <time>2025-08-02T09:10:06.000Z</time>
      </trkpt>
      <trkpt lat="47.36837" lon="-1.18607">
        <ele>54</ele>
        <time>2025-08-02T09:10:07.000Z</time>
      </trkpt>
      <trkpt lat="47.36836" lon="-1.18607">
        <ele>54</ele>
        <time>2025-08-02T09:10:08.000Z</time>
      </trkpt>
      <trkpt lat="47.36835" lon="-1.18606">
        <ele>55</ele>
        <time>2025-08-02T09:10:09.000Z</time>
      </trkpt>
      <trkpt lat="47.36834" lon="-1.18605">
        <ele>55</ele>
        <time>2025-08-02T09:10:10.000Z</time>
      </trkpt>
      <trkpt lat="47.36834" lon="-1.18605">
        <ele>55</ele>
        <time>2025-08-02T09:10:11.000Z</time>
      </trkpt>
      <trkpt lat="47.36833" lon="-1.18604">
        <ele>55</ele>
        <time>2025-08-02T09:10:12.000Z</time>
      </trkpt>
      <trkpt lat="47.36832" lon="-1.18604">
        <ele>55</ele>
        <time>2025-08-02T09:10:13.000Z</time>
      </trkpt>
      <trkpt lat="47.36831" lon="-1.18604">
        <ele>55</ele>
        <time>2025-08-02T09:10:14.000Z</time>
      </trkpt>
      <trkpt lat="47.3683" lon="-1.18603">
        <ele>55</ele>
        <time>2025-08-02T09:10:15.000Z</time>
      </trkpt>
      <trkpt lat="47.36829" lon="-1.18603">
        <ele>56</ele>
        <time>2025-08-02T09:10:16.000Z</time>
      </trkpt>
      <trkpt lat="47.36828" lon="-1.18603">
        <ele>56</ele>
        <time>2025-08-02T09:10:17.000Z</time>
      </trkpt>
      <trkpt lat="47.36827" lon="-1.18603">
        <ele>57</ele>
        <time>2025-08-02T09:10:18.000Z</time>
      </trkpt>
      <trkpt lat="47.36826" lon="-1.18602">
        <ele>56</ele>
        <time>2025-08-02T09:10:19.000Z</time>
      </trkpt>
      <trkpt lat="47.36824" lon="-1.18602">
        <ele>55</ele>
        <time>2025-08-02T09:10:20.000Z</time>
      </trkpt>
      <trkpt lat="47.36822" lon="-1.18602">
        <ele>55</ele>
        <time>2025-08-02T09:10:21.000Z</time>
      </trkpt>
      <trkpt lat="47.36821" lon="-1.18601">
        <ele>55</ele>
        <time>2025-08-02T09:10:22.000Z</time>
      </trkpt>
      <trkpt lat="47.3682" lon="-1.18601">
        <ele>55</ele>
        <time>2025-08-02T09:10:23.000Z</time>
      </trkpt>
      <trkpt lat="47.3682" lon="-1.186">
        <ele>55</ele>
        <time>2025-08-02T09:10:24.000Z</time>
      </trkpt>
      <trkpt lat="47.3682" lon="-1.186">
        <ele>55</ele>
        <time>2025-08-02T09:10:25.000Z</time>
      </trkpt>
      <trkpt lat="47.3682" lon="-1.186">
        <ele>55</ele>
        <time>2025-08-02T09:10:26.000Z</time>
      </trkpt>
      <trkpt lat="47.36818" lon="-1.18599">
        <ele>55</ele>
        <time>2025-08-02T09:10:27.000Z</time>
      </trkpt>
      <trkpt lat="47.36816" lon="-1.18598">
        <ele>55</ele>
        <time>2025-08-02T09:10:28.000Z</time>
      </trkpt>
      <trkpt lat="47.36815" lon="-1.18597">
        <ele>54</ele>
        <time>2025-08-02T09:10:29.000Z</time>
      </trkpt>
      <trkpt lat="47.36814" lon="-1.18596">
        <ele>54</ele>
        <time>2025-08-02T09:10:30.000Z</time>
      </trkpt>
      <trkpt lat="47.36813" lon="-1.18595">
        <ele>54</ele>
        <time>2025-08-02T09:10:31.000Z</time>
      </trkpt>
      <trkpt lat="47.36812" lon="-1.18595">
        <ele>54</ele>
        <time>2025-08-02T09:10:32.000Z</time>
      </trkpt>
      <trkpt lat="47.3681" lon="-1.18596">
        <ele>54</ele>
        <time>2025-08-02T09:10:33.000Z</time>
      </trkpt>
      <trkpt lat="47.36808" lon="-1.18597">
        <ele>54</ele>
        <time>2025-08-02T09:10:34.000Z</time>
      </trkpt>
      <trkpt lat="47.36807" lon="-1.18597">
        <ele>53</ele>
        <time>2025-08-02T09:10:35.000Z</time>
      </trkpt>
      <trkpt lat="47.36806" lon="-1.18597">
        <ele>53</ele>
        <time>2025-08-02T09:10:36.000Z</time>
      </trkpt>
      <trkpt lat="47.36805" lon="-1.18598">
        <ele>52</ele>
        <time>2025-08-02T09:10:37.000Z</time>
      </trkpt>
      <trkpt lat="47.36805" lon="-1.18598">
        <ele>52</ele>
        <time>2025-08-02T09:10:38.000Z</time>
      </trkpt>
      <trkpt lat="47.36804" lon="-1.18599">
        <ele>52</ele>
        <time>2025-08-02T09:10:39.000Z</time>
      </trkpt>
      <trkpt lat="47.36803" lon="-1.18598">
        <ele>53</ele>
        <time>2025-08-02T09:10:40.000Z</time>
      </trkpt>
      <trkpt lat="47.36802" lon="-1.18597">
        <ele>53</ele>
        <time>2025-08-02T09:10:41.000Z</time>
      </trkpt>
      <trkpt lat="47.368" lon="-1.18596">
        <ele>52</ele>
        <time>2025-08-02T09:10:42.000Z</time>
      </trkpt>
      <trkpt lat="47.36799" lon="-1.18596">
        <ele>52</ele>
        <time>2025-08-02T09:10:43.000Z</time>
      </trkpt>
      <trkpt lat="47.36797" lon="-1.18595">
        <ele>52</ele>
        <time>2025-08-02T09:10:44.000Z</time>
      </trkpt>
      <trkpt lat="47.36796" lon="-1.18596">
        <ele>52</ele>
        <time>2025-08-02T09:10:45.000Z</time>
      </trkpt>
      <trkpt lat="47.36795" lon="-1.18596">
        <ele>52</ele>
        <time>2025-08-02T09:10:46.000Z</time>
      </trkpt>
      <trkpt lat="47.36794" lon="-1.18596">
        <ele>52</ele>
        <time>2025-08-02T09:10:47.000Z</time>
      </trkpt>
      <trkpt lat="47.36792" lon="-1.18596">
        <ele>52</ele>
        <time>2025-08-02T09:10:48.000Z</time>
      </trkpt>
      <trkpt lat="47.3679" lon="-1.18597">
        <ele>52</ele>
        <time>2025-08-02T09:10:49.000Z</time>
      </trkpt>
      <trkpt lat="47.36789" lon="-1.18598">
        <ele>52</ele>
        <time>2025-08-02T09:10:50.000Z</time>
      </trkpt>
      <trkpt lat="47.36787" lon="-1.18599">
        <ele>52</ele>
        <time>2025-08-02T09:10:51.000Z</time>
      </trkpt>
      <trkpt lat="47.36786" lon="-1.18599">
        <ele>52</ele>
        <time>2025-08-02T09:10:52.000Z</time>
      </trkpt>
      <trkpt lat="47.36785" lon="-1.18599">
        <ele>53</ele>
        <time>2025-08-02T09:10:53.000Z</time>
      </trkpt>
      <trkpt lat="47.36784" lon="-1.18599">
        <ele>52</ele>
        <time>2025-08-02T09:10:54.000Z</time>
      </trkpt>
      <trkpt lat="47.36783" lon="-1.186">
        <ele>53</ele>
        <time>2025-08-02T09:10:55.000Z</time>
      </trkpt>
      <trkpt lat="47.36782" lon="-1.18601">
        <ele>52</ele>
        <time>2025-08-02T09:10:56.000Z</time>
      </trkpt>
      <trkpt lat="47.36781" lon="-1.18602">
        <ele>52</ele>
        <time>2025-08-02T09:10:57.000Z</time>
      </trkpt>
      <trkpt lat="47.3678" lon="-1.18603">
        <ele>53</ele>
        <time>2025-08-02T09:10:58.000Z</time>
      </trkpt>
      <trkpt lat="47.36779" lon="-1.18604">
        <ele>52</ele>
        <time>2025-08-02T09:10:59.000Z</time>
      </trkpt>
      <trkpt lat="47.36778" lon="-1.18605">
        <ele>53</ele>
        <time>2025-08-02T09:11:00.000Z</time>
      </trkpt>
      <trkpt lat="47.36777" lon="-1.18606">
        <ele>53</ele>
        <time>2025-08-02T09:11:01.000Z</time>
      </trkpt>
      <trkpt lat="47.36776" lon="-1.18607">
        <ele>53</ele>
        <time>2025-08-02T09:11:02.000Z</time>
      </trkpt>
      <trkpt lat="47.36775" lon="-1.18608">
        <ele>53</ele>
        <time>2025-08-02T09:11:03.000Z</time>
      </trkpt>
      <trkpt lat="47.36774" lon="-1.18609">
        <ele>53</ele>
        <time>2025-08-02T09:11:04.000Z</time>
      </trkpt>
      <trkpt lat="47.36773" lon="-1.1861">
        <ele>53</ele>
        <time>2025-08-02T09:11:05.000Z</time>
      </trkpt>
      <trkpt lat="47.36773" lon="-1.18611">
        <ele>53</ele>
        <time>2025-08-02T09:11:06.000Z</time>
      </trkpt>
      <trkpt lat="47.36772" lon="-1.18612">
        <ele>54</ele>
        <time>2025-08-02T09:11:07.000Z</time>
      </trkpt>
      <trkpt lat="47.36771" lon="-1.18612">
        <ele>53</ele>
        <time>2025-08-02T09:11:08.000Z</time>
      </trkpt>
      <trkpt lat="47.3677" lon="-1.18612">
        <ele>54</ele>
        <time>2025-08-02T09:11:09.000Z</time>
      </trkpt>
      <trkpt lat="47.36769" lon="-1.18612">
        <ele>54</ele>
        <time>2025-08-02T09:11:10.000Z</time>
      </trkpt>
      <trkpt lat="47.36768" lon="-1.18612">
        <ele>53</ele>
        <time>2025-08-02T09:11:11.000Z</time>
      </trkpt>
      <trkpt lat="47.36766" lon="-1.18613">
        <ele>54</ele>
        <time>2025-08-02T09:11:12.000Z</time>
      </trkpt>
      <trkpt lat="47.36765" lon="-1.18613">
        <ele>53</ele>
        <time>2025-08-02T09:11:13.000Z</time>
      </trkpt>
      <trkpt lat="47.36765" lon="-1.18613">
        <ele>54</ele>
        <time>2025-08-02T09:11:14.000Z</time>
      </trkpt>
      <trkpt lat="47.36764" lon="-1.18613">
        <ele>55</ele>
        <time>2025-08-02T09:11:15.000Z</time>
      </trkpt>
      <trkpt lat="47.36763" lon="-1.18613">
        <ele>56</ele>
        <time>2025-08-02T09:11:16.000Z</time>
      </trkpt>
      <trkpt lat="47.36762" lon="-1.18613">
        <ele>56</ele>
        <time>2025-08-02T09:11:17.000Z</time>
      </trkpt>
      <trkpt lat="47.36761" lon="-1.18614">
        <ele>56</ele>
        <time>2025-08-02T09:11:18.000Z</time>
      </trkpt>
      <trkpt lat="47.36759" lon="-1.18614">
        <ele>57</ele>
        <time>2025-08-02T09:11:19.000Z</time>
      </trkpt>
      <trkpt lat="47.36758" lon="-1.18614">
        <ele>56</ele>
        <time>2025-08-02T09:11:20.000Z</time>
      </trkpt>
      <trkpt lat="47.36757" lon="-1.18614">
        <ele>56</ele>
        <time>2025-08-02T09:11:21.000Z</time>
      </trkpt>
      <trkpt lat="47.36755" lon="-1.18614">
        <ele>55</ele>
        <time>2025-08-02T09:11:22.000Z</time>
      </trkpt>
      <trkpt lat="47.36754" lon="-1.18614">
        <ele>54</ele>
        <time>2025-08-02T09:11:23.000Z</time>
      </trkpt>
      <trkpt lat="47.36752" lon="-1.18614">
        <ele>54</ele>
        <time>2025-08-02T09:11:24.000Z</time>
      </trkpt>
      <trkpt lat="47.36751" lon="-1.18614">
        <ele>54</ele>
        <time>2025-08-02T09:11:25.000Z</time>
      </trkpt>
      <trkpt lat="47.3675" lon="-1.18614">
        <ele>53</ele>
        <time>2025-08-02T09:11:26.000Z</time>
      </trkpt>
      <trkpt lat="47.36749" lon="-1.18613">
        <ele>53</ele>
        <time>2025-08-02T09:11:27.000Z</time>
      </trkpt>
      <trkpt lat="47.36748" lon="-1.18613">
        <ele>53</ele>
        <time>2025-08-02T09:11:28.000Z</time>
      </trkpt>
      <trkpt lat="47.36747" lon="-1.18613">
        <ele>53</ele>
        <time>2025-08-02T09:11:29.000Z</time>
      </trkpt>
      <trkpt lat="47.36745" lon="-1.18613">
        <ele>53</ele>
        <time>2025-08-02T09:11:30.000Z</time>
      </trkpt>
      <trkpt lat="47.36745" lon="-1.18613">
        <ele>53</ele>
        <time>2025-08-02T09:11:31.000Z</time>
      </trkpt>
      <trkpt lat="47.36744" lon="-1.18613">
        <ele>54</ele>
        <time>2025-08-02T09:11:32.000Z</time>
      </trkpt>
      <trkpt lat="47.36743" lon="-1.18612">
        <ele>53</ele>
        <time>2025-08-02T09:11:33.000Z</time>
      </trkpt>
      <trkpt lat="47.36742" lon="-1.18612">
        <ele>53</ele>
        <time>2025-08-02T09:11:34.000Z</time>
      </trkpt>
      <trkpt lat="47.36741" lon="-1.18611">
        <ele>53</ele>
        <time>2025-08-02T09:11:35.000Z</time>
      </trkpt>
      <trkpt lat="47.36739" lon="-1.18612">
        <ele>53</ele>
        <time>2025-08-02T09:11:36.000Z</time>
      </trkpt>
      <trkpt lat="47.36738" lon="-1.18612">
        <ele>54</ele>
        <time>2025-08-02T09:11:37.000Z</time>
      </trkpt>
      <trkpt lat="47.36737" lon="-1.18612">
        <ele>54</ele>
        <time>2025-08-02T09:11:38.000Z</time>
      </trkpt>
      <trkpt lat="47.36736" lon="-1.18613">
        <ele>54</ele>
        <time>2025-08-02T09:11:39.000Z</time>
      </trkpt>
      <trkpt lat="47.36736" lon="-1.18614">
        <ele>54</ele>
        <time>2025-08-02T09:11:40.000Z</time>
      </trkpt>
      <trkpt lat="47.36734" lon="-1.18614">
        <ele>54</ele>
        <time>2025-08-02T09:11:41.000Z</time>
      </trkpt>
      <trkpt lat="47.36733" lon="-1.18615">
        <ele>54</ele>
        <time>2025-08-02T09:11:42.000Z</time>
      </trkpt>
      <trkpt lat="47.36732" lon="-1.18615">
        <ele>54</ele>
        <time>2025-08-02T09:11:43.000Z</time>
      </trkpt>
      <trkpt lat="47.36731" lon="-1.18615">
        <ele>54</ele>
        <time>2025-08-02T09:11:44.000Z</time>
      </trkpt>
      <trkpt lat="47.3673" lon="-1.18616">
        <ele>54</ele>
        <time>2025-08-02T09:11:45.000Z</time>
      </trkpt>
      <trkpt lat="47.36728" lon="-1.18616">
        <ele>54</ele>
        <time>2025-08-02T09:11:46.000Z</time>
      </trkpt>
      <trkpt lat="47.36728" lon="-1.18617">
        <ele>54</ele>
        <time>2025-08-02T09:11:47.000Z</time>
      </trkpt>
      <trkpt lat="47.36727" lon="-1.18617">
        <ele>54</ele>
        <time>2025-08-02T09:11:48.000Z</time>
      </trkpt>
      <trkpt lat="47.36726" lon="-1.18617">
        <ele>53</ele>
        <time>2025-08-02T09:11:49.000Z</time>
      </trkpt>
      <trkpt lat="47.36725" lon="-1.18618">
        <ele>54</ele>
        <time>2025-08-02T09:11:50.000Z</time>
      </trkpt>
      <trkpt lat="47.36724" lon="-1.18618">
        <ele>54</ele>
        <time>2025-08-02T09:11:51.000Z</time>
      </trkpt>
      <trkpt lat="47.36723" lon="-1.18618">
        <ele>55</ele>
        <time>2025-08-02T09:11:52.000Z</time>
      </trkpt>
      <trkpt lat="47.36722" lon="-1.18619">
        <ele>55</ele>
        <time>2025-08-02T09:11:53.000Z</time>
      </trkpt>
      <trkpt lat="47.3672" lon="-1.1862">
        <ele>55</ele>
        <time>2025-08-02T09:11:54.000Z</time>
      </trkpt>
      <trkpt lat="47.36719" lon="-1.1862">
        <ele>54</ele>
        <time>2025-08-02T09:11:55.000Z</time>
      </trkpt>
      <trkpt lat="47.36718" lon="-1.18619">
        <ele>54</ele>
        <time>2025-08-02T09:11:56.000Z</time>
      </trkpt>
      <trkpt lat="47.36717" lon="-1.1862">
        <ele>55</ele>
        <time>2025-08-02T09:11:57.000Z</time>
      </trkpt>
      <trkpt lat="47.36716" lon="-1.1862">
        <ele>55</ele>
        <time>2025-08-02T09:11:58.000Z</time>
      </trkpt>
      <trkpt lat="47.36716" lon="-1.1862">
        <ele>54</ele>
        <time>2025-08-02T09:11:59.000Z</time>
      </trkpt>
      <trkpt lat="47.36715" lon="-1.1862">
        <ele>54</ele>
        <time>2025-08-02T09:12:00.000Z</time>
      </trkpt>
      <trkpt lat="47.36714" lon="-1.18621">
        <ele>55</ele>
        <time>2025-08-02T09:12:01.000Z</time>
      </trkpt>
      <trkpt lat="47.36714" lon="-1.18622">
        <ele>55</ele>
        <time>2025-08-02T09:12:02.000Z</time>
      </trkpt>
      <trkpt lat="47.36713" lon="-1.18622">
        <ele>55</ele>
        <time>2025-08-02T09:12:03.000Z</time>
      </trkpt>
      <trkpt lat="47.36712" lon="-1.18622">
        <ele>55</ele>
        <time>2025-08-02T09:12:04.000Z</time>
      </trkpt>
      <trkpt lat="47.36711" lon="-1.18623">
        <ele>55</ele>
        <time>2025-08-02T09:12:05.000Z</time>
      </trkpt>
      <trkpt lat="47.36711" lon="-1.18624">
        <ele>55</ele>
        <time>2025-08-02T09:12:06.000Z</time>
      </trkpt>
      <trkpt lat="47.36711" lon="-1.18625">
        <ele>55</ele>
        <time>2025-08-02T09:12:07.000Z</time>
      </trkpt>
      <trkpt lat="47.36711" lon="-1.18625">
        <ele>55</ele>
        <time>2025-08-02T09:12:08.000Z</time>
      </trkpt>
      <trkpt lat="47.36712" lon="-1.18625">
        <ele>55</ele>
        <time>2025-08-02T09:12:09.000Z</time>
      </trkpt>
      <trkpt lat="47.36713" lon="-1.18625">
        <ele>55</ele>
        <time>2025-08-02T09:12:10.000Z</time>
      </trkpt>
      <trkpt lat="47.36714" lon="-1.18625">
        <ele>55</ele>
        <time>2025-08-02T09:12:11.000Z</time>
      </trkpt>
      <trkpt lat="47.36715" lon="-1.18625">
        <ele>55</ele>
        <time>2025-08-02T09:12:12.000Z</time>
      </trkpt>
      <trkpt lat="47.36715" lon="-1.18625">
        <ele>56</ele>
        <time>2025-08-02T09:12:13.000Z</time>
      </trkpt>
      <trkpt lat="47.36716" lon="-1.18625">
        <ele>56</ele>
        <time>2025-08-02T09:12:14.000Z</time>
      </trkpt>
      <trkpt lat="47.36716" lon="-1.18627">
        <ele>56</ele>
        <time>2025-08-02T09:12:15.000Z</time>
      </trkpt>
      <trkpt lat="47.36717" lon="-1.18629">
        <ele>56</ele>
        <time>2025-08-02T09:12:16.000Z</time>
      </trkpt>
      <trkpt lat="47.36717" lon="-1.1863">
        <ele>56</ele>
        <time>2025-08-02T09:12:17.000Z</time>
      </trkpt>
      <trkpt lat="47.36718" lon="-1.18632">
        <ele>56</ele>
        <time>2025-08-02T09:12:18.000Z</time>
      </trkpt>
      <trkpt lat="47.36718" lon="-1.18633">
        <ele>56</ele>
        <time>2025-08-02T09:12:19.000Z</time>
      </trkpt>
      <trkpt lat="47.36718" lon="-1.18635">
        <ele>57</ele>
        <time>2025-08-02T09:12:20.000Z</time>
      </trkpt>
      <trkpt lat="47.36718" lon="-1.18636">
        <ele>56</ele>
        <time>2025-08-02T09:12:21.000Z</time>
      </trkpt>
      <trkpt lat="47.36718" lon="-1.18637">
        <ele>56</ele>
        <time>2025-08-02T09:12:22.000Z</time>
      </trkpt>
      <trkpt lat="47.36718" lon="-1.18639">
        <ele>56</ele>
        <time>2025-08-02T09:12:23.000Z</time>
      </trkpt>
      <trkpt lat="47.36718" lon="-1.1864">
        <ele>56</ele>
        <time>2025-08-02T09:12:24.000Z</time>
      </trkpt>
      <trkpt lat="47.36718" lon="-1.18642">
        <ele>56</ele>
        <time>2025-08-02T09:12:25.000Z</time>
      </trkpt>
      <trkpt lat="47.36718" lon="-1.18644">
        <ele>55</ele>
        <time>2025-08-02T09:12:26.000Z</time>
      </trkpt>
      <trkpt lat="47.36717" lon="-1.18645">
        <ele>55</ele>
        <time>2025-08-02T09:12:27.000Z</time>
      </trkpt>
      <trkpt lat="47.36717" lon="-1.18647">
        <ele>55</ele>
        <time>2025-08-02T09:12:28.000Z</time>
      </trkpt>
      <trkpt lat="47.36717" lon="-1.18648">
        <ele>54</ele>
        <time>2025-08-02T09:12:29.000Z</time>
      </trkpt>
      <trkpt lat="47.36717" lon="-1.1865">
        <ele>54</ele>
        <time>2025-08-02T09:12:30.000Z</time>
      </trkpt>
      <trkpt lat="47.36716" lon="-1.18652">
        <ele>54</ele>
        <time>2025-08-02T09:12:31.000Z</time>
      </trkpt>
      <trkpt lat="47.36716" lon="-1.18654">
        <ele>54</ele>
        <time>2025-08-02T09:12:32.000Z</time>
      </trkpt>
      <trkpt lat="47.36716" lon="-1.18654">
        <ele>54</ele>
        <time>2025-08-02T09:12:33.000Z</time>
      </trkpt>
      <trkpt lat="47.36715" lon="-1.18655">
        <ele>53</ele>
        <time>2025-08-02T09:12:34.000Z</time>
      </trkpt>
      <trkpt lat="47.36715" lon="-1.18656">
        <ele>54</ele>
        <time>2025-08-02T09:12:35.000Z</time>
      </trkpt>
      <trkpt lat="47.36715" lon="-1.18658">
        <ele>54</ele>
        <time>2025-08-02T09:12:36.000Z</time>
      </trkpt>
      <trkpt lat="47.36715" lon="-1.1866">
        <ele>54</ele>
        <time>2025-08-02T09:12:37.000Z</time>
      </trkpt>
      <trkpt lat="47.36714" lon="-1.18661">
        <ele>55</ele>
        <time>2025-08-02T09:12:38.000Z</time>
      </trkpt>
      <trkpt lat="47.36713" lon="-1.18663">
        <ele>55</ele>
        <time>2025-08-02T09:12:39.000Z</time>
      </trkpt>
      <trkpt lat="47.36713" lon="-1.18664">
        <ele>55</ele>
        <time>2025-08-02T09:12:40.000Z</time>
      </trkpt>
      <trkpt lat="47.36712" lon="-1.18665">
        <ele>55</ele>
        <time>2025-08-02T09:12:41.000Z</time>
      </trkpt>
      <trkpt lat="47.36711" lon="-1.18666">
        <ele>55</ele>
        <time>2025-08-02T09:12:42.000Z</time>
      </trkpt>
      <trkpt lat="47.3671" lon="-1.18666">
        <ele>56</ele>
        <time>2025-08-02T09:12:43.000Z</time>
      </trkpt>
      <trkpt lat="47.36709" lon="-1.18667">
        <ele>55</ele>
        <time>2025-08-02T09:12:44.000Z</time>
      </trkpt>
      <trkpt lat="47.36708" lon="-1.18668">
        <ele>56</ele>
        <time>2025-08-02T09:12:45.000Z</time>
      </trkpt>
      <trkpt lat="47.36707" lon="-1.18669">
        <ele>56</ele>
        <time>2025-08-02T09:12:46.000Z</time>
      </trkpt>
      <trkpt lat="47.36707" lon="-1.1867">
        <ele>56</ele>
        <time>2025-08-02T09:12:47.000Z</time>
      </trkpt>
      <trkpt lat="47.36706" lon="-1.18671">
        <ele>56</ele>
        <time>2025-08-02T09:12:48.000Z</time>
      </trkpt>
      <trkpt lat="47.36706" lon="-1.18673">
        <ele>56</ele>
        <time>2025-08-02T09:12:49.000Z</time>
      </trkpt>
      <trkpt lat="47.36705" lon="-1.18674">
        <ele>56</ele>
        <time>2025-08-02T09:12:50.000Z</time>
      </trkpt>
      <trkpt lat="47.36705" lon="-1.18675">
        <ele>56</ele>
        <time>2025-08-02T09:12:51.000Z</time>
      </trkpt>
      <trkpt lat="47.36705" lon="-1.18676">
        <ele>56</ele>
        <time>2025-08-02T09:12:52.000Z</time>
      </trkpt>
      <trkpt lat="47.36704" lon="-1.18677">
        <ele>56</ele>
        <time>2025-08-02T09:12:53.000Z</time>
      </trkpt>
      <trkpt lat="47.36704" lon="-1.18678">
        <ele>57</ele>
        <time>2025-08-02T09:12:54.000Z</time>
      </trkpt>
      <trkpt lat="47.36704" lon="-1.18679">
        <ele>57</ele>
        <time>2025-08-02T09:12:55.000Z</time>
      </trkpt>
      <trkpt lat="47.36703" lon="-1.1868">
        <ele>57</ele>
        <time>2025-08-02T09:12:56.000Z</time>
      </trkpt>
      <trkpt lat="47.36703" lon="-1.18681">
        <ele>57</ele>
        <time>2025-08-02T09:12:57.000Z</time>
      </trkpt>
      <trkpt lat="47.36703" lon="-1.18681">
        <ele>57</ele>
        <time>2025-08-02T09:12:58.000Z</time>
      </trkpt>
      <trkpt lat="47.36704" lon="-1.1868">
        <ele>56</ele>
        <time>2025-08-02T09:12:59.000Z</time>
      </trkpt>
      <trkpt lat="47.36704" lon="-1.1868">
        <ele>56</ele>
        <time>2025-08-02T09:13:00.000Z</time>
      </trkpt>
      <trkpt lat="47.36704" lon="-1.18679">
        <ele>56</ele>
        <time>2025-08-02T09:13:01.000Z</time>
      </trkpt>
      <trkpt lat="47.36704" lon="-1.18677">
        <ele>56</ele>
        <time>2025-08-02T09:13:02.000Z</time>
      </trkpt>
      <trkpt lat="47.36705" lon="-1.18676">
        <ele>56</ele>
        <time>2025-08-02T09:13:03.000Z</time>
      </trkpt>
      <trkpt lat="47.36706" lon="-1.18674">
        <ele>56</ele>
        <time>2025-08-02T09:13:04.000Z</time>
      </trkpt>
      <trkpt lat="47.36707" lon="-1.18674">
        <ele>56</ele>
        <time>2025-08-02T09:13:05.000Z</time>
      </trkpt>
      <trkpt lat="47.36707" lon="-1.18675">
        <ele>56</ele>
        <time>2025-08-02T09:13:06.000Z</time>
      </trkpt>
      <trkpt lat="47.36708" lon="-1.18675">
        <ele>56</ele>
        <time>2025-08-02T09:13:07.000Z</time>
      </trkpt>
      <trkpt lat="47.36708" lon="-1.18676">
        <ele>56</ele>
        <time>2025-08-02T09:13:08.000Z</time>
      </trkpt>
      <trkpt lat="47.36708" lon="-1.18676">
        <ele>56</ele>
        <time>2025-08-02T09:13:09.000Z</time>
      </trkpt>
      <trkpt lat="47.36708" lon="-1.18676">
        <ele>56</ele>
        <time>2025-08-02T09:13:10.000Z</time>
      </trkpt>
      <trkpt lat="47.36708" lon="-1.18676">
        <ele>56</ele>
        <time>2025-08-02T09:13:11.000Z</time>
      </trkpt>
      <trkpt lat="47.36708" lon="-1.18676">
        <ele>56</ele>
        <time>2025-08-02T09:13:12.000Z</time>
      </trkpt>
      <trkpt lat="47.36708" lon="-1.18676">
        <ele>56</ele>
        <time>2025-08-02T09:13:13.000Z</time>
      </trkpt>
      <trkpt lat="47.36708" lon="-1.18676">
        <ele>56</ele>
        <time>2025-08-02T09:13:14.000Z</time>
      </trkpt>
      <trkpt lat="47.36708" lon="-1.18676">
        <ele>56</ele>
        <time>2025-08-02T09:13:15.000Z</time>
      </trkpt>
      <trkpt lat="47.36708" lon="-1.18676">
        <ele>56</ele>
        <time>2025-08-02T09:13:16.000Z</time>
      </trkpt>
      <trkpt lat="47.36708" lon="-1.18676">
        <ele>56</ele>
        <time>2025-08-02T09:13:17.000Z</time>
      </trkpt>
      <trkpt lat="47.36708" lon="-1.18676">
        <ele>56</ele>
        <time>2025-08-02T09:13:18.000Z</time>
      </trkpt>
      <trkpt lat="47.36708" lon="-1.18676">
        <ele>56</ele>
        <time>2025-08-02T09:13:19.000Z</time>
      </trkpt>
      <trkpt lat="47.36708" lon="-1.18676">
        <ele>56</ele>
        <time>2025-08-02T09:13:21.000Z</time>
      </trkpt>
      <trkpt lat="47.36708" lon="-1.18676">
        <ele>56</ele>
        <time>2025-08-02T09:13:22.000Z</time>
      </trkpt>
      <trkpt lat="47.36708" lon="-1.18676">
        <ele>56</ele>
        <time>2025-08-02T09:13:23.000Z</time>
      </trkpt>
      <trkpt lat="47.36708" lon="-1.18676">
        <ele>56</ele>
        <time>2025-08-02T09:13:24.000Z</time>
      </trkpt>
      <trkpt lat="47.36708" lon="-1.18676">
        <ele>56</ele>
        <time>2025-08-02T09:13:25.000Z</time>
      </trkpt>
      <trkpt lat="47.36708" lon="-1.18676">
        <ele>56</ele>
        <time>2025-08-02T09:13:26.000Z</time>
      </trkpt>
      <trkpt lat="47.36708" lon="-1.18676">
        <ele>56</ele>
        <time>2025-08-02T09:13:27.000Z</time>
      </trkpt>
      <trkpt lat="47.36708" lon="-1.18676">
        <ele>56</ele>
        <time>2025-08-02T09:13:28.000Z</time>
      </trkpt>
      <trkpt lat="47.36708" lon="-1.18676">
        <ele>56</ele>
        <time>2025-08-02T09:13:29.000Z</time>
      </trkpt>
      <trkpt lat="47.36708" lon="-1.18676">
        <ele>56</ele>
        <time>2025-08-02T09:13:30.000Z</time>
      </trkpt>
      <trkpt lat="47.36708" lon="-1.18676">
        <ele>56</ele>
        <time>2025-08-02T09:13:31.000Z</time>
      </trkpt>
      <trkpt lat="47.36707" lon="-1.18678">
        <ele>56</ele>
        <time>2025-08-02T09:13:32.000Z</time>
      </trkpt>
      <trkpt lat="47.36707" lon="-1.18679">
        <ele>57</ele>
        <time>2025-08-02T09:13:33.000Z</time>
      </trkpt>
      <trkpt lat="47.36706" lon="-1.18681">
        <ele>57</ele>
        <time>2025-08-02T09:13:34.000Z</time>
      </trkpt>
      <trkpt lat="47.36705" lon="-1.18682">
        <ele>57</ele>
        <time>2025-08-02T09:13:35.000Z</time>
      </trkpt>
      <trkpt lat="47.36704" lon="-1.18684">
        <ele>58</ele>
        <time>2025-08-02T09:13:36.000Z</time>
      </trkpt>
      <trkpt lat="47.36704" lon="-1.18685">
        <ele>59</ele>
        <time>2025-08-02T09:13:37.000Z</time>
      </trkpt>
      <trkpt lat="47.36703" lon="-1.18687">
        <ele>59</ele>
        <time>2025-08-02T09:13:38.000Z</time>
      </trkpt>
      <trkpt lat="47.36702" lon="-1.18688">
        <ele>59</ele>
        <time>2025-08-02T09:13:39.000Z</time>
      </trkpt>
      <trkpt lat="47.36702" lon="-1.1869">
        <ele>59</ele>
        <time>2025-08-02T09:13:40.000Z</time>
      </trkpt>
      <trkpt lat="47.36701" lon="-1.18691">
        <ele>59</ele>
        <time>2025-08-02T09:13:41.000Z</time>
      </trkpt>
      <trkpt lat="47.367" lon="-1.18693">
        <ele>59</ele>
        <time>2025-08-02T09:13:42.000Z</time>
      </trkpt>
      <trkpt lat="47.367" lon="-1.18694">
        <ele>59</ele>
        <time>2025-08-02T09:13:43.000Z</time>
      </trkpt>
      <trkpt lat="47.367" lon="-1.18696">
        <ele>59</ele>
        <time>2025-08-02T09:13:44.000Z</time>
      </trkpt>
      <trkpt lat="47.36699" lon="-1.18697">
        <ele>59</ele>
        <time>2025-08-02T09:13:45.000Z</time>
      </trkpt>
      <trkpt lat="47.36699" lon="-1.18698">
        <ele>59</ele>
        <time>2025-08-02T09:13:46.000Z</time>
      </trkpt>
      <trkpt lat="47.36698" lon="-1.18699">
        <ele>59</ele>
        <time>2025-08-02T09:13:47.000Z</time>
      </trkpt>
      <trkpt lat="47.36698" lon="-1.187">
        <ele>58</ele>
        <time>2025-08-02T09:13:48.000Z</time>
      </trkpt>
      <trkpt lat="47.36698" lon="-1.18701">
        <ele>58</ele>
        <time>2025-08-02T09:13:49.000Z</time>
      </trkpt>
      <trkpt lat="47.36698" lon="-1.18703">
        <ele>58</ele>
        <time>2025-08-02T09:13:50.000Z</time>
      </trkpt>
      <trkpt lat="47.36697" lon="-1.18704">
        <ele>58</ele>
        <time>2025-08-02T09:13:51.000Z</time>
      </trkpt>
      <trkpt lat="47.36697" lon="-1.18706">
        <ele>58</ele>
        <time>2025-08-02T09:13:52.000Z</time>
      </trkpt>
      <trkpt lat="47.36696" lon="-1.18707">
        <ele>58</ele>
        <time>2025-08-02T09:13:53.000Z</time>
      </trkpt>
      <trkpt lat="47.36695" lon="-1.18709">
        <ele>58</ele>
        <time>2025-08-02T09:13:54.000Z</time>
      </trkpt>
      <trkpt lat="47.36694" lon="-1.1871">
        <ele>58</ele>
        <time>2025-08-02T09:13:55.000Z</time>
      </trkpt>
      <trkpt lat="47.36694" lon="-1.18712">
        <ele>58</ele>
        <time>2025-08-02T09:13:56.000Z</time>
      </trkpt>
      <trkpt lat="47.36693" lon="-1.18714">
        <ele>57</ele>
        <time>2025-08-02T09:13:57.000Z</time>
      </trkpt>
      <trkpt lat="47.36693" lon="-1.18715">
        <ele>57</ele>
        <time>2025-08-02T09:13:58.000Z</time>
      </trkpt>
      <trkpt lat="47.36693" lon="-1.18716">
        <ele>57</ele>
        <time>2025-08-02T09:13:59.000Z</time>
      </trkpt>
      <trkpt lat="47.36692" lon="-1.18718">
        <ele>57</ele>
        <time>2025-08-02T09:14:00.000Z</time>
      </trkpt>
      <trkpt lat="47.36692" lon="-1.1872">
        <ele>58</ele>
        <time>2025-08-02T09:14:01.000Z</time>
      </trkpt>
      <trkpt lat="47.36691" lon="-1.18721">
        <ele>58</ele>
        <time>2025-08-02T09:14:02.000Z</time>
      </trkpt>
      <trkpt lat="47.36691" lon="-1.18722">
        <ele>58</ele>
        <time>2025-08-02T09:14:03.000Z</time>
      </trkpt>
      <trkpt lat="47.36691" lon="-1.18724">
        <ele>58</ele>
        <time>2025-08-02T09:14:04.000Z</time>
      </trkpt>
      <trkpt lat="47.36691" lon="-1.18725">
        <ele>58</ele>
        <time>2025-08-02T09:14:05.000Z</time>
      </trkpt>
      <trkpt lat="47.36689" lon="-1.18727">
        <ele>57</ele>
        <time>2025-08-02T09:14:06.000Z</time>
      </trkpt>
      <trkpt lat="47.36689" lon="-1.18729">
        <ele>57</ele>
        <time>2025-08-02T09:14:07.000Z</time>
      </trkpt>
      <trkpt lat="47.36688" lon="-1.1873">
        <ele>57</ele>
        <time>2025-08-02T09:14:08.000Z</time>
      </trkpt>
      <trkpt lat="47.36688" lon="-1.18732">
        <ele>57</ele>
        <time>2025-08-02T09:14:09.000Z</time>
      </trkpt>
      <trkpt lat="47.36687" lon="-1.18733">
        <ele>57</ele>
        <time>2025-08-02T09:14:10.000Z</time>
      </trkpt>
      <trkpt lat="47.36687" lon="-1.18736">
        <ele>57</ele>
        <time>2025-08-02T09:14:11.000Z</time>
      </trkpt>
      <trkpt lat="47.36687" lon="-1.18737">
        <ele>57</ele>
        <time>2025-08-02T09:14:12.000Z</time>
      </trkpt>
      <trkpt lat="47.36686" lon="-1.18739">
        <ele>57</ele>
        <time>2025-08-02T09:14:13.000Z</time>
      </trkpt>
      <trkpt lat="47.36687" lon="-1.18741">
        <ele>57</ele>
        <time>2025-08-02T09:14:14.000Z</time>
      </trkpt>
      <trkpt lat="47.36687" lon="-1.18743">
        <ele>57</ele>
        <time>2025-08-02T09:14:15.000Z</time>
      </trkpt>
      <trkpt lat="47.36686" lon="-1.18744">
        <ele>57</ele>
        <time>2025-08-02T09:14:16.000Z</time>
      </trkpt>
      <trkpt lat="47.36686" lon="-1.18745">
        <ele>57</ele>
        <time>2025-08-02T09:14:17.000Z</time>
      </trkpt>
      <trkpt lat="47.36686" lon="-1.18747">
        <ele>57</ele>
        <time>2025-08-02T09:14:18.000Z</time>
      </trkpt>
      <trkpt lat="47.36686" lon="-1.18748">
        <ele>57</ele>
        <time>2025-08-02T09:14:19.000Z</time>
      </trkpt>
      <trkpt lat="47.36686" lon="-1.1875">
        <ele>57</ele>
        <time>2025-08-02T09:14:20.000Z</time>
      </trkpt>
      <trkpt lat="47.36685" lon="-1.18752">
        <ele>57</ele>
        <time>2025-08-02T09:14:21.000Z</time>
      </trkpt>
      <trkpt lat="47.36685" lon="-1.18754">
        <ele>57</ele>
        <time>2025-08-02T09:14:22.000Z</time>
      </trkpt>
      <trkpt lat="47.36685" lon="-1.18755">
        <ele>58</ele>
        <time>2025-08-02T09:14:23.000Z</time>
      </trkpt>
      <trkpt lat="47.36685" lon="-1.18757">
        <ele>58</ele>
        <time>2025-08-02T09:14:24.000Z</time>
      </trkpt>
      <trkpt lat="47.36685" lon="-1.18758">
        <ele>58</ele>
        <time>2025-08-02T09:14:25.000Z</time>
      </trkpt>
      <trkpt lat="47.36684" lon="-1.1876">
        <ele>58</ele>
        <time>2025-08-02T09:14:26.000Z</time>
      </trkpt>
      <trkpt lat="47.36684" lon="-1.18761">
        <ele>58</ele>
        <time>2025-08-02T09:14:27.000Z</time>
      </trkpt>
      <trkpt lat="47.36684" lon="-1.18763">
        <ele>58</ele>
        <time>2025-08-02T09:14:28.000Z</time>
      </trkpt>
      <trkpt lat="47.36683" lon="-1.18765">
        <ele>58</ele>
        <time>2025-08-02T09:14:29.000Z</time>
      </trkpt>
      <trkpt lat="47.36682" lon="-1.18767">
        <ele>58</ele>
        <time>2025-08-02T09:14:30.000Z</time>
      </trkpt>
      <trkpt lat="47.36681" lon="-1.18768">
        <ele>58</ele>
        <time>2025-08-02T09:14:31.000Z</time>
      </trkpt>
      <trkpt lat="47.36681" lon="-1.18769">
        <ele>57</ele>
        <time>2025-08-02T09:14:32.000Z</time>
      </trkpt>
      <trkpt lat="47.3668" lon="-1.1877">
        <ele>57</ele>
        <time>2025-08-02T09:14:33.000Z</time>
      </trkpt>
      <trkpt lat="47.36679" lon="-1.18772">
        <ele>57</ele>
        <time>2025-08-02T09:14:34.000Z</time>
      </trkpt>
      <trkpt lat="47.36678" lon="-1.18774">
        <ele>58</ele>
        <time>2025-08-02T09:14:35.000Z</time>
      </trkpt>
      <trkpt lat="47.36678" lon="-1.18776">
        <ele>58</ele>
        <time>2025-08-02T09:14:36.000Z</time>
      </trkpt>
      <trkpt lat="47.36677" lon="-1.18777">
        <ele>58</ele>
        <time>2025-08-02T09:14:37.000Z</time>
      </trkpt>
      <trkpt lat="47.36676" lon="-1.18779">
        <ele>58</ele>
        <time>2025-08-02T09:14:38.000Z</time>
      </trkpt>
      <trkpt lat="47.36676" lon="-1.18781">
        <ele>57</ele>
        <time>2025-08-02T09:14:39.000Z</time>
      </trkpt>
      <trkpt lat="47.36676" lon="-1.18782">
        <ele>58</ele>
        <time>2025-08-02T09:14:40.000Z</time>
      </trkpt>
      <trkpt lat="47.36675" lon="-1.18784">
        <ele>59</ele>
        <time>2025-08-02T09:14:41.000Z</time>
      </trkpt>
      <trkpt lat="47.36675" lon="-1.18786">
        <ele>59</ele>
        <time>2025-08-02T09:14:42.000Z</time>
      </trkpt>
      <trkpt lat="47.36675" lon="-1.18787">
        <ele>58</ele>
        <time>2025-08-02T09:14:43.000Z</time>
      </trkpt>
      <trkpt lat="47.36675" lon="-1.18788">
        <ele>58</ele>
        <time>2025-08-02T09:14:44.000Z</time>
      </trkpt>
      <trkpt lat="47.36675" lon="-1.1879">
        <ele>58</ele>
        <time>2025-08-02T09:14:45.000Z</time>
      </trkpt>
      <trkpt lat="47.36675" lon="-1.18792">
        <ele>58</ele>
        <time>2025-08-02T09:14:46.000Z</time>
      </trkpt>
      <trkpt lat="47.36675" lon="-1.18794">
        <ele>58</ele>
        <time>2025-08-02T09:14:47.000Z</time>
      </trkpt>
      <trkpt lat="47.36674" lon="-1.18796">
        <ele>58</ele>
        <time>2025-08-02T09:14:48.000Z</time>
      </trkpt>
      <trkpt lat="47.36674" lon="-1.18797">
        <ele>58</ele>
        <time>2025-08-02T09:14:49.000Z</time>
      </trkpt>
      <trkpt lat="47.36674" lon="-1.18798">
        <ele>58</ele>
        <time>2025-08-02T09:14:50.000Z</time>
      </trkpt>
      <trkpt lat="47.36673" lon="-1.18799">
        <ele>58</ele>
        <time>2025-08-02T09:14:51.000Z</time>
      </trkpt>
      <trkpt lat="47.36673" lon="-1.18801">
        <ele>59</ele>
        <time>2025-08-02T09:14:52.000Z</time>
      </trkpt>
      <trkpt lat="47.36672" lon="-1.18802">
        <ele>59</ele>
        <time>2025-08-02T09:14:53.000Z</time>
      </trkpt>
      <trkpt lat="47.36671" lon="-1.18804">
        <ele>60</ele>
        <time>2025-08-02T09:14:54.000Z</time>
      </trkpt>
      <trkpt lat="47.36671" lon="-1.18805">
        <ele>60</ele>
        <time>2025-08-02T09:14:55.000Z</time>
      </trkpt>
      <trkpt lat="47.3667" lon="-1.18807">
        <ele>60</ele>
        <time>2025-08-02T09:14:56.000Z</time>
      </trkpt>
      <trkpt lat="47.36669" lon="-1.18808">
        <ele>60</ele>
        <time>2025-08-02T09:14:57.000Z</time>
      </trkpt>
      <trkpt lat="47.36669" lon="-1.1881">
        <ele>60</ele>
        <time>2025-08-02T09:14:58.000Z</time>
      </trkpt>
      <trkpt lat="47.36668" lon="-1.18811">
        <ele>60</ele>
        <time>2025-08-02T09:14:59.000Z</time>
      </trkpt>
      <trkpt lat="47.36668" lon="-1.18812">
        <ele>60</ele>
        <time>2025-08-02T09:15:00.000Z</time>
      </trkpt>
      <trkpt lat="47.36667" lon="-1.18813">
        <ele>60</ele>
        <time>2025-08-02T09:15:01.000Z</time>
      </trkpt>
      <trkpt lat="47.36667" lon="-1.18815">
        <ele>60</ele>
        <time>2025-08-02T09:15:02.000Z</time>
      </trkpt>
      <trkpt lat="47.36666" lon="-1.18817">
        <ele>60</ele>
        <time>2025-08-02T09:15:03.000Z</time>
      </trkpt>
      <trkpt lat="47.36665" lon="-1.18818">
        <ele>60</ele>
        <time>2025-08-02T09:15:04.000Z</time>
      </trkpt>
      <trkpt lat="47.36665" lon="-1.1882">
        <ele>61</ele>
        <time>2025-08-02T09:15:05.000Z</time>
      </trkpt>
      <trkpt lat="47.36665" lon="-1.18821">
        <ele>61</ele>
        <time>2025-08-02T09:15:06.000Z</time>
      </trkpt>
      <trkpt lat="47.36664" lon="-1.18823">
        <ele>61</ele>
        <time>2025-08-02T09:15:07.000Z</time>
      </trkpt>
      <trkpt lat="47.36663" lon="-1.18824">
        <ele>61</ele>
        <time>2025-08-02T09:15:08.000Z</time>
      </trkpt>
      <trkpt lat="47.36663" lon="-1.18825">
        <ele>61</ele>
        <time>2025-08-02T09:15:09.000Z</time>
      </trkpt>
      <trkpt lat="47.36662" lon="-1.18826">
        <ele>61</ele>
        <time>2025-08-02T09:15:10.000Z</time>
      </trkpt>
      <trkpt lat="47.36663" lon="-1.18827">
        <ele>61</ele>
        <time>2025-08-02T09:15:11.000Z</time>
      </trkpt>
      <trkpt lat="47.36662" lon="-1.18828">
        <ele>60</ele>
        <time>2025-08-02T09:15:12.000Z</time>
      </trkpt>
      <trkpt lat="47.36662" lon="-1.18828">
        <ele>60</ele>
        <time>2025-08-02T09:15:13.000Z</time>
      </trkpt>
      <trkpt lat="47.36662" lon="-1.18829">
        <ele>61</ele>
        <time>2025-08-02T09:15:14.000Z</time>
      </trkpt>
      <trkpt lat="47.36662" lon="-1.18831">
        <ele>61</ele>
        <time>2025-08-02T09:15:15.000Z</time>
      </trkpt>
      <trkpt lat="47.36661" lon="-1.18832">
        <ele>61</ele>
        <time>2025-08-02T09:15:16.000Z</time>
      </trkpt>
      <trkpt lat="47.36661" lon="-1.18832">
        <ele>60</ele>
        <time>2025-08-02T09:15:17.000Z</time>
      </trkpt>
      <trkpt lat="47.3666" lon="-1.18833">
        <ele>60</ele>
        <time>2025-08-02T09:15:18.000Z</time>
      </trkpt>
      <trkpt lat="47.3666" lon="-1.18834">
        <ele>60</ele>
        <time>2025-08-02T09:15:19.000Z</time>
      </trkpt>
      <trkpt lat="47.3666" lon="-1.18836">
        <ele>60</ele>
        <time>2025-08-02T09:15:20.000Z</time>
      </trkpt>
      <trkpt lat="47.3666" lon="-1.18837">
        <ele>60</ele>
        <time>2025-08-02T09:15:21.000Z</time>
      </trkpt>
      <trkpt lat="47.36659" lon="-1.18838">
        <ele>60</ele>
        <time>2025-08-02T09:15:22.000Z</time>
      </trkpt>
      <trkpt lat="47.36659" lon="-1.18839">
        <ele>61</ele>
        <time>2025-08-02T09:15:23.000Z</time>
      </trkpt>
      <trkpt lat="47.36659" lon="-1.18839">
        <ele>61</ele>
        <time>2025-08-02T09:15:24.000Z</time>
      </trkpt>
      <trkpt lat="47.36658" lon="-1.1884">
        <ele>61</ele>
        <time>2025-08-02T09:15:25.000Z</time>
      </trkpt>
      <trkpt lat="47.36658" lon="-1.18841">
        <ele>61</ele>
        <time>2025-08-02T09:15:26.000Z</time>
      </trkpt>
      <trkpt lat="47.36658" lon="-1.18842">
        <ele>61</ele>
        <time>2025-08-02T09:15:27.000Z</time>
      </trkpt>
      <trkpt lat="47.36658" lon="-1.18843">
        <ele>62</ele>
        <time>2025-08-02T09:15:28.000Z</time>
      </trkpt>
      <trkpt lat="47.36658" lon="-1.18844">
        <ele>62</ele>
        <time>2025-08-02T09:15:29.000Z</time>
      </trkpt>
      <trkpt lat="47.36658" lon="-1.18845">
        <ele>62</ele>
        <time>2025-08-02T09:15:30.000Z</time>
      </trkpt>
      <trkpt lat="47.36657" lon="-1.18845">
        <ele>61</ele>
        <time>2025-08-02T09:15:31.000Z</time>
      </trkpt>
      <trkpt lat="47.36656" lon="-1.18847">
        <ele>62</ele>
        <time>2025-08-02T09:15:32.000Z</time>
      </trkpt>
      <trkpt lat="47.36656" lon="-1.18848">
        <ele>62</ele>
        <time>2025-08-02T09:15:33.000Z</time>
      </trkpt>
      <trkpt lat="47.36655" lon="-1.18849">
        <ele>61</ele>
        <time>2025-08-02T09:15:34.000Z</time>
      </trkpt>
      <trkpt lat="47.36655" lon="-1.18851">
        <ele>61</ele>
        <time>2025-08-02T09:15:35.000Z</time>
      </trkpt>
      <trkpt lat="47.36655" lon="-1.18852">
        <ele>61</ele>
        <time>2025-08-02T09:15:36.000Z</time>
      </trkpt>
      <trkpt lat="47.36655" lon="-1.18853">
        <ele>61</ele>
        <time>2025-08-02T09:15:37.000Z</time>
      </trkpt>
      <trkpt lat="47.36654" lon="-1.18855">
        <ele>62</ele>
        <time>2025-08-02T09:15:38.000Z</time>
      </trkpt>
      <trkpt lat="47.36654" lon="-1.18857">
        <ele>61</ele>
        <time>2025-08-02T09:15:39.000Z</time>
      </trkpt>
      <trkpt lat="47.36653" lon="-1.18858">
        <ele>61</ele>
        <time>2025-08-02T09:15:40.000Z</time>
      </trkpt>
      <trkpt lat="47.36653" lon="-1.1886">
        <ele>60</ele>
        <time>2025-08-02T09:15:41.000Z</time>
      </trkpt>
      <trkpt lat="47.36653" lon="-1.18862">
        <ele>60</ele>
        <time>2025-08-02T09:15:42.000Z</time>
      </trkpt>
      <trkpt lat="47.36652" lon="-1.18863">
        <ele>60</ele>
        <time>2025-08-02T09:15:43.000Z</time>
      </trkpt>
      <trkpt lat="47.36652" lon="-1.18864">
        <ele>59</ele>
        <time>2025-08-02T09:15:44.000Z</time>
      </trkpt>
      <trkpt lat="47.36652" lon="-1.18866">
        <ele>60</ele>
        <time>2025-08-02T09:15:45.000Z</time>
      </trkpt>
      <trkpt lat="47.36651" lon="-1.18867">
        <ele>60</ele>
        <time>2025-08-02T09:15:46.000Z</time>
      </trkpt>
      <trkpt lat="47.3665" lon="-1.18868">
        <ele>60</ele>
        <time>2025-08-02T09:15:47.000Z</time>
      </trkpt>
      <trkpt lat="47.3665" lon="-1.18869">
        <ele>60</ele>
        <time>2025-08-02T09:15:48.000Z</time>
      </trkpt>
      <trkpt lat="47.3665" lon="-1.1887">
        <ele>61</ele>
        <time>2025-08-02T09:15:49.000Z</time>
      </trkpt>
      <trkpt lat="47.36649" lon="-1.18872">
        <ele>61</ele>
        <time>2025-08-02T09:15:50.000Z</time>
      </trkpt>
      <trkpt lat="47.36648" lon="-1.18873">
        <ele>61</ele>
        <time>2025-08-02T09:15:51.000Z</time>
      </trkpt>
      <trkpt lat="47.36648" lon="-1.18875">
        <ele>61</ele>
        <time>2025-08-02T09:15:52.000Z</time>
      </trkpt>
      <trkpt lat="47.36648" lon="-1.18876">
        <ele>61</ele>
        <time>2025-08-02T09:15:53.000Z</time>
      </trkpt>
      <trkpt lat="47.36647" lon="-1.18877">
        <ele>60</ele>
        <time>2025-08-02T09:15:54.000Z</time>
      </trkpt>
      <trkpt lat="47.36646" lon="-1.18879">
        <ele>60</ele>
        <time>2025-08-02T09:15:55.000Z</time>
      </trkpt>
      <trkpt lat="47.36645" lon="-1.18881">
        <ele>60</ele>
        <time>2025-08-02T09:15:56.000Z</time>
      </trkpt>
      <trkpt lat="47.36644" lon="-1.18883">
        <ele>60</ele>
        <time>2025-08-02T09:15:57.000Z</time>
      </trkpt>
      <trkpt lat="47.36644" lon="-1.18884">
        <ele>60</ele>
        <time>2025-08-02T09:15:58.000Z</time>
      </trkpt>
      <trkpt lat="47.36643" lon="-1.18886">
        <ele>60</ele>
        <time>2025-08-02T09:15:59.000Z</time>
      </trkpt>
      <trkpt lat="47.36643" lon="-1.18887">
        <ele>59</ele>
        <time>2025-08-02T09:16:00.000Z</time>
      </trkpt>
      <trkpt lat="47.36642" lon="-1.18889">
        <ele>59</ele>
        <time>2025-08-02T09:16:01.000Z</time>
      </trkpt>
      <trkpt lat="47.36642" lon="-1.18891">
        <ele>59</ele>
        <time>2025-08-02T09:16:02.000Z</time>
      </trkpt>
      <trkpt lat="47.36642" lon="-1.18892">
        <ele>59</ele>
        <time>2025-08-02T09:16:03.000Z</time>
      </trkpt>
      <trkpt lat="47.36642" lon="-1.18893">
        <ele>59</ele>
        <time>2025-08-02T09:16:04.000Z</time>
      </trkpt>
      <trkpt lat="47.36642" lon="-1.18894">
        <ele>59</ele>
        <time>2025-08-02T09:16:05.000Z</time>
      </trkpt>
      <trkpt lat="47.36641" lon="-1.18896">
        <ele>59</ele>
        <time>2025-08-02T09:16:06.000Z</time>
      </trkpt>
      <trkpt lat="47.36641" lon="-1.18897">
        <ele>59</ele>
        <time>2025-08-02T09:16:07.000Z</time>
      </trkpt>
      <trkpt lat="47.3664" lon="-1.18898">
        <ele>59</ele>
        <time>2025-08-02T09:16:08.000Z</time>
      </trkpt>
      <trkpt lat="47.3664" lon="-1.18899">
        <ele>59</ele>
        <time>2025-08-02T09:16:09.000Z</time>
      </trkpt>
      <trkpt lat="47.3664" lon="-1.189">
        <ele>59</ele>
        <time>2025-08-02T09:16:10.000Z</time>
      </trkpt>
      <trkpt lat="47.3664" lon="-1.18901">
        <ele>59</ele>
        <time>2025-08-02T09:16:11.000Z</time>
      </trkpt>
      <trkpt lat="47.3664" lon="-1.18902">
        <ele>59</ele>
        <time>2025-08-02T09:16:12.000Z</time>
      </trkpt>
      <trkpt lat="47.36641" lon="-1.18903">
        <ele>59</ele>
        <time>2025-08-02T09:16:13.000Z</time>
      </trkpt>
      <trkpt lat="47.36641" lon="-1.18904">
        <ele>59</ele>
        <time>2025-08-02T09:16:14.000Z</time>
      </trkpt>
      <trkpt lat="47.36641" lon="-1.18906">
        <ele>59</ele>
        <time>2025-08-02T09:16:15.000Z</time>
      </trkpt>
      <trkpt lat="47.36641" lon="-1.18908">
        <ele>60</ele>
        <time>2025-08-02T09:16:16.000Z</time>
      </trkpt>
      <trkpt lat="47.36641" lon="-1.18908">
        <ele>61</ele>
        <time>2025-08-02T09:16:17.000Z</time>
      </trkpt>
      <trkpt lat="47.36642" lon="-1.18909">
        <ele>61</ele>
        <time>2025-08-02T09:16:18.000Z</time>
      </trkpt>
      <trkpt lat="47.36641" lon="-1.18912">
        <ele>61</ele>
        <time>2025-08-02T09:16:19.000Z</time>
      </trkpt>
      <trkpt lat="47.36642" lon="-1.18913">
        <ele>62</ele>
        <time>2025-08-02T09:16:20.000Z</time>
      </trkpt>
      <trkpt lat="47.36643" lon="-1.18915">
        <ele>62</ele>
        <time>2025-08-02T09:16:21.000Z</time>
      </trkpt>
      <trkpt lat="47.36643" lon="-1.18916">
        <ele>61</ele>
        <time>2025-08-02T09:16:22.000Z</time>
      </trkpt>
      <trkpt lat="47.36644" lon="-1.18917">
        <ele>61</ele>
        <time>2025-08-02T09:16:23.000Z</time>
      </trkpt>
      <trkpt lat="47.36644" lon="-1.18918">
        <ele>60</ele>
        <time>2025-08-02T09:16:24.000Z</time>
      </trkpt>
      <trkpt lat="47.36644" lon="-1.1892">
        <ele>60</ele>
        <time>2025-08-02T09:16:25.000Z</time>
      </trkpt>
      <trkpt lat="47.36644" lon="-1.18921">
        <ele>61</ele>
        <time>2025-08-02T09:16:26.000Z</time>
      </trkpt>
      <trkpt lat="47.36644" lon="-1.18923">
        <ele>61</ele>
        <time>2025-08-02T09:16:27.000Z</time>
      </trkpt>
      <trkpt lat="47.36644" lon="-1.18924">
        <ele>61</ele>
        <time>2025-08-02T09:16:28.000Z</time>
      </trkpt>
      <trkpt lat="47.36644" lon="-1.18926">
        <ele>61</ele>
        <time>2025-08-02T09:16:29.000Z</time>
      </trkpt>
      <trkpt lat="47.36645" lon="-1.18928">
        <ele>60</ele>
        <time>2025-08-02T09:16:30.000Z</time>
      </trkpt>
      <trkpt lat="47.36645" lon="-1.1893">
        <ele>60</ele>
        <time>2025-08-02T09:16:31.000Z</time>
      </trkpt>
      <trkpt lat="47.36645" lon="-1.18932">
        <ele>60</ele>
        <time>2025-08-02T09:16:32.000Z</time>
      </trkpt>
      <trkpt lat="47.36644" lon="-1.18934">
        <ele>60</ele>
        <time>2025-08-02T09:16:33.000Z</time>
      </trkpt>
      <trkpt lat="47.36645" lon="-1.18936">
        <ele>60</ele>
        <time>2025-08-02T09:16:34.000Z</time>
      </trkpt>
      <trkpt lat="47.36645" lon="-1.18938">
        <ele>60</ele>
        <time>2025-08-02T09:16:35.000Z</time>
      </trkpt>
      <trkpt lat="47.36645" lon="-1.18939">
        <ele>61</ele>
        <time>2025-08-02T09:16:36.000Z</time>
      </trkpt>
      <trkpt lat="47.36645" lon="-1.18941">
        <ele>62</ele>
        <time>2025-08-02T09:16:37.000Z</time>
      </trkpt>
      <trkpt lat="47.36645" lon="-1.18942">
        <ele>61</ele>
        <time>2025-08-02T09:16:38.000Z</time>
      </trkpt>
      <trkpt lat="47.36644" lon="-1.18943">
        <ele>62</ele>
        <time>2025-08-02T09:16:39.000Z</time>
      </trkpt>
      <trkpt lat="47.36644" lon="-1.18944">
        <ele>62</ele>
        <time>2025-08-02T09:16:40.000Z</time>
      </trkpt>
      <trkpt lat="47.36643" lon="-1.18945">
        <ele>62</ele>
        <time>2025-08-02T09:16:41.000Z</time>
      </trkpt>
      <trkpt lat="47.36643" lon="-1.18947">
        <ele>63</ele>
        <time>2025-08-02T09:16:42.000Z</time>
      </trkpt>
      <trkpt lat="47.36643" lon="-1.18949">
        <ele>62</ele>
        <time>2025-08-02T09:16:43.000Z</time>
      </trkpt>
      <trkpt lat="47.36643" lon="-1.18951">
        <ele>62</ele>
        <time>2025-08-02T09:16:44.000Z</time>
      </trkpt>
      <trkpt lat="47.36642" lon="-1.18952">
        <ele>63</ele>
        <time>2025-08-02T09:16:45.000Z</time>
      </trkpt>
      <trkpt lat="47.36642" lon="-1.18954">
        <ele>62</ele>
        <time>2025-08-02T09:16:46.000Z</time>
      </trkpt>
      <trkpt lat="47.36641" lon="-1.18956">
        <ele>63</ele>
        <time>2025-08-02T09:16:47.000Z</time>
      </trkpt>
      <trkpt lat="47.36641" lon="-1.18957">
        <ele>63</ele>
        <time>2025-08-02T09:16:48.000Z</time>
      </trkpt>
      <trkpt lat="47.36641" lon="-1.18958">
        <ele>63</ele>
        <time>2025-08-02T09:16:49.000Z</time>
      </trkpt>
      <trkpt lat="47.36641" lon="-1.1896">
        <ele>62</ele>
        <time>2025-08-02T09:16:50.000Z</time>
      </trkpt>
      <trkpt lat="47.36641" lon="-1.18961">
        <ele>63</ele>
        <time>2025-08-02T09:16:51.000Z</time>
      </trkpt>
      <trkpt lat="47.3664" lon="-1.18963">
        <ele>63</ele>
        <time>2025-08-02T09:16:52.000Z</time>
      </trkpt>
      <trkpt lat="47.36639" lon="-1.18964">
        <ele>63</ele>
        <time>2025-08-02T09:16:53.000Z</time>
      </trkpt>
      <trkpt lat="47.36638" lon="-1.18965">
        <ele>63</ele>
        <time>2025-08-02T09:16:54.000Z</time>
      </trkpt>
      <trkpt lat="47.36638" lon="-1.18966">
        <ele>63</ele>
        <time>2025-08-02T09:16:55.000Z</time>
      </trkpt>
      <trkpt lat="47.36637" lon="-1.18967">
        <ele>63</ele>
        <time>2025-08-02T09:16:56.000Z</time>
      </trkpt>
      <trkpt lat="47.36637" lon="-1.18969">
        <ele>63</ele>
        <time>2025-08-02T09:16:57.000Z</time>
      </trkpt>
      <trkpt lat="47.36636" lon="-1.18971">
        <ele>63</ele>
        <time>2025-08-02T09:16:58.000Z</time>
      </trkpt>
      <trkpt lat="47.36636" lon="-1.18973">
        <ele>63</ele>
        <time>2025-08-02T09:16:59.000Z</time>
      </trkpt>
      <trkpt lat="47.36636" lon="-1.18974">
        <ele>63</ele>
        <time>2025-08-02T09:17:00.000Z</time>
      </trkpt>
      <trkpt lat="47.36635" lon="-1.18976">
        <ele>63</ele>
        <time>2025-08-02T09:17:01.000Z</time>
      </trkpt>
      <trkpt lat="47.36635" lon="-1.18977">
        <ele>62</ele>
        <time>2025-08-02T09:17:02.000Z</time>
      </trkpt>
      <trkpt lat="47.36634" lon="-1.18979">
        <ele>62</ele>
        <time>2025-08-02T09:17:03.000Z</time>
      </trkpt>
      <trkpt lat="47.36634" lon="-1.1898">
        <ele>62</ele>
        <time>2025-08-02T09:17:04.000Z</time>
      </trkpt>
      <trkpt lat="47.36633" lon="-1.18981">
        <ele>61</ele>
        <time>2025-08-02T09:17:05.000Z</time>
      </trkpt>
      <trkpt lat="47.36633" lon="-1.18983">
        <ele>62</ele>
        <time>2025-08-02T09:17:06.000Z</time>
      </trkpt>
      <trkpt lat="47.36632" lon="-1.18983">
        <ele>62</ele>
        <time>2025-08-02T09:17:07.000Z</time>
      </trkpt>
      <trkpt lat="47.36631" lon="-1.18984">
        <ele>62</ele>
        <time>2025-08-02T09:17:08.000Z</time>
      </trkpt>
      <trkpt lat="47.3663" lon="-1.18984">
        <ele>63</ele>
        <time>2025-08-02T09:17:09.000Z</time>
      </trkpt>
      <trkpt lat="47.36629" lon="-1.18985">
        <ele>63</ele>
        <time>2025-08-02T09:17:10.000Z</time>
      </trkpt>
      <trkpt lat="47.36627" lon="-1.18985">
        <ele>63</ele>
        <time>2025-08-02T09:17:11.000Z</time>
      </trkpt>
      <trkpt lat="47.36626" lon="-1.18984">
        <ele>64</ele>
        <time>2025-08-02T09:17:12.000Z</time>
      </trkpt>
      <trkpt lat="47.36625" lon="-1.18984">
        <ele>64</ele>
        <time>2025-08-02T09:17:13.000Z</time>
      </trkpt>
      <trkpt lat="47.36624" lon="-1.18984">
        <ele>64</ele>
        <time>2025-08-02T09:17:14.000Z</time>
      </trkpt>
      <trkpt lat="47.36623" lon="-1.18984">
        <ele>64</ele>
        <time>2025-08-02T09:17:15.000Z</time>
      </trkpt>
      <trkpt lat="47.36622" lon="-1.18985">
        <ele>64</ele>
        <time>2025-08-02T09:17:16.000Z</time>
      </trkpt>
      <trkpt lat="47.36622" lon="-1.18985">
        <ele>64</ele>
        <time>2025-08-02T09:17:17.000Z</time>
      </trkpt>
      <trkpt lat="47.36621" lon="-1.18987">
        <ele>64</ele>
        <time>2025-08-02T09:17:18.000Z</time>
      </trkpt>
      <trkpt lat="47.36621" lon="-1.18988">
        <ele>63</ele>
        <time>2025-08-02T09:17:19.000Z</time>
      </trkpt>
      <trkpt lat="47.36619" lon="-1.18988">
        <ele>63</ele>
        <time>2025-08-02T09:17:20.000Z</time>
      </trkpt>
      <trkpt lat="47.36619" lon="-1.18989">
        <ele>63</ele>
        <time>2025-08-02T09:17:21.000Z</time>
      </trkpt>
      <trkpt lat="47.36618" lon="-1.1899">
        <ele>63</ele>
        <time>2025-08-02T09:17:22.000Z</time>
      </trkpt>
      <trkpt lat="47.36618" lon="-1.1899">
        <ele>63</ele>
        <time>2025-08-02T09:17:23.000Z</time>
      </trkpt>
      <trkpt lat="47.36617" lon="-1.18991">
        <ele>64</ele>
        <time>2025-08-02T09:17:24.000Z</time>
      </trkpt>
      <trkpt lat="47.36616" lon="-1.18993">
        <ele>64</ele>
        <time>2025-08-02T09:17:25.000Z</time>
      </trkpt>
      <trkpt lat="47.36615" lon="-1.18993">
        <ele>63</ele>
        <time>2025-08-02T09:17:26.000Z</time>
      </trkpt>
      <trkpt lat="47.36614" lon="-1.18994">
        <ele>64</ele>
        <time>2025-08-02T09:17:27.000Z</time>
      </trkpt>
      <trkpt lat="47.36613" lon="-1.18995">
        <ele>63</ele>
        <time>2025-08-02T09:17:28.000Z</time>
      </trkpt>
      <trkpt lat="47.36612" lon="-1.18996">
        <ele>64</ele>
        <time>2025-08-02T09:17:29.000Z</time>
      </trkpt>
      <trkpt lat="47.36612" lon="-1.18998">
        <ele>63</ele>
        <time>2025-08-02T09:17:30.000Z</time>
      </trkpt>
      <trkpt lat="47.36612" lon="-1.18999">
        <ele>63</ele>
        <time>2025-08-02T09:17:31.000Z</time>
      </trkpt>
      <trkpt lat="47.36611" lon="-1.19">
        <ele>63</ele>
        <time>2025-08-02T09:17:32.000Z</time>
      </trkpt>
      <trkpt lat="47.36611" lon="-1.19002">
        <ele>63</ele>
        <time>2025-08-02T09:17:33.000Z</time>
      </trkpt>
      <trkpt lat="47.3661" lon="-1.19003">
        <ele>64</ele>
        <time>2025-08-02T09:17:34.000Z</time>
      </trkpt>
      <trkpt lat="47.36609" lon="-1.19003">
        <ele>64</ele>
        <time>2025-08-02T09:17:35.000Z</time>
      </trkpt>
      <trkpt lat="47.36608" lon="-1.19004">
        <ele>64</ele>
        <time>2025-08-02T09:17:36.000Z</time>
      </trkpt>
      <trkpt lat="47.36608" lon="-1.19004">
        <ele>64</ele>
        <time>2025-08-02T09:17:37.000Z</time>
      </trkpt>
      <trkpt lat="47.36608" lon="-1.19005">
        <ele>64</ele>
        <time>2025-08-02T09:17:38.000Z</time>
      </trkpt>
      <trkpt lat="47.36607" lon="-1.19005">
        <ele>64</ele>
        <time>2025-08-02T09:17:39.000Z</time>
      </trkpt>
      <trkpt lat="47.36606" lon="-1.19006">
        <ele>64</ele>
        <time>2025-08-02T09:17:40.000Z</time>
      </trkpt>
      <trkpt lat="47.36605" lon="-1.19007">
        <ele>64</ele>
        <time>2025-08-02T09:17:41.000Z</time>
      </trkpt>
      <trkpt lat="47.36605" lon="-1.19008">
        <ele>65</ele>
        <time>2025-08-02T09:17:42.000Z</time>
      </trkpt>
      <trkpt lat="47.36604" lon="-1.19009">
        <ele>64</ele>
        <time>2025-08-02T09:17:43.000Z</time>
      </trkpt>
      <trkpt lat="47.36603" lon="-1.1901">
        <ele>65</ele>
        <time>2025-08-02T09:17:44.000Z</time>
      </trkpt>
      <trkpt lat="47.36602" lon="-1.1901">
        <ele>65</ele>
        <time>2025-08-02T09:17:45.000Z</time>
      </trkpt>
      <trkpt lat="47.36601" lon="-1.19009">
        <ele>65</ele>
        <time>2025-08-02T09:17:46.000Z</time>
      </trkpt>
      <trkpt lat="47.366" lon="-1.1901">
        <ele>65</ele>
        <time>2025-08-02T09:17:47.000Z</time>
      </trkpt>
      <trkpt lat="47.36598" lon="-1.1901">
        <ele>66</ele>
        <time>2025-08-02T09:17:48.000Z</time>
      </trkpt>
      <trkpt lat="47.36597" lon="-1.19011">
        <ele>66</ele>
        <time>2025-08-02T09:17:49.000Z</time>
      </trkpt>
      <trkpt lat="47.36596" lon="-1.19011">
        <ele>65</ele>
        <time>2025-08-02T09:17:50.000Z</time>
      </trkpt>
      <trkpt lat="47.36595" lon="-1.19012">
        <ele>65</ele>
        <time>2025-08-02T09:17:51.000Z</time>
      </trkpt>
      <trkpt lat="47.36594" lon="-1.19013">
        <ele>65</ele>
        <time>2025-08-02T09:17:52.000Z</time>
      </trkpt>
      <trkpt lat="47.36593" lon="-1.19014">
        <ele>65</ele>
        <time>2025-08-02T09:17:53.000Z</time>
      </trkpt>
      <trkpt lat="47.36592" lon="-1.19015">
        <ele>65</ele>
        <time>2025-08-02T09:17:54.000Z</time>
      </trkpt>
      <trkpt lat="47.36591" lon="-1.19016">
        <ele>65</ele>
        <time>2025-08-02T09:17:55.000Z</time>
      </trkpt>
      <trkpt lat="47.36589" lon="-1.19017">
        <ele>65</ele>
        <time>2025-08-02T09:17:56.000Z</time>
      </trkpt>
      <trkpt lat="47.36588" lon="-1.19017">
        <ele>65</ele>
        <time>2025-08-02T09:17:57.000Z</time>
      </trkpt>
      <trkpt lat="47.36588" lon="-1.19018">
        <ele>64</ele>
        <time>2025-08-02T09:17:58.000Z</time>
      </trkpt>
      <trkpt lat="47.36587" lon="-1.19019">
        <ele>65</ele>
        <time>2025-08-02T09:17:59.000Z</time>
      </trkpt>
      <trkpt lat="47.36586" lon="-1.19021">
        <ele>64</ele>
        <time>2025-08-02T09:18:00.000Z</time>
      </trkpt>
      <trkpt lat="47.36585" lon="-1.19022">
        <ele>65</ele>
        <time>2025-08-02T09:18:01.000Z</time>
      </trkpt>
      <trkpt lat="47.36583" lon="-1.19023">
        <ele>65</ele>
        <time>2025-08-02T09:18:02.000Z</time>
      </trkpt>
      <trkpt lat="47.36582" lon="-1.19024">
        <ele>65</ele>
        <time>2025-08-02T09:18:03.000Z</time>
      </trkpt>
      <trkpt lat="47.36581" lon="-1.19026">
        <ele>65</ele>
        <time>2025-08-02T09:18:04.000Z</time>
      </trkpt>
      <trkpt lat="47.3658" lon="-1.19027">
        <ele>64</ele>
        <time>2025-08-02T09:18:05.000Z</time>
      </trkpt>
      <trkpt lat="47.3658" lon="-1.19028">
        <ele>64</ele>
        <time>2025-08-02T09:18:06.000Z</time>
      </trkpt>
      <trkpt lat="47.36579" lon="-1.19029">
        <ele>64</ele>
        <time>2025-08-02T09:18:07.000Z</time>
      </trkpt>
      <trkpt lat="47.36578" lon="-1.19029">
        <ele>64</ele>
        <time>2025-08-02T09:18:08.000Z</time>
      </trkpt>
      <trkpt lat="47.36576" lon="-1.1903">
        <ele>64</ele>
        <time>2025-08-02T09:18:09.000Z</time>
      </trkpt>
      <trkpt lat="47.36576" lon="-1.19032">
        <ele>64</ele>
        <time>2025-08-02T09:18:10.000Z</time>
      </trkpt>
      <trkpt lat="47.36575" lon="-1.19033">
        <ele>64</ele>
        <time>2025-08-02T09:18:11.000Z</time>
      </trkpt>
      <trkpt lat="47.36575" lon="-1.19034">
        <ele>64</ele>
        <time>2025-08-02T09:18:12.000Z</time>
      </trkpt>
      <trkpt lat="47.36575" lon="-1.19036">
        <ele>64</ele>
        <time>2025-08-02T09:18:13.000Z</time>
      </trkpt>
      <trkpt lat="47.36574" lon="-1.19037">
        <ele>64</ele>
        <time>2025-08-02T09:18:14.000Z</time>
      </trkpt>
      <trkpt lat="47.36573" lon="-1.19039">
        <ele>64</ele>
        <time>2025-08-02T09:18:15.000Z</time>
      </trkpt>
      <trkpt lat="47.36573" lon="-1.19041">
        <ele>64</ele>
        <time>2025-08-02T09:18:16.000Z</time>
      </trkpt>
      <trkpt lat="47.36572" lon="-1.19042">
        <ele>64</ele>
        <time>2025-08-02T09:18:17.000Z</time>
      </trkpt>
      <trkpt lat="47.36572" lon="-1.19044">
        <ele>63</ele>
        <time>2025-08-02T09:18:18.000Z</time>
      </trkpt>
      <trkpt lat="47.36571" lon="-1.19046">
        <ele>63</ele>
        <time>2025-08-02T09:18:19.000Z</time>
      </trkpt>
      <trkpt lat="47.36571" lon="-1.19048">
        <ele>63</ele>
        <time>2025-08-02T09:18:20.000Z</time>
      </trkpt>
      <trkpt lat="47.36571" lon="-1.19049">
        <ele>63</ele>
        <time>2025-08-02T09:18:21.000Z</time>
      </trkpt>
      <trkpt lat="47.3657" lon="-1.19051">
        <ele>63</ele>
        <time>2025-08-02T09:18:22.000Z</time>
      </trkpt>
      <trkpt lat="47.3657" lon="-1.19052">
        <ele>63</ele>
        <time>2025-08-02T09:18:23.000Z</time>
      </trkpt>
      <trkpt lat="47.36569" lon="-1.19054">
        <ele>64</ele>
        <time>2025-08-02T09:18:24.000Z</time>
      </trkpt>
      <trkpt lat="47.36569" lon="-1.19055">
        <ele>64</ele>
        <time>2025-08-02T09:18:25.000Z</time>
      </trkpt>
      <trkpt lat="47.36569" lon="-1.19056">
        <ele>64</ele>
        <time>2025-08-02T09:18:26.000Z</time>
      </trkpt>
      <trkpt lat="47.36568" lon="-1.19056">
        <ele>65</ele>
        <time>2025-08-02T09:18:27.000Z</time>
      </trkpt>
      <trkpt lat="47.36567" lon="-1.19057">
        <ele>65</ele>
        <time>2025-08-02T09:18:28.000Z</time>
      </trkpt>
      <trkpt lat="47.36567" lon="-1.19059">
        <ele>64</ele>
        <time>2025-08-02T09:18:29.000Z</time>
      </trkpt>
      <trkpt lat="47.36566" lon="-1.1906">
        <ele>65</ele>
        <time>2025-08-02T09:18:30.000Z</time>
      </trkpt>
      <trkpt lat="47.36566" lon="-1.19061">
        <ele>65</ele>
        <time>2025-08-02T09:18:31.000Z</time>
      </trkpt>
      <trkpt lat="47.36565" lon="-1.19061">
        <ele>65</ele>
        <time>2025-08-02T09:18:32.000Z</time>
      </trkpt>
      <trkpt lat="47.36564" lon="-1.19063">
        <ele>65</ele>
        <time>2025-08-02T09:18:33.000Z</time>
      </trkpt>
      <trkpt lat="47.36564" lon="-1.19064">
        <ele>65</ele>
        <time>2025-08-02T09:18:34.000Z</time>
      </trkpt>
      <trkpt lat="47.36563" lon="-1.19066">
        <ele>64</ele>
        <time>2025-08-02T09:18:35.000Z</time>
      </trkpt>
      <trkpt lat="47.36563" lon="-1.19067">
        <ele>64</ele>
        <time>2025-08-02T09:18:36.000Z</time>
      </trkpt>
      <trkpt lat="47.36564" lon="-1.19069">
        <ele>65</ele>
        <time>2025-08-02T09:18:37.000Z</time>
      </trkpt>
      <trkpt lat="47.36564" lon="-1.1907">
        <ele>64</ele>
        <time>2025-08-02T09:18:38.000Z</time>
      </trkpt>
      <trkpt lat="47.36564" lon="-1.19071">
        <ele>65</ele>
        <time>2025-08-02T09:18:39.000Z</time>
      </trkpt>
      <trkpt lat="47.36564" lon="-1.19072">
        <ele>65</ele>
        <time>2025-08-02T09:18:40.000Z</time>
      </trkpt>
      <trkpt lat="47.36563" lon="-1.19074">
        <ele>65</ele>
        <time>2025-08-02T09:18:41.000Z</time>
      </trkpt>
      <trkpt lat="47.36564" lon="-1.19075">
        <ele>65</ele>
        <time>2025-08-02T09:18:42.000Z</time>
      </trkpt>
      <trkpt lat="47.36564" lon="-1.19077">
        <ele>65</ele>
        <time>2025-08-02T09:18:43.000Z</time>
      </trkpt>
      <trkpt lat="47.36564" lon="-1.19079">
        <ele>65</ele>
        <time>2025-08-02T09:18:44.000Z</time>
      </trkpt>
      <trkpt lat="47.36564" lon="-1.1908">
        <ele>63</ele>
        <time>2025-08-02T09:18:45.000Z</time>
      </trkpt>
      <trkpt lat="47.36565" lon="-1.1908">
        <ele>64</ele>
        <time>2025-08-02T09:18:46.000Z</time>
      </trkpt>
      <trkpt lat="47.36564" lon="-1.1908">
        <ele>63</ele>
        <time>2025-08-02T09:18:47.000Z</time>
      </trkpt>
      <trkpt lat="47.36564" lon="-1.1908">
        <ele>64</ele>
        <time>2025-08-02T09:18:48.000Z</time>
      </trkpt>
      <trkpt lat="47.36565" lon="-1.1908">
        <ele>64</ele>
        <time>2025-08-02T09:18:49.000Z</time>
      </trkpt>
      <trkpt lat="47.36565" lon="-1.1908">
        <ele>64</ele>
        <time>2025-08-02T09:18:50.000Z</time>
      </trkpt>
      <trkpt lat="47.36565" lon="-1.1908">
        <ele>64</ele>
        <time>2025-08-02T09:18:51.000Z</time>
      </trkpt>
      <trkpt lat="47.36565" lon="-1.1908">
        <ele>64</ele>
        <time>2025-08-02T09:18:52.000Z</time>
      </trkpt>
      <trkpt lat="47.36565" lon="-1.19081">
        <ele>64</ele>
        <time>2025-08-02T09:18:53.000Z</time>
      </trkpt>
      <trkpt lat="47.36565" lon="-1.19082">
        <ele>64</ele>
        <time>2025-08-02T09:18:54.000Z</time>
      </trkpt>
      <trkpt lat="47.36565" lon="-1.19084">
        <ele>64</ele>
        <time>2025-08-02T09:18:55.000Z</time>
      </trkpt>
      <trkpt lat="47.36565" lon="-1.19085">
        <ele>64</ele>
        <time>2025-08-02T09:18:56.000Z</time>
      </trkpt>
      <trkpt lat="47.36565" lon="-1.19086">
        <ele>64</ele>
        <time>2025-08-02T09:18:57.000Z</time>
      </trkpt>
      <trkpt lat="47.36565" lon="-1.19088">
        <ele>63</ele>
        <time>2025-08-02T09:18:58.000Z</time>
      </trkpt>
      <trkpt lat="47.36565" lon="-1.1909">
        <ele>63</ele>
        <time>2025-08-02T09:18:59.000Z</time>
      </trkpt>
      <trkpt lat="47.36565" lon="-1.19091">
        <ele>63</ele>
        <time>2025-08-02T09:19:00.000Z</time>
      </trkpt>
      <trkpt lat="47.36564" lon="-1.19093">
        <ele>63</ele>
        <time>2025-08-02T09:19:01.000Z</time>
      </trkpt>
      <trkpt lat="47.36564" lon="-1.19094">
        <ele>63</ele>
        <time>2025-08-02T09:19:02.000Z</time>
      </trkpt>
      <trkpt lat="47.36564" lon="-1.19096">
        <ele>63</ele>
        <time>2025-08-02T09:19:03.000Z</time>
      </trkpt>
      <trkpt lat="47.36563" lon="-1.19098">
        <ele>63</ele>
        <time>2025-08-02T09:19:04.000Z</time>
      </trkpt>
      <trkpt lat="47.36563" lon="-1.19098">
        <ele>63</ele>
        <time>2025-08-02T09:19:05.000Z</time>
      </trkpt>
      <trkpt lat="47.36563" lon="-1.191">
        <ele>63</ele>
        <time>2025-08-02T09:19:06.000Z</time>
      </trkpt>
      <trkpt lat="47.36563" lon="-1.19101">
        <ele>64</ele>
        <time>2025-08-02T09:19:07.000Z</time>
      </trkpt>
      <trkpt lat="47.36563" lon="-1.19103">
        <ele>64</ele>
        <time>2025-08-02T09:19:08.000Z</time>
      </trkpt>
      <trkpt lat="47.36562" lon="-1.19105">
        <ele>65</ele>
        <time>2025-08-02T09:19:09.000Z</time>
      </trkpt>
      <trkpt lat="47.36562" lon="-1.19106">
        <ele>65</ele>
        <time>2025-08-02T09:19:10.000Z</time>
      </trkpt>
      <trkpt lat="47.36561" lon="-1.19108">
        <ele>65</ele>
        <time>2025-08-02T09:19:11.000Z</time>
      </trkpt>
      <trkpt lat="47.3656" lon="-1.19109">
        <ele>65</ele>
        <time>2025-08-02T09:19:12.000Z</time>
      </trkpt>
      <trkpt lat="47.36558" lon="-1.19111">
        <ele>65</ele>
        <time>2025-08-02T09:19:13.000Z</time>
      </trkpt>
      <trkpt lat="47.36557" lon="-1.19112">
        <ele>65</ele>
        <time>2025-08-02T09:19:14.000Z</time>
      </trkpt>
      <trkpt lat="47.36557" lon="-1.19114">
        <ele>65</ele>
        <time>2025-08-02T09:19:15.000Z</time>
      </trkpt>
      <trkpt lat="47.36556" lon="-1.19115">
        <ele>65</ele>
        <time>2025-08-02T09:19:16.000Z</time>
      </trkpt>
      <trkpt lat="47.36555" lon="-1.19116">
        <ele>66</ele>
        <time>2025-08-02T09:19:17.000Z</time>
      </trkpt>
      <trkpt lat="47.36554" lon="-1.19118">
        <ele>66</ele>
        <time>2025-08-02T09:19:18.000Z</time>
      </trkpt>
      <trkpt lat="47.36552" lon="-1.19119">
        <ele>66</ele>
        <time>2025-08-02T09:19:19.000Z</time>
      </trkpt>
      <trkpt lat="47.36551" lon="-1.19119">
        <ele>66</ele>
        <time>2025-08-02T09:19:20.000Z</time>
      </trkpt>
      <trkpt lat="47.36551" lon="-1.1912">
        <ele>66</ele>
        <time>2025-08-02T09:19:21.000Z</time>
      </trkpt>
      <trkpt lat="47.36549" lon="-1.19121">
        <ele>66</ele>
        <time>2025-08-02T09:19:22.000Z</time>
      </trkpt>
      <trkpt lat="47.36549" lon="-1.19123">
        <ele>66</ele>
        <time>2025-08-02T09:19:23.000Z</time>
      </trkpt>
      <trkpt lat="47.36548" lon="-1.19124">
        <ele>67</ele>
        <time>2025-08-02T09:19:24.000Z</time>
      </trkpt>
      <trkpt lat="47.36547" lon="-1.19125">
        <ele>67</ele>
        <time>2025-08-02T09:19:25.000Z</time>
      </trkpt>
      <trkpt lat="47.36546" lon="-1.19126">
        <ele>66</ele>
        <time>2025-08-02T09:19:26.000Z</time>
      </trkpt>
      <trkpt lat="47.36545" lon="-1.19127">
        <ele>66</ele>
        <time>2025-08-02T09:19:27.000Z</time>
      </trkpt>
      <trkpt lat="47.36544" lon="-1.19127">
        <ele>67</ele>
        <time>2025-08-02T09:19:28.000Z</time>
      </trkpt>
      <trkpt lat="47.36543" lon="-1.19127">
        <ele>67</ele>
        <time>2025-08-02T09:19:29.000Z</time>
      </trkpt>
      <trkpt lat="47.36542" lon="-1.19128">
        <ele>67</ele>
        <time>2025-08-02T09:19:30.000Z</time>
      </trkpt>
      <trkpt lat="47.3654" lon="-1.19128">
        <ele>67</ele>
        <time>2025-08-02T09:19:31.000Z</time>
      </trkpt>
      <trkpt lat="47.36539" lon="-1.19129">
        <ele>67</ele>
        <time>2025-08-02T09:19:32.000Z</time>
      </trkpt>
      <trkpt lat="47.36538" lon="-1.19129">
        <ele>67</ele>
        <time>2025-08-02T09:19:33.000Z</time>
      </trkpt>
      <trkpt lat="47.36537" lon="-1.19128">
        <ele>67</ele>
        <time>2025-08-02T09:19:34.000Z</time>
      </trkpt>
      <trkpt lat="47.36536" lon="-1.19127">
        <ele>67</ele>
        <time>2025-08-02T09:19:35.000Z</time>
      </trkpt>
      <trkpt lat="47.36535" lon="-1.19125">
        <ele>67</ele>
        <time>2025-08-02T09:19:36.000Z</time>
      </trkpt>
      <trkpt lat="47.36534" lon="-1.19125">
        <ele>67</ele>
        <time>2025-08-02T09:19:37.000Z</time>
      </trkpt>
      <trkpt lat="47.36534" lon="-1.19124">
        <ele>67</ele>
        <time>2025-08-02T09:19:38.000Z</time>
      </trkpt>
      <trkpt lat="47.36533" lon="-1.19123">
        <ele>67</ele>
        <time>2025-08-02T09:19:39.000Z</time>
      </trkpt>
      <trkpt lat="47.36533" lon="-1.19122">
        <ele>67</ele>
        <time>2025-08-02T09:19:40.000Z</time>
      </trkpt>
      <trkpt lat="47.36533" lon="-1.19119">
        <ele>67</ele>
        <time>2025-08-02T09:19:41.000Z</time>
      </trkpt>
      <trkpt lat="47.36532" lon="-1.19117">
        <ele>67</ele>
        <time>2025-08-02T09:19:42.000Z</time>
      </trkpt>
      <trkpt lat="47.36532" lon="-1.19115">
        <ele>67</ele>
        <time>2025-08-02T09:19:43.000Z</time>
      </trkpt>
      <trkpt lat="47.36531" lon="-1.19114">
        <ele>67</ele>
        <time>2025-08-02T09:19:44.000Z</time>
      </trkpt>
      <trkpt lat="47.36531" lon="-1.19112">
        <ele>67</ele>
        <time>2025-08-02T09:19:45.000Z</time>
      </trkpt>
      <trkpt lat="47.3653" lon="-1.1911">
        <ele>67</ele>
        <time>2025-08-02T09:19:46.000Z</time>
      </trkpt>
      <trkpt lat="47.3653" lon="-1.19109">
        <ele>67</ele>
        <time>2025-08-02T09:19:47.000Z</time>
      </trkpt>
      <trkpt lat="47.36529" lon="-1.19108">
        <ele>67</ele>
        <time>2025-08-02T09:19:48.000Z</time>
      </trkpt>
      <trkpt lat="47.36529" lon="-1.19107">
        <ele>66</ele>
        <time>2025-08-02T09:19:49.000Z</time>
      </trkpt>
      <trkpt lat="47.36528" lon="-1.19105">
        <ele>66</ele>
        <time>2025-08-02T09:19:50.000Z</time>
      </trkpt>
      <trkpt lat="47.36528" lon="-1.19103">
        <ele>66</ele>
        <time>2025-08-02T09:19:51.000Z</time>
      </trkpt>
      <trkpt lat="47.36527" lon="-1.19101">
        <ele>66</ele>
        <time>2025-08-02T09:19:52.000Z</time>
      </trkpt>
      <trkpt lat="47.36527" lon="-1.19099">
        <ele>65</ele>
        <time>2025-08-02T09:19:53.000Z</time>
      </trkpt>
      <trkpt lat="47.36526" lon="-1.19098">
        <ele>65</ele>
        <time>2025-08-02T09:19:54.000Z</time>
      </trkpt>
      <trkpt lat="47.36526" lon="-1.19097">
        <ele>65</ele>
        <time>2025-08-02T09:19:55.000Z</time>
      </trkpt>
      <trkpt lat="47.36526" lon="-1.19095">
        <ele>65</ele>
        <time>2025-08-02T09:19:56.000Z</time>
      </trkpt>
      <trkpt lat="47.36526" lon="-1.19093">
        <ele>65</ele>
        <time>2025-08-02T09:19:57.000Z</time>
      </trkpt>
      <trkpt lat="47.36525" lon="-1.19093">
        <ele>65</ele>
        <time>2025-08-02T09:19:58.000Z</time>
      </trkpt>
      <trkpt lat="47.36525" lon="-1.19091">
        <ele>65</ele>
        <time>2025-08-02T09:19:59.000Z</time>
      </trkpt>
      <trkpt lat="47.36524" lon="-1.1909">
        <ele>65</ele>
        <time>2025-08-02T09:20:00.000Z</time>
      </trkpt>
      <trkpt lat="47.36523" lon="-1.19088">
        <ele>65</ele>
        <time>2025-08-02T09:20:01.000Z</time>
      </trkpt>
      <trkpt lat="47.36523" lon="-1.19086">
        <ele>65</ele>
        <time>2025-08-02T09:20:02.000Z</time>
      </trkpt>
      <trkpt lat="47.36523" lon="-1.19084">
        <ele>65</ele>
        <time>2025-08-02T09:20:03.000Z</time>
      </trkpt>
      <trkpt lat="47.36523" lon="-1.19083">
        <ele>65</ele>
        <time>2025-08-02T09:20:04.000Z</time>
      </trkpt>
      <trkpt lat="47.36523" lon="-1.19082">
        <ele>64</ele>
        <time>2025-08-02T09:20:05.000Z</time>
      </trkpt>
      <trkpt lat="47.36523" lon="-1.1908">
        <ele>64</ele>
        <time>2025-08-02T09:20:06.000Z</time>
      </trkpt>
      <trkpt lat="47.36523" lon="-1.19079">
        <ele>64</ele>
        <time>2025-08-02T09:20:07.000Z</time>
      </trkpt>
      <trkpt lat="47.36523" lon="-1.19078">
        <ele>64</ele>
        <time>2025-08-02T09:20:08.000Z</time>
      </trkpt>
      <trkpt lat="47.36522" lon="-1.19076">
        <ele>64</ele>
        <time>2025-08-02T09:20:09.000Z</time>
      </trkpt>
      <trkpt lat="47.36522" lon="-1.19075">
        <ele>64</ele>
        <time>2025-08-02T09:20:10.000Z</time>
      </trkpt>
      <trkpt lat="47.36522" lon="-1.19073">
        <ele>64</ele>
        <time>2025-08-02T09:20:11.000Z</time>
      </trkpt>
      <trkpt lat="47.36522" lon="-1.19071">
        <ele>64</ele>
        <time>2025-08-02T09:20:12.000Z</time>
      </trkpt>
      <trkpt lat="47.36522" lon="-1.19069">
        <ele>64</ele>
        <time>2025-08-02T09:20:13.000Z</time>
      </trkpt>
      <trkpt lat="47.36521" lon="-1.19068">
        <ele>64</ele>
        <time>2025-08-02T09:20:14.000Z</time>
      </trkpt>
      <trkpt lat="47.36521" lon="-1.19066">
        <ele>64</ele>
        <time>2025-08-02T09:20:15.000Z</time>
      </trkpt>
      <trkpt lat="47.36521" lon="-1.19066">
        <ele>64</ele>
        <time>2025-08-02T09:20:16.000Z</time>
      </trkpt>
      <trkpt lat="47.36521" lon="-1.19066">
        <ele>64</ele>
        <time>2025-08-02T09:20:17.000Z</time>
      </trkpt>
      <trkpt lat="47.36521" lon="-1.19066">
        <ele>64</ele>
        <time>2025-08-02T09:20:18.000Z</time>
      </trkpt>
      <trkpt lat="47.36521" lon="-1.19066">
        <ele>64</ele>
        <time>2025-08-02T09:20:19.000Z</time>
      </trkpt>
      <trkpt lat="47.36521" lon="-1.19066">
        <ele>64</ele>
        <time>2025-08-02T09:20:20.000Z</time>
      </trkpt>
      <trkpt lat="47.36521" lon="-1.19066">
        <ele>64</ele>
        <time>2025-08-02T09:20:21.000Z</time>
      </trkpt>
      <trkpt lat="47.36521" lon="-1.19066">
        <ele>64</ele>
        <time>2025-08-02T09:20:22.000Z</time>
      </trkpt>
      <trkpt lat="47.36521" lon="-1.19066">
        <ele>64</ele>
        <time>2025-08-02T09:20:23.000Z</time>
      </trkpt>
      <trkpt lat="47.36521" lon="-1.19066">
        <ele>64</ele>
        <time>2025-08-02T09:20:24.000Z</time>
      </trkpt>
      <trkpt lat="47.36521" lon="-1.19066">
        <ele>64</ele>
        <time>2025-08-02T09:20:25.000Z</time>
      </trkpt>
      <trkpt lat="47.36521" lon="-1.19066">
        <ele>64</ele>
        <time>2025-08-02T09:20:26.000Z</time>
      </trkpt>
      <trkpt lat="47.36521" lon="-1.19066">
        <ele>64</ele>
        <time>2025-08-02T09:20:27.000Z</time>
      </trkpt>
      <trkpt lat="47.36521" lon="-1.19065">
        <ele>64</ele>
        <time>2025-08-02T09:20:28.000Z</time>
      </trkpt>
      <trkpt lat="47.36521" lon="-1.19065">
        <ele>64</ele>
        <time>2025-08-02T09:20:29.000Z</time>
      </trkpt>
      <trkpt lat="47.36521" lon="-1.19066">
        <ele>64</ele>
        <time>2025-08-02T09:20:30.000Z</time>
      </trkpt>
      <trkpt lat="47.36521" lon="-1.19065">
        <ele>64</ele>
        <time>2025-08-02T09:20:31.000Z</time>
      </trkpt>
      <trkpt lat="47.36521" lon="-1.19065">
        <ele>64</ele>
        <time>2025-08-02T09:20:32.000Z</time>
      </trkpt>
      <trkpt lat="47.36521" lon="-1.19065">
        <ele>64</ele>
        <time>2025-08-02T09:20:33.000Z</time>
      </trkpt>
      <trkpt lat="47.36521" lon="-1.19065">
        <ele>63</ele>
        <time>2025-08-02T09:20:34.000Z</time>
      </trkpt>
      <trkpt lat="47.3652" lon="-1.19065">
        <ele>63</ele>
        <time>2025-08-02T09:20:35.000Z</time>
      </trkpt>
      <trkpt lat="47.36519" lon="-1.19065">
        <ele>63</ele>
        <time>2025-08-02T09:20:36.000Z</time>
      </trkpt>
      <trkpt lat="47.36518" lon="-1.19065">
        <ele>63</ele>
        <time>2025-08-02T09:20:37.000Z</time>
      </trkpt>
      <trkpt lat="47.36516" lon="-1.19066">
        <ele>63</ele>
        <time>2025-08-02T09:20:38.000Z</time>
      </trkpt>
      <trkpt lat="47.36515" lon="-1.19067">
        <ele>63</ele>
        <time>2025-08-02T09:20:39.000Z</time>
      </trkpt>
      <trkpt lat="47.36514" lon="-1.19068">
        <ele>63</ele>
        <time>2025-08-02T09:20:40.000Z</time>
      </trkpt>
      <trkpt lat="47.36513" lon="-1.19068">
        <ele>63</ele>
        <time>2025-08-02T09:20:41.000Z</time>
      </trkpt>
      <trkpt lat="47.36513" lon="-1.19068">
        <ele>63</ele>
        <time>2025-08-02T09:20:42.000Z</time>
      </trkpt>
      <trkpt lat="47.36512" lon="-1.19068">
        <ele>63</ele>
        <time>2025-08-02T09:20:43.000Z</time>
      </trkpt>
      <trkpt lat="47.36511" lon="-1.19069">
        <ele>63</ele>
        <time>2025-08-02T09:20:44.000Z</time>
      </trkpt>
      <trkpt lat="47.3651" lon="-1.19069">
        <ele>63</ele>
        <time>2025-08-02T09:20:45.000Z</time>
      </trkpt>
      <trkpt lat="47.36509" lon="-1.19069">
        <ele>63</ele>
        <time>2025-08-02T09:20:46.000Z</time>
      </trkpt>
      <trkpt lat="47.36508" lon="-1.1907">
        <ele>63</ele>
        <time>2025-08-02T09:20:47.000Z</time>
      </trkpt>
      <trkpt lat="47.36507" lon="-1.19071">
        <ele>63</ele>
        <time>2025-08-02T09:20:48.000Z</time>
      </trkpt>
      <trkpt lat="47.36506" lon="-1.19072">
        <ele>63</ele>
        <time>2025-08-02T09:20:49.000Z</time>
      </trkpt>
      <trkpt lat="47.36505" lon="-1.19072">
        <ele>63</ele>
        <time>2025-08-02T09:20:50.000Z</time>
      </trkpt>
      <trkpt lat="47.36503" lon="-1.19072">
        <ele>63</ele>
        <time>2025-08-02T09:20:51.000Z</time>
      </trkpt>
      <trkpt lat="47.36502" lon="-1.19073">
        <ele>63</ele>
        <time>2025-08-02T09:20:52.000Z</time>
      </trkpt>
      <trkpt lat="47.36501" lon="-1.19073">
        <ele>63</ele>
        <time>2025-08-02T09:20:53.000Z</time>
      </trkpt>
      <trkpt lat="47.365" lon="-1.19074">
        <ele>63</ele>
        <time>2025-08-02T09:20:54.000Z</time>
      </trkpt>
      <trkpt lat="47.36499" lon="-1.19074">
        <ele>63</ele>
        <time>2025-08-02T09:20:55.000Z</time>
      </trkpt>
      <trkpt lat="47.36498" lon="-1.19074">
        <ele>63</ele>
        <time>2025-08-02T09:20:56.000Z</time>
      </trkpt>
      <trkpt lat="47.36497" lon="-1.19074">
        <ele>63</ele>
        <time>2025-08-02T09:20:57.000Z</time>
      </trkpt>
      <trkpt lat="47.36496" lon="-1.19075">
        <ele>63</ele>
        <time>2025-08-02T09:20:58.000Z</time>
      </trkpt>
      <trkpt lat="47.36496" lon="-1.19075">
        <ele>63</ele>
        <time>2025-08-02T09:20:59.000Z</time>
      </trkpt>
      <trkpt lat="47.36495" lon="-1.19075">
        <ele>63</ele>
        <time>2025-08-02T09:21:00.000Z</time>
      </trkpt>
      <trkpt lat="47.36495" lon="-1.19074">
        <ele>63</ele>
        <time>2025-08-02T09:21:01.000Z</time>
      </trkpt>
      <trkpt lat="47.36495" lon="-1.19074">
        <ele>63</ele>
        <time>2025-08-02T09:21:02.000Z</time>
      </trkpt>
      <trkpt lat="47.36494" lon="-1.19074">
        <ele>63</ele>
        <time>2025-08-02T09:21:03.000Z</time>
      </trkpt>
      <trkpt lat="47.36494" lon="-1.19074">
        <ele>63</ele>
        <time>2025-08-02T09:21:04.000Z</time>
      </trkpt>
      <trkpt lat="47.36493" lon="-1.19074">
        <ele>64</ele>
        <time>2025-08-02T09:21:05.000Z</time>
      </trkpt>
      <trkpt lat="47.36492" lon="-1.19074">
        <ele>64</ele>
        <time>2025-08-02T09:21:06.000Z</time>
      </trkpt>
      <trkpt lat="47.36491" lon="-1.19074">
        <ele>65</ele>
        <time>2025-08-02T09:21:07.000Z</time>
      </trkpt>
      <trkpt lat="47.3649" lon="-1.19075">
        <ele>65</ele>
        <time>2025-08-02T09:21:08.000Z</time>
      </trkpt>
      <trkpt lat="47.36489" lon="-1.19075">
        <ele>65</ele>
        <time>2025-08-02T09:21:09.000Z</time>
      </trkpt>
      <trkpt lat="47.36488" lon="-1.19075">
        <ele>65</ele>
        <time>2025-08-02T09:21:10.000Z</time>
      </trkpt>
      <trkpt lat="47.36487" lon="-1.19076">
        <ele>66</ele>
        <time>2025-08-02T09:21:11.000Z</time>
      </trkpt>
      <trkpt lat="47.36485" lon="-1.19076">
        <ele>66</ele>
        <time>2025-08-02T09:21:12.000Z</time>
      </trkpt>
      <trkpt lat="47.36484" lon="-1.19077">
        <ele>66</ele>
        <time>2025-08-02T09:21:13.000Z</time>
      </trkpt>
      <trkpt lat="47.36483" lon="-1.19078">
        <ele>66</ele>
        <time>2025-08-02T09:21:14.000Z</time>
      </trkpt>
      <trkpt lat="47.36482" lon="-1.19079">
        <ele>66</ele>
        <time>2025-08-02T09:21:15.000Z</time>
      </trkpt>
      <trkpt lat="47.36481" lon="-1.19079">
        <ele>66</ele>
        <time>2025-08-02T09:21:16.000Z</time>
      </trkpt>
      <trkpt lat="47.3648" lon="-1.1908">
        <ele>66</ele>
        <time>2025-08-02T09:21:17.000Z</time>
      </trkpt>
      <trkpt lat="47.3648" lon="-1.19081">
        <ele>66</ele>
        <time>2025-08-02T09:21:18.000Z</time>
      </trkpt>
      <trkpt lat="47.36479" lon="-1.19082">
        <ele>66</ele>
        <time>2025-08-02T09:21:19.000Z</time>
      </trkpt>
      <trkpt lat="47.36478" lon="-1.19082">
        <ele>66</ele>
        <time>2025-08-02T09:21:20.000Z</time>
      </trkpt>
      <trkpt lat="47.36477" lon="-1.19082">
        <ele>66</ele>
        <time>2025-08-02T09:21:21.000Z</time>
      </trkpt>
      <trkpt lat="47.36476" lon="-1.19082">
        <ele>67</ele>
        <time>2025-08-02T09:21:22.000Z</time>
      </trkpt>
      <trkpt lat="47.36476" lon="-1.19083">
        <ele>67</ele>
        <time>2025-08-02T09:21:23.000Z</time>
      </trkpt>
      <trkpt lat="47.36475" lon="-1.19084">
        <ele>67</ele>
        <time>2025-08-02T09:21:24.000Z</time>
      </trkpt>
      <trkpt lat="47.36474" lon="-1.19084">
        <ele>67</ele>
        <time>2025-08-02T09:21:25.000Z</time>
      </trkpt>
      <trkpt lat="47.36473" lon="-1.19085">
        <ele>68</ele>
        <time>2025-08-02T09:21:26.000Z</time>
      </trkpt>
      <trkpt lat="47.36473" lon="-1.19086">
        <ele>69</ele>
        <time>2025-08-02T09:21:27.000Z</time>
      </trkpt>
      <trkpt lat="47.36472" lon="-1.19087">
        <ele>69</ele>
        <time>2025-08-02T09:21:28.000Z</time>
      </trkpt>
      <trkpt lat="47.36472" lon="-1.19087">
        <ele>69</ele>
        <time>2025-08-02T09:21:29.000Z</time>
      </trkpt>
      <trkpt lat="47.3647" lon="-1.19088">
        <ele>69</ele>
        <time>2025-08-02T09:21:30.000Z</time>
      </trkpt>
      <trkpt lat="47.36469" lon="-1.19088">
        <ele>69</ele>
        <time>2025-08-02T09:21:31.000Z</time>
      </trkpt>
      <trkpt lat="47.36468" lon="-1.19088">
        <ele>69</ele>
        <time>2025-08-02T09:21:32.000Z</time>
      </trkpt>
      <trkpt lat="47.36467" lon="-1.19089">
        <ele>70</ele>
        <time>2025-08-02T09:21:33.000Z</time>
      </trkpt>
      <trkpt lat="47.36466" lon="-1.1909">
        <ele>70</ele>
        <time>2025-08-02T09:21:34.000Z</time>
      </trkpt>
      <trkpt lat="47.36464" lon="-1.19091">
        <ele>70</ele>
        <time>2025-08-02T09:21:35.000Z</time>
      </trkpt>
      <trkpt lat="47.36464" lon="-1.19091">
        <ele>70</ele>
        <time>2025-08-02T09:21:36.000Z</time>
      </trkpt>
      <trkpt lat="47.36462" lon="-1.19091">
        <ele>70</ele>
        <time>2025-08-02T09:21:37.000Z</time>
      </trkpt>
      <trkpt lat="47.36461" lon="-1.19091">
        <ele>70</ele>
        <time>2025-08-02T09:21:38.000Z</time>
      </trkpt>
      <trkpt lat="47.3646" lon="-1.19091">
        <ele>70</ele>
        <time>2025-08-02T09:21:39.000Z</time>
      </trkpt>
      <trkpt lat="47.36459" lon="-1.19091">
        <ele>70</ele>
        <time>2025-08-02T09:21:40.000Z</time>
      </trkpt>
      <trkpt lat="47.36458" lon="-1.19091">
        <ele>69</ele>
        <time>2025-08-02T09:21:41.000Z</time>
      </trkpt>
      <trkpt lat="47.36457" lon="-1.19092">
        <ele>69</ele>
        <time>2025-08-02T09:21:42.000Z</time>
      </trkpt>
      <trkpt lat="47.36456" lon="-1.19092">
        <ele>69</ele>
        <time>2025-08-02T09:21:43.000Z</time>
      </trkpt>
      <trkpt lat="47.36454" lon="-1.19093">
        <ele>70</ele>
        <time>2025-08-02T09:21:44.000Z</time>
      </trkpt>
      <trkpt lat="47.36452" lon="-1.19093">
        <ele>70</ele>
        <time>2025-08-02T09:21:45.000Z</time>
      </trkpt>
      <trkpt lat="47.36451" lon="-1.19093">
        <ele>70</ele>
        <time>2025-08-02T09:21:46.000Z</time>
      </trkpt>
      <trkpt lat="47.36449" lon="-1.19093">
        <ele>71</ele>
        <time>2025-08-02T09:21:47.000Z</time>
      </trkpt>
      <trkpt lat="47.36449" lon="-1.19093">
        <ele>70</ele>
        <time>2025-08-02T09:21:48.000Z</time>
      </trkpt>
      <trkpt lat="47.36447" lon="-1.19094">
        <ele>70</ele>
        <time>2025-08-02T09:21:49.000Z</time>
      </trkpt>
      <trkpt lat="47.36446" lon="-1.19095">
        <ele>70</ele>
        <time>2025-08-02T09:21:50.000Z</time>
      </trkpt>
      <trkpt lat="47.36445" lon="-1.19095">
        <ele>70</ele>
        <time>2025-08-02T09:21:51.000Z</time>
      </trkpt>
      <trkpt lat="47.36444" lon="-1.19096">
        <ele>70</ele>
        <time>2025-08-02T09:21:52.000Z</time>
      </trkpt>
      <trkpt lat="47.36443" lon="-1.19097">
        <ele>69</ele>
        <time>2025-08-02T09:21:53.000Z</time>
      </trkpt>
      <trkpt lat="47.36442" lon="-1.19097">
        <ele>69</ele>
        <time>2025-08-02T09:21:54.000Z</time>
      </trkpt>
      <trkpt lat="47.36441" lon="-1.19097">
        <ele>69</ele>
        <time>2025-08-02T09:21:55.000Z</time>
      </trkpt>
      <trkpt lat="47.3644" lon="-1.19098">
        <ele>68</ele>
        <time>2025-08-02T09:21:56.000Z</time>
      </trkpt>
      <trkpt lat="47.36439" lon="-1.19098">
        <ele>68</ele>
        <time>2025-08-02T09:21:57.000Z</time>
      </trkpt>
      <trkpt lat="47.36438" lon="-1.19099">
        <ele>68</ele>
        <time>2025-08-02T09:21:58.000Z</time>
      </trkpt>
      <trkpt lat="47.36438" lon="-1.19099">
        <ele>68</ele>
        <time>2025-08-02T09:21:59.000Z</time>
      </trkpt>
      <trkpt lat="47.36437" lon="-1.191">
        <ele>68</ele>
        <time>2025-08-02T09:22:00.000Z</time>
      </trkpt>
      <trkpt lat="47.36436" lon="-1.19102">
        <ele>68</ele>
        <time>2025-08-02T09:22:01.000Z</time>
      </trkpt>
      <trkpt lat="47.36435" lon="-1.19103">
        <ele>67</ele>
        <time>2025-08-02T09:22:02.000Z</time>
      </trkpt>
      <trkpt lat="47.36434" lon="-1.19103">
        <ele>65</ele>
        <time>2025-08-02T09:22:03.000Z</time>
      </trkpt>
      <trkpt lat="47.36433" lon="-1.19104">
        <ele>66</ele>
        <time>2025-08-02T09:22:04.000Z</time>
      </trkpt>
      <trkpt lat="47.36431" lon="-1.19104">
        <ele>66</ele>
        <time>2025-08-02T09:22:05.000Z</time>
      </trkpt>
      <trkpt lat="47.36429" lon="-1.19105">
        <ele>66</ele>
        <time>2025-08-02T09:22:06.000Z</time>
      </trkpt>
      <trkpt lat="47.36429" lon="-1.19105">
        <ele>66</ele>
        <time>2025-08-02T09:22:07.000Z</time>
      </trkpt>
      <trkpt lat="47.36428" lon="-1.19105">
        <ele>65</ele>
        <time>2025-08-02T09:22:08.000Z</time>
      </trkpt>
      <trkpt lat="47.36427" lon="-1.19106">
        <ele>65</ele>
        <time>2025-08-02T09:22:09.000Z</time>
      </trkpt>
      <trkpt lat="47.36425" lon="-1.19106">
        <ele>65</ele>
        <time>2025-08-02T09:22:10.000Z</time>
      </trkpt>
      <trkpt lat="47.36424" lon="-1.19107">
        <ele>65</ele>
        <time>2025-08-02T09:22:11.000Z</time>
      </trkpt>
      <trkpt lat="47.36423" lon="-1.19107">
        <ele>65</ele>
        <time>2025-08-02T09:22:12.000Z</time>
      </trkpt>
      <trkpt lat="47.36422" lon="-1.19107">
        <ele>65</ele>
        <time>2025-08-02T09:22:13.000Z</time>
      </trkpt>
      <trkpt lat="47.3642" lon="-1.19107">
        <ele>64</ele>
        <time>2025-08-02T09:22:14.000Z</time>
      </trkpt>
      <trkpt lat="47.36419" lon="-1.19108">
        <ele>63</ele>
        <time>2025-08-02T09:22:15.000Z</time>
      </trkpt>
      <trkpt lat="47.36417" lon="-1.19108">
        <ele>62</ele>
        <time>2025-08-02T09:22:16.000Z</time>
      </trkpt>
      <trkpt lat="47.36416" lon="-1.19109">
        <ele>62</ele>
        <time>2025-08-02T09:22:17.000Z</time>
      </trkpt>
      <trkpt lat="47.36415" lon="-1.1911">
        <ele>62</ele>
        <time>2025-08-02T09:22:18.000Z</time>
      </trkpt>
      <trkpt lat="47.36413" lon="-1.1911">
        <ele>62</ele>
        <time>2025-08-02T09:22:19.000Z</time>
      </trkpt>
      <trkpt lat="47.36412" lon="-1.19111">
        <ele>62</ele>
        <time>2025-08-02T09:22:20.000Z</time>
      </trkpt>
      <trkpt lat="47.36411" lon="-1.19111">
        <ele>62</ele>
        <time>2025-08-02T09:22:21.000Z</time>
      </trkpt>
      <trkpt lat="47.3641" lon="-1.19112">
        <ele>62</ele>
        <time>2025-08-02T09:22:22.000Z</time>
      </trkpt>
      <trkpt lat="47.36409" lon="-1.19112">
        <ele>62</ele>
        <time>2025-08-02T09:22:23.000Z</time>
      </trkpt>
      <trkpt lat="47.36407" lon="-1.19112">
        <ele>62</ele>
        <time>2025-08-02T09:22:24.000Z</time>
      </trkpt>
      <trkpt lat="47.36406" lon="-1.19113">
        <ele>62</ele>
        <time>2025-08-02T09:22:25.000Z</time>
      </trkpt>
      <trkpt lat="47.36406" lon="-1.19113">
        <ele>62</ele>
        <time>2025-08-02T09:22:26.000Z</time>
      </trkpt>
      <trkpt lat="47.36405" lon="-1.19113">
        <ele>62</ele>
        <time>2025-08-02T09:22:27.000Z</time>
      </trkpt>
      <trkpt lat="47.36404" lon="-1.19113">
        <ele>62</ele>
        <time>2025-08-02T09:22:28.000Z</time>
      </trkpt>
      <trkpt lat="47.36403" lon="-1.19112">
        <ele>61</ele>
        <time>2025-08-02T09:22:29.000Z</time>
      </trkpt>
      <trkpt lat="47.36402" lon="-1.19112">
        <ele>61</ele>
        <time>2025-08-02T09:22:30.000Z</time>
      </trkpt>
      <trkpt lat="47.364" lon="-1.19111">
        <ele>61</ele>
        <time>2025-08-02T09:22:31.000Z</time>
      </trkpt>
      <trkpt lat="47.364" lon="-1.1911">
        <ele>61</ele>
        <time>2025-08-02T09:22:32.000Z</time>
      </trkpt>
      <trkpt lat="47.36398" lon="-1.1911">
        <ele>60</ele>
        <time>2025-08-02T09:22:33.000Z</time>
      </trkpt>
      <trkpt lat="47.36397" lon="-1.19109">
        <ele>60</ele>
        <time>2025-08-02T09:22:34.000Z</time>
      </trkpt>
      <trkpt lat="47.36397" lon="-1.19109">
        <ele>61</ele>
        <time>2025-08-02T09:22:35.000Z</time>
      </trkpt>
      <trkpt lat="47.36395" lon="-1.19109">
        <ele>61</ele>
        <time>2025-08-02T09:22:36.000Z</time>
      </trkpt>
      <trkpt lat="47.36394" lon="-1.19108">
        <ele>60</ele>
        <time>2025-08-02T09:22:37.000Z</time>
      </trkpt>
      <trkpt lat="47.36393" lon="-1.19107">
        <ele>60</ele>
        <time>2025-08-02T09:22:38.000Z</time>
      </trkpt>
      <trkpt lat="47.36392" lon="-1.19106">
        <ele>60</ele>
        <time>2025-08-02T09:22:39.000Z</time>
      </trkpt>
      <trkpt lat="47.36391" lon="-1.19105">
        <ele>60</ele>
        <time>2025-08-02T09:22:40.000Z</time>
      </trkpt>
      <trkpt lat="47.3639" lon="-1.19105">
        <ele>60</ele>
        <time>2025-08-02T09:22:41.000Z</time>
      </trkpt>
      <trkpt lat="47.3639" lon="-1.19104">
        <ele>60</ele>
        <time>2025-08-02T09:22:42.000Z</time>
      </trkpt>
      <trkpt lat="47.36389" lon="-1.19103">
        <ele>60</ele>
        <time>2025-08-02T09:22:43.000Z</time>
      </trkpt>
      <trkpt lat="47.36388" lon="-1.19102">
        <ele>60</ele>
        <time>2025-08-02T09:22:44.000Z</time>
      </trkpt>
      <trkpt lat="47.36388" lon="-1.19102">
        <ele>59</ele>
        <time>2025-08-02T09:22:45.000Z</time>
      </trkpt>
      <trkpt lat="47.36388" lon="-1.19102">
        <ele>59</ele>
        <time>2025-08-02T09:22:46.000Z</time>
      </trkpt>
      <trkpt lat="47.36388" lon="-1.19102">
        <ele>60</ele>
        <time>2025-08-02T09:22:47.000Z</time>
      </trkpt>
      <trkpt lat="47.36388" lon="-1.19102">
        <ele>60</ele>
        <time>2025-08-02T09:22:48.000Z</time>
      </trkpt>
      <trkpt lat="47.36388" lon="-1.19102">
        <ele>60</ele>
        <time>2025-08-02T09:22:49.000Z</time>
      </trkpt>
      <trkpt lat="47.36388" lon="-1.19102">
        <ele>60</ele>
        <time>2025-08-02T09:22:50.000Z</time>
      </trkpt>
      <trkpt lat="47.36388" lon="-1.19102">
        <ele>60</ele>
        <time>2025-08-02T09:22:51.000Z</time>
      </trkpt>
      <trkpt lat="47.36388" lon="-1.19102">
        <ele>60</ele>
        <time>2025-08-02T09:22:52.000Z</time>
      </trkpt>
      <trkpt lat="47.36388" lon="-1.19102">
        <ele>60</ele>
        <time>2025-08-02T09:22:53.000Z</time>
      </trkpt>
      <trkpt lat="47.36388" lon="-1.19102">
        <ele>60</ele>
        <time>2025-08-02T09:22:54.000Z</time>
      </trkpt>
      <trkpt lat="47.36388" lon="-1.19102">
        <ele>60</ele>
        <time>2025-08-02T09:22:55.000Z</time>
      </trkpt>
      <trkpt lat="47.36388" lon="-1.19101">
        <ele>60</ele>
        <time>2025-08-02T09:22:56.000Z</time>
      </trkpt>
      <trkpt lat="47.36387" lon="-1.19101">
        <ele>60</ele>
        <time>2025-08-02T09:22:57.000Z</time>
      </trkpt>
      <trkpt lat="47.36386" lon="-1.191">
        <ele>59</ele>
        <time>2025-08-02T09:22:58.000Z</time>
      </trkpt>
      <trkpt lat="47.36385" lon="-1.191">
        <ele>59</ele>
        <time>2025-08-02T09:22:59.000Z</time>
      </trkpt>
      <trkpt lat="47.36384" lon="-1.19099">
        <ele>59</ele>
        <time>2025-08-02T09:23:00.000Z</time>
      </trkpt>
      <trkpt lat="47.36383" lon="-1.19099">
        <ele>58</ele>
        <time>2025-08-02T09:23:01.000Z</time>
      </trkpt>
      <trkpt lat="47.36382" lon="-1.191">
        <ele>58</ele>
        <time>2025-08-02T09:23:02.000Z</time>
      </trkpt>
      <trkpt lat="47.36381" lon="-1.191">
        <ele>59</ele>
        <time>2025-08-02T09:23:03.000Z</time>
      </trkpt>
      <trkpt lat="47.3638" lon="-1.19101">
        <ele>59</ele>
        <time>2025-08-02T09:23:04.000Z</time>
      </trkpt>
      <trkpt lat="47.36378" lon="-1.19101">
        <ele>59</ele>
        <time>2025-08-02T09:23:05.000Z</time>
      </trkpt>
      <trkpt lat="47.36377" lon="-1.19101">
        <ele>59</ele>
        <time>2025-08-02T09:23:06.000Z</time>
      </trkpt>
      <trkpt lat="47.36376" lon="-1.19101">
        <ele>59</ele>
        <time>2025-08-02T09:23:07.000Z</time>
      </trkpt>
      <trkpt lat="47.36375" lon="-1.19101">
        <ele>59</ele>
        <time>2025-08-02T09:23:08.000Z</time>
      </trkpt>
      <trkpt lat="47.36374" lon="-1.19101">
        <ele>59</ele>
        <time>2025-08-02T09:23:09.000Z</time>
      </trkpt>
      <trkpt lat="47.36373" lon="-1.19101">
        <ele>59</ele>
        <time>2025-08-02T09:23:10.000Z</time>
      </trkpt>
      <trkpt lat="47.36372" lon="-1.19101">
        <ele>59</ele>
        <time>2025-08-02T09:23:11.000Z</time>
      </trkpt>
      <trkpt lat="47.36371" lon="-1.19101">
        <ele>59</ele>
        <time>2025-08-02T09:23:12.000Z</time>
      </trkpt>
      <trkpt lat="47.3637" lon="-1.191">
        <ele>59</ele>
        <time>2025-08-02T09:23:13.000Z</time>
      </trkpt>
      <trkpt lat="47.36369" lon="-1.191">
        <ele>58</ele>
        <time>2025-08-02T09:23:14.000Z</time>
      </trkpt>
      <trkpt lat="47.36369" lon="-1.191">
        <ele>58</ele>
        <time>2025-08-02T09:23:15.000Z</time>
      </trkpt>
      <trkpt lat="47.36367" lon="-1.191">
        <ele>58</ele>
        <time>2025-08-02T09:23:16.000Z</time>
      </trkpt>
      <trkpt lat="47.36366" lon="-1.191">
        <ele>58</ele>
        <time>2025-08-02T09:23:17.000Z</time>
      </trkpt>
      <trkpt lat="47.36365" lon="-1.191">
        <ele>58</ele>
        <time>2025-08-02T09:23:18.000Z</time>
      </trkpt>
      <trkpt lat="47.36365" lon="-1.191">
        <ele>57</ele>
        <time>2025-08-02T09:23:19.000Z</time>
      </trkpt>
      <trkpt lat="47.36364" lon="-1.191">
        <ele>57</ele>
        <time>2025-08-02T09:23:20.000Z</time>
      </trkpt>
      <trkpt lat="47.36363" lon="-1.19101">
        <ele>58</ele>
        <time>2025-08-02T09:23:21.000Z</time>
      </trkpt>
      <trkpt lat="47.36362" lon="-1.19101">
        <ele>57</ele>
        <time>2025-08-02T09:23:22.000Z</time>
      </trkpt>
      <trkpt lat="47.36361" lon="-1.19101">
        <ele>57</ele>
        <time>2025-08-02T09:23:23.000Z</time>
      </trkpt>
      <trkpt lat="47.3636" lon="-1.19101">
        <ele>57</ele>
        <time>2025-08-02T09:23:24.000Z</time>
      </trkpt>
      <trkpt lat="47.36359" lon="-1.19101">
        <ele>58</ele>
        <time>2025-08-02T09:23:25.000Z</time>
      </trkpt>
      <trkpt lat="47.36358" lon="-1.19101">
        <ele>57</ele>
        <time>2025-08-02T09:23:26.000Z</time>
      </trkpt>
      <trkpt lat="47.36357" lon="-1.19102">
        <ele>57</ele>
        <time>2025-08-02T09:23:27.000Z</time>
      </trkpt>
      <trkpt lat="47.36356" lon="-1.19102">
        <ele>57</ele>
        <time>2025-08-02T09:23:28.000Z</time>
      </trkpt>
      <trkpt lat="47.36355" lon="-1.19102">
        <ele>57</ele>
        <time>2025-08-02T09:23:29.000Z</time>
      </trkpt>
      <trkpt lat="47.36354" lon="-1.19102">
        <ele>57</ele>
        <time>2025-08-02T09:23:30.000Z</time>
      </trkpt>
      <trkpt lat="47.36353" lon="-1.19102">
        <ele>56</ele>
        <time>2025-08-02T09:23:31.000Z</time>
      </trkpt>
      <trkpt lat="47.36352" lon="-1.19102">
        <ele>56</ele>
        <time>2025-08-02T09:23:32.000Z</time>
      </trkpt>
      <trkpt lat="47.36351" lon="-1.19102">
        <ele>56</ele>
        <time>2025-08-02T09:23:33.000Z</time>
      </trkpt>
      <trkpt lat="47.3635" lon="-1.19102">
        <ele>57</ele>
        <time>2025-08-02T09:23:34.000Z</time>
      </trkpt>
      <trkpt lat="47.36349" lon="-1.19102">
        <ele>57</ele>
        <time>2025-08-02T09:23:35.000Z</time>
      </trkpt>
      <trkpt lat="47.36348" lon="-1.19102">
        <ele>57</ele>
        <time>2025-08-02T09:23:36.000Z</time>
      </trkpt>
      <trkpt lat="47.36348" lon="-1.19103">
        <ele>57</ele>
        <time>2025-08-02T09:23:37.000Z</time>
      </trkpt>
      <trkpt lat="47.36347" lon="-1.19103">
        <ele>57</ele>
        <time>2025-08-02T09:23:38.000Z</time>
      </trkpt>
      <trkpt lat="47.36346" lon="-1.19103">
        <ele>56</ele>
        <time>2025-08-02T09:23:39.000Z</time>
      </trkpt>
      <trkpt lat="47.36345" lon="-1.19103">
        <ele>56</ele>
        <time>2025-08-02T09:23:40.000Z</time>
      </trkpt>
      <trkpt lat="47.36345" lon="-1.19101">
        <ele>55</ele>
        <time>2025-08-02T09:23:41.000Z</time>
      </trkpt>
      <trkpt lat="47.36344" lon="-1.19101">
        <ele>54</ele>
        <time>2025-08-02T09:23:42.000Z</time>
      </trkpt>
      <trkpt lat="47.36344" lon="-1.19102">
        <ele>54</ele>
        <time>2025-08-02T09:23:43.000Z</time>
      </trkpt>
      <trkpt lat="47.36344" lon="-1.19102">
        <ele>54</ele>
        <time>2025-08-02T09:23:44.000Z</time>
      </trkpt>
      <trkpt lat="47.36344" lon="-1.19102">
        <ele>54</ele>
        <time>2025-08-02T09:23:45.000Z</time>
      </trkpt>
      <trkpt lat="47.36344" lon="-1.19101">
        <ele>54</ele>
        <time>2025-08-02T09:23:46.000Z</time>
      </trkpt>
      <trkpt lat="47.36344" lon="-1.191">
        <ele>54</ele>
        <time>2025-08-02T09:23:47.000Z</time>
      </trkpt>
      <trkpt lat="47.36344" lon="-1.19099">
        <ele>55</ele>
        <time>2025-08-02T09:23:48.000Z</time>
      </trkpt>
      <trkpt lat="47.36344" lon="-1.19099">
        <ele>54</ele>
        <time>2025-08-02T09:23:49.000Z</time>
      </trkpt>
      <trkpt lat="47.36344" lon="-1.19099">
        <ele>54</ele>
        <time>2025-08-02T09:23:50.000Z</time>
      </trkpt>
      <trkpt lat="47.36344" lon="-1.19099">
        <ele>54</ele>
        <time>2025-08-02T09:23:51.000Z</time>
      </trkpt>
      <trkpt lat="47.36343" lon="-1.19098">
        <ele>54</ele>
        <time>2025-08-02T09:23:52.000Z</time>
      </trkpt>
      <trkpt lat="47.36343" lon="-1.19098">
        <ele>54</ele>
        <time>2025-08-02T09:23:53.000Z</time>
      </trkpt>
      <trkpt lat="47.36343" lon="-1.19098">
        <ele>54</ele>
        <time>2025-08-02T09:23:54.000Z</time>
      </trkpt>
      <trkpt lat="47.36343" lon="-1.19098">
        <ele>54</ele>
        <time>2025-08-02T09:23:55.000Z</time>
      </trkpt>
      <trkpt lat="47.36343" lon="-1.19098">
        <ele>54</ele>
        <time>2025-08-02T09:23:56.000Z</time>
      </trkpt>
      <trkpt lat="47.36342" lon="-1.19099">
        <ele>54</ele>
        <time>2025-08-02T09:23:57.000Z</time>
      </trkpt>
      <trkpt lat="47.36342" lon="-1.19101">
        <ele>55</ele>
        <time>2025-08-02T09:23:58.000Z</time>
      </trkpt>
      <trkpt lat="47.36342" lon="-1.19102">
        <ele>55</ele>
        <time>2025-08-02T09:23:59.000Z</time>
      </trkpt>
      <trkpt lat="47.36342" lon="-1.19103">
        <ele>55</ele>
        <time>2025-08-02T09:24:00.000Z</time>
      </trkpt>
      <trkpt lat="47.36342" lon="-1.19104">
        <ele>55</ele>
        <time>2025-08-02T09:24:01.000Z</time>
      </trkpt>
      <trkpt lat="47.36343" lon="-1.19104">
        <ele>55</ele>
        <time>2025-08-02T09:24:02.000Z</time>
      </trkpt>
      <trkpt lat="47.36343" lon="-1.19104">
        <ele>55</ele>
        <time>2025-08-02T09:24:03.000Z</time>
      </trkpt>
      <trkpt lat="47.36343" lon="-1.19104">
        <ele>55</ele>
        <time>2025-08-02T09:24:04.000Z</time>
      </trkpt>
      <trkpt lat="47.36343" lon="-1.19104">
        <ele>55</ele>
        <time>2025-08-02T09:24:05.000Z</time>
      </trkpt>
      <trkpt lat="47.36342" lon="-1.19105">
        <ele>56</ele>
        <time>2025-08-02T09:24:06.000Z</time>
      </trkpt>
      <trkpt lat="47.36342" lon="-1.19105">
        <ele>56</ele>
        <time>2025-08-02T09:24:07.000Z</time>
      </trkpt>
      <trkpt lat="47.36342" lon="-1.19105">
        <ele>56</ele>
        <time>2025-08-02T09:24:08.000Z</time>
      </trkpt>
      <trkpt lat="47.36342" lon="-1.19105">
        <ele>56</ele>
        <time>2025-08-02T09:24:09.000Z</time>
      </trkpt>
      <trkpt lat="47.36342" lon="-1.19105">
        <ele>56</ele>
        <time>2025-08-02T09:24:10.000Z</time>
      </trkpt>
      <trkpt lat="47.36341" lon="-1.19105">
        <ele>56</ele>
        <time>2025-08-02T09:24:11.000Z</time>
      </trkpt>
      <trkpt lat="47.36341" lon="-1.19105">
        <ele>56</ele>
        <time>2025-08-02T09:24:12.000Z</time>
      </trkpt>
      <trkpt lat="47.36341" lon="-1.19107">
        <ele>56</ele>
        <time>2025-08-02T09:24:13.000Z</time>
      </trkpt>
      <trkpt lat="47.3634" lon="-1.19108">
        <ele>56</ele>
        <time>2025-08-02T09:24:14.000Z</time>
      </trkpt>
      <trkpt lat="47.36339" lon="-1.19109">
        <ele>56</ele>
        <time>2025-08-02T09:24:15.000Z</time>
      </trkpt>
      <trkpt lat="47.36339" lon="-1.19111">
        <ele>56</ele>
        <time>2025-08-02T09:24:16.000Z</time>
      </trkpt>
      <trkpt lat="47.36338" lon="-1.19112">
        <ele>56</ele>
        <time>2025-08-02T09:24:17.000Z</time>
      </trkpt>
      <trkpt lat="47.36338" lon="-1.19113">
        <ele>55</ele>
        <time>2025-08-02T09:24:18.000Z</time>
      </trkpt>
      <trkpt lat="47.36338" lon="-1.19114">
        <ele>55</ele>
        <time>2025-08-02T09:24:19.000Z</time>
      </trkpt>
      <trkpt lat="47.36338" lon="-1.19116">
        <ele>55</ele>
        <time>2025-08-02T09:24:20.000Z</time>
      </trkpt>
      <trkpt lat="47.36338" lon="-1.19118">
        <ele>55</ele>
        <time>2025-08-02T09:24:21.000Z</time>
      </trkpt>
      <trkpt lat="47.36338" lon="-1.19119">
        <ele>55</ele>
        <time>2025-08-02T09:24:22.000Z</time>
      </trkpt>
      <trkpt lat="47.36339" lon="-1.19121">
        <ele>55</ele>
        <time>2025-08-02T09:24:23.000Z</time>
      </trkpt>
      <trkpt lat="47.36339" lon="-1.19122">
        <ele>55</ele>
        <time>2025-08-02T09:24:24.000Z</time>
      </trkpt>
      <trkpt lat="47.36339" lon="-1.19124">
        <ele>55</ele>
        <time>2025-08-02T09:24:25.000Z</time>
      </trkpt>
      <trkpt lat="47.36339" lon="-1.19125">
        <ele>56</ele>
        <time>2025-08-02T09:24:26.000Z</time>
      </trkpt>
      <trkpt lat="47.3634" lon="-1.19127">
        <ele>55</ele>
        <time>2025-08-02T09:24:27.000Z</time>
      </trkpt>
      <trkpt lat="47.3634" lon="-1.19129">
        <ele>55</ele>
        <time>2025-08-02T09:24:28.000Z</time>
      </trkpt>
      <trkpt lat="47.3634" lon="-1.1913">
        <ele>56</ele>
        <time>2025-08-02T09:24:29.000Z</time>
      </trkpt>
      <trkpt lat="47.3634" lon="-1.19132">
        <ele>55</ele>
        <time>2025-08-02T09:24:30.000Z</time>
      </trkpt>
      <trkpt lat="47.3634" lon="-1.19134">
        <ele>55</ele>
        <time>2025-08-02T09:24:31.000Z</time>
      </trkpt>
      <trkpt lat="47.3634" lon="-1.19135">
        <ele>55</ele>
        <time>2025-08-02T09:24:32.000Z</time>
      </trkpt>
      <trkpt lat="47.36341" lon="-1.19137">
        <ele>55</ele>
        <time>2025-08-02T09:24:33.000Z</time>
      </trkpt>
      <trkpt lat="47.36341" lon="-1.19138">
        <ele>55</ele>
        <time>2025-08-02T09:24:34.000Z</time>
      </trkpt>
      <trkpt lat="47.36341" lon="-1.1914">
        <ele>55</ele>
        <time>2025-08-02T09:24:35.000Z</time>
      </trkpt>
      <trkpt lat="47.3634" lon="-1.19142">
        <ele>54</ele>
        <time>2025-08-02T09:24:36.000Z</time>
      </trkpt>
      <trkpt lat="47.3634" lon="-1.19144">
        <ele>55</ele>
        <time>2025-08-02T09:24:37.000Z</time>
      </trkpt>
      <trkpt lat="47.3634" lon="-1.19147">
        <ele>55</ele>
        <time>2025-08-02T09:24:38.000Z</time>
      </trkpt>
      <trkpt lat="47.3634" lon="-1.19148">
        <ele>55</ele>
        <time>2025-08-02T09:24:39.000Z</time>
      </trkpt>
      <trkpt lat="47.3634" lon="-1.1915">
        <ele>55</ele>
        <time>2025-08-02T09:24:40.000Z</time>
      </trkpt>
      <trkpt lat="47.3634" lon="-1.19152">
        <ele>55</ele>
        <time>2025-08-02T09:24:41.000Z</time>
      </trkpt>
      <trkpt lat="47.3634" lon="-1.19154">
        <ele>55</ele>
        <time>2025-08-02T09:24:42.000Z</time>
      </trkpt>
      <trkpt lat="47.3634" lon="-1.19155">
        <ele>55</ele>
        <time>2025-08-02T09:24:43.000Z</time>
      </trkpt>
      <trkpt lat="47.3634" lon="-1.19157">
        <ele>55</ele>
        <time>2025-08-02T09:24:44.000Z</time>
      </trkpt>
      <trkpt lat="47.36341" lon="-1.19159">
        <ele>55</ele>
        <time>2025-08-02T09:24:45.000Z</time>
      </trkpt>
      <trkpt lat="47.36341" lon="-1.19161">
        <ele>55</ele>
        <time>2025-08-02T09:24:46.000Z</time>
      </trkpt>
      <trkpt lat="47.36341" lon="-1.19163">
        <ele>55</ele>
        <time>2025-08-02T09:24:47.000Z</time>
      </trkpt>
      <trkpt lat="47.36341" lon="-1.19164">
        <ele>56</ele>
        <time>2025-08-02T09:24:48.000Z</time>
      </trkpt>
      <trkpt lat="47.36342" lon="-1.19166">
        <ele>56</ele>
        <time>2025-08-02T09:24:49.000Z</time>
      </trkpt>
      <trkpt lat="47.36342" lon="-1.19168">
        <ele>56</ele>
        <time>2025-08-02T09:24:50.000Z</time>
      </trkpt>
      <trkpt lat="47.36342" lon="-1.1917">
        <ele>56</ele>
        <time>2025-08-02T09:24:51.000Z</time>
      </trkpt>
      <trkpt lat="47.36342" lon="-1.19171">
        <ele>56</ele>
        <time>2025-08-02T09:24:52.000Z</time>
      </trkpt>
      <trkpt lat="47.36342" lon="-1.19172">
        <ele>57</ele>
        <time>2025-08-02T09:24:53.000Z</time>
      </trkpt>
      <trkpt lat="47.36342" lon="-1.19174">
        <ele>56</ele>
        <time>2025-08-02T09:24:54.000Z</time>
      </trkpt>
      <trkpt lat="47.36342" lon="-1.19176">
        <ele>56</ele>
        <time>2025-08-02T09:24:55.000Z</time>
      </trkpt>
      <trkpt lat="47.36342" lon="-1.19178">
        <ele>56</ele>
        <time>2025-08-02T09:24:56.000Z</time>
      </trkpt>
      <trkpt lat="47.36342" lon="-1.19179">
        <ele>56</ele>
        <time>2025-08-02T09:24:57.000Z</time>
      </trkpt>
      <trkpt lat="47.36342" lon="-1.19181">
        <ele>56</ele>
        <time>2025-08-02T09:24:58.000Z</time>
      </trkpt>
      <trkpt lat="47.36342" lon="-1.19182">
        <ele>56</ele>
        <time>2025-08-02T09:24:59.000Z</time>
      </trkpt>
      <trkpt lat="47.36342" lon="-1.19184">
        <ele>56</ele>
        <time>2025-08-02T09:25:00.000Z</time>
      </trkpt>
      <trkpt lat="47.36342" lon="-1.19185">
        <ele>56</ele>
        <time>2025-08-02T09:25:01.000Z</time>
      </trkpt>
      <trkpt lat="47.36342" lon="-1.19187">
        <ele>56</ele>
        <time>2025-08-02T09:25:02.000Z</time>
      </trkpt>
      <trkpt lat="47.36342" lon="-1.19189">
        <ele>56</ele>
        <time>2025-08-02T09:25:03.000Z</time>
      </trkpt>
      <trkpt lat="47.36342" lon="-1.1919">
        <ele>56</ele>
        <time>2025-08-02T09:25:04.000Z</time>
      </trkpt>
      <trkpt lat="47.36342" lon="-1.19193">
        <ele>56</ele>
        <time>2025-08-02T09:25:05.000Z</time>
      </trkpt>
      <trkpt lat="47.36341" lon="-1.19195">
        <ele>56</ele>
        <time>2025-08-02T09:25:06.000Z</time>
      </trkpt>
      <trkpt lat="47.36342" lon="-1.19196">
        <ele>56</ele>
        <time>2025-08-02T09:25:07.000Z</time>
      </trkpt>
      <trkpt lat="47.36342" lon="-1.19198">
        <ele>56</ele>
        <time>2025-08-02T09:25:08.000Z</time>
      </trkpt>
      <trkpt lat="47.36341" lon="-1.19199">
        <ele>56</ele>
        <time>2025-08-02T09:25:09.000Z</time>
      </trkpt>
      <trkpt lat="47.36342" lon="-1.19201">
        <ele>57</ele>
        <time>2025-08-02T09:25:10.000Z</time>
      </trkpt>
      <trkpt lat="47.36342" lon="-1.19202">
        <ele>57</ele>
        <time>2025-08-02T09:25:11.000Z</time>
      </trkpt>
      <trkpt lat="47.36342" lon="-1.19204">
        <ele>57</ele>
        <time>2025-08-02T09:25:12.000Z</time>
      </trkpt>
      <trkpt lat="47.36342" lon="-1.19205">
        <ele>57</ele>
        <time>2025-08-02T09:25:13.000Z</time>
      </trkpt>
      <trkpt lat="47.36343" lon="-1.19207">
        <ele>57</ele>
        <time>2025-08-02T09:25:14.000Z</time>
      </trkpt>
      <trkpt lat="47.36343" lon="-1.19209">
        <ele>57</ele>
        <time>2025-08-02T09:25:15.000Z</time>
      </trkpt>
      <trkpt lat="47.36343" lon="-1.19211">
        <ele>57</ele>
        <time>2025-08-02T09:25:16.000Z</time>
      </trkpt>
      <trkpt lat="47.36343" lon="-1.19212">
        <ele>57</ele>
        <time>2025-08-02T09:25:17.000Z</time>
      </trkpt>
      <trkpt lat="47.36343" lon="-1.19214">
        <ele>57</ele>
        <time>2025-08-02T09:25:18.000Z</time>
      </trkpt>
      <trkpt lat="47.36343" lon="-1.19216">
        <ele>57</ele>
        <time>2025-08-02T09:25:19.000Z</time>
      </trkpt>
      <trkpt lat="47.36343" lon="-1.19217">
        <ele>57</ele>
        <time>2025-08-02T09:25:20.000Z</time>
      </trkpt>
      <trkpt lat="47.36342" lon="-1.19219">
        <ele>56</ele>
        <time>2025-08-02T09:25:21.000Z</time>
      </trkpt>
      <trkpt lat="47.36342" lon="-1.19221">
        <ele>57</ele>
        <time>2025-08-02T09:25:22.000Z</time>
      </trkpt>
      <trkpt lat="47.36341" lon="-1.19222">
        <ele>57</ele>
        <time>2025-08-02T09:25:23.000Z</time>
      </trkpt>
      <trkpt lat="47.36341" lon="-1.19223">
        <ele>57</ele>
        <time>2025-08-02T09:25:24.000Z</time>
      </trkpt>
      <trkpt lat="47.36341" lon="-1.19225">
        <ele>57</ele>
        <time>2025-08-02T09:25:25.000Z</time>
      </trkpt>
      <trkpt lat="47.3634" lon="-1.19225">
        <ele>57</ele>
        <time>2025-08-02T09:25:26.000Z</time>
      </trkpt>
      <trkpt lat="47.36339" lon="-1.19226">
        <ele>57</ele>
        <time>2025-08-02T09:25:27.000Z</time>
      </trkpt>
      <trkpt lat="47.36339" lon="-1.19227">
        <ele>57</ele>
        <time>2025-08-02T09:25:28.000Z</time>
      </trkpt>
      <trkpt lat="47.36338" lon="-1.19228">
        <ele>57</ele>
        <time>2025-08-02T09:25:29.000Z</time>
      </trkpt>
      <trkpt lat="47.36337" lon="-1.19228">
        <ele>57</ele>
        <time>2025-08-02T09:25:30.000Z</time>
      </trkpt>
      <trkpt lat="47.36336" lon="-1.19228">
        <ele>57</ele>
        <time>2025-08-02T09:25:31.000Z</time>
      </trkpt>
      <trkpt lat="47.36335" lon="-1.19228">
        <ele>57</ele>
        <time>2025-08-02T09:25:32.000Z</time>
      </trkpt>
      <trkpt lat="47.36334" lon="-1.19228">
        <ele>56</ele>
        <time>2025-08-02T09:25:33.000Z</time>
      </trkpt>
      <trkpt lat="47.36333" lon="-1.19229">
        <ele>57</ele>
        <time>2025-08-02T09:25:34.000Z</time>
      </trkpt>
      <trkpt lat="47.36332" lon="-1.19229">
        <ele>57</ele>
        <time>2025-08-02T09:25:35.000Z</time>
      </trkpt>
      <trkpt lat="47.36332" lon="-1.1923">
        <ele>57</ele>
        <time>2025-08-02T09:25:36.000Z</time>
      </trkpt>
      <trkpt lat="47.36331" lon="-1.1923">
        <ele>57</ele>
        <time>2025-08-02T09:25:37.000Z</time>
      </trkpt>
      <trkpt lat="47.3633" lon="-1.1923">
        <ele>57</ele>
        <time>2025-08-02T09:25:38.000Z</time>
      </trkpt>
      <trkpt lat="47.36329" lon="-1.19231">
        <ele>57</ele>
        <time>2025-08-02T09:25:39.000Z</time>
      </trkpt>
      <trkpt lat="47.36328" lon="-1.19231">
        <ele>58</ele>
        <time>2025-08-02T09:25:40.000Z</time>
      </trkpt>
      <trkpt lat="47.36327" lon="-1.19231">
        <ele>58</ele>
        <time>2025-08-02T09:25:41.000Z</time>
      </trkpt>
      <trkpt lat="47.36325" lon="-1.1923">
        <ele>58</ele>
        <time>2025-08-02T09:25:42.000Z</time>
      </trkpt>
      <trkpt lat="47.36324" lon="-1.1923">
        <ele>58</ele>
        <time>2025-08-02T09:25:43.000Z</time>
      </trkpt>
      <trkpt lat="47.36323" lon="-1.1923">
        <ele>57</ele>
        <time>2025-08-02T09:25:44.000Z</time>
      </trkpt>
      <trkpt lat="47.36323" lon="-1.1923">
        <ele>57</ele>
        <time>2025-08-02T09:25:45.000Z</time>
      </trkpt>
      <trkpt lat="47.36323" lon="-1.1923">
        <ele>57</ele>
        <time>2025-08-02T09:25:46.000Z</time>
      </trkpt>
      <trkpt lat="47.36322" lon="-1.1923">
        <ele>57</ele>
        <time>2025-08-02T09:25:47.000Z</time>
      </trkpt>
      <trkpt lat="47.36322" lon="-1.1923">
        <ele>57</ele>
        <time>2025-08-02T09:25:48.000Z</time>
      </trkpt>
      <trkpt lat="47.36322" lon="-1.1923">
        <ele>57</ele>
        <time>2025-08-02T09:25:49.000Z</time>
      </trkpt>
      <trkpt lat="47.36322" lon="-1.1923">
        <ele>57</ele>
        <time>2025-08-02T09:25:50.000Z</time>
      </trkpt>
      <trkpt lat="47.36321" lon="-1.19231">
        <ele>58</ele>
        <time>2025-08-02T09:25:51.000Z</time>
      </trkpt>
      <trkpt lat="47.3632" lon="-1.19231">
        <ele>58</ele>
        <time>2025-08-02T09:25:52.000Z</time>
      </trkpt>
      <trkpt lat="47.36319" lon="-1.19231">
        <ele>58</ele>
        <time>2025-08-02T09:25:53.000Z</time>
      </trkpt>
      <trkpt lat="47.36319" lon="-1.19231">
        <ele>58</ele>
        <time>2025-08-02T09:25:54.000Z</time>
      </trkpt>
      <trkpt lat="47.36319" lon="-1.19231">
        <ele>58</ele>
        <time>2025-08-02T09:25:55.000Z</time>
      </trkpt>
      <trkpt lat="47.36317" lon="-1.19232">
        <ele>58</ele>
        <time>2025-08-02T09:25:56.000Z</time>
      </trkpt>
      <trkpt lat="47.36316" lon="-1.19232">
        <ele>59</ele>
        <time>2025-08-02T09:25:57.000Z</time>
      </trkpt>
      <trkpt lat="47.36315" lon="-1.19232">
        <ele>59</ele>
        <time>2025-08-02T09:25:58.000Z</time>
      </trkpt>
      <trkpt lat="47.36314" lon="-1.19232">
        <ele>59</ele>
        <time>2025-08-02T09:25:59.000Z</time>
      </trkpt>
      <trkpt lat="47.36314" lon="-1.19232">
        <ele>59</ele>
        <time>2025-08-02T09:26:00.000Z</time>
      </trkpt>
      <trkpt lat="47.36313" lon="-1.19232">
        <ele>59</ele>
        <time>2025-08-02T09:26:01.000Z</time>
      </trkpt>
      <trkpt lat="47.36312" lon="-1.19231">
        <ele>59</ele>
        <time>2025-08-02T09:26:02.000Z</time>
      </trkpt>
      <trkpt lat="47.36311" lon="-1.19231">
        <ele>59</ele>
        <time>2025-08-02T09:26:03.000Z</time>
      </trkpt>
      <trkpt lat="47.36309" lon="-1.1923">
        <ele>59</ele>
        <time>2025-08-02T09:26:04.000Z</time>
      </trkpt>
      <trkpt lat="47.36308" lon="-1.1923">
        <ele>59</ele>
        <time>2025-08-02T09:26:05.000Z</time>
      </trkpt>
      <trkpt lat="47.36306" lon="-1.1923">
        <ele>59</ele>
        <time>2025-08-02T09:26:06.000Z</time>
      </trkpt>
      <trkpt lat="47.36304" lon="-1.19229">
        <ele>60</ele>
        <time>2025-08-02T09:26:07.000Z</time>
      </trkpt>
      <trkpt lat="47.36302" lon="-1.19229">
        <ele>60</ele>
        <time>2025-08-02T09:26:08.000Z</time>
      </trkpt>
      <trkpt lat="47.36301" lon="-1.19229">
        <ele>60</ele>
        <time>2025-08-02T09:26:09.000Z</time>
      </trkpt>
      <trkpt lat="47.36299" lon="-1.19228">
        <ele>61</ele>
        <time>2025-08-02T09:26:10.000Z</time>
      </trkpt>
      <trkpt lat="47.36298" lon="-1.19228">
        <ele>60</ele>
        <time>2025-08-02T09:26:11.000Z</time>
      </trkpt>
      <trkpt lat="47.36297" lon="-1.19227">
        <ele>60</ele>
        <time>2025-08-02T09:26:12.000Z</time>
      </trkpt>
      <trkpt lat="47.36295" lon="-1.19227">
        <ele>61</ele>
        <time>2025-08-02T09:26:13.000Z</time>
      </trkpt>
      <trkpt lat="47.36293" lon="-1.19227">
        <ele>61</ele>
        <time>2025-08-02T09:26:14.000Z</time>
      </trkpt>
      <trkpt lat="47.36291" lon="-1.19226">
        <ele>61</ele>
        <time>2025-08-02T09:26:15.000Z</time>
      </trkpt>
      <trkpt lat="47.3629" lon="-1.19225">
        <ele>61</ele>
        <time>2025-08-02T09:26:16.000Z</time>
      </trkpt>
      <trkpt lat="47.36289" lon="-1.19225">
        <ele>62</ele>
        <time>2025-08-02T09:26:17.000Z</time>
      </trkpt>
      <trkpt lat="47.36287" lon="-1.19225">
        <ele>62</ele>
        <time>2025-08-02T09:26:18.000Z</time>
      </trkpt>
      <trkpt lat="47.36286" lon="-1.19224">
        <ele>62</ele>
        <time>2025-08-02T09:26:19.000Z</time>
      </trkpt>
      <trkpt lat="47.36285" lon="-1.19225">
        <ele>62</ele>
        <time>2025-08-02T09:26:20.000Z</time>
      </trkpt>
      <trkpt lat="47.36283" lon="-1.19224">
        <ele>62</ele>
        <time>2025-08-02T09:26:21.000Z</time>
      </trkpt>
      <trkpt lat="47.36282" lon="-1.19224">
        <ele>62</ele>
        <time>2025-08-02T09:26:22.000Z</time>
      </trkpt>
      <trkpt lat="47.36281" lon="-1.19224">
        <ele>62</ele>
        <time>2025-08-02T09:26:23.000Z</time>
      </trkpt>
      <trkpt lat="47.3628" lon="-1.19224">
        <ele>62</ele>
        <time>2025-08-02T09:26:24.000Z</time>
      </trkpt>
      <trkpt lat="47.36279" lon="-1.19224">
        <ele>62</ele>
        <time>2025-08-02T09:26:25.000Z</time>
      </trkpt>
      <trkpt lat="47.36278" lon="-1.19224">
        <ele>62</ele>
        <time>2025-08-02T09:26:26.000Z</time>
      </trkpt>
      <trkpt lat="47.36277" lon="-1.19224">
        <ele>61</ele>
        <time>2025-08-02T09:26:27.000Z</time>
      </trkpt>
      <trkpt lat="47.36276" lon="-1.19224">
        <ele>61</ele>
        <time>2025-08-02T09:26:28.000Z</time>
      </trkpt>
      <trkpt lat="47.36274" lon="-1.19224">
        <ele>60</ele>
        <time>2025-08-02T09:26:29.000Z</time>
      </trkpt>
      <trkpt lat="47.36273" lon="-1.19224">
        <ele>61</ele>
        <time>2025-08-02T09:26:30.000Z</time>
      </trkpt>
      <trkpt lat="47.36271" lon="-1.19223">
        <ele>61</ele>
        <time>2025-08-02T09:26:31.000Z</time>
      </trkpt>
      <trkpt lat="47.3627" lon="-1.19223">
        <ele>62</ele>
        <time>2025-08-02T09:26:32.000Z</time>
      </trkpt>
      <trkpt lat="47.36269" lon="-1.19222">
        <ele>61</ele>
        <time>2025-08-02T09:26:33.000Z</time>
      </trkpt>
      <trkpt lat="47.36267" lon="-1.19222">
        <ele>61</ele>
        <time>2025-08-02T09:26:34.000Z</time>
      </trkpt>
      <trkpt lat="47.36266" lon="-1.19221">
        <ele>61</ele>
        <time>2025-08-02T09:26:35.000Z</time>
      </trkpt>
      <trkpt lat="47.36265" lon="-1.19221">
        <ele>61</ele>
        <time>2025-08-02T09:26:36.000Z</time>
      </trkpt>
      <trkpt lat="47.36263" lon="-1.1922">
        <ele>60</ele>
        <time>2025-08-02T09:26:37.000Z</time>
      </trkpt>
      <trkpt lat="47.36262" lon="-1.1922">
        <ele>60</ele>
        <time>2025-08-02T09:26:38.000Z</time>
      </trkpt>
      <trkpt lat="47.36262" lon="-1.1922">
        <ele>60</ele>
        <time>2025-08-02T09:26:39.000Z</time>
      </trkpt>
      <trkpt lat="47.3626" lon="-1.1922">
        <ele>60</ele>
        <time>2025-08-02T09:26:40.000Z</time>
      </trkpt>
      <trkpt lat="47.36259" lon="-1.19219">
        <ele>60</ele>
        <time>2025-08-02T09:26:41.000Z</time>
      </trkpt>
      <trkpt lat="47.36259" lon="-1.19219">
        <ele>60</ele>
        <time>2025-08-02T09:26:42.000Z</time>
      </trkpt>
      <trkpt lat="47.36258" lon="-1.19219">
        <ele>60</ele>
        <time>2025-08-02T09:26:43.000Z</time>
      </trkpt>
      <trkpt lat="47.36257" lon="-1.19219">
        <ele>60</ele>
        <time>2025-08-02T09:26:44.000Z</time>
      </trkpt>
      <trkpt lat="47.36256" lon="-1.19219">
        <ele>60</ele>
        <time>2025-08-02T09:26:45.000Z</time>
      </trkpt>
      <trkpt lat="47.36256" lon="-1.19219">
        <ele>60</ele>
        <time>2025-08-02T09:26:46.000Z</time>
      </trkpt>
      <trkpt lat="47.36255" lon="-1.19219">
        <ele>60</ele>
        <time>2025-08-02T09:26:47.000Z</time>
      </trkpt>
      <trkpt lat="47.36254" lon="-1.19219">
        <ele>60</ele>
        <time>2025-08-02T09:26:48.000Z</time>
      </trkpt>
      <trkpt lat="47.36253" lon="-1.19218">
        <ele>61</ele>
        <time>2025-08-02T09:26:49.000Z</time>
      </trkpt>
      <trkpt lat="47.36251" lon="-1.19217">
        <ele>61</ele>
        <time>2025-08-02T09:26:50.000Z</time>
      </trkpt>
      <trkpt lat="47.3625" lon="-1.19217">
        <ele>61</ele>
        <time>2025-08-02T09:26:51.000Z</time>
      </trkpt>
      <trkpt lat="47.36249" lon="-1.19216">
        <ele>60</ele>
        <time>2025-08-02T09:26:52.000Z</time>
      </trkpt>
      <trkpt lat="47.36248" lon="-1.19215">
        <ele>60</ele>
        <time>2025-08-02T09:26:53.000Z</time>
      </trkpt>
      <trkpt lat="47.36248" lon="-1.19215">
        <ele>60</ele>
        <time>2025-08-02T09:26:54.000Z</time>
      </trkpt>
      <trkpt lat="47.36246" lon="-1.19215">
        <ele>60</ele>
        <time>2025-08-02T09:26:55.000Z</time>
      </trkpt>
      <trkpt lat="47.36245" lon="-1.19214">
        <ele>60</ele>
        <time>2025-08-02T09:26:56.000Z</time>
      </trkpt>
      <trkpt lat="47.36244" lon="-1.19214">
        <ele>60</ele>
        <time>2025-08-02T09:26:57.000Z</time>
      </trkpt>
      <trkpt lat="47.36243" lon="-1.19214">
        <ele>59</ele>
        <time>2025-08-02T09:26:58.000Z</time>
      </trkpt>
      <trkpt lat="47.36241" lon="-1.19213">
        <ele>60</ele>
        <time>2025-08-02T09:26:59.000Z</time>
      </trkpt>
      <trkpt lat="47.3624" lon="-1.19213">
        <ele>60</ele>
        <time>2025-08-02T09:27:00.000Z</time>
      </trkpt>
      <trkpt lat="47.36238" lon="-1.19213">
        <ele>59</ele>
        <time>2025-08-02T09:27:01.000Z</time>
      </trkpt>
      <trkpt lat="47.36237" lon="-1.19212">
        <ele>59</ele>
        <time>2025-08-02T09:27:02.000Z</time>
      </trkpt>
      <trkpt lat="47.36235" lon="-1.19211">
        <ele>59</ele>
        <time>2025-08-02T09:27:03.000Z</time>
      </trkpt>
      <trkpt lat="47.36234" lon="-1.19211">
        <ele>60</ele>
        <time>2025-08-02T09:27:04.000Z</time>
      </trkpt>
      <trkpt lat="47.36233" lon="-1.19211">
        <ele>60</ele>
        <time>2025-08-02T09:27:05.000Z</time>
      </trkpt>
      <trkpt lat="47.36232" lon="-1.1921">
        <ele>60</ele>
        <time>2025-08-02T09:27:06.000Z</time>
      </trkpt>
      <trkpt lat="47.36231" lon="-1.19211">
        <ele>59</ele>
        <time>2025-08-02T09:27:07.000Z</time>
      </trkpt>
      <trkpt lat="47.3623" lon="-1.19211">
        <ele>59</ele>
        <time>2025-08-02T09:27:08.000Z</time>
      </trkpt>
      <trkpt lat="47.36229" lon="-1.19211">
        <ele>59</ele>
        <time>2025-08-02T09:27:09.000Z</time>
      </trkpt>
      <trkpt lat="47.36228" lon="-1.19211">
        <ele>59</ele>
        <time>2025-08-02T09:27:10.000Z</time>
      </trkpt>
      <trkpt lat="47.36227" lon="-1.1921">
        <ele>58</ele>
        <time>2025-08-02T09:27:11.000Z</time>
      </trkpt>
      <trkpt lat="47.36225" lon="-1.1921">
        <ele>59</ele>
        <time>2025-08-02T09:27:12.000Z</time>
      </trkpt>
      <trkpt lat="47.36223" lon="-1.1921">
        <ele>59</ele>
        <time>2025-08-02T09:27:13.000Z</time>
      </trkpt>
      <trkpt lat="47.36221" lon="-1.19209">
        <ele>59</ele>
        <time>2025-08-02T09:27:14.000Z</time>
      </trkpt>
      <trkpt lat="47.3622" lon="-1.19209">
        <ele>59</ele>
        <time>2025-08-02T09:27:15.000Z</time>
      </trkpt>
      <trkpt lat="47.36219" lon="-1.19208">
        <ele>60</ele>
        <time>2025-08-02T09:27:16.000Z</time>
      </trkpt>
      <trkpt lat="47.36217" lon="-1.19208">
        <ele>60</ele>
        <time>2025-08-02T09:27:17.000Z</time>
      </trkpt>
      <trkpt lat="47.36216" lon="-1.19207">
        <ele>60</ele>
        <time>2025-08-02T09:27:18.000Z</time>
      </trkpt>
      <trkpt lat="47.36215" lon="-1.19206">
        <ele>60</ele>
        <time>2025-08-02T09:27:19.000Z</time>
      </trkpt>
      <trkpt lat="47.36214" lon="-1.19205">
        <ele>60</ele>
        <time>2025-08-02T09:27:20.000Z</time>
      </trkpt>
      <trkpt lat="47.36212" lon="-1.19204">
        <ele>61</ele>
        <time>2025-08-02T09:27:21.000Z</time>
      </trkpt>
      <trkpt lat="47.36211" lon="-1.19204">
        <ele>61</ele>
        <time>2025-08-02T09:27:22.000Z</time>
      </trkpt>
      <trkpt lat="47.36211" lon="-1.19203">
        <ele>61</ele>
        <time>2025-08-02T09:27:23.000Z</time>
      </trkpt>
      <trkpt lat="47.3621" lon="-1.19202">
        <ele>61</ele>
        <time>2025-08-02T09:27:24.000Z</time>
      </trkpt>
      <trkpt lat="47.36209" lon="-1.19201">
        <ele>61</ele>
        <time>2025-08-02T09:27:25.000Z</time>
      </trkpt>
      <trkpt lat="47.36208" lon="-1.19201">
        <ele>61</ele>
        <time>2025-08-02T09:27:26.000Z</time>
      </trkpt>
      <trkpt lat="47.36207" lon="-1.192">
        <ele>61</ele>
        <time>2025-08-02T09:27:27.000Z</time>
      </trkpt>
      <trkpt lat="47.36206" lon="-1.19199">
        <ele>61</ele>
        <time>2025-08-02T09:27:28.000Z</time>
      </trkpt>
      <trkpt lat="47.36205" lon="-1.19199">
        <ele>61</ele>
        <time>2025-08-02T09:27:29.000Z</time>
      </trkpt>
      <trkpt lat="47.36204" lon="-1.19199">
        <ele>61</ele>
        <time>2025-08-02T09:27:30.000Z</time>
      </trkpt>
      <trkpt lat="47.36203" lon="-1.19199">
        <ele>61</ele>
        <time>2025-08-02T09:27:31.000Z</time>
      </trkpt>
      <trkpt lat="47.36202" lon="-1.19199">
        <ele>60</ele>
        <time>2025-08-02T09:27:32.000Z</time>
      </trkpt>
      <trkpt lat="47.36201" lon="-1.19198">
        <ele>60</ele>
        <time>2025-08-02T09:27:33.000Z</time>
      </trkpt>
      <trkpt lat="47.36201" lon="-1.19198">
        <ele>60</ele>
        <time>2025-08-02T09:27:34.000Z</time>
      </trkpt>
      <trkpt lat="47.36201" lon="-1.19198">
        <ele>60</ele>
        <time>2025-08-02T09:27:35.000Z</time>
      </trkpt>
      <trkpt lat="47.36201" lon="-1.19198">
        <ele>60</ele>
        <time>2025-08-02T09:27:36.000Z</time>
      </trkpt>
      <trkpt lat="47.36201" lon="-1.19198">
        <ele>60</ele>
        <time>2025-08-02T09:27:37.000Z</time>
      </trkpt>
      <trkpt lat="47.362" lon="-1.19198">
        <ele>59</ele>
        <time>2025-08-02T09:27:38.000Z</time>
      </trkpt>
      <trkpt lat="47.36199" lon="-1.19198">
        <ele>59</ele>
        <time>2025-08-02T09:27:39.000Z</time>
      </trkpt>
      <trkpt lat="47.36199" lon="-1.19198">
        <ele>60</ele>
        <time>2025-08-02T09:27:40.000Z</time>
      </trkpt>
      <trkpt lat="47.36198" lon="-1.19197">
        <ele>60</ele>
        <time>2025-08-02T09:27:41.000Z</time>
      </trkpt>
      <trkpt lat="47.36198" lon="-1.19197">
        <ele>60</ele>
        <time>2025-08-02T09:27:42.000Z</time>
      </trkpt>
      <trkpt lat="47.36198" lon="-1.19197">
        <ele>60</ele>
        <time>2025-08-02T09:27:43.000Z</time>
      </trkpt>
      <trkpt lat="47.36198" lon="-1.19197">
        <ele>60</ele>
        <time>2025-08-02T09:27:44.000Z</time>
      </trkpt>
      <trkpt lat="47.36198" lon="-1.19197">
        <ele>60</ele>
        <time>2025-08-02T09:27:45.000Z</time>
      </trkpt>
      <trkpt lat="47.36196" lon="-1.19197">
        <ele>59</ele>
        <time>2025-08-02T09:27:46.000Z</time>
      </trkpt>
      <trkpt lat="47.36195" lon="-1.19196">
        <ele>59</ele>
        <time>2025-08-02T09:27:47.000Z</time>
      </trkpt>
      <trkpt lat="47.36194" lon="-1.19196">
        <ele>59</ele>
        <time>2025-08-02T09:27:48.000Z</time>
      </trkpt>
      <trkpt lat="47.36192" lon="-1.19196">
        <ele>59</ele>
        <time>2025-08-02T09:27:49.000Z</time>
      </trkpt>
      <trkpt lat="47.36191" lon="-1.19197">
        <ele>59</ele>
        <time>2025-08-02T09:27:50.000Z</time>
      </trkpt>
      <trkpt lat="47.3619" lon="-1.19198">
        <ele>59</ele>
        <time>2025-08-02T09:27:51.000Z</time>
      </trkpt>
      <trkpt lat="47.36189" lon="-1.19199">
        <ele>60</ele>
        <time>2025-08-02T09:27:52.000Z</time>
      </trkpt>
      <trkpt lat="47.36188" lon="-1.192">
        <ele>59</ele>
        <time>2025-08-02T09:27:53.000Z</time>
      </trkpt>
      <trkpt lat="47.36186" lon="-1.192">
        <ele>59</ele>
        <time>2025-08-02T09:27:54.000Z</time>
      </trkpt>
      <trkpt lat="47.36185" lon="-1.19201">
        <ele>59</ele>
        <time>2025-08-02T09:27:55.000Z</time>
      </trkpt>
      <trkpt lat="47.36183" lon="-1.19203">
        <ele>58</ele>
        <time>2025-08-02T09:27:56.000Z</time>
      </trkpt>
      <trkpt lat="47.36182" lon="-1.19203">
        <ele>58</ele>
        <time>2025-08-02T09:27:57.000Z</time>
      </trkpt>
      <trkpt lat="47.36181" lon="-1.19205">
        <ele>57</ele>
        <time>2025-08-02T09:27:58.000Z</time>
      </trkpt>
      <trkpt lat="47.36179" lon="-1.19206">
        <ele>57</ele>
        <time>2025-08-02T09:27:59.000Z</time>
      </trkpt>
      <trkpt lat="47.36177" lon="-1.19207">
        <ele>57</ele>
        <time>2025-08-02T09:28:00.000Z</time>
      </trkpt>
      <trkpt lat="47.36175" lon="-1.19206">
        <ele>57</ele>
        <time>2025-08-02T09:28:01.000Z</time>
      </trkpt>
      <trkpt lat="47.36173" lon="-1.19206">
        <ele>58</ele>
        <time>2025-08-02T09:28:02.000Z</time>
      </trkpt>
      <trkpt lat="47.36172" lon="-1.19206">
        <ele>58</ele>
        <time>2025-08-02T09:28:03.000Z</time>
      </trkpt>
      <trkpt lat="47.36171" lon="-1.19206">
        <ele>57</ele>
        <time>2025-08-02T09:28:04.000Z</time>
      </trkpt>
      <trkpt lat="47.3617" lon="-1.19207">
        <ele>57</ele>
        <time>2025-08-02T09:28:05.000Z</time>
      </trkpt>
      <trkpt lat="47.36169" lon="-1.19208">
        <ele>57</ele>
        <time>2025-08-02T09:28:06.000Z</time>
      </trkpt>
      <trkpt lat="47.36168" lon="-1.19208">
        <ele>58</ele>
        <time>2025-08-02T09:28:07.000Z</time>
      </trkpt>
      <trkpt lat="47.36167" lon="-1.19208">
        <ele>58</ele>
        <time>2025-08-02T09:28:08.000Z</time>
      </trkpt>
      <trkpt lat="47.36166" lon="-1.19209">
        <ele>58</ele>
        <time>2025-08-02T09:28:09.000Z</time>
      </trkpt>
      <trkpt lat="47.36165" lon="-1.19209">
        <ele>58</ele>
        <time>2025-08-02T09:28:10.000Z</time>
      </trkpt>
      <trkpt lat="47.36164" lon="-1.1921">
        <ele>58</ele>
        <time>2025-08-02T09:28:11.000Z</time>
      </trkpt>
      <trkpt lat="47.36162" lon="-1.19211">
        <ele>59</ele>
        <time>2025-08-02T09:28:12.000Z</time>
      </trkpt>
      <trkpt lat="47.36161" lon="-1.19211">
        <ele>59</ele>
        <time>2025-08-02T09:28:13.000Z</time>
      </trkpt>
      <trkpt lat="47.3616" lon="-1.19212">
        <ele>59</ele>
        <time>2025-08-02T09:28:14.000Z</time>
      </trkpt>
      <trkpt lat="47.36159" lon="-1.19213">
        <ele>59</ele>
        <time>2025-08-02T09:28:15.000Z</time>
      </trkpt>
      <trkpt lat="47.36158" lon="-1.19214">
        <ele>59</ele>
        <time>2025-08-02T09:28:16.000Z</time>
      </trkpt>
      <trkpt lat="47.36157" lon="-1.19214">
        <ele>59</ele>
        <time>2025-08-02T09:28:17.000Z</time>
      </trkpt>
      <trkpt lat="47.36155" lon="-1.19215">
        <ele>59</ele>
        <time>2025-08-02T09:28:18.000Z</time>
      </trkpt>
      <trkpt lat="47.36154" lon="-1.19216">
        <ele>59</ele>
        <time>2025-08-02T09:28:19.000Z</time>
      </trkpt>
      <trkpt lat="47.36154" lon="-1.19216">
        <ele>59</ele>
        <time>2025-08-02T09:28:20.000Z</time>
      </trkpt>
      <trkpt lat="47.36153" lon="-1.19217">
        <ele>59</ele>
        <time>2025-08-02T09:28:21.000Z</time>
      </trkpt>
      <trkpt lat="47.36152" lon="-1.19217">
        <ele>59</ele>
        <time>2025-08-02T09:28:22.000Z</time>
      </trkpt>
      <trkpt lat="47.3615" lon="-1.19217">
        <ele>60</ele>
        <time>2025-08-02T09:28:23.000Z</time>
      </trkpt>
      <trkpt lat="47.36149" lon="-1.19217">
        <ele>59</ele>
        <time>2025-08-02T09:28:24.000Z</time>
      </trkpt>
      <trkpt lat="47.36148" lon="-1.19218">
        <ele>60</ele>
        <time>2025-08-02T09:28:25.000Z</time>
      </trkpt>
      <trkpt lat="47.36146" lon="-1.19217">
        <ele>61</ele>
        <time>2025-08-02T09:28:26.000Z</time>
      </trkpt>
      <trkpt lat="47.36145" lon="-1.19217">
        <ele>61</ele>
        <time>2025-08-02T09:28:27.000Z</time>
      </trkpt>
      <trkpt lat="47.36144" lon="-1.19218">
        <ele>61</ele>
        <time>2025-08-02T09:28:28.000Z</time>
      </trkpt>
      <trkpt lat="47.36143" lon="-1.19218">
        <ele>60</ele>
        <time>2025-08-02T09:28:29.000Z</time>
      </trkpt>
      <trkpt lat="47.36142" lon="-1.19219">
        <ele>61</ele>
        <time>2025-08-02T09:28:30.000Z</time>
      </trkpt>
      <trkpt lat="47.36141" lon="-1.1922">
        <ele>61</ele>
        <time>2025-08-02T09:28:31.000Z</time>
      </trkpt>
      <trkpt lat="47.3614" lon="-1.19221">
        <ele>61</ele>
        <time>2025-08-02T09:28:32.000Z</time>
      </trkpt>
      <trkpt lat="47.36139" lon="-1.19221">
        <ele>60</ele>
        <time>2025-08-02T09:28:33.000Z</time>
      </trkpt>
      <trkpt lat="47.36138" lon="-1.19221">
        <ele>61</ele>
        <time>2025-08-02T09:28:34.000Z</time>
      </trkpt>
      <trkpt lat="47.36136" lon="-1.19221">
        <ele>61</ele>
        <time>2025-08-02T09:28:35.000Z</time>
      </trkpt>
      <trkpt lat="47.36135" lon="-1.19221">
        <ele>60</ele>
        <time>2025-08-02T09:28:36.000Z</time>
      </trkpt>
      <trkpt lat="47.36134" lon="-1.19222">
        <ele>60</ele>
        <time>2025-08-02T09:28:37.000Z</time>
      </trkpt>
      <trkpt lat="47.36133" lon="-1.19223">
        <ele>60</ele>
        <time>2025-08-02T09:28:38.000Z</time>
      </trkpt>
      <trkpt lat="47.36133" lon="-1.19223">
        <ele>60</ele>
        <time>2025-08-02T09:28:39.000Z</time>
      </trkpt>
      <trkpt lat="47.36132" lon="-1.19223">
        <ele>61</ele>
        <time>2025-08-02T09:28:40.000Z</time>
      </trkpt>
      <trkpt lat="47.36131" lon="-1.19224">
        <ele>61</ele>
        <time>2025-08-02T09:28:41.000Z</time>
      </trkpt>
      <trkpt lat="47.36131" lon="-1.19224">
        <ele>61</ele>
        <time>2025-08-02T09:28:42.000Z</time>
      </trkpt>
      <trkpt lat="47.3613" lon="-1.19225">
        <ele>61</ele>
        <time>2025-08-02T09:28:43.000Z</time>
      </trkpt>
      <trkpt lat="47.36129" lon="-1.19225">
        <ele>61</ele>
        <time>2025-08-02T09:28:44.000Z</time>
      </trkpt>
      <trkpt lat="47.36128" lon="-1.19225">
        <ele>61</ele>
        <time>2025-08-02T09:28:45.000Z</time>
      </trkpt>
      <trkpt lat="47.36126" lon="-1.19224">
        <ele>61</ele>
        <time>2025-08-02T09:28:46.000Z</time>
      </trkpt>
      <trkpt lat="47.36125" lon="-1.19224">
        <ele>61</ele>
        <time>2025-08-02T09:28:47.000Z</time>
      </trkpt>
      <trkpt lat="47.36124" lon="-1.19223">
        <ele>62</ele>
        <time>2025-08-02T09:28:48.000Z</time>
      </trkpt>
      <trkpt lat="47.36123" lon="-1.19223">
        <ele>61</ele>
        <time>2025-08-02T09:28:49.000Z</time>
      </trkpt>
      <trkpt lat="47.36121" lon="-1.19223">
        <ele>61</ele>
        <time>2025-08-02T09:28:50.000Z</time>
      </trkpt>
      <trkpt lat="47.3612" lon="-1.19222">
        <ele>61</ele>
        <time>2025-08-02T09:28:51.000Z</time>
      </trkpt>
      <trkpt lat="47.36118" lon="-1.19222">
        <ele>60</ele>
        <time>2025-08-02T09:28:52.000Z</time>
      </trkpt>
      <trkpt lat="47.36117" lon="-1.19222">
        <ele>61</ele>
        <time>2025-08-02T09:28:53.000Z</time>
      </trkpt>
      <trkpt lat="47.36115" lon="-1.19222">
        <ele>61</ele>
        <time>2025-08-02T09:28:54.000Z</time>
      </trkpt>
      <trkpt lat="47.36114" lon="-1.19221">
        <ele>61</ele>
        <time>2025-08-02T09:28:55.000Z</time>
      </trkpt>
      <trkpt lat="47.36113" lon="-1.1922">
        <ele>61</ele>
        <time>2025-08-02T09:28:56.000Z</time>
      </trkpt>
      <trkpt lat="47.36113" lon="-1.19219">
        <ele>61</ele>
        <time>2025-08-02T09:28:57.000Z</time>
      </trkpt>
      <trkpt lat="47.36112" lon="-1.19218">
        <ele>61</ele>
        <time>2025-08-02T09:28:58.000Z</time>
      </trkpt>
      <trkpt lat="47.36111" lon="-1.19218">
        <ele>62</ele>
        <time>2025-08-02T09:28:59.000Z</time>
      </trkpt>
      <trkpt lat="47.36111" lon="-1.19217">
        <ele>61</ele>
        <time>2025-08-02T09:29:00.000Z</time>
      </trkpt>
      <trkpt lat="47.3611" lon="-1.19217">
        <ele>61</ele>
        <time>2025-08-02T09:29:01.000Z</time>
      </trkpt>
      <trkpt lat="47.3611" lon="-1.19217">
        <ele>61</ele>
        <time>2025-08-02T09:29:02.000Z</time>
      </trkpt>
      <trkpt lat="47.36109" lon="-1.19217">
        <ele>60</ele>
        <time>2025-08-02T09:29:03.000Z</time>
      </trkpt>
      <trkpt lat="47.36108" lon="-1.19216">
        <ele>60</ele>
        <time>2025-08-02T09:29:04.000Z</time>
      </trkpt>
      <trkpt lat="47.36106" lon="-1.19215">
        <ele>61</ele>
        <time>2025-08-02T09:29:05.000Z</time>
      </trkpt>
      <trkpt lat="47.36104" lon="-1.19215">
        <ele>61</ele>
        <time>2025-08-02T09:29:06.000Z</time>
      </trkpt>
      <trkpt lat="47.36103" lon="-1.19214">
        <ele>61</ele>
        <time>2025-08-02T09:29:07.000Z</time>
      </trkpt>
      <trkpt lat="47.36101" lon="-1.19214">
        <ele>62</ele>
        <time>2025-08-02T09:29:08.000Z</time>
      </trkpt>
      <trkpt lat="47.361" lon="-1.19213">
        <ele>62</ele>
        <time>2025-08-02T09:29:09.000Z</time>
      </trkpt>
      <trkpt lat="47.36099" lon="-1.19212">
        <ele>61</ele>
        <time>2025-08-02T09:29:10.000Z</time>
      </trkpt>
      <trkpt lat="47.36098" lon="-1.19211">
        <ele>61</ele>
        <time>2025-08-02T09:29:11.000Z</time>
      </trkpt>
      <trkpt lat="47.36096" lon="-1.19211">
        <ele>61</ele>
        <time>2025-08-02T09:29:12.000Z</time>
      </trkpt>
      <trkpt lat="47.36095" lon="-1.19211">
        <ele>61</ele>
        <time>2025-08-02T09:29:13.000Z</time>
      </trkpt>
      <trkpt lat="47.36094" lon="-1.19211">
        <ele>60</ele>
        <time>2025-08-02T09:29:14.000Z</time>
      </trkpt>
      <trkpt lat="47.36093" lon="-1.1921">
        <ele>60</ele>
        <time>2025-08-02T09:29:15.000Z</time>
      </trkpt>
      <trkpt lat="47.36092" lon="-1.1921">
        <ele>60</ele>
        <time>2025-08-02T09:29:16.000Z</time>
      </trkpt>
      <trkpt lat="47.36091" lon="-1.19209">
        <ele>60</ele>
        <time>2025-08-02T09:29:17.000Z</time>
      </trkpt>
      <trkpt lat="47.36089" lon="-1.19208">
        <ele>60</ele>
        <time>2025-08-02T09:29:18.000Z</time>
      </trkpt>
      <trkpt lat="47.36088" lon="-1.19207">
        <ele>61</ele>
        <time>2025-08-02T09:29:19.000Z</time>
      </trkpt>
      <trkpt lat="47.36087" lon="-1.19207">
        <ele>60</ele>
        <time>2025-08-02T09:29:20.000Z</time>
      </trkpt>
      <trkpt lat="47.36086" lon="-1.19207">
        <ele>60</ele>
        <time>2025-08-02T09:29:21.000Z</time>
      </trkpt>
      <trkpt lat="47.36085" lon="-1.19206">
        <ele>60</ele>
        <time>2025-08-02T09:29:22.000Z</time>
      </trkpt>
      <trkpt lat="47.36083" lon="-1.19207">
        <ele>61</ele>
        <time>2025-08-02T09:29:23.000Z</time>
      </trkpt>
      <trkpt lat="47.36082" lon="-1.19206">
        <ele>60</ele>
        <time>2025-08-02T09:29:24.000Z</time>
      </trkpt>
      <trkpt lat="47.36081" lon="-1.19206">
        <ele>60</ele>
        <time>2025-08-02T09:29:25.000Z</time>
      </trkpt>
      <trkpt lat="47.3608" lon="-1.19206">
        <ele>60</ele>
        <time>2025-08-02T09:29:26.000Z</time>
      </trkpt>
      <trkpt lat="47.36079" lon="-1.19204">
        <ele>61</ele>
        <time>2025-08-02T09:29:27.000Z</time>
      </trkpt>
      <trkpt lat="47.36077" lon="-1.19204">
        <ele>61</ele>
        <time>2025-08-02T09:29:28.000Z</time>
      </trkpt>
      <trkpt lat="47.36076" lon="-1.19203">
        <ele>60</ele>
        <time>2025-08-02T09:29:29.000Z</time>
      </trkpt>
      <trkpt lat="47.36074" lon="-1.19202">
        <ele>61</ele>
        <time>2025-08-02T09:29:30.000Z</time>
      </trkpt>
      <trkpt lat="47.36073" lon="-1.19202">
        <ele>61</ele>
        <time>2025-08-02T09:29:31.000Z</time>
      </trkpt>
      <trkpt lat="47.36072" lon="-1.19202">
        <ele>61</ele>
        <time>2025-08-02T09:29:32.000Z</time>
      </trkpt>
      <trkpt lat="47.3607" lon="-1.19201">
        <ele>61</ele>
        <time>2025-08-02T09:29:33.000Z</time>
      </trkpt>
      <trkpt lat="47.3607" lon="-1.19201">
        <ele>61</ele>
        <time>2025-08-02T09:29:34.000Z</time>
      </trkpt>
      <trkpt lat="47.36069" lon="-1.19201">
        <ele>60</ele>
        <time>2025-08-02T09:29:35.000Z</time>
      </trkpt>
      <trkpt lat="47.36067" lon="-1.19201">
        <ele>60</ele>
        <time>2025-08-02T09:29:36.000Z</time>
      </trkpt>
      <trkpt lat="47.36066" lon="-1.192">
        <ele>60</ele>
        <time>2025-08-02T09:29:37.000Z</time>
      </trkpt>
      <trkpt lat="47.36065" lon="-1.192">
        <ele>60</ele>
        <time>2025-08-02T09:29:38.000Z</time>
      </trkpt>
      <trkpt lat="47.36063" lon="-1.192">
        <ele>60</ele>
        <time>2025-08-02T09:29:39.000Z</time>
      </trkpt>
      <trkpt lat="47.36061" lon="-1.192">
        <ele>60</ele>
        <time>2025-08-02T09:29:40.000Z</time>
      </trkpt>
      <trkpt lat="47.36059" lon="-1.192">
        <ele>60</ele>
        <time>2025-08-02T09:29:41.000Z</time>
      </trkpt>
      <trkpt lat="47.36057" lon="-1.19199">
        <ele>60</ele>
        <time>2025-08-02T09:29:42.000Z</time>
      </trkpt>
      <trkpt lat="47.36056" lon="-1.19199">
        <ele>59</ele>
        <time>2025-08-02T09:29:43.000Z</time>
      </trkpt>
      <trkpt lat="47.36055" lon="-1.19198">
        <ele>59</ele>
        <time>2025-08-02T09:29:44.000Z</time>
      </trkpt>
      <trkpt lat="47.36053" lon="-1.19198">
        <ele>58</ele>
        <time>2025-08-02T09:29:45.000Z</time>
      </trkpt>
      <trkpt lat="47.36052" lon="-1.19198">
        <ele>59</ele>
        <time>2025-08-02T09:29:46.000Z</time>
      </trkpt>
      <trkpt lat="47.36051" lon="-1.19198">
        <ele>59</ele>
        <time>2025-08-02T09:29:47.000Z</time>
      </trkpt>
      <trkpt lat="47.36049" lon="-1.19198">
        <ele>58</ele>
        <time>2025-08-02T09:29:48.000Z</time>
      </trkpt>
      <trkpt lat="47.36048" lon="-1.19198">
        <ele>58</ele>
        <time>2025-08-02T09:29:49.000Z</time>
      </trkpt>
      <trkpt lat="47.36047" lon="-1.19197">
        <ele>58</ele>
        <time>2025-08-02T09:29:50.000Z</time>
      </trkpt>
      <trkpt lat="47.36045" lon="-1.19197">
        <ele>58</ele>
        <time>2025-08-02T09:29:51.000Z</time>
      </trkpt>
      <trkpt lat="47.36044" lon="-1.19196">
        <ele>57</ele>
        <time>2025-08-02T09:29:52.000Z</time>
      </trkpt>
      <trkpt lat="47.36043" lon="-1.19196">
        <ele>58</ele>
        <time>2025-08-02T09:29:53.000Z</time>
      </trkpt>
      <trkpt lat="47.36042" lon="-1.19195">
        <ele>58</ele>
        <time>2025-08-02T09:29:54.000Z</time>
      </trkpt>
      <trkpt lat="47.36041" lon="-1.19195">
        <ele>58</ele>
        <time>2025-08-02T09:29:55.000Z</time>
      </trkpt>
      <trkpt lat="47.3604" lon="-1.19194">
        <ele>58</ele>
        <time>2025-08-02T09:29:56.000Z</time>
      </trkpt>
      <trkpt lat="47.36039" lon="-1.19194">
        <ele>58</ele>
        <time>2025-08-02T09:29:57.000Z</time>
      </trkpt>
      <trkpt lat="47.36038" lon="-1.19195">
        <ele>58</ele>
        <time>2025-08-02T09:29:58.000Z</time>
      </trkpt>
      <trkpt lat="47.36036" lon="-1.19194">
        <ele>58</ele>
        <time>2025-08-02T09:29:59.000Z</time>
      </trkpt>
      <trkpt lat="47.36035" lon="-1.19194">
        <ele>58</ele>
        <time>2025-08-02T09:30:00.000Z</time>
      </trkpt>
      <trkpt lat="47.36034" lon="-1.19194">
        <ele>58</ele>
        <time>2025-08-02T09:30:01.000Z</time>
      </trkpt>
      <trkpt lat="47.36033" lon="-1.19194">
        <ele>58</ele>
        <time>2025-08-02T09:30:02.000Z</time>
      </trkpt>
      <trkpt lat="47.36032" lon="-1.19194">
        <ele>58</ele>
        <time>2025-08-02T09:30:03.000Z</time>
      </trkpt>
      <trkpt lat="47.3603" lon="-1.19193">
        <ele>58</ele>
        <time>2025-08-02T09:30:04.000Z</time>
      </trkpt>
      <trkpt lat="47.36029" lon="-1.19192">
        <ele>58</ele>
        <time>2025-08-02T09:30:05.000Z</time>
      </trkpt>
      <trkpt lat="47.36028" lon="-1.19192">
        <ele>58</ele>
        <time>2025-08-02T09:30:06.000Z</time>
      </trkpt>
      <trkpt lat="47.36027" lon="-1.19192">
        <ele>59</ele>
        <time>2025-08-02T09:30:07.000Z</time>
      </trkpt>
      <trkpt lat="47.36026" lon="-1.19192">
        <ele>59</ele>
        <time>2025-08-02T09:30:08.000Z</time>
      </trkpt>
      <trkpt lat="47.36024" lon="-1.19192">
        <ele>59</ele>
        <time>2025-08-02T09:30:09.000Z</time>
      </trkpt>
      <trkpt lat="47.36023" lon="-1.19192">
        <ele>59</ele>
        <time>2025-08-02T09:30:10.000Z</time>
      </trkpt>
      <trkpt lat="47.36021" lon="-1.19191">
        <ele>59</ele>
        <time>2025-08-02T09:30:11.000Z</time>
      </trkpt>
      <trkpt lat="47.36021" lon="-1.19191">
        <ele>59</ele>
        <time>2025-08-02T09:30:12.000Z</time>
      </trkpt>
      <trkpt lat="47.3602" lon="-1.19191">
        <ele>59</ele>
        <time>2025-08-02T09:30:13.000Z</time>
      </trkpt>
      <trkpt lat="47.36019" lon="-1.1919">
        <ele>59</ele>
        <time>2025-08-02T09:30:14.000Z</time>
      </trkpt>
      <trkpt lat="47.36018" lon="-1.1919">
        <ele>59</ele>
        <time>2025-08-02T09:30:15.000Z</time>
      </trkpt>
      <trkpt lat="47.36016" lon="-1.1919">
        <ele>59</ele>
        <time>2025-08-02T09:30:16.000Z</time>
      </trkpt>
      <trkpt lat="47.36015" lon="-1.1919">
        <ele>59</ele>
        <time>2025-08-02T09:30:17.000Z</time>
      </trkpt>
      <trkpt lat="47.36014" lon="-1.1919">
        <ele>60</ele>
        <time>2025-08-02T09:30:18.000Z</time>
      </trkpt>
      <trkpt lat="47.36012" lon="-1.19189">
        <ele>60</ele>
        <time>2025-08-02T09:30:19.000Z</time>
      </trkpt>
      <trkpt lat="47.36012" lon="-1.19189">
        <ele>60</ele>
        <time>2025-08-02T09:30:20.000Z</time>
      </trkpt>
      <trkpt lat="47.3601" lon="-1.19189">
        <ele>60</ele>
        <time>2025-08-02T09:30:21.000Z</time>
      </trkpt>
      <trkpt lat="47.36008" lon="-1.19189">
        <ele>60</ele>
        <time>2025-08-02T09:30:22.000Z</time>
      </trkpt>
      <trkpt lat="47.36006" lon="-1.19191">
        <ele>60</ele>
        <time>2025-08-02T09:30:23.000Z</time>
      </trkpt>
      <trkpt lat="47.36005" lon="-1.19191">
        <ele>60</ele>
        <time>2025-08-02T09:30:24.000Z</time>
      </trkpt>
      <trkpt lat="47.36003" lon="-1.19191">
        <ele>60</ele>
        <time>2025-08-02T09:30:25.000Z</time>
      </trkpt>
      <trkpt lat="47.36002" lon="-1.19191">
        <ele>60</ele>
        <time>2025-08-02T09:30:26.000Z</time>
      </trkpt>
      <trkpt lat="47.36" lon="-1.19191">
        <ele>60</ele>
        <time>2025-08-02T09:30:27.000Z</time>
      </trkpt>
      <trkpt lat="47.35998" lon="-1.19191">
        <ele>59</ele>
        <time>2025-08-02T09:30:28.000Z</time>
      </trkpt>
      <trkpt lat="47.35996" lon="-1.19191">
        <ele>59</ele>
        <time>2025-08-02T09:30:29.000Z</time>
      </trkpt>
      <trkpt lat="47.35995" lon="-1.19191">
        <ele>60</ele>
        <time>2025-08-02T09:30:30.000Z</time>
      </trkpt>
      <trkpt lat="47.35993" lon="-1.19191">
        <ele>60</ele>
        <time>2025-08-02T09:30:31.000Z</time>
      </trkpt>
      <trkpt lat="47.35991" lon="-1.19191">
        <ele>60</ele>
        <time>2025-08-02T09:30:32.000Z</time>
      </trkpt>
      <trkpt lat="47.3599" lon="-1.19191">
        <ele>60</ele>
        <time>2025-08-02T09:30:33.000Z</time>
      </trkpt>
      <trkpt lat="47.35988" lon="-1.1919">
        <ele>60</ele>
        <time>2025-08-02T09:30:34.000Z</time>
      </trkpt>
      <trkpt lat="47.35987" lon="-1.1919">
        <ele>59</ele>
        <time>2025-08-02T09:30:35.000Z</time>
      </trkpt>
      <trkpt lat="47.35987" lon="-1.1919">
        <ele>59</ele>
        <time>2025-08-02T09:30:36.000Z</time>
      </trkpt>
      <trkpt lat="47.35985" lon="-1.19189">
        <ele>59</ele>
        <time>2025-08-02T09:30:37.000Z</time>
      </trkpt>
      <trkpt lat="47.35984" lon="-1.19188">
        <ele>59</ele>
        <time>2025-08-02T09:30:38.000Z</time>
      </trkpt>
      <trkpt lat="47.35983" lon="-1.19187">
        <ele>59</ele>
        <time>2025-08-02T09:30:39.000Z</time>
      </trkpt>
      <trkpt lat="47.35981" lon="-1.19187">
        <ele>58</ele>
        <time>2025-08-02T09:30:40.000Z</time>
      </trkpt>
      <trkpt lat="47.3598" lon="-1.19187">
        <ele>58</ele>
        <time>2025-08-02T09:30:41.000Z</time>
      </trkpt>
      <trkpt lat="47.35979" lon="-1.19187">
        <ele>57</ele>
        <time>2025-08-02T09:30:42.000Z</time>
      </trkpt>
      <trkpt lat="47.35978" lon="-1.19188">
        <ele>57</ele>
        <time>2025-08-02T09:30:43.000Z</time>
      </trkpt>
      <trkpt lat="47.35977" lon="-1.19187">
        <ele>57</ele>
        <time>2025-08-02T09:30:44.000Z</time>
      </trkpt>
      <trkpt lat="47.35975" lon="-1.19186">
        <ele>56</ele>
        <time>2025-08-02T09:30:45.000Z</time>
      </trkpt>
      <trkpt lat="47.35975" lon="-1.19186">
        <ele>56</ele>
        <time>2025-08-02T09:30:46.000Z</time>
      </trkpt>
      <trkpt lat="47.35974" lon="-1.19185">
        <ele>57</ele>
        <time>2025-08-02T09:30:47.000Z</time>
      </trkpt>
      <trkpt lat="47.35973" lon="-1.19184">
        <ele>57</ele>
        <time>2025-08-02T09:30:48.000Z</time>
      </trkpt>
      <trkpt lat="47.35973" lon="-1.19184">
        <ele>57</ele>
        <time>2025-08-02T09:30:49.000Z</time>
      </trkpt>
      <trkpt lat="47.35973" lon="-1.19184">
        <ele>57</ele>
        <time>2025-08-02T09:30:50.000Z</time>
      </trkpt>
      <trkpt lat="47.35971" lon="-1.19183">
        <ele>57</ele>
        <time>2025-08-02T09:30:51.000Z</time>
      </trkpt>
      <trkpt lat="47.35969" lon="-1.19183">
        <ele>57</ele>
        <time>2025-08-02T09:30:52.000Z</time>
      </trkpt>
      <trkpt lat="47.35968" lon="-1.19183">
        <ele>57</ele>
        <time>2025-08-02T09:30:53.000Z</time>
      </trkpt>
      <trkpt lat="47.35967" lon="-1.19181">
        <ele>56</ele>
        <time>2025-08-02T09:30:54.000Z</time>
      </trkpt>
      <trkpt lat="47.35966" lon="-1.19181">
        <ele>56</ele>
        <time>2025-08-02T09:30:55.000Z</time>
      </trkpt>
      <trkpt lat="47.35965" lon="-1.19181">
        <ele>56</ele>
        <time>2025-08-02T09:30:56.000Z</time>
      </trkpt>
      <trkpt lat="47.35964" lon="-1.1918">
        <ele>57</ele>
        <time>2025-08-02T09:30:57.000Z</time>
      </trkpt>
      <trkpt lat="47.35962" lon="-1.19179">
        <ele>57</ele>
        <time>2025-08-02T09:30:58.000Z</time>
      </trkpt>
      <trkpt lat="47.35961" lon="-1.19179">
        <ele>57</ele>
        <time>2025-08-02T09:30:59.000Z</time>
      </trkpt>
      <trkpt lat="47.3596" lon="-1.19179">
        <ele>57</ele>
        <time>2025-08-02T09:31:00.000Z</time>
      </trkpt>
      <trkpt lat="47.35958" lon="-1.19179">
        <ele>57</ele>
        <time>2025-08-02T09:31:01.000Z</time>
      </trkpt>
      <trkpt lat="47.35957" lon="-1.19178">
        <ele>57</ele>
        <time>2025-08-02T09:31:02.000Z</time>
      </trkpt>
      <trkpt lat="47.35955" lon="-1.19177">
        <ele>56</ele>
        <time>2025-08-02T09:31:03.000Z</time>
      </trkpt>
      <trkpt lat="47.35954" lon="-1.19177">
        <ele>56</ele>
        <time>2025-08-02T09:31:04.000Z</time>
      </trkpt>
      <trkpt lat="47.35953" lon="-1.19177">
        <ele>56</ele>
        <time>2025-08-02T09:31:05.000Z</time>
      </trkpt>
      <trkpt lat="47.35952" lon="-1.19177">
        <ele>56</ele>
        <time>2025-08-02T09:31:06.000Z</time>
      </trkpt>
      <trkpt lat="47.35951" lon="-1.19176">
        <ele>56</ele>
        <time>2025-08-02T09:31:07.000Z</time>
      </trkpt>
      <trkpt lat="47.35949" lon="-1.19176">
        <ele>56</ele>
        <time>2025-08-02T09:31:08.000Z</time>
      </trkpt>
      <trkpt lat="47.35948" lon="-1.19177">
        <ele>56</ele>
        <time>2025-08-02T09:31:09.000Z</time>
      </trkpt>
      <trkpt lat="47.35947" lon="-1.19176">
        <ele>56</ele>
        <time>2025-08-02T09:31:10.000Z</time>
      </trkpt>
      <trkpt lat="47.35946" lon="-1.19177">
        <ele>56</ele>
        <time>2025-08-02T09:31:11.000Z</time>
      </trkpt>
      <trkpt lat="47.35945" lon="-1.19176">
        <ele>56</ele>
        <time>2025-08-02T09:31:12.000Z</time>
      </trkpt>
      <trkpt lat="47.35944" lon="-1.19176">
        <ele>56</ele>
        <time>2025-08-02T09:31:13.000Z</time>
      </trkpt>
      <trkpt lat="47.35943" lon="-1.19175">
        <ele>56</ele>
        <time>2025-08-02T09:31:14.000Z</time>
      </trkpt>
      <trkpt lat="47.35942" lon="-1.19175">
        <ele>56</ele>
        <time>2025-08-02T09:31:15.000Z</time>
      </trkpt>
      <trkpt lat="47.35941" lon="-1.19175">
        <ele>57</ele>
        <time>2025-08-02T09:31:16.000Z</time>
      </trkpt>
      <trkpt lat="47.3594" lon="-1.19174">
        <ele>57</ele>
        <time>2025-08-02T09:31:17.000Z</time>
      </trkpt>
      <trkpt lat="47.35938" lon="-1.19172">
        <ele>56</ele>
        <time>2025-08-02T09:31:18.000Z</time>
      </trkpt>
      <trkpt lat="47.35937" lon="-1.19172">
        <ele>57</ele>
        <time>2025-08-02T09:31:19.000Z</time>
      </trkpt>
      <trkpt lat="47.35935" lon="-1.19172">
        <ele>56</ele>
        <time>2025-08-02T09:31:20.000Z</time>
      </trkpt>
      <trkpt lat="47.35934" lon="-1.19171">
        <ele>57</ele>
        <time>2025-08-02T09:31:21.000Z</time>
      </trkpt>
      <trkpt lat="47.35933" lon="-1.19171">
        <ele>57</ele>
        <time>2025-08-02T09:31:22.000Z</time>
      </trkpt>
      <trkpt lat="47.35932" lon="-1.19171">
        <ele>56</ele>
        <time>2025-08-02T09:31:23.000Z</time>
      </trkpt>
      <trkpt lat="47.3593" lon="-1.19171">
        <ele>56</ele>
        <time>2025-08-02T09:31:24.000Z</time>
      </trkpt>
      <trkpt lat="47.35929" lon="-1.1917">
        <ele>57</ele>
        <time>2025-08-02T09:31:25.000Z</time>
      </trkpt>
      <trkpt lat="47.35928" lon="-1.1917">
        <ele>56</ele>
        <time>2025-08-02T09:31:26.000Z</time>
      </trkpt>
      <trkpt lat="47.35926" lon="-1.1917">
        <ele>56</ele>
        <time>2025-08-02T09:31:27.000Z</time>
      </trkpt>
      <trkpt lat="47.35925" lon="-1.19171">
        <ele>57</ele>
        <time>2025-08-02T09:31:28.000Z</time>
      </trkpt>
      <trkpt lat="47.35924" lon="-1.1917">
        <ele>57</ele>
        <time>2025-08-02T09:31:29.000Z</time>
      </trkpt>
      <trkpt lat="47.35924" lon="-1.19169">
        <ele>57</ele>
        <time>2025-08-02T09:31:30.000Z</time>
      </trkpt>
      <trkpt lat="47.35923" lon="-1.19169">
        <ele>57</ele>
        <time>2025-08-02T09:31:31.000Z</time>
      </trkpt>
      <trkpt lat="47.35922" lon="-1.19168">
        <ele>57</ele>
        <time>2025-08-02T09:31:32.000Z</time>
      </trkpt>
      <trkpt lat="47.35921" lon="-1.19168">
        <ele>58</ele>
        <time>2025-08-02T09:31:33.000Z</time>
      </trkpt>
      <trkpt lat="47.3592" lon="-1.19167">
        <ele>59</ele>
        <time>2025-08-02T09:31:34.000Z</time>
      </trkpt>
      <trkpt lat="47.35918" lon="-1.19167">
        <ele>59</ele>
        <time>2025-08-02T09:31:35.000Z</time>
      </trkpt>
      <trkpt lat="47.35917" lon="-1.19167">
        <ele>59</ele>
        <time>2025-08-02T09:31:36.000Z</time>
      </trkpt>
      <trkpt lat="47.35916" lon="-1.19167">
        <ele>59</ele>
        <time>2025-08-02T09:31:37.000Z</time>
      </trkpt>
      <trkpt lat="47.35915" lon="-1.19167">
        <ele>59</ele>
        <time>2025-08-02T09:31:38.000Z</time>
      </trkpt>
      <trkpt lat="47.35913" lon="-1.19166">
        <ele>59</ele>
        <time>2025-08-02T09:31:39.000Z</time>
      </trkpt>
      <trkpt lat="47.35912" lon="-1.19165">
        <ele>59</ele>
        <time>2025-08-02T09:31:40.000Z</time>
      </trkpt>
      <trkpt lat="47.35911" lon="-1.19164">
        <ele>59</ele>
        <time>2025-08-02T09:31:41.000Z</time>
      </trkpt>
      <trkpt lat="47.35909" lon="-1.19164">
        <ele>59</ele>
        <time>2025-08-02T09:31:42.000Z</time>
      </trkpt>
      <trkpt lat="47.35908" lon="-1.19163">
        <ele>59</ele>
        <time>2025-08-02T09:31:43.000Z</time>
      </trkpt>
      <trkpt lat="47.35906" lon="-1.19163">
        <ele>58</ele>
        <time>2025-08-02T09:31:44.000Z</time>
      </trkpt>
      <trkpt lat="47.35903" lon="-1.19161">
        <ele>58</ele>
        <time>2025-08-02T09:31:45.000Z</time>
      </trkpt>
      <trkpt lat="47.359" lon="-1.19159">
        <ele>57</ele>
        <time>2025-08-02T09:31:46.000Z</time>
      </trkpt>
      <trkpt lat="47.35899" lon="-1.19158">
        <ele>57</ele>
        <time>2025-08-02T09:31:47.000Z</time>
      </trkpt>
      <trkpt lat="47.35897" lon="-1.19158">
        <ele>57</ele>
        <time>2025-08-02T09:31:48.000Z</time>
      </trkpt>
      <trkpt lat="47.35895" lon="-1.19157">
        <ele>56</ele>
        <time>2025-08-02T09:31:49.000Z</time>
      </trkpt>
      <trkpt lat="47.35894" lon="-1.19156">
        <ele>56</ele>
        <time>2025-08-02T09:31:50.000Z</time>
      </trkpt>
      <trkpt lat="47.35892" lon="-1.19156">
        <ele>56</ele>
        <time>2025-08-02T09:31:51.000Z</time>
      </trkpt>
      <trkpt lat="47.35891" lon="-1.19156">
        <ele>56</ele>
        <time>2025-08-02T09:31:52.000Z</time>
      </trkpt>
      <trkpt lat="47.3589" lon="-1.19155">
        <ele>56</ele>
        <time>2025-08-02T09:31:53.000Z</time>
      </trkpt>
      <trkpt lat="47.3589" lon="-1.19155">
        <ele>56</ele>
        <time>2025-08-02T09:31:54.000Z</time>
      </trkpt>
      <trkpt lat="47.35889" lon="-1.19155">
        <ele>56</ele>
        <time>2025-08-02T09:31:55.000Z</time>
      </trkpt>
      <trkpt lat="47.35888" lon="-1.19155">
        <ele>55</ele>
        <time>2025-08-02T09:31:56.000Z</time>
      </trkpt>
      <trkpt lat="47.35888" lon="-1.19156">
        <ele>54</ele>
        <time>2025-08-02T09:31:57.000Z</time>
      </trkpt>
      <trkpt lat="47.35888" lon="-1.19156">
        <ele>54</ele>
        <time>2025-08-02T09:31:58.000Z</time>
      </trkpt>
      <trkpt lat="47.35888" lon="-1.19156">
        <ele>54</ele>
        <time>2025-08-02T09:31:59.000Z</time>
      </trkpt>
      <trkpt lat="47.35888" lon="-1.19156">
        <ele>54</ele>
        <time>2025-08-02T09:32:00.000Z</time>
      </trkpt>
      <trkpt lat="47.35888" lon="-1.19156">
        <ele>54</ele>
        <time>2025-08-02T09:32:01.000Z</time>
      </trkpt>
      <trkpt lat="47.35888" lon="-1.19156">
        <ele>54</ele>
        <time>2025-08-02T09:32:02.000Z</time>
      </trkpt>
      <trkpt lat="47.35888" lon="-1.19156">
        <ele>54</ele>
        <time>2025-08-02T09:32:03.000Z</time>
      </trkpt>
      <trkpt lat="47.35888" lon="-1.19156">
        <ele>54</ele>
        <time>2025-08-02T09:32:04.000Z</time>
      </trkpt>
      <trkpt lat="47.35888" lon="-1.19156">
        <ele>54</ele>
        <time>2025-08-02T09:32:05.000Z</time>
      </trkpt>
      <trkpt lat="47.35888" lon="-1.19156">
        <ele>54</ele>
        <time>2025-08-02T09:32:06.000Z</time>
      </trkpt>
      <trkpt lat="47.35888" lon="-1.19156">
        <ele>54</ele>
        <time>2025-08-02T09:32:07.000Z</time>
      </trkpt>
      <trkpt lat="47.35888" lon="-1.19156">
        <ele>54</ele>
        <time>2025-08-02T09:32:08.000Z</time>
      </trkpt>
      <trkpt lat="47.35888" lon="-1.19156">
        <ele>54</ele>
        <time>2025-08-02T09:32:09.000Z</time>
      </trkpt>
      <trkpt lat="47.35888" lon="-1.19156">
        <ele>54</ele>
        <time>2025-08-02T09:32:10.000Z</time>
      </trkpt>
      <trkpt lat="47.35888" lon="-1.19156">
        <ele>54</ele>
        <time>2025-08-02T09:32:11.000Z</time>
      </trkpt>
      <trkpt lat="47.35888" lon="-1.19156">
        <ele>54</ele>
        <time>2025-08-02T09:32:12.000Z</time>
      </trkpt>
      <trkpt lat="47.35888" lon="-1.19156">
        <ele>54</ele>
        <time>2025-08-02T09:32:13.000Z</time>
      </trkpt>
      <trkpt lat="47.35888" lon="-1.19156">
        <ele>54</ele>
        <time>2025-08-02T09:32:14.000Z</time>
      </trkpt>
      <trkpt lat="47.35888" lon="-1.19156">
        <ele>54</ele>
        <time>2025-08-02T09:32:15.000Z</time>
      </trkpt>
      <trkpt lat="47.35888" lon="-1.19156">
        <ele>54</ele>
        <time>2025-08-02T09:32:16.000Z</time>
      </trkpt>
      <trkpt lat="47.35888" lon="-1.19156">
        <ele>54</ele>
        <time>2025-08-02T09:32:17.000Z</time>
      </trkpt>
      <trkpt lat="47.35888" lon="-1.19156">
        <ele>54</ele>
        <time>2025-08-02T09:32:18.000Z</time>
      </trkpt>
      <trkpt lat="47.35888" lon="-1.19156">
        <ele>54</ele>
        <time>2025-08-02T09:32:19.000Z</time>
      </trkpt>
      <trkpt lat="47.35888" lon="-1.19156">
        <ele>54</ele>
        <time>2025-08-02T09:32:20.000Z</time>
      </trkpt>
      <trkpt lat="47.35888" lon="-1.19156">
        <ele>54</ele>
        <time>2025-08-02T09:32:21.000Z</time>
      </trkpt>
      <trkpt lat="47.35888" lon="-1.19156">
        <ele>54</ele>
        <time>2025-08-02T09:32:22.000Z</time>
      </trkpt>
      <trkpt lat="47.35888" lon="-1.19156">
        <ele>54</ele>
        <time>2025-08-02T09:32:23.000Z</time>
      </trkpt>
      <trkpt lat="47.35888" lon="-1.19156">
        <ele>54</ele>
        <time>2025-08-02T09:32:24.000Z</time>
      </trkpt>
      <trkpt lat="47.35888" lon="-1.19156">
        <ele>54</ele>
        <time>2025-08-02T09:32:25.000Z</time>
      </trkpt>
      <trkpt lat="47.35888" lon="-1.19156">
        <ele>54</ele>
        <time>2025-08-02T09:32:26.000Z</time>
      </trkpt>
      <trkpt lat="47.35888" lon="-1.19156">
        <ele>54</ele>
        <time>2025-08-02T09:32:27.000Z</time>
      </trkpt>
      <trkpt lat="47.35888" lon="-1.19156">
        <ele>54</ele>
        <time>2025-08-02T09:32:28.000Z</time>
      </trkpt>
      <trkpt lat="47.35887" lon="-1.19155">
        <ele>54</ele>
        <time>2025-08-02T09:32:29.000Z</time>
      </trkpt>
      <trkpt lat="47.35886" lon="-1.19155">
        <ele>54</ele>
        <time>2025-08-02T09:32:30.000Z</time>
      </trkpt>
      <trkpt lat="47.35885" lon="-1.19155">
        <ele>54</ele>
        <time>2025-08-02T09:32:31.000Z</time>
      </trkpt>
      <trkpt lat="47.35884" lon="-1.19154">
        <ele>53</ele>
        <time>2025-08-02T09:32:32.000Z</time>
      </trkpt>
      <trkpt lat="47.35883" lon="-1.19154">
        <ele>54</ele>
        <time>2025-08-02T09:32:33.000Z</time>
      </trkpt>
      <trkpt lat="47.35882" lon="-1.19154">
        <ele>54</ele>
        <time>2025-08-02T09:32:34.000Z</time>
      </trkpt>
      <trkpt lat="47.35881" lon="-1.19154">
        <ele>54</ele>
        <time>2025-08-02T09:32:35.000Z</time>
      </trkpt>
      <trkpt lat="47.3588" lon="-1.19154">
        <ele>54</ele>
        <time>2025-08-02T09:32:36.000Z</time>
      </trkpt>
      <trkpt lat="47.35879" lon="-1.19154">
        <ele>54</ele>
        <time>2025-08-02T09:32:37.000Z</time>
      </trkpt>
      <trkpt lat="47.35878" lon="-1.19155">
        <ele>54</ele>
        <time>2025-08-02T09:32:38.000Z</time>
      </trkpt>
      <trkpt lat="47.35877" lon="-1.19155">
        <ele>54</ele>
        <time>2025-08-02T09:32:39.000Z</time>
      </trkpt>
      <trkpt lat="47.35877" lon="-1.19155">
        <ele>54</ele>
        <time>2025-08-02T09:32:40.000Z</time>
      </trkpt>
      <trkpt lat="47.35876" lon="-1.19157">
        <ele>54</ele>
        <time>2025-08-02T09:32:41.000Z</time>
      </trkpt>
      <trkpt lat="47.35876" lon="-1.19157">
        <ele>53</ele>
        <time>2025-08-02T09:32:42.000Z</time>
      </trkpt>
      <trkpt lat="47.35875" lon="-1.19158">
        <ele>53</ele>
        <time>2025-08-02T09:32:43.000Z</time>
      </trkpt>
      <trkpt lat="47.35875" lon="-1.1916">
        <ele>53</ele>
        <time>2025-08-02T09:32:44.000Z</time>
      </trkpt>
      <trkpt lat="47.35875" lon="-1.19162">
        <ele>53</ele>
        <time>2025-08-02T09:32:45.000Z</time>
      </trkpt>
      <trkpt lat="47.35875" lon="-1.19163">
        <ele>54</ele>
        <time>2025-08-02T09:32:46.000Z</time>
      </trkpt>
      <trkpt lat="47.35874" lon="-1.19165">
        <ele>54</ele>
        <time>2025-08-02T09:32:47.000Z</time>
      </trkpt>
      <trkpt lat="47.35874" lon="-1.19167">
        <ele>54</ele>
        <time>2025-08-02T09:32:48.000Z</time>
      </trkpt>
      <trkpt lat="47.35874" lon="-1.19168">
        <ele>53</ele>
        <time>2025-08-02T09:32:49.000Z</time>
      </trkpt>
      <trkpt lat="47.35874" lon="-1.19169">
        <ele>53</ele>
        <time>2025-08-02T09:32:50.000Z</time>
      </trkpt>
      <trkpt lat="47.35874" lon="-1.1917">
        <ele>53</ele>
        <time>2025-08-02T09:32:51.000Z</time>
      </trkpt>
      <trkpt lat="47.35873" lon="-1.19172">
        <ele>53</ele>
        <time>2025-08-02T09:32:52.000Z</time>
      </trkpt>
      <trkpt lat="47.35873" lon="-1.19173">
        <ele>53</ele>
        <time>2025-08-02T09:32:53.000Z</time>
      </trkpt>
      <trkpt lat="47.35873" lon="-1.19173">
        <ele>54</ele>
        <time>2025-08-02T09:32:54.000Z</time>
      </trkpt>
      <trkpt lat="47.35873" lon="-1.19173">
        <ele>54</ele>
        <time>2025-08-02T09:32:55.000Z</time>
      </trkpt>
      <trkpt lat="47.35872" lon="-1.19173">
        <ele>54</ele>
        <time>2025-08-02T09:32:56.000Z</time>
      </trkpt>
      <trkpt lat="47.35872" lon="-1.19173">
        <ele>54</ele>
        <time>2025-08-02T09:32:57.000Z</time>
      </trkpt>
      <trkpt lat="47.35872" lon="-1.19173">
        <ele>54</ele>
        <time>2025-08-02T09:32:58.000Z</time>
      </trkpt>
      <trkpt lat="47.35872" lon="-1.19173">
        <ele>54</ele>
        <time>2025-08-02T09:32:59.000Z</time>
      </trkpt>
      <trkpt lat="47.35872" lon="-1.19173">
        <ele>54</ele>
        <time>2025-08-02T09:33:00.000Z</time>
      </trkpt>
      <trkpt lat="47.35872" lon="-1.19173">
        <ele>54</ele>
        <time>2025-08-02T09:33:01.000Z</time>
      </trkpt>
      <trkpt lat="47.35872" lon="-1.19173">
        <ele>54</ele>
        <time>2025-08-02T09:33:02.000Z</time>
      </trkpt>
      <trkpt lat="47.35872" lon="-1.19173">
        <ele>54</ele>
        <time>2025-08-02T09:33:03.000Z</time>
      </trkpt>
      <trkpt lat="47.35872" lon="-1.19173">
        <ele>54</ele>
        <time>2025-08-02T09:33:04.000Z</time>
      </trkpt>
      <trkpt lat="47.35872" lon="-1.19175">
        <ele>53</ele>
        <time>2025-08-02T09:33:05.000Z</time>
      </trkpt>
      <trkpt lat="47.35871" lon="-1.19177">
        <ele>53</ele>
        <time>2025-08-02T09:33:06.000Z</time>
      </trkpt>
      <trkpt lat="47.35871" lon="-1.19179">
        <ele>53</ele>
        <time>2025-08-02T09:33:07.000Z</time>
      </trkpt>
      <trkpt lat="47.3587" lon="-1.1918">
        <ele>53</ele>
        <time>2025-08-02T09:33:08.000Z</time>
      </trkpt>
      <trkpt lat="47.35869" lon="-1.19182">
        <ele>53</ele>
        <time>2025-08-02T09:33:09.000Z</time>
      </trkpt>
      <trkpt lat="47.35869" lon="-1.19183">
        <ele>54</ele>
        <time>2025-08-02T09:33:10.000Z</time>
      </trkpt>
      <trkpt lat="47.3587" lon="-1.19184">
        <ele>54</ele>
        <time>2025-08-02T09:33:11.000Z</time>
      </trkpt>
      <trkpt lat="47.35871" lon="-1.19183">
        <ele>54</ele>
        <time>2025-08-02T09:33:12.000Z</time>
      </trkpt>
      <trkpt lat="47.35871" lon="-1.19183">
        <ele>54</ele>
        <time>2025-08-02T09:33:13.000Z</time>
      </trkpt>
      <trkpt lat="47.35871" lon="-1.19183">
        <ele>54</ele>
        <time>2025-08-02T09:33:14.000Z</time>
      </trkpt>
      <trkpt lat="47.35871" lon="-1.19183">
        <ele>53</ele>
        <time>2025-08-02T09:33:15.000Z</time>
      </trkpt>
      <trkpt lat="47.35871" lon="-1.19184">
        <ele>53</ele>
        <time>2025-08-02T09:33:16.000Z</time>
      </trkpt>
      <trkpt lat="47.35871" lon="-1.19185">
        <ele>53</ele>
        <time>2025-08-02T09:33:17.000Z</time>
      </trkpt>
      <trkpt lat="47.3587" lon="-1.19186">
        <ele>53</ele>
        <time>2025-08-02T09:33:18.000Z</time>
      </trkpt>
      <trkpt lat="47.35869" lon="-1.19188">
        <ele>54</ele>
        <time>2025-08-02T09:33:19.000Z</time>
      </trkpt>
      <trkpt lat="47.35869" lon="-1.19189">
        <ele>54</ele>
        <time>2025-08-02T09:33:20.000Z</time>
      </trkpt>
      <trkpt lat="47.35869" lon="-1.1919">
        <ele>54</ele>
        <time>2025-08-02T09:33:21.000Z</time>
      </trkpt>
      <trkpt lat="47.35869" lon="-1.1919">
        <ele>54</ele>
        <time>2025-08-02T09:33:22.000Z</time>
      </trkpt>
      <trkpt lat="47.35869" lon="-1.19191">
        <ele>53</ele>
        <time>2025-08-02T09:33:23.000Z</time>
      </trkpt>
      <trkpt lat="47.35869" lon="-1.19193">
        <ele>53</ele>
        <time>2025-08-02T09:33:24.000Z</time>
      </trkpt>
      <trkpt lat="47.35869" lon="-1.19195">
        <ele>53</ele>
        <time>2025-08-02T09:33:25.000Z</time>
      </trkpt>
      <trkpt lat="47.35869" lon="-1.19198">
        <ele>53</ele>
        <time>2025-08-02T09:33:26.000Z</time>
      </trkpt>
      <trkpt lat="47.35868" lon="-1.192">
        <ele>54</ele>
        <time>2025-08-02T09:33:27.000Z</time>
      </trkpt>
      <trkpt lat="47.35867" lon="-1.19203">
        <ele>54</ele>
        <time>2025-08-02T09:33:28.000Z</time>
      </trkpt>
      <trkpt lat="47.35866" lon="-1.19206">
        <ele>55</ele>
        <time>2025-08-02T09:33:29.000Z</time>
      </trkpt>
      <trkpt lat="47.35865" lon="-1.19208">
        <ele>55</ele>
        <time>2025-08-02T09:33:30.000Z</time>
      </trkpt>
      <trkpt lat="47.35864" lon="-1.1921">
        <ele>55</ele>
        <time>2025-08-02T09:33:31.000Z</time>
      </trkpt>
      <trkpt lat="47.35863" lon="-1.19212">
        <ele>55</ele>
        <time>2025-08-02T09:33:32.000Z</time>
      </trkpt>
      <trkpt lat="47.35862" lon="-1.19213">
        <ele>55</ele>
        <time>2025-08-02T09:33:33.000Z</time>
      </trkpt>
      <trkpt lat="47.35861" lon="-1.19214">
        <ele>56</ele>
        <time>2025-08-02T09:33:34.000Z</time>
      </trkpt>
      <trkpt lat="47.35861" lon="-1.19215">
        <ele>56</ele>
        <time>2025-08-02T09:33:35.000Z</time>
      </trkpt>
      <trkpt lat="47.3586" lon="-1.19217">
        <ele>56</ele>
        <time>2025-08-02T09:33:36.000Z</time>
      </trkpt>
      <trkpt lat="47.3586" lon="-1.19218">
        <ele>56</ele>
        <time>2025-08-02T09:33:37.000Z</time>
      </trkpt>
      <trkpt lat="47.3586" lon="-1.19219">
        <ele>55</ele>
        <time>2025-08-02T09:33:38.000Z</time>
      </trkpt>
      <trkpt lat="47.35859" lon="-1.1922">
        <ele>55</ele>
        <time>2025-08-02T09:33:39.000Z</time>
      </trkpt>
      <trkpt lat="47.35859" lon="-1.19222">
        <ele>56</ele>
        <time>2025-08-02T09:33:40.000Z</time>
      </trkpt>
      <trkpt lat="47.35858" lon="-1.19224">
        <ele>56</ele>
        <time>2025-08-02T09:33:41.000Z</time>
      </trkpt>
      <trkpt lat="47.35858" lon="-1.19226">
        <ele>56</ele>
        <time>2025-08-02T09:33:42.000Z</time>
      </trkpt>
      <trkpt lat="47.35858" lon="-1.19227">
        <ele>55</ele>
        <time>2025-08-02T09:33:43.000Z</time>
      </trkpt>
      <trkpt lat="47.35857" lon="-1.19228">
        <ele>56</ele>
        <time>2025-08-02T09:33:44.000Z</time>
      </trkpt>
      <trkpt lat="47.35857" lon="-1.19229">
        <ele>55</ele>
        <time>2025-08-02T09:33:45.000Z</time>
      </trkpt>
      <trkpt lat="47.35858" lon="-1.19231">
        <ele>55</ele>
        <time>2025-08-02T09:33:46.000Z</time>
      </trkpt>
      <trkpt lat="47.35857" lon="-1.19233">
        <ele>55</ele>
        <time>2025-08-02T09:33:47.000Z</time>
      </trkpt>
      <trkpt lat="47.35857" lon="-1.19235">
        <ele>54</ele>
        <time>2025-08-02T09:33:48.000Z</time>
      </trkpt>
      <trkpt lat="47.35857" lon="-1.19237">
        <ele>55</ele>
        <time>2025-08-02T09:33:49.000Z</time>
      </trkpt>
      <trkpt lat="47.35856" lon="-1.19239">
        <ele>55</ele>
        <time>2025-08-02T09:33:50.000Z</time>
      </trkpt>
      <trkpt lat="47.35856" lon="-1.19242">
        <ele>54</ele>
        <time>2025-08-02T09:33:51.000Z</time>
      </trkpt>
      <trkpt lat="47.35857" lon="-1.19243">
        <ele>55</ele>
        <time>2025-08-02T09:33:52.000Z</time>
      </trkpt>
      <trkpt lat="47.35857" lon="-1.19246">
        <ele>55</ele>
        <time>2025-08-02T09:33:53.000Z</time>
      </trkpt>
      <trkpt lat="47.35857" lon="-1.19248">
        <ele>55</ele>
        <time>2025-08-02T09:33:54.000Z</time>
      </trkpt>
      <trkpt lat="47.35857" lon="-1.19251">
        <ele>55</ele>
        <time>2025-08-02T09:33:55.000Z</time>
      </trkpt>
      <trkpt lat="47.35857" lon="-1.19253">
        <ele>56</ele>
        <time>2025-08-02T09:33:56.000Z</time>
      </trkpt>
      <trkpt lat="47.35856" lon="-1.19255">
        <ele>55</ele>
        <time>2025-08-02T09:33:57.000Z</time>
      </trkpt>
      <trkpt lat="47.35856" lon="-1.19257">
        <ele>55</ele>
        <time>2025-08-02T09:33:58.000Z</time>
      </trkpt>
      <trkpt lat="47.35855" lon="-1.19259">
        <ele>55</ele>
        <time>2025-08-02T09:33:59.000Z</time>
      </trkpt>
      <trkpt lat="47.35855" lon="-1.19261">
        <ele>55</ele>
        <time>2025-08-02T09:34:00.000Z</time>
      </trkpt>
      <trkpt lat="47.35854" lon="-1.19263">
        <ele>56</ele>
        <time>2025-08-02T09:34:01.000Z</time>
      </trkpt>
      <trkpt lat="47.35853" lon="-1.19265">
        <ele>57</ele>
        <time>2025-08-02T09:34:02.000Z</time>
      </trkpt>
      <trkpt lat="47.35852" lon="-1.19267">
        <ele>57</ele>
        <time>2025-08-02T09:34:03.000Z</time>
      </trkpt>
      <trkpt lat="47.35852" lon="-1.19269">
        <ele>56</ele>
        <time>2025-08-02T09:34:04.000Z</time>
      </trkpt>
      <trkpt lat="47.35851" lon="-1.1927">
        <ele>57</ele>
        <time>2025-08-02T09:34:05.000Z</time>
      </trkpt>
      <trkpt lat="47.3585" lon="-1.19271">
        <ele>58</ele>
        <time>2025-08-02T09:34:06.000Z</time>
      </trkpt>
      <trkpt lat="47.3585" lon="-1.19273">
        <ele>57</ele>
        <time>2025-08-02T09:34:07.000Z</time>
      </trkpt>
      <trkpt lat="47.35849" lon="-1.19275">
        <ele>57</ele>
        <time>2025-08-02T09:34:08.000Z</time>
      </trkpt>
      <trkpt lat="47.35848" lon="-1.19277">
        <ele>57</ele>
        <time>2025-08-02T09:34:09.000Z</time>
      </trkpt>
      <trkpt lat="47.35848" lon="-1.19279">
        <ele>57</ele>
        <time>2025-08-02T09:34:10.000Z</time>
      </trkpt>
      <trkpt lat="47.35848" lon="-1.19281">
        <ele>57</ele>
        <time>2025-08-02T09:34:11.000Z</time>
      </trkpt>
      <trkpt lat="47.35847" lon="-1.19283">
        <ele>57</ele>
        <time>2025-08-02T09:34:12.000Z</time>
      </trkpt>
      <trkpt lat="47.35847" lon="-1.19284">
        <ele>56</ele>
        <time>2025-08-02T09:34:13.000Z</time>
      </trkpt>
      <trkpt lat="47.35846" lon="-1.19286">
        <ele>57</ele>
        <time>2025-08-02T09:34:14.000Z</time>
      </trkpt>
      <trkpt lat="47.35846" lon="-1.19287">
        <ele>57</ele>
        <time>2025-08-02T09:34:15.000Z</time>
      </trkpt>
      <trkpt lat="47.35846" lon="-1.19288">
        <ele>58</ele>
        <time>2025-08-02T09:34:16.000Z</time>
      </trkpt>
      <trkpt lat="47.35845" lon="-1.1929">
        <ele>59</ele>
        <time>2025-08-02T09:34:17.000Z</time>
      </trkpt>
      <trkpt lat="47.35845" lon="-1.19292">
        <ele>59</ele>
        <time>2025-08-02T09:34:18.000Z</time>
      </trkpt>
      <trkpt lat="47.35844" lon="-1.19294">
        <ele>59</ele>
        <time>2025-08-02T09:34:19.000Z</time>
      </trkpt>
      <trkpt lat="47.35844" lon="-1.19294">
        <ele>59</ele>
        <time>2025-08-02T09:34:20.000Z</time>
      </trkpt>
      <trkpt lat="47.35843" lon="-1.19296">
        <ele>59</ele>
        <time>2025-08-02T09:34:21.000Z</time>
      </trkpt>
      <trkpt lat="47.35842" lon="-1.19297">
        <ele>59</ele>
        <time>2025-08-02T09:34:22.000Z</time>
      </trkpt>
      <trkpt lat="47.35841" lon="-1.19299">
        <ele>59</ele>
        <time>2025-08-02T09:34:23.000Z</time>
      </trkpt>
      <trkpt lat="47.3584" lon="-1.19301">
        <ele>59</ele>
        <time>2025-08-02T09:34:24.000Z</time>
      </trkpt>
      <trkpt lat="47.35839" lon="-1.19302">
        <ele>59</ele>
        <time>2025-08-02T09:34:25.000Z</time>
      </trkpt>
      <trkpt lat="47.35837" lon="-1.19303">
        <ele>59</ele>
        <time>2025-08-02T09:34:26.000Z</time>
      </trkpt>
      <trkpt lat="47.35836" lon="-1.19303">
        <ele>59</ele>
        <time>2025-08-02T09:34:27.000Z</time>
      </trkpt>
      <trkpt lat="47.35836" lon="-1.19305">
        <ele>59</ele>
        <time>2025-08-02T09:34:28.000Z</time>
      </trkpt>
      <trkpt lat="47.35835" lon="-1.19306">
        <ele>59</ele>
        <time>2025-08-02T09:34:29.000Z</time>
      </trkpt>
      <trkpt lat="47.35835" lon="-1.19307">
        <ele>59</ele>
        <time>2025-08-02T09:34:30.000Z</time>
      </trkpt>
      <trkpt lat="47.35834" lon="-1.19308">
        <ele>59</ele>
        <time>2025-08-02T09:34:31.000Z</time>
      </trkpt>
      <trkpt lat="47.35834" lon="-1.19309">
        <ele>59</ele>
        <time>2025-08-02T09:34:32.000Z</time>
      </trkpt>
      <trkpt lat="47.35833" lon="-1.19311">
        <ele>59</ele>
        <time>2025-08-02T09:34:33.000Z</time>
      </trkpt>
      <trkpt lat="47.35833" lon="-1.19311">
        <ele>59</ele>
        <time>2025-08-02T09:34:34.000Z</time>
      </trkpt>
      <trkpt lat="47.35832" lon="-1.19313">
        <ele>58</ele>
        <time>2025-08-02T09:34:35.000Z</time>
      </trkpt>
      <trkpt lat="47.35832" lon="-1.19315">
        <ele>58</ele>
        <time>2025-08-02T09:34:36.000Z</time>
      </trkpt>
      <trkpt lat="47.35832" lon="-1.19317">
        <ele>58</ele>
        <time>2025-08-02T09:34:37.000Z</time>
      </trkpt>
      <trkpt lat="47.35831" lon="-1.19317">
        <ele>57</ele>
        <time>2025-08-02T09:34:38.000Z</time>
      </trkpt>
      <trkpt lat="47.35831" lon="-1.19318">
        <ele>57</ele>
        <time>2025-08-02T09:34:39.000Z</time>
      </trkpt>
      <trkpt lat="47.35831" lon="-1.19318">
        <ele>57</ele>
        <time>2025-08-02T09:34:40.000Z</time>
      </trkpt>
      <trkpt lat="47.3583" lon="-1.19318">
        <ele>57</ele>
        <time>2025-08-02T09:34:41.000Z</time>
      </trkpt>
      <trkpt lat="47.35829" lon="-1.1932">
        <ele>57</ele>
        <time>2025-08-02T09:34:42.000Z</time>
      </trkpt>
      <trkpt lat="47.35828" lon="-1.19321">
        <ele>57</ele>
        <time>2025-08-02T09:34:43.000Z</time>
      </trkpt>
      <trkpt lat="47.35827" lon="-1.19322">
        <ele>57</ele>
        <time>2025-08-02T09:34:44.000Z</time>
      </trkpt>
      <trkpt lat="47.35826" lon="-1.19323">
        <ele>57</ele>
        <time>2025-08-02T09:34:45.000Z</time>
      </trkpt>
      <trkpt lat="47.35825" lon="-1.19325">
        <ele>58</ele>
        <time>2025-08-02T09:34:46.000Z</time>
      </trkpt>
      <trkpt lat="47.35824" lon="-1.19327">
        <ele>58</ele>
        <time>2025-08-02T09:34:47.000Z</time>
      </trkpt>
      <trkpt lat="47.35824" lon="-1.19328">
        <ele>59</ele>
        <time>2025-08-02T09:34:48.000Z</time>
      </trkpt>
      <trkpt lat="47.35824" lon="-1.1933">
        <ele>59</ele>
        <time>2025-08-02T09:34:49.000Z</time>
      </trkpt>
      <trkpt lat="47.35824" lon="-1.19332">
        <ele>58</ele>
        <time>2025-08-02T09:34:50.000Z</time>
      </trkpt>
      <trkpt lat="47.35823" lon="-1.19334">
        <ele>58</ele>
        <time>2025-08-02T09:34:51.000Z</time>
      </trkpt>
      <trkpt lat="47.35822" lon="-1.19336">
        <ele>58</ele>
        <time>2025-08-02T09:34:52.000Z</time>
      </trkpt>
      <trkpt lat="47.35822" lon="-1.19339">
        <ele>58</ele>
        <time>2025-08-02T09:34:53.000Z</time>
      </trkpt>
      <trkpt lat="47.3582" lon="-1.19341">
        <ele>58</ele>
        <time>2025-08-02T09:34:54.000Z</time>
      </trkpt>
      <trkpt lat="47.35819" lon="-1.19344">
        <ele>58</ele>
        <time>2025-08-02T09:34:55.000Z</time>
      </trkpt>
      <trkpt lat="47.35818" lon="-1.19345">
        <ele>58</ele>
        <time>2025-08-02T09:34:56.000Z</time>
      </trkpt>
      <trkpt lat="47.35817" lon="-1.19347">
        <ele>59</ele>
        <time>2025-08-02T09:34:57.000Z</time>
      </trkpt>
      <trkpt lat="47.35815" lon="-1.1935">
        <ele>59</ele>
        <time>2025-08-02T09:34:58.000Z</time>
      </trkpt>
      <trkpt lat="47.35814" lon="-1.19352">
        <ele>58</ele>
        <time>2025-08-02T09:34:59.000Z</time>
      </trkpt>
      <trkpt lat="47.35813" lon="-1.19354">
        <ele>59</ele>
        <time>2025-08-02T09:35:00.000Z</time>
      </trkpt>
      <trkpt lat="47.35812" lon="-1.19356">
        <ele>58</ele>
        <time>2025-08-02T09:35:01.000Z</time>
      </trkpt>
      <trkpt lat="47.35811" lon="-1.19358">
        <ele>58</ele>
        <time>2025-08-02T09:35:02.000Z</time>
      </trkpt>
      <trkpt lat="47.35811" lon="-1.1936">
        <ele>58</ele>
        <time>2025-08-02T09:35:03.000Z</time>
      </trkpt>
      <trkpt lat="47.3581" lon="-1.19362">
        <ele>59</ele>
        <time>2025-08-02T09:35:04.000Z</time>
      </trkpt>
      <trkpt lat="47.35809" lon="-1.19364">
        <ele>60</ele>
        <time>2025-08-02T09:35:05.000Z</time>
      </trkpt>
      <trkpt lat="47.35809" lon="-1.19365">
        <ele>61</ele>
        <time>2025-08-02T09:35:06.000Z</time>
      </trkpt>
      <trkpt lat="47.35808" lon="-1.19367">
        <ele>62</ele>
        <time>2025-08-02T09:35:07.000Z</time>
      </trkpt>
      <trkpt lat="47.35808" lon="-1.19369">
        <ele>63</ele>
        <time>2025-08-02T09:35:08.000Z</time>
      </trkpt>
      <trkpt lat="47.35807" lon="-1.1937">
        <ele>64</ele>
        <time>2025-08-02T09:35:09.000Z</time>
      </trkpt>
      <trkpt lat="47.35806" lon="-1.19372">
        <ele>63</ele>
        <time>2025-08-02T09:35:10.000Z</time>
      </trkpt>
      <trkpt lat="47.35805" lon="-1.19374">
        <ele>63</ele>
        <time>2025-08-02T09:35:11.000Z</time>
      </trkpt>
      <trkpt lat="47.35805" lon="-1.19374">
        <ele>63</ele>
        <time>2025-08-02T09:35:12.000Z</time>
      </trkpt>
      <trkpt lat="47.35804" lon="-1.19376">
        <ele>63</ele>
        <time>2025-08-02T09:35:13.000Z</time>
      </trkpt>
      <trkpt lat="47.35804" lon="-1.19377">
        <ele>64</ele>
        <time>2025-08-02T09:35:14.000Z</time>
      </trkpt>
      <trkpt lat="47.35803" lon="-1.19379">
        <ele>64</ele>
        <time>2025-08-02T09:35:15.000Z</time>
      </trkpt>
      <trkpt lat="47.35802" lon="-1.1938">
        <ele>64</ele>
        <time>2025-08-02T09:35:16.000Z</time>
      </trkpt>
      <trkpt lat="47.35802" lon="-1.19382">
        <ele>64</ele>
        <time>2025-08-02T09:35:17.000Z</time>
      </trkpt>
      <trkpt lat="47.35801" lon="-1.19384">
        <ele>63</ele>
        <time>2025-08-02T09:35:18.000Z</time>
      </trkpt>
      <trkpt lat="47.35801" lon="-1.19385">
        <ele>63</ele>
        <time>2025-08-02T09:35:19.000Z</time>
      </trkpt>
      <trkpt lat="47.35799" lon="-1.19387">
        <ele>63</ele>
        <time>2025-08-02T09:35:20.000Z</time>
      </trkpt>
      <trkpt lat="47.35799" lon="-1.19389">
        <ele>63</ele>
        <time>2025-08-02T09:35:21.000Z</time>
      </trkpt>
      <trkpt lat="47.35798" lon="-1.19391">
        <ele>62</ele>
        <time>2025-08-02T09:35:22.000Z</time>
      </trkpt>
      <trkpt lat="47.35797" lon="-1.19393">
        <ele>62</ele>
        <time>2025-08-02T09:35:23.000Z</time>
      </trkpt>
      <trkpt lat="47.35797" lon="-1.19395">
        <ele>62</ele>
        <time>2025-08-02T09:35:24.000Z</time>
      </trkpt>
      <trkpt lat="47.35796" lon="-1.19396">
        <ele>62</ele>
        <time>2025-08-02T09:35:25.000Z</time>
      </trkpt>
      <trkpt lat="47.35795" lon="-1.19397">
        <ele>62</ele>
        <time>2025-08-02T09:35:26.000Z</time>
      </trkpt>
      <trkpt lat="47.35794" lon="-1.19399">
        <ele>62</ele>
        <time>2025-08-02T09:35:27.000Z</time>
      </trkpt>
      <trkpt lat="47.35793" lon="-1.194">
        <ele>61</ele>
        <time>2025-08-02T09:35:28.000Z</time>
      </trkpt>
      <trkpt lat="47.35792" lon="-1.19401">
        <ele>60</ele>
        <time>2025-08-02T09:35:29.000Z</time>
      </trkpt>
      <trkpt lat="47.35791" lon="-1.19403">
        <ele>60</ele>
        <time>2025-08-02T09:35:30.000Z</time>
      </trkpt>
      <trkpt lat="47.3579" lon="-1.19404">
        <ele>61</ele>
        <time>2025-08-02T09:35:31.000Z</time>
      </trkpt>
      <trkpt lat="47.35789" lon="-1.19406">
        <ele>61</ele>
        <time>2025-08-02T09:35:32.000Z</time>
      </trkpt>
      <trkpt lat="47.35788" lon="-1.19408">
        <ele>61</ele>
        <time>2025-08-02T09:35:33.000Z</time>
      </trkpt>
      <trkpt lat="47.35787" lon="-1.1941">
        <ele>61</ele>
        <time>2025-08-02T09:35:34.000Z</time>
      </trkpt>
      <trkpt lat="47.35787" lon="-1.19412">
        <ele>61</ele>
        <time>2025-08-02T09:35:35.000Z</time>
      </trkpt>
      <trkpt lat="47.35786" lon="-1.19413">
        <ele>61</ele>
        <time>2025-08-02T09:35:36.000Z</time>
      </trkpt>
      <trkpt lat="47.35785" lon="-1.19415">
        <ele>61</ele>
        <time>2025-08-02T09:35:37.000Z</time>
      </trkpt>
      <trkpt lat="47.35784" lon="-1.19416">
        <ele>61</ele>
        <time>2025-08-02T09:35:38.000Z</time>
      </trkpt>
      <trkpt lat="47.35783" lon="-1.19418">
        <ele>61</ele>
        <time>2025-08-02T09:35:39.000Z</time>
      </trkpt>
      <trkpt lat="47.35783" lon="-1.1942">
        <ele>61</ele>
        <time>2025-08-02T09:35:40.000Z</time>
      </trkpt>
      <trkpt lat="47.35782" lon="-1.19421">
        <ele>61</ele>
        <time>2025-08-02T09:35:41.000Z</time>
      </trkpt>
      <trkpt lat="47.35781" lon="-1.19423">
        <ele>61</ele>
        <time>2025-08-02T09:35:42.000Z</time>
      </trkpt>
      <trkpt lat="47.35781" lon="-1.19424">
        <ele>60</ele>
        <time>2025-08-02T09:35:43.000Z</time>
      </trkpt>
      <trkpt lat="47.35781" lon="-1.19426">
        <ele>61</ele>
        <time>2025-08-02T09:35:44.000Z</time>
      </trkpt>
      <trkpt lat="47.35782" lon="-1.19428">
        <ele>60</ele>
        <time>2025-08-02T09:35:45.000Z</time>
      </trkpt>
      <trkpt lat="47.35782" lon="-1.1943">
        <ele>60</ele>
        <time>2025-08-02T09:35:46.000Z</time>
      </trkpt>
      <trkpt lat="47.35782" lon="-1.19432">
        <ele>60</ele>
        <time>2025-08-02T09:35:47.000Z</time>
      </trkpt>
      <trkpt lat="47.35782" lon="-1.19434">
        <ele>60</ele>
        <time>2025-08-02T09:35:48.000Z</time>
      </trkpt>
      <trkpt lat="47.35782" lon="-1.19436">
        <ele>60</ele>
        <time>2025-08-02T09:35:49.000Z</time>
      </trkpt>
      <trkpt lat="47.35782" lon="-1.19438">
        <ele>61</ele>
        <time>2025-08-02T09:35:50.000Z</time>
      </trkpt>
      <trkpt lat="47.35782" lon="-1.1944">
        <ele>61</ele>
        <time>2025-08-02T09:35:51.000Z</time>
      </trkpt>
      <trkpt lat="47.35782" lon="-1.19441">
        <ele>61</ele>
        <time>2025-08-02T09:35:52.000Z</time>
      </trkpt>
      <trkpt lat="47.35781" lon="-1.19443">
        <ele>61</ele>
        <time>2025-08-02T09:35:53.000Z</time>
      </trkpt>
      <trkpt lat="47.35781" lon="-1.19444">
        <ele>61</ele>
        <time>2025-08-02T09:35:54.000Z</time>
      </trkpt>
      <trkpt lat="47.3578" lon="-1.19446">
        <ele>61</ele>
        <time>2025-08-02T09:35:55.000Z</time>
      </trkpt>
      <trkpt lat="47.3578" lon="-1.19447">
        <ele>61</ele>
        <time>2025-08-02T09:35:56.000Z</time>
      </trkpt>
      <trkpt lat="47.35779" lon="-1.19449">
        <ele>61</ele>
        <time>2025-08-02T09:35:57.000Z</time>
      </trkpt>
      <trkpt lat="47.35779" lon="-1.19451">
        <ele>61</ele>
        <time>2025-08-02T09:35:58.000Z</time>
      </trkpt>
      <trkpt lat="47.35778" lon="-1.19452">
        <ele>61</ele>
        <time>2025-08-02T09:35:59.000Z</time>
      </trkpt>
      <trkpt lat="47.35777" lon="-1.19453">
        <ele>61</ele>
        <time>2025-08-02T09:36:00.000Z</time>
      </trkpt>
      <trkpt lat="47.35776" lon="-1.19453">
        <ele>61</ele>
        <time>2025-08-02T09:36:01.000Z</time>
      </trkpt>
      <trkpt lat="47.35775" lon="-1.19455">
        <ele>61</ele>
        <time>2025-08-02T09:36:02.000Z</time>
      </trkpt>
      <trkpt lat="47.35775" lon="-1.19456">
        <ele>62</ele>
        <time>2025-08-02T09:36:03.000Z</time>
      </trkpt>
      <trkpt lat="47.35775" lon="-1.19458">
        <ele>62</ele>
        <time>2025-08-02T09:36:04.000Z</time>
      </trkpt>
      <trkpt lat="47.35774" lon="-1.1946">
        <ele>61</ele>
        <time>2025-08-02T09:36:05.000Z</time>
      </trkpt>
      <trkpt lat="47.35774" lon="-1.19462">
        <ele>61</ele>
        <time>2025-08-02T09:36:06.000Z</time>
      </trkpt>
      <trkpt lat="47.35775" lon="-1.19464">
        <ele>60</ele>
        <time>2025-08-02T09:36:07.000Z</time>
      </trkpt>
      <trkpt lat="47.35775" lon="-1.19465">
        <ele>60</ele>
        <time>2025-08-02T09:36:08.000Z</time>
      </trkpt>
      <trkpt lat="47.35775" lon="-1.19467">
        <ele>60</ele>
        <time>2025-08-02T09:36:09.000Z</time>
      </trkpt>
      <trkpt lat="47.35775" lon="-1.19468">
        <ele>61</ele>
        <time>2025-08-02T09:36:10.000Z</time>
      </trkpt>
      <trkpt lat="47.35775" lon="-1.19468">
        <ele>61</ele>
        <time>2025-08-02T09:36:11.000Z</time>
      </trkpt>
      <trkpt lat="47.35775" lon="-1.19469">
        <ele>61</ele>
        <time>2025-08-02T09:36:12.000Z</time>
      </trkpt>
      <trkpt lat="47.35775" lon="-1.19469">
        <ele>60</ele>
        <time>2025-08-02T09:36:13.000Z</time>
      </trkpt>
      <trkpt lat="47.35775" lon="-1.19469">
        <ele>60</ele>
        <time>2025-08-02T09:36:14.000Z</time>
      </trkpt>
      <trkpt lat="47.35775" lon="-1.19469">
        <ele>60</ele>
        <time>2025-08-02T09:36:15.000Z</time>
      </trkpt>
      <trkpt lat="47.35775" lon="-1.19469">
        <ele>60</ele>
        <time>2025-08-02T09:36:16.000Z</time>
      </trkpt>
      <trkpt lat="47.35775" lon="-1.19469">
        <ele>60</ele>
        <time>2025-08-02T09:36:17.000Z</time>
      </trkpt>
      <trkpt lat="47.35775" lon="-1.19471">
        <ele>60</ele>
        <time>2025-08-02T09:36:18.000Z</time>
      </trkpt>
      <trkpt lat="47.35775" lon="-1.19472">
        <ele>60</ele>
        <time>2025-08-02T09:36:19.000Z</time>
      </trkpt>
      <trkpt lat="47.35775" lon="-1.19474">
        <ele>61</ele>
        <time>2025-08-02T09:36:20.000Z</time>
      </trkpt>
      <trkpt lat="47.35775" lon="-1.19475">
        <ele>60</ele>
        <time>2025-08-02T09:36:21.000Z</time>
      </trkpt>
      <trkpt lat="47.35775" lon="-1.19476">
        <ele>60</ele>
        <time>2025-08-02T09:36:22.000Z</time>
      </trkpt>
      <trkpt lat="47.35775" lon="-1.19477">
        <ele>59</ele>
        <time>2025-08-02T09:36:23.000Z</time>
      </trkpt>
      <trkpt lat="47.35774" lon="-1.19479">
        <ele>59</ele>
        <time>2025-08-02T09:36:24.000Z</time>
      </trkpt>
      <trkpt lat="47.35774" lon="-1.19481">
        <ele>58</ele>
        <time>2025-08-02T09:36:25.000Z</time>
      </trkpt>
      <trkpt lat="47.35773" lon="-1.19484">
        <ele>58</ele>
        <time>2025-08-02T09:36:26.000Z</time>
      </trkpt>
      <trkpt lat="47.35772" lon="-1.19486">
        <ele>58</ele>
        <time>2025-08-02T09:36:27.000Z</time>
      </trkpt>
      <trkpt lat="47.35771" lon="-1.19487">
        <ele>58</ele>
        <time>2025-08-02T09:36:28.000Z</time>
      </trkpt>
      <trkpt lat="47.3577" lon="-1.19488">
        <ele>58</ele>
        <time>2025-08-02T09:36:29.000Z</time>
      </trkpt>
      <trkpt lat="47.35769" lon="-1.19491">
        <ele>57</ele>
        <time>2025-08-02T09:36:30.000Z</time>
      </trkpt>
      <trkpt lat="47.35768" lon="-1.19492">
        <ele>57</ele>
        <time>2025-08-02T09:36:31.000Z</time>
      </trkpt>
      <trkpt lat="47.35768" lon="-1.19494">
        <ele>57</ele>
        <time>2025-08-02T09:36:32.000Z</time>
      </trkpt>
      <trkpt lat="47.35767" lon="-1.19496">
        <ele>57</ele>
        <time>2025-08-02T09:36:33.000Z</time>
      </trkpt>
      <trkpt lat="47.35766" lon="-1.19497">
        <ele>58</ele>
        <time>2025-08-02T09:36:34.000Z</time>
      </trkpt>
      <trkpt lat="47.35766" lon="-1.195">
        <ele>58</ele>
        <time>2025-08-02T09:36:35.000Z</time>
      </trkpt>
      <trkpt lat="47.35765" lon="-1.19502">
        <ele>58</ele>
        <time>2025-08-02T09:36:36.000Z</time>
      </trkpt>
      <trkpt lat="47.35765" lon="-1.19504">
        <ele>58</ele>
        <time>2025-08-02T09:36:37.000Z</time>
      </trkpt>
      <trkpt lat="47.35765" lon="-1.19506">
        <ele>58</ele>
        <time>2025-08-02T09:36:38.000Z</time>
      </trkpt>
      <trkpt lat="47.35764" lon="-1.19508">
        <ele>58</ele>
        <time>2025-08-02T09:36:39.000Z</time>
      </trkpt>
      <trkpt lat="47.35764" lon="-1.1951">
        <ele>58</ele>
        <time>2025-08-02T09:36:40.000Z</time>
      </trkpt>
      <trkpt lat="47.35763" lon="-1.19511">
        <ele>59</ele>
        <time>2025-08-02T09:36:41.000Z</time>
      </trkpt>
      <trkpt lat="47.35762" lon="-1.19513">
        <ele>59</ele>
        <time>2025-08-02T09:36:42.000Z</time>
      </trkpt>
      <trkpt lat="47.35762" lon="-1.19514">
        <ele>58</ele>
        <time>2025-08-02T09:36:43.000Z</time>
      </trkpt>
      <trkpt lat="47.35762" lon="-1.19517">
        <ele>59</ele>
        <time>2025-08-02T09:36:44.000Z</time>
      </trkpt>
      <trkpt lat="47.35762" lon="-1.19519">
        <ele>58</ele>
        <time>2025-08-02T09:36:45.000Z</time>
      </trkpt>
      <trkpt lat="47.35762" lon="-1.19522">
        <ele>58</ele>
        <time>2025-08-02T09:36:46.000Z</time>
      </trkpt>
      <trkpt lat="47.35761" lon="-1.19523">
        <ele>58</ele>
        <time>2025-08-02T09:36:47.000Z</time>
      </trkpt>
      <trkpt lat="47.35761" lon="-1.19525">
        <ele>58</ele>
        <time>2025-08-02T09:36:48.000Z</time>
      </trkpt>
      <trkpt lat="47.3576" lon="-1.19526">
        <ele>58</ele>
        <time>2025-08-02T09:36:49.000Z</time>
      </trkpt>
      <trkpt lat="47.35759" lon="-1.19529">
        <ele>58</ele>
        <time>2025-08-02T09:36:50.000Z</time>
      </trkpt>
      <trkpt lat="47.35757" lon="-1.1953">
        <ele>58</ele>
        <time>2025-08-02T09:36:51.000Z</time>
      </trkpt>
      <trkpt lat="47.35756" lon="-1.19532">
        <ele>57</ele>
        <time>2025-08-02T09:36:52.000Z</time>
      </trkpt>
      <trkpt lat="47.35755" lon="-1.19533">
        <ele>57</ele>
        <time>2025-08-02T09:36:53.000Z</time>
      </trkpt>
      <trkpt lat="47.35755" lon="-1.19536">
        <ele>57</ele>
        <time>2025-08-02T09:36:54.000Z</time>
      </trkpt>
      <trkpt lat="47.35754" lon="-1.19537">
        <ele>57</ele>
        <time>2025-08-02T09:36:55.000Z</time>
      </trkpt>
      <trkpt lat="47.35754" lon="-1.19539">
        <ele>57</ele>
        <time>2025-08-02T09:36:56.000Z</time>
      </trkpt>
      <trkpt lat="47.35753" lon="-1.19541">
        <ele>57</ele>
        <time>2025-08-02T09:36:57.000Z</time>
      </trkpt>
      <trkpt lat="47.35753" lon="-1.19542">
        <ele>57</ele>
        <time>2025-08-02T09:36:58.000Z</time>
      </trkpt>
      <trkpt lat="47.35752" lon="-1.19543">
        <ele>56</ele>
        <time>2025-08-02T09:36:59.000Z</time>
      </trkpt>
      <trkpt lat="47.35752" lon="-1.19545">
        <ele>56</ele>
        <time>2025-08-02T09:37:00.000Z</time>
      </trkpt>
      <trkpt lat="47.35752" lon="-1.19547">
        <ele>56</ele>
        <time>2025-08-02T09:37:01.000Z</time>
      </trkpt>
      <trkpt lat="47.35751" lon="-1.19549">
        <ele>56</ele>
        <time>2025-08-02T09:37:02.000Z</time>
      </trkpt>
      <trkpt lat="47.35751" lon="-1.19551">
        <ele>56</ele>
        <time>2025-08-02T09:37:03.000Z</time>
      </trkpt>
      <trkpt lat="47.35749" lon="-1.19552">
        <ele>57</ele>
        <time>2025-08-02T09:37:04.000Z</time>
      </trkpt>
      <trkpt lat="47.35748" lon="-1.19554">
        <ele>56</ele>
        <time>2025-08-02T09:37:05.000Z</time>
      </trkpt>
      <trkpt lat="47.35747" lon="-1.19555">
        <ele>56</ele>
        <time>2025-08-02T09:37:06.000Z</time>
      </trkpt>
      <trkpt lat="47.35746" lon="-1.19557">
        <ele>56</ele>
        <time>2025-08-02T09:37:07.000Z</time>
      </trkpt>
      <trkpt lat="47.35746" lon="-1.19558">
        <ele>56</ele>
        <time>2025-08-02T09:37:08.000Z</time>
      </trkpt>
      <trkpt lat="47.35746" lon="-1.1956">
        <ele>56</ele>
        <time>2025-08-02T09:37:09.000Z</time>
      </trkpt>
      <trkpt lat="47.35745" lon="-1.19561">
        <ele>55</ele>
        <time>2025-08-02T09:37:10.000Z</time>
      </trkpt>
      <trkpt lat="47.35745" lon="-1.19563">
        <ele>56</ele>
        <time>2025-08-02T09:37:11.000Z</time>
      </trkpt>
      <trkpt lat="47.35744" lon="-1.19565">
        <ele>56</ele>
        <time>2025-08-02T09:37:12.000Z</time>
      </trkpt>
      <trkpt lat="47.35743" lon="-1.19567">
        <ele>56</ele>
        <time>2025-08-02T09:37:13.000Z</time>
      </trkpt>
      <trkpt lat="47.35742" lon="-1.19568">
        <ele>56</ele>
        <time>2025-08-02T09:37:14.000Z</time>
      </trkpt>
      <trkpt lat="47.35741" lon="-1.1957">
        <ele>56</ele>
        <time>2025-08-02T09:37:15.000Z</time>
      </trkpt>
      <trkpt lat="47.35741" lon="-1.19571">
        <ele>56</ele>
        <time>2025-08-02T09:37:16.000Z</time>
      </trkpt>
      <trkpt lat="47.35741" lon="-1.19573">
        <ele>57</ele>
        <time>2025-08-02T09:37:17.000Z</time>
      </trkpt>
      <trkpt lat="47.3574" lon="-1.19574">
        <ele>57</ele>
        <time>2025-08-02T09:37:18.000Z</time>
      </trkpt>
      <trkpt lat="47.3574" lon="-1.19576">
        <ele>57</ele>
        <time>2025-08-02T09:37:19.000Z</time>
      </trkpt>
      <trkpt lat="47.3574" lon="-1.19578">
        <ele>57</ele>
        <time>2025-08-02T09:37:20.000Z</time>
      </trkpt>
      <trkpt lat="47.3574" lon="-1.1958">
        <ele>57</ele>
        <time>2025-08-02T09:37:21.000Z</time>
      </trkpt>
      <trkpt lat="47.3574" lon="-1.19583">
        <ele>57</ele>
        <time>2025-08-02T09:37:22.000Z</time>
      </trkpt>
      <trkpt lat="47.3574" lon="-1.19585">
        <ele>57</ele>
        <time>2025-08-02T09:37:23.000Z</time>
      </trkpt>
      <trkpt lat="47.35739" lon="-1.19586">
        <ele>57</ele>
        <time>2025-08-02T09:37:24.000Z</time>
      </trkpt>
      <trkpt lat="47.35738" lon="-1.19588">
        <ele>57</ele>
        <time>2025-08-02T09:37:25.000Z</time>
      </trkpt>
      <trkpt lat="47.35738" lon="-1.1959">
        <ele>57</ele>
        <time>2025-08-02T09:37:26.000Z</time>
      </trkpt>
      <trkpt lat="47.35738" lon="-1.19592">
        <ele>57</ele>
        <time>2025-08-02T09:37:27.000Z</time>
      </trkpt>
      <trkpt lat="47.35738" lon="-1.19593">
        <ele>57</ele>
        <time>2025-08-02T09:37:28.000Z</time>
      </trkpt>
      <trkpt lat="47.35738" lon="-1.19595">
        <ele>57</ele>
        <time>2025-08-02T09:37:29.000Z</time>
      </trkpt>
      <trkpt lat="47.35738" lon="-1.19597">
        <ele>57</ele>
        <time>2025-08-02T09:37:30.000Z</time>
      </trkpt>
      <trkpt lat="47.35737" lon="-1.19599">
        <ele>57</ele>
        <time>2025-08-02T09:37:31.000Z</time>
      </trkpt>
      <trkpt lat="47.35736" lon="-1.196">
        <ele>57</ele>
        <time>2025-08-02T09:37:32.000Z</time>
      </trkpt>
      <trkpt lat="47.35736" lon="-1.19602">
        <ele>57</ele>
        <time>2025-08-02T09:37:33.000Z</time>
      </trkpt>
      <trkpt lat="47.35735" lon="-1.19604">
        <ele>57</ele>
        <time>2025-08-02T09:37:34.000Z</time>
      </trkpt>
      <trkpt lat="47.35735" lon="-1.19605">
        <ele>57</ele>
        <time>2025-08-02T09:37:35.000Z</time>
      </trkpt>
      <trkpt lat="47.35735" lon="-1.19607">
        <ele>56</ele>
        <time>2025-08-02T09:37:36.000Z</time>
      </trkpt>
      <trkpt lat="47.35734" lon="-1.19609">
        <ele>56</ele>
        <time>2025-08-02T09:37:37.000Z</time>
      </trkpt>
      <trkpt lat="47.35734" lon="-1.19611">
        <ele>56</ele>
        <time>2025-08-02T09:37:38.000Z</time>
      </trkpt>
      <trkpt lat="47.35733" lon="-1.19612">
        <ele>56</ele>
        <time>2025-08-02T09:37:39.000Z</time>
      </trkpt>
      <trkpt lat="47.35732" lon="-1.19614">
        <ele>56</ele>
        <time>2025-08-02T09:37:40.000Z</time>
      </trkpt>
      <trkpt lat="47.35732" lon="-1.19616">
        <ele>56</ele>
        <time>2025-08-02T09:37:41.000Z</time>
      </trkpt>
      <trkpt lat="47.35731" lon="-1.19618">
        <ele>56</ele>
        <time>2025-08-02T09:37:42.000Z</time>
      </trkpt>
      <trkpt lat="47.35731" lon="-1.19619">
        <ele>56</ele>
        <time>2025-08-02T09:37:43.000Z</time>
      </trkpt>
      <trkpt lat="47.35731" lon="-1.19621">
        <ele>57</ele>
        <time>2025-08-02T09:37:44.000Z</time>
      </trkpt>
      <trkpt lat="47.35731" lon="-1.19623">
        <ele>58</ele>
        <time>2025-08-02T09:37:45.000Z</time>
      </trkpt>
      <trkpt lat="47.35731" lon="-1.19624">
        <ele>58</ele>
        <time>2025-08-02T09:37:46.000Z</time>
      </trkpt>
      <trkpt lat="47.3573" lon="-1.19625">
        <ele>59</ele>
        <time>2025-08-02T09:37:47.000Z</time>
      </trkpt>
      <trkpt lat="47.3573" lon="-1.19627">
        <ele>59</ele>
        <time>2025-08-02T09:37:48.000Z</time>
      </trkpt>
      <trkpt lat="47.35729" lon="-1.19629">
        <ele>59</ele>
        <time>2025-08-02T09:37:49.000Z</time>
      </trkpt>
      <trkpt lat="47.35728" lon="-1.19631">
        <ele>59</ele>
        <time>2025-08-02T09:37:50.000Z</time>
      </trkpt>
      <trkpt lat="47.35728" lon="-1.19632">
        <ele>59</ele>
        <time>2025-08-02T09:37:51.000Z</time>
      </trkpt>
      <trkpt lat="47.35726" lon="-1.19634">
        <ele>59</ele>
        <time>2025-08-02T09:37:52.000Z</time>
      </trkpt>
      <trkpt lat="47.35725" lon="-1.19635">
        <ele>59</ele>
        <time>2025-08-02T09:37:53.000Z</time>
      </trkpt>
      <trkpt lat="47.35724" lon="-1.19637">
        <ele>59</ele>
        <time>2025-08-02T09:37:54.000Z</time>
      </trkpt>
      <trkpt lat="47.35724" lon="-1.19638">
        <ele>59</ele>
        <time>2025-08-02T09:37:55.000Z</time>
      </trkpt>
      <trkpt lat="47.35723" lon="-1.19639">
        <ele>59</ele>
        <time>2025-08-02T09:37:56.000Z</time>
      </trkpt>
      <trkpt lat="47.35722" lon="-1.1964">
        <ele>59</ele>
        <time>2025-08-02T09:37:57.000Z</time>
      </trkpt>
      <trkpt lat="47.3572" lon="-1.19642">
        <ele>59</ele>
        <time>2025-08-02T09:37:58.000Z</time>
      </trkpt>
      <trkpt lat="47.3572" lon="-1.19644">
        <ele>59</ele>
        <time>2025-08-02T09:37:59.000Z</time>
      </trkpt>
      <trkpt lat="47.35719" lon="-1.19648">
        <ele>58</ele>
        <time>2025-08-02T09:38:00.000Z</time>
      </trkpt>
      <trkpt lat="47.35718" lon="-1.1965">
        <ele>58</ele>
        <time>2025-08-02T09:38:01.000Z</time>
      </trkpt>
      <trkpt lat="47.35718" lon="-1.19652">
        <ele>58</ele>
        <time>2025-08-02T09:38:02.000Z</time>
      </trkpt>
      <trkpt lat="47.35718" lon="-1.19653">
        <ele>57</ele>
        <time>2025-08-02T09:38:03.000Z</time>
      </trkpt>
      <trkpt lat="47.35717" lon="-1.19655">
        <ele>57</ele>
        <time>2025-08-02T09:38:04.000Z</time>
      </trkpt>
      <trkpt lat="47.35717" lon="-1.19656">
        <ele>57</ele>
        <time>2025-08-02T09:38:05.000Z</time>
      </trkpt>
      <trkpt lat="47.35716" lon="-1.19657">
        <ele>57</ele>
        <time>2025-08-02T09:38:06.000Z</time>
      </trkpt>
      <trkpt lat="47.35716" lon="-1.19658">
        <ele>56</ele>
        <time>2025-08-02T09:38:07.000Z</time>
      </trkpt>
      <trkpt lat="47.35716" lon="-1.19658">
        <ele>56</ele>
        <time>2025-08-02T09:38:08.000Z</time>
      </trkpt>
      <trkpt lat="47.35715" lon="-1.19658">
        <ele>57</ele>
        <time>2025-08-02T09:38:09.000Z</time>
      </trkpt>
      <trkpt lat="47.35715" lon="-1.19659">
        <ele>57</ele>
        <time>2025-08-02T09:38:10.000Z</time>
      </trkpt>
      <trkpt lat="47.35715" lon="-1.19659">
        <ele>57</ele>
        <time>2025-08-02T09:38:11.000Z</time>
      </trkpt>
      <trkpt lat="47.35715" lon="-1.19659">
        <ele>57</ele>
        <time>2025-08-02T09:38:12.000Z</time>
      </trkpt>
      <trkpt lat="47.35715" lon="-1.19659">
        <ele>57</ele>
        <time>2025-08-02T09:38:13.000Z</time>
      </trkpt>
      <trkpt lat="47.35715" lon="-1.19659">
        <ele>57</ele>
        <time>2025-08-02T09:38:14.000Z</time>
      </trkpt>
      <trkpt lat="47.35715" lon="-1.19659">
        <ele>57</ele>
        <time>2025-08-02T09:38:15.000Z</time>
      </trkpt>
      <trkpt lat="47.35715" lon="-1.19659">
        <ele>57</ele>
        <time>2025-08-02T09:38:16.000Z</time>
      </trkpt>
      <trkpt lat="47.35715" lon="-1.19659">
        <ele>57</ele>
        <time>2025-08-02T09:38:17.000Z</time>
      </trkpt>
      <trkpt lat="47.35715" lon="-1.19659">
        <ele>57</ele>
        <time>2025-08-02T09:38:18.000Z</time>
      </trkpt>
      <trkpt lat="47.35715" lon="-1.19659">
        <ele>57</ele>
        <time>2025-08-02T09:38:19.000Z</time>
      </trkpt>
      <trkpt lat="47.35716" lon="-1.19659">
        <ele>57</ele>
        <time>2025-08-02T09:38:20.000Z</time>
      </trkpt>
      <trkpt lat="47.35716" lon="-1.1966">
        <ele>57</ele>
        <time>2025-08-02T09:38:21.000Z</time>
      </trkpt>
      <trkpt lat="47.35716" lon="-1.1966">
        <ele>57</ele>
        <time>2025-08-02T09:38:22.000Z</time>
      </trkpt>
      <trkpt lat="47.35716" lon="-1.19661">
        <ele>57</ele>
        <time>2025-08-02T09:38:23.000Z</time>
      </trkpt>
      <trkpt lat="47.35716" lon="-1.19662">
        <ele>58</ele>
        <time>2025-08-02T09:38:24.000Z</time>
      </trkpt>
      <trkpt lat="47.35716" lon="-1.19662">
        <ele>58</ele>
        <time>2025-08-02T09:38:25.000Z</time>
      </trkpt>
      <trkpt lat="47.35716" lon="-1.19663">
        <ele>59</ele>
        <time>2025-08-02T09:38:26.000Z</time>
      </trkpt>
      <trkpt lat="47.35715" lon="-1.19665">
        <ele>59</ele>
        <time>2025-08-02T09:38:27.000Z</time>
      </trkpt>
      <trkpt lat="47.35715" lon="-1.19666">
        <ele>60</ele>
        <time>2025-08-02T09:38:28.000Z</time>
      </trkpt>
      <trkpt lat="47.35715" lon="-1.19667">
        <ele>60</ele>
        <time>2025-08-02T09:38:29.000Z</time>
      </trkpt>
      <trkpt lat="47.35714" lon="-1.19669">
        <ele>60</ele>
        <time>2025-08-02T09:38:30.000Z</time>
      </trkpt>
      <trkpt lat="47.35713" lon="-1.19671">
        <ele>60</ele>
        <time>2025-08-02T09:38:31.000Z</time>
      </trkpt>
      <trkpt lat="47.35713" lon="-1.19674">
        <ele>60</ele>
        <time>2025-08-02T09:38:32.000Z</time>
      </trkpt>
      <trkpt lat="47.35713" lon="-1.19675">
        <ele>59</ele>
        <time>2025-08-02T09:38:33.000Z</time>
      </trkpt>
      <trkpt lat="47.35712" lon="-1.19676">
        <ele>59</ele>
        <time>2025-08-02T09:38:34.000Z</time>
      </trkpt>
      <trkpt lat="47.35711" lon="-1.19678">
        <ele>59</ele>
        <time>2025-08-02T09:38:35.000Z</time>
      </trkpt>
      <trkpt lat="47.3571" lon="-1.19679">
        <ele>59</ele>
        <time>2025-08-02T09:38:36.000Z</time>
      </trkpt>
      <trkpt lat="47.3571" lon="-1.19681">
        <ele>59</ele>
        <time>2025-08-02T09:38:37.000Z</time>
      </trkpt>
      <trkpt lat="47.35709" lon="-1.19682">
        <ele>59</ele>
        <time>2025-08-02T09:38:38.000Z</time>
      </trkpt>
      <trkpt lat="47.35709" lon="-1.19683">
        <ele>59</ele>
        <time>2025-08-02T09:38:39.000Z</time>
      </trkpt>
      <trkpt lat="47.3571" lon="-1.19684">
        <ele>60</ele>
        <time>2025-08-02T09:38:40.000Z</time>
      </trkpt>
      <trkpt lat="47.3571" lon="-1.19684">
        <ele>60</ele>
        <time>2025-08-02T09:38:41.000Z</time>
      </trkpt>
      <trkpt lat="47.35711" lon="-1.19685">
        <ele>60</ele>
        <time>2025-08-02T09:38:42.000Z</time>
      </trkpt>
      <trkpt lat="47.35711" lon="-1.19686">
        <ele>60</ele>
        <time>2025-08-02T09:38:43.000Z</time>
      </trkpt>
      <trkpt lat="47.35711" lon="-1.19687">
        <ele>60</ele>
        <time>2025-08-02T09:38:44.000Z</time>
      </trkpt>
      <trkpt lat="47.35711" lon="-1.19689">
        <ele>60</ele>
        <time>2025-08-02T09:38:45.000Z</time>
      </trkpt>
      <trkpt lat="47.35711" lon="-1.1969">
        <ele>60</ele>
        <time>2025-08-02T09:38:46.000Z</time>
      </trkpt>
      <trkpt lat="47.3571" lon="-1.19692">
        <ele>60</ele>
        <time>2025-08-02T09:38:47.000Z</time>
      </trkpt>
      <trkpt lat="47.3571" lon="-1.19693">
        <ele>59</ele>
        <time>2025-08-02T09:38:48.000Z</time>
      </trkpt>
      <trkpt lat="47.3571" lon="-1.19694">
        <ele>60</ele>
        <time>2025-08-02T09:38:49.000Z</time>
      </trkpt>
      <trkpt lat="47.3571" lon="-1.19695">
        <ele>60</ele>
        <time>2025-08-02T09:38:50.000Z</time>
      </trkpt>
      <trkpt lat="47.35709" lon="-1.19696">
        <ele>60</ele>
        <time>2025-08-02T09:38:51.000Z</time>
      </trkpt>
      <trkpt lat="47.35709" lon="-1.19697">
        <ele>59</ele>
        <time>2025-08-02T09:38:52.000Z</time>
      </trkpt>
      <trkpt lat="47.35709" lon="-1.197">
        <ele>59</ele>
        <time>2025-08-02T09:38:53.000Z</time>
      </trkpt>
      <trkpt lat="47.35709" lon="-1.19702">
        <ele>59</ele>
        <time>2025-08-02T09:38:54.000Z</time>
      </trkpt>
      <trkpt lat="47.35709" lon="-1.19704">
        <ele>60</ele>
        <time>2025-08-02T09:38:55.000Z</time>
      </trkpt>
      <trkpt lat="47.35708" lon="-1.19705">
        <ele>59</ele>
        <time>2025-08-02T09:38:56.000Z</time>
      </trkpt>
      <trkpt lat="47.35708" lon="-1.19708">
        <ele>60</ele>
        <time>2025-08-02T09:38:57.000Z</time>
      </trkpt>
      <trkpt lat="47.35708" lon="-1.19709">
        <ele>59</ele>
        <time>2025-08-02T09:38:58.000Z</time>
      </trkpt>
      <trkpt lat="47.35707" lon="-1.1971">
        <ele>60</ele>
        <time>2025-08-02T09:38:59.000Z</time>
      </trkpt>
      <trkpt lat="47.35707" lon="-1.19711">
        <ele>60</ele>
        <time>2025-08-02T09:39:00.000Z</time>
      </trkpt>
      <trkpt lat="47.35706" lon="-1.19713">
        <ele>59</ele>
        <time>2025-08-02T09:39:01.000Z</time>
      </trkpt>
      <trkpt lat="47.35705" lon="-1.19715">
        <ele>60</ele>
        <time>2025-08-02T09:39:02.000Z</time>
      </trkpt>
      <trkpt lat="47.35704" lon="-1.19716">
        <ele>60</ele>
        <time>2025-08-02T09:39:03.000Z</time>
      </trkpt>
      <trkpt lat="47.35703" lon="-1.19717">
        <ele>60</ele>
        <time>2025-08-02T09:39:04.000Z</time>
      </trkpt>
      <trkpt lat="47.35702" lon="-1.19719">
        <ele>60</ele>
        <time>2025-08-02T09:39:05.000Z</time>
      </trkpt>
      <trkpt lat="47.35701" lon="-1.1972">
        <ele>60</ele>
        <time>2025-08-02T09:39:06.000Z</time>
      </trkpt>
      <trkpt lat="47.357" lon="-1.19722">
        <ele>60</ele>
        <time>2025-08-02T09:39:07.000Z</time>
      </trkpt>
      <trkpt lat="47.357" lon="-1.19725">
        <ele>60</ele>
        <time>2025-08-02T09:39:08.000Z</time>
      </trkpt>
      <trkpt lat="47.35699" lon="-1.19728">
        <ele>60</ele>
        <time>2025-08-02T09:39:09.000Z</time>
      </trkpt>
      <trkpt lat="47.35698" lon="-1.1973">
        <ele>60</ele>
        <time>2025-08-02T09:39:10.000Z</time>
      </trkpt>
      <trkpt lat="47.35698" lon="-1.19731">
        <ele>60</ele>
        <time>2025-08-02T09:39:11.000Z</time>
      </trkpt>
      <trkpt lat="47.35697" lon="-1.19733">
        <ele>61</ele>
        <time>2025-08-02T09:39:12.000Z</time>
      </trkpt>
      <trkpt lat="47.35696" lon="-1.19734">
        <ele>61</ele>
        <time>2025-08-02T09:39:13.000Z</time>
      </trkpt>
      <trkpt lat="47.35696" lon="-1.19736">
        <ele>61</ele>
        <time>2025-08-02T09:39:14.000Z</time>
      </trkpt>
      <trkpt lat="47.35696" lon="-1.19738">
        <ele>61</ele>
        <time>2025-08-02T09:39:15.000Z</time>
      </trkpt>
      <trkpt lat="47.35696" lon="-1.1974">
        <ele>62</ele>
        <time>2025-08-02T09:39:16.000Z</time>
      </trkpt>
      <trkpt lat="47.35695" lon="-1.19742">
        <ele>62</ele>
        <time>2025-08-02T09:39:17.000Z</time>
      </trkpt>
      <trkpt lat="47.35695" lon="-1.19743">
        <ele>62</ele>
        <time>2025-08-02T09:39:18.000Z</time>
      </trkpt>
      <trkpt lat="47.35694" lon="-1.19745">
        <ele>62</ele>
        <time>2025-08-02T09:39:19.000Z</time>
      </trkpt>
      <trkpt lat="47.35693" lon="-1.19747">
        <ele>62</ele>
        <time>2025-08-02T09:39:20.000Z</time>
      </trkpt>
      <trkpt lat="47.35693" lon="-1.1975">
        <ele>62</ele>
        <time>2025-08-02T09:39:21.000Z</time>
      </trkpt>
      <trkpt lat="47.35692" lon="-1.19752">
        <ele>62</ele>
        <time>2025-08-02T09:39:22.000Z</time>
      </trkpt>
      <trkpt lat="47.35693" lon="-1.19753">
        <ele>62</ele>
        <time>2025-08-02T09:39:23.000Z</time>
      </trkpt>
      <trkpt lat="47.35693" lon="-1.19754">
        <ele>61</ele>
        <time>2025-08-02T09:39:24.000Z</time>
      </trkpt>
      <trkpt lat="47.35693" lon="-1.19755">
        <ele>61</ele>
        <time>2025-08-02T09:39:25.000Z</time>
      </trkpt>
      <trkpt lat="47.35692" lon="-1.19757">
        <ele>61</ele>
        <time>2025-08-02T09:39:26.000Z</time>
      </trkpt>
      <trkpt lat="47.35692" lon="-1.1976">
        <ele>61</ele>
        <time>2025-08-02T09:39:27.000Z</time>
      </trkpt>
      <trkpt lat="47.35691" lon="-1.19762">
        <ele>61</ele>
        <time>2025-08-02T09:39:28.000Z</time>
      </trkpt>
      <trkpt lat="47.35692" lon="-1.19765">
        <ele>61</ele>
        <time>2025-08-02T09:39:29.000Z</time>
      </trkpt>
      <trkpt lat="47.35692" lon="-1.19768">
        <ele>61</ele>
        <time>2025-08-02T09:39:30.000Z</time>
      </trkpt>
      <trkpt lat="47.35692" lon="-1.1977">
        <ele>61</ele>
        <time>2025-08-02T09:39:31.000Z</time>
      </trkpt>
      <trkpt lat="47.35692" lon="-1.19772">
        <ele>61</ele>
        <time>2025-08-02T09:39:32.000Z</time>
      </trkpt>
      <trkpt lat="47.35692" lon="-1.19773">
        <ele>61</ele>
        <time>2025-08-02T09:39:33.000Z</time>
      </trkpt>
      <trkpt lat="47.35691" lon="-1.19774">
        <ele>62</ele>
        <time>2025-08-02T09:39:34.000Z</time>
      </trkpt>
      <trkpt lat="47.35691" lon="-1.19774">
        <ele>62</ele>
        <time>2025-08-02T09:39:35.000Z</time>
      </trkpt>
      <trkpt lat="47.35691" lon="-1.19774">
        <ele>62</ele>
        <time>2025-08-02T09:39:36.000Z</time>
      </trkpt>
      <trkpt lat="47.35691" lon="-1.19774">
        <ele>62</ele>
        <time>2025-08-02T09:39:37.000Z</time>
      </trkpt>
      <trkpt lat="47.35691" lon="-1.19774">
        <ele>62</ele>
        <time>2025-08-02T09:39:38.000Z</time>
      </trkpt>
      <trkpt lat="47.3569" lon="-1.19777">
        <ele>63</ele>
        <time>2025-08-02T09:39:39.000Z</time>
      </trkpt>
      <trkpt lat="47.3569" lon="-1.19779">
        <ele>62</ele>
        <time>2025-08-02T09:39:40.000Z</time>
      </trkpt>
      <trkpt lat="47.35689" lon="-1.1978">
        <ele>62</ele>
        <time>2025-08-02T09:39:41.000Z</time>
      </trkpt>
      <trkpt lat="47.35689" lon="-1.19781">
        <ele>62</ele>
        <time>2025-08-02T09:39:42.000Z</time>
      </trkpt>
      <trkpt lat="47.35688" lon="-1.19783">
        <ele>62</ele>
        <time>2025-08-02T09:39:43.000Z</time>
      </trkpt>
      <trkpt lat="47.35687" lon="-1.19784">
        <ele>62</ele>
        <time>2025-08-02T09:39:44.000Z</time>
      </trkpt>
      <trkpt lat="47.35687" lon="-1.19786">
        <ele>61</ele>
        <time>2025-08-02T09:39:45.000Z</time>
      </trkpt>
      <trkpt lat="47.35687" lon="-1.19788">
        <ele>61</ele>
        <time>2025-08-02T09:39:46.000Z</time>
      </trkpt>
      <trkpt lat="47.35686" lon="-1.19789">
        <ele>61</ele>
        <time>2025-08-02T09:39:47.000Z</time>
      </trkpt>
      <trkpt lat="47.35686" lon="-1.1979">
        <ele>60</ele>
        <time>2025-08-02T09:39:48.000Z</time>
      </trkpt>
      <trkpt lat="47.35686" lon="-1.19791">
        <ele>60</ele>
        <time>2025-08-02T09:39:49.000Z</time>
      </trkpt>
      <trkpt lat="47.35685" lon="-1.19793">
        <ele>60</ele>
        <time>2025-08-02T09:39:50.000Z</time>
      </trkpt>
      <trkpt lat="47.35685" lon="-1.19795">
        <ele>60</ele>
        <time>2025-08-02T09:39:51.000Z</time>
      </trkpt>
      <trkpt lat="47.35686" lon="-1.19798">
        <ele>60</ele>
        <time>2025-08-02T09:39:52.000Z</time>
      </trkpt>
      <trkpt lat="47.35685" lon="-1.198">
        <ele>60</ele>
        <time>2025-08-02T09:39:53.000Z</time>
      </trkpt>
      <trkpt lat="47.35683" lon="-1.19802">
        <ele>60</ele>
        <time>2025-08-02T09:39:54.000Z</time>
      </trkpt>
      <trkpt lat="47.35682" lon="-1.19805">
        <ele>60</ele>
        <time>2025-08-02T09:39:55.000Z</time>
      </trkpt>
      <trkpt lat="47.35681" lon="-1.19807">
        <ele>60</ele>
        <time>2025-08-02T09:39:56.000Z</time>
      </trkpt>
      <trkpt lat="47.35681" lon="-1.1981">
        <ele>60</ele>
        <time>2025-08-02T09:39:57.000Z</time>
      </trkpt>
      <trkpt lat="47.35681" lon="-1.19812">
        <ele>60</ele>
        <time>2025-08-02T09:39:58.000Z</time>
      </trkpt>
      <trkpt lat="47.3568" lon="-1.19813">
        <ele>59</ele>
        <time>2025-08-02T09:39:59.000Z</time>
      </trkpt>
      <trkpt lat="47.35679" lon="-1.19816">
        <ele>59</ele>
        <time>2025-08-02T09:40:00.000Z</time>
      </trkpt>
      <trkpt lat="47.35678" lon="-1.19818">
        <ele>59</ele>
        <time>2025-08-02T09:40:01.000Z</time>
      </trkpt>
      <trkpt lat="47.35677" lon="-1.19821">
        <ele>60</ele>
        <time>2025-08-02T09:40:02.000Z</time>
      </trkpt>
      <trkpt lat="47.35675" lon="-1.19823">
        <ele>60</ele>
        <time>2025-08-02T09:40:03.000Z</time>
      </trkpt>
      <trkpt lat="47.35673" lon="-1.19826">
        <ele>60</ele>
        <time>2025-08-02T09:40:04.000Z</time>
      </trkpt>
      <trkpt lat="47.35671" lon="-1.19827">
        <ele>61</ele>
        <time>2025-08-02T09:40:05.000Z</time>
      </trkpt>
      <trkpt lat="47.35668" lon="-1.1983">
        <ele>61</ele>
        <time>2025-08-02T09:40:06.000Z</time>
      </trkpt>
      <trkpt lat="47.35667" lon="-1.19831">
        <ele>61</ele>
        <time>2025-08-02T09:40:07.000Z</time>
      </trkpt>
      <trkpt lat="47.35666" lon="-1.19832">
        <ele>61</ele>
        <time>2025-08-02T09:40:08.000Z</time>
      </trkpt>
      <trkpt lat="47.35665" lon="-1.19833">
        <ele>61</ele>
        <time>2025-08-02T09:40:09.000Z</time>
      </trkpt>
      <trkpt lat="47.35665" lon="-1.19835">
        <ele>61</ele>
        <time>2025-08-02T09:40:10.000Z</time>
      </trkpt>
      <trkpt lat="47.35665" lon="-1.19837">
        <ele>61</ele>
        <time>2025-08-02T09:40:11.000Z</time>
      </trkpt>
      <trkpt lat="47.35664" lon="-1.19838">
        <ele>61</ele>
        <time>2025-08-02T09:40:12.000Z</time>
      </trkpt>
      <trkpt lat="47.35664" lon="-1.1984">
        <ele>61</ele>
        <time>2025-08-02T09:40:13.000Z</time>
      </trkpt>
      <trkpt lat="47.35664" lon="-1.19841">
        <ele>61</ele>
        <time>2025-08-02T09:40:14.000Z</time>
      </trkpt>
      <trkpt lat="47.35664" lon="-1.19843">
        <ele>61</ele>
        <time>2025-08-02T09:40:15.000Z</time>
      </trkpt>
      <trkpt lat="47.35663" lon="-1.19845">
        <ele>61</ele>
        <time>2025-08-02T09:40:16.000Z</time>
      </trkpt>
      <trkpt lat="47.35662" lon="-1.19846">
        <ele>60</ele>
        <time>2025-08-02T09:40:17.000Z</time>
      </trkpt>
      <trkpt lat="47.35661" lon="-1.19846">
        <ele>60</ele>
        <time>2025-08-02T09:40:18.000Z</time>
      </trkpt>
      <trkpt lat="47.3566" lon="-1.19848">
        <ele>60</ele>
        <time>2025-08-02T09:40:19.000Z</time>
      </trkpt>
      <trkpt lat="47.3566" lon="-1.1985">
        <ele>60</ele>
        <time>2025-08-02T09:40:20.000Z</time>
      </trkpt>
      <trkpt lat="47.35659" lon="-1.19851">
        <ele>61</ele>
        <time>2025-08-02T09:40:21.000Z</time>
      </trkpt>
      <trkpt lat="47.35658" lon="-1.19852">
        <ele>62</ele>
        <time>2025-08-02T09:40:22.000Z</time>
      </trkpt>
      <trkpt lat="47.35658" lon="-1.19853">
        <ele>62</ele>
        <time>2025-08-02T09:40:23.000Z</time>
      </trkpt>
      <trkpt lat="47.35658" lon="-1.19854">
        <ele>61</ele>
        <time>2025-08-02T09:40:24.000Z</time>
      </trkpt>
      <trkpt lat="47.35657" lon="-1.19855">
        <ele>61</ele>
        <time>2025-08-02T09:40:25.000Z</time>
      </trkpt>
      <trkpt lat="47.35657" lon="-1.19857">
        <ele>61</ele>
        <time>2025-08-02T09:40:26.000Z</time>
      </trkpt>
      <trkpt lat="47.35656" lon="-1.19858">
        <ele>61</ele>
        <time>2025-08-02T09:40:27.000Z</time>
      </trkpt>
      <trkpt lat="47.35656" lon="-1.19859">
        <ele>61</ele>
        <time>2025-08-02T09:40:28.000Z</time>
      </trkpt>
      <trkpt lat="47.35656" lon="-1.19861">
        <ele>61</ele>
        <time>2025-08-02T09:40:29.000Z</time>
      </trkpt>
      <trkpt lat="47.35656" lon="-1.19862">
        <ele>61</ele>
        <time>2025-08-02T09:40:30.000Z</time>
      </trkpt>
      <trkpt lat="47.35655" lon="-1.19863">
        <ele>62</ele>
        <time>2025-08-02T09:40:31.000Z</time>
      </trkpt>
      <trkpt lat="47.35655" lon="-1.19865">
        <ele>62</ele>
        <time>2025-08-02T09:40:32.000Z</time>
      </trkpt>
      <trkpt lat="47.35655" lon="-1.19865">
        <ele>63</ele>
        <time>2025-08-02T09:40:33.000Z</time>
      </trkpt>
      <trkpt lat="47.35654" lon="-1.19865">
        <ele>63</ele>
        <time>2025-08-02T09:40:34.000Z</time>
      </trkpt>
      <trkpt lat="47.35654" lon="-1.19866">
        <ele>63</ele>
        <time>2025-08-02T09:40:35.000Z</time>
      </trkpt>
      <trkpt lat="47.35655" lon="-1.19867">
        <ele>63</ele>
        <time>2025-08-02T09:40:36.000Z</time>
      </trkpt>
      <trkpt lat="47.35655" lon="-1.19869">
        <ele>62</ele>
        <time>2025-08-02T09:40:37.000Z</time>
      </trkpt>
      <trkpt lat="47.35655" lon="-1.1987">
        <ele>62</ele>
        <time>2025-08-02T09:40:38.000Z</time>
      </trkpt>
      <trkpt lat="47.35655" lon="-1.19872">
        <ele>61</ele>
        <time>2025-08-02T09:40:39.000Z</time>
      </trkpt>
      <trkpt lat="47.35654" lon="-1.19874">
        <ele>61</ele>
        <time>2025-08-02T09:40:40.000Z</time>
      </trkpt>
      <trkpt lat="47.35654" lon="-1.19876">
        <ele>61</ele>
        <time>2025-08-02T09:40:41.000Z</time>
      </trkpt>
      <trkpt lat="47.35653" lon="-1.19877">
        <ele>61</ele>
        <time>2025-08-02T09:40:42.000Z</time>
      </trkpt>
      <trkpt lat="47.35652" lon="-1.19877">
        <ele>61</ele>
        <time>2025-08-02T09:40:43.000Z</time>
      </trkpt>
      <trkpt lat="47.35652" lon="-1.19878">
        <ele>61</ele>
        <time>2025-08-02T09:40:44.000Z</time>
      </trkpt>
      <trkpt lat="47.35652" lon="-1.19878">
        <ele>60</ele>
        <time>2025-08-02T09:40:45.000Z</time>
      </trkpt>
      <trkpt lat="47.35652" lon="-1.19879">
        <ele>60</ele>
        <time>2025-08-02T09:40:46.000Z</time>
      </trkpt>
      <trkpt lat="47.35652" lon="-1.19881">
        <ele>60</ele>
        <time>2025-08-02T09:40:47.000Z</time>
      </trkpt>
      <trkpt lat="47.35651" lon="-1.19883">
        <ele>60</ele>
        <time>2025-08-02T09:40:48.000Z</time>
      </trkpt>
      <trkpt lat="47.35651" lon="-1.19884">
        <ele>60</ele>
        <time>2025-08-02T09:40:49.000Z</time>
      </trkpt>
      <trkpt lat="47.3565" lon="-1.19885">
        <ele>60</ele>
        <time>2025-08-02T09:40:50.000Z</time>
      </trkpt>
      <trkpt lat="47.35649" lon="-1.19886">
        <ele>60</ele>
        <time>2025-08-02T09:40:51.000Z</time>
      </trkpt>
      <trkpt lat="47.35648" lon="-1.19888">
        <ele>61</ele>
        <time>2025-08-02T09:40:52.000Z</time>
      </trkpt>
      <trkpt lat="47.35647" lon="-1.1989">
        <ele>60</ele>
        <time>2025-08-02T09:40:53.000Z</time>
      </trkpt>
      <trkpt lat="47.35646" lon="-1.19891">
        <ele>61</ele>
        <time>2025-08-02T09:40:54.000Z</time>
      </trkpt>
      <trkpt lat="47.35645" lon="-1.19893">
        <ele>60</ele>
        <time>2025-08-02T09:40:55.000Z</time>
      </trkpt>
      <trkpt lat="47.35644" lon="-1.19894">
        <ele>60</ele>
        <time>2025-08-02T09:40:56.000Z</time>
      </trkpt>
      <trkpt lat="47.35643" lon="-1.19895">
        <ele>59</ele>
        <time>2025-08-02T09:40:57.000Z</time>
      </trkpt>
      <trkpt lat="47.35641" lon="-1.19895">
        <ele>60</ele>
        <time>2025-08-02T09:40:58.000Z</time>
      </trkpt>
      <trkpt lat="47.3564" lon="-1.19896">
        <ele>60</ele>
        <time>2025-08-02T09:40:59.000Z</time>
      </trkpt>
      <trkpt lat="47.3564" lon="-1.19898">
        <ele>60</ele>
        <time>2025-08-02T09:41:00.000Z</time>
      </trkpt>
      <trkpt lat="47.3564" lon="-1.19898">
        <ele>60</ele>
        <time>2025-08-02T09:41:01.000Z</time>
      </trkpt>
      <trkpt lat="47.35639" lon="-1.199">
        <ele>60</ele>
        <time>2025-08-02T09:41:02.000Z</time>
      </trkpt>
      <trkpt lat="47.35639" lon="-1.19901">
        <ele>60</ele>
        <time>2025-08-02T09:41:03.000Z</time>
      </trkpt>
      <trkpt lat="47.35638" lon="-1.19902">
        <ele>61</ele>
        <time>2025-08-02T09:41:04.000Z</time>
      </trkpt>
      <trkpt lat="47.35637" lon="-1.19903">
        <ele>61</ele>
        <time>2025-08-02T09:41:05.000Z</time>
      </trkpt>
      <trkpt lat="47.35637" lon="-1.19904">
        <ele>61</ele>
        <time>2025-08-02T09:41:06.000Z</time>
      </trkpt>
      <trkpt lat="47.35636" lon="-1.19906">
        <ele>62</ele>
        <time>2025-08-02T09:41:07.000Z</time>
      </trkpt>
      <trkpt lat="47.35636" lon="-1.19909">
        <ele>62</ele>
        <time>2025-08-02T09:41:08.000Z</time>
      </trkpt>
      <trkpt lat="47.35636" lon="-1.1991">
        <ele>63</ele>
        <time>2025-08-02T09:41:09.000Z</time>
      </trkpt>
      <trkpt lat="47.35635" lon="-1.19912">
        <ele>63</ele>
        <time>2025-08-02T09:41:10.000Z</time>
      </trkpt>
      <trkpt lat="47.35635" lon="-1.19913">
        <ele>62</ele>
        <time>2025-08-02T09:41:11.000Z</time>
      </trkpt>
      <trkpt lat="47.35635" lon="-1.19914">
        <ele>61</ele>
        <time>2025-08-02T09:41:12.000Z</time>
      </trkpt>
      <trkpt lat="47.35635" lon="-1.19916">
        <ele>61</ele>
        <time>2025-08-02T09:41:13.000Z</time>
      </trkpt>
      <trkpt lat="47.35635" lon="-1.19917">
        <ele>60</ele>
        <time>2025-08-02T09:41:14.000Z</time>
      </trkpt>
      <trkpt lat="47.35634" lon="-1.19919">
        <ele>61</ele>
        <time>2025-08-02T09:41:15.000Z</time>
      </trkpt>
      <trkpt lat="47.35634" lon="-1.1992">
        <ele>61</ele>
        <time>2025-08-02T09:41:16.000Z</time>
      </trkpt>
      <trkpt lat="47.35633" lon="-1.19921">
        <ele>60</ele>
        <time>2025-08-02T09:41:17.000Z</time>
      </trkpt>
      <trkpt lat="47.35632" lon="-1.19923">
        <ele>60</ele>
        <time>2025-08-02T09:41:18.000Z</time>
      </trkpt>
      <trkpt lat="47.35632" lon="-1.19924">
        <ele>60</ele>
        <time>2025-08-02T09:41:19.000Z</time>
      </trkpt>
      <trkpt lat="47.35632" lon="-1.19925">
        <ele>60</ele>
        <time>2025-08-02T09:41:20.000Z</time>
      </trkpt>
      <trkpt lat="47.35631" lon="-1.19926">
        <ele>61</ele>
        <time>2025-08-02T09:41:21.000Z</time>
      </trkpt>
      <trkpt lat="47.35631" lon="-1.19928">
        <ele>60</ele>
        <time>2025-08-02T09:41:22.000Z</time>
      </trkpt>
      <trkpt lat="47.3563" lon="-1.1993">
        <ele>61</ele>
        <time>2025-08-02T09:41:23.000Z</time>
      </trkpt>
      <trkpt lat="47.3563" lon="-1.19933">
        <ele>61</ele>
        <time>2025-08-02T09:41:24.000Z</time>
      </trkpt>
      <trkpt lat="47.35629" lon="-1.19935">
        <ele>60</ele>
        <time>2025-08-02T09:41:25.000Z</time>
      </trkpt>
      <trkpt lat="47.35628" lon="-1.19937">
        <ele>61</ele>
        <time>2025-08-02T09:41:26.000Z</time>
      </trkpt>
      <trkpt lat="47.35627" lon="-1.19941">
        <ele>61</ele>
        <time>2025-08-02T09:41:27.000Z</time>
      </trkpt>
      <trkpt lat="47.35627" lon="-1.19943">
        <ele>60</ele>
        <time>2025-08-02T09:41:28.000Z</time>
      </trkpt>
      <trkpt lat="47.35627" lon="-1.19946">
        <ele>60</ele>
        <time>2025-08-02T09:41:29.000Z</time>
      </trkpt>
      <trkpt lat="47.35627" lon="-1.19949">
        <ele>61</ele>
        <time>2025-08-02T09:41:30.000Z</time>
      </trkpt>
      <trkpt lat="47.35626" lon="-1.19951">
        <ele>61</ele>
        <time>2025-08-02T09:41:31.000Z</time>
      </trkpt>
      <trkpt lat="47.35626" lon="-1.19954">
        <ele>61</ele>
        <time>2025-08-02T09:41:32.000Z</time>
      </trkpt>
      <trkpt lat="47.35625" lon="-1.19956">
        <ele>61</ele>
        <time>2025-08-02T09:41:33.000Z</time>
      </trkpt>
      <trkpt lat="47.35624" lon="-1.19958">
        <ele>61</ele>
        <time>2025-08-02T09:41:34.000Z</time>
      </trkpt>
      <trkpt lat="47.35623" lon="-1.1996">
        <ele>60</ele>
        <time>2025-08-02T09:41:35.000Z</time>
      </trkpt>
      <trkpt lat="47.35623" lon="-1.19962">
        <ele>60</ele>
        <time>2025-08-02T09:41:36.000Z</time>
      </trkpt>
      <trkpt lat="47.35622" lon="-1.19964">
        <ele>60</ele>
        <time>2025-08-02T09:41:37.000Z</time>
      </trkpt>
      <trkpt lat="47.35621" lon="-1.19966">
        <ele>60</ele>
        <time>2025-08-02T09:41:38.000Z</time>
      </trkpt>
      <trkpt lat="47.35621" lon="-1.19967">
        <ele>60</ele>
        <time>2025-08-02T09:41:39.000Z</time>
      </trkpt>
      <trkpt lat="47.3562" lon="-1.19969">
        <ele>60</ele>
        <time>2025-08-02T09:41:40.000Z</time>
      </trkpt>
      <trkpt lat="47.3562" lon="-1.19971">
        <ele>61</ele>
        <time>2025-08-02T09:41:41.000Z</time>
      </trkpt>
      <trkpt lat="47.35619" lon="-1.19973">
        <ele>61</ele>
        <time>2025-08-02T09:41:42.000Z</time>
      </trkpt>
      <trkpt lat="47.35619" lon="-1.19975">
        <ele>60</ele>
        <time>2025-08-02T09:41:43.000Z</time>
      </trkpt>
      <trkpt lat="47.35619" lon="-1.19976">
        <ele>61</ele>
        <time>2025-08-02T09:41:44.000Z</time>
      </trkpt>
      <trkpt lat="47.35618" lon="-1.19977">
        <ele>61</ele>
        <time>2025-08-02T09:41:45.000Z</time>
      </trkpt>
      <trkpt lat="47.35617" lon="-1.19979">
        <ele>62</ele>
        <time>2025-08-02T09:41:46.000Z</time>
      </trkpt>
      <trkpt lat="47.35616" lon="-1.19983">
        <ele>62</ele>
        <time>2025-08-02T09:41:47.000Z</time>
      </trkpt>
      <trkpt lat="47.35616" lon="-1.19986">
        <ele>61</ele>
        <time>2025-08-02T09:41:48.000Z</time>
      </trkpt>
      <trkpt lat="47.35616" lon="-1.19989">
        <ele>62</ele>
        <time>2025-08-02T09:41:49.000Z</time>
      </trkpt>
      <trkpt lat="47.35616" lon="-1.19992">
        <ele>62</ele>
        <time>2025-08-02T09:41:50.000Z</time>
      </trkpt>
      <trkpt lat="47.35616" lon="-1.19994">
        <ele>62</ele>
        <time>2025-08-02T09:41:51.000Z</time>
      </trkpt>
      <trkpt lat="47.35616" lon="-1.19996">
        <ele>62</ele>
        <time>2025-08-02T09:41:52.000Z</time>
      </trkpt>
      <trkpt lat="47.35616" lon="-1.19999">
        <ele>62</ele>
        <time>2025-08-02T09:41:53.000Z</time>
      </trkpt>
      <trkpt lat="47.35616" lon="-1.20002">
        <ele>62</ele>
        <time>2025-08-02T09:41:54.000Z</time>
      </trkpt>
      <trkpt lat="47.35617" lon="-1.20004">
        <ele>62</ele>
        <time>2025-08-02T09:41:55.000Z</time>
      </trkpt>
      <trkpt lat="47.35616" lon="-1.20007">
        <ele>62</ele>
        <time>2025-08-02T09:41:56.000Z</time>
      </trkpt>
      <trkpt lat="47.35616" lon="-1.20009">
        <ele>61</ele>
        <time>2025-08-02T09:41:57.000Z</time>
      </trkpt>
      <trkpt lat="47.35616" lon="-1.2001">
        <ele>62</ele>
        <time>2025-08-02T09:41:58.000Z</time>
      </trkpt>
      <trkpt lat="47.35615" lon="-1.20012">
        <ele>62</ele>
        <time>2025-08-02T09:41:59.000Z</time>
      </trkpt>
      <trkpt lat="47.35614" lon="-1.20013">
        <ele>62</ele>
        <time>2025-08-02T09:42:00.000Z</time>
      </trkpt>
      <trkpt lat="47.35614" lon="-1.20015">
        <ele>62</ele>
        <time>2025-08-02T09:42:01.000Z</time>
      </trkpt>
      <trkpt lat="47.35613" lon="-1.20016">
        <ele>62</ele>
        <time>2025-08-02T09:42:02.000Z</time>
      </trkpt>
      <trkpt lat="47.35613" lon="-1.20018">
        <ele>62</ele>
        <time>2025-08-02T09:42:03.000Z</time>
      </trkpt>
      <trkpt lat="47.35612" lon="-1.20019">
        <ele>62</ele>
        <time>2025-08-02T09:42:04.000Z</time>
      </trkpt>
      <trkpt lat="47.35612" lon="-1.20022">
        <ele>61</ele>
        <time>2025-08-02T09:42:05.000Z</time>
      </trkpt>
      <trkpt lat="47.35611" lon="-1.20024">
        <ele>60</ele>
        <time>2025-08-02T09:42:06.000Z</time>
      </trkpt>
      <trkpt lat="47.35611" lon="-1.20027">
        <ele>60</ele>
        <time>2025-08-02T09:42:07.000Z</time>
      </trkpt>
      <trkpt lat="47.35611" lon="-1.20029">
        <ele>59</ele>
        <time>2025-08-02T09:42:08.000Z</time>
      </trkpt>
      <trkpt lat="47.35611" lon="-1.20031">
        <ele>59</ele>
        <time>2025-08-02T09:42:09.000Z</time>
      </trkpt>
      <trkpt lat="47.3561" lon="-1.20033">
        <ele>59</ele>
        <time>2025-08-02T09:42:10.000Z</time>
      </trkpt>
      <trkpt lat="47.3561" lon="-1.20035">
        <ele>58</ele>
        <time>2025-08-02T09:42:11.000Z</time>
      </trkpt>
      <trkpt lat="47.35611" lon="-1.20037">
        <ele>58</ele>
        <time>2025-08-02T09:42:12.000Z</time>
      </trkpt>
      <trkpt lat="47.35611" lon="-1.20039">
        <ele>58</ele>
        <time>2025-08-02T09:42:13.000Z</time>
      </trkpt>
      <trkpt lat="47.35611" lon="-1.2004">
        <ele>57</ele>
        <time>2025-08-02T09:42:14.000Z</time>
      </trkpt>
      <trkpt lat="47.3561" lon="-1.20042">
        <ele>58</ele>
        <time>2025-08-02T09:42:15.000Z</time>
      </trkpt>
      <trkpt lat="47.3561" lon="-1.20045">
        <ele>58</ele>
        <time>2025-08-02T09:42:16.000Z</time>
      </trkpt>
      <trkpt lat="47.35611" lon="-1.20046">
        <ele>58</ele>
        <time>2025-08-02T09:42:17.000Z</time>
      </trkpt>
      <trkpt lat="47.35611" lon="-1.20047">
        <ele>58</ele>
        <time>2025-08-02T09:42:18.000Z</time>
      </trkpt>
      <trkpt lat="47.35612" lon="-1.20048">
        <ele>58</ele>
        <time>2025-08-02T09:42:19.000Z</time>
      </trkpt>
      <trkpt lat="47.35612" lon="-1.2005">
        <ele>58</ele>
        <time>2025-08-02T09:42:20.000Z</time>
      </trkpt>
      <trkpt lat="47.35612" lon="-1.20051">
        <ele>58</ele>
        <time>2025-08-02T09:42:21.000Z</time>
      </trkpt>
      <trkpt lat="47.35613" lon="-1.20052">
        <ele>58</ele>
        <time>2025-08-02T09:42:22.000Z</time>
      </trkpt>
      <trkpt lat="47.35613" lon="-1.20054">
        <ele>58</ele>
        <time>2025-08-02T09:42:23.000Z</time>
      </trkpt>
      <trkpt lat="47.35613" lon="-1.20055">
        <ele>57</ele>
        <time>2025-08-02T09:42:24.000Z</time>
      </trkpt>
      <trkpt lat="47.35612" lon="-1.20056">
        <ele>57</ele>
        <time>2025-08-02T09:42:25.000Z</time>
      </trkpt>
      <trkpt lat="47.35612" lon="-1.20058">
        <ele>57</ele>
        <time>2025-08-02T09:42:26.000Z</time>
      </trkpt>
      <trkpt lat="47.35612" lon="-1.2006">
        <ele>57</ele>
        <time>2025-08-02T09:42:27.000Z</time>
      </trkpt>
      <trkpt lat="47.35612" lon="-1.20061">
        <ele>57</ele>
        <time>2025-08-02T09:42:28.000Z</time>
      </trkpt>
      <trkpt lat="47.35612" lon="-1.20063">
        <ele>57</ele>
        <time>2025-08-02T09:42:29.000Z</time>
      </trkpt>
      <trkpt lat="47.35612" lon="-1.20065">
        <ele>57</ele>
        <time>2025-08-02T09:42:30.000Z</time>
      </trkpt>
      <trkpt lat="47.35611" lon="-1.20066">
        <ele>57</ele>
        <time>2025-08-02T09:42:31.000Z</time>
      </trkpt>
      <trkpt lat="47.3561" lon="-1.20068">
        <ele>58</ele>
        <time>2025-08-02T09:42:32.000Z</time>
      </trkpt>
      <trkpt lat="47.35609" lon="-1.2007">
        <ele>59</ele>
        <time>2025-08-02T09:42:33.000Z</time>
      </trkpt>
      <trkpt lat="47.35609" lon="-1.20072">
        <ele>59</ele>
        <time>2025-08-02T09:42:34.000Z</time>
      </trkpt>
      <trkpt lat="47.35609" lon="-1.20076">
        <ele>59</ele>
        <time>2025-08-02T09:42:35.000Z</time>
      </trkpt>
      <trkpt lat="47.35609" lon="-1.20078">
        <ele>60</ele>
        <time>2025-08-02T09:42:36.000Z</time>
      </trkpt>
      <trkpt lat="47.35608" lon="-1.2008">
        <ele>60</ele>
        <time>2025-08-02T09:42:37.000Z</time>
      </trkpt>
      <trkpt lat="47.35608" lon="-1.20082">
        <ele>59</ele>
        <time>2025-08-02T09:42:38.000Z</time>
      </trkpt>
      <trkpt lat="47.35608" lon="-1.20085">
        <ele>59</ele>
        <time>2025-08-02T09:42:39.000Z</time>
      </trkpt>
      <trkpt lat="47.35608" lon="-1.20087">
        <ele>59</ele>
        <time>2025-08-02T09:42:40.000Z</time>
      </trkpt>
      <trkpt lat="47.35608" lon="-1.20088">
        <ele>59</ele>
        <time>2025-08-02T09:42:41.000Z</time>
      </trkpt>
      <trkpt lat="47.35607" lon="-1.20089">
        <ele>59</ele>
        <time>2025-08-02T09:42:42.000Z</time>
      </trkpt>
      <trkpt lat="47.35606" lon="-1.2009">
        <ele>59</ele>
        <time>2025-08-02T09:42:43.000Z</time>
      </trkpt>
      <trkpt lat="47.35605" lon="-1.20092">
        <ele>60</ele>
        <time>2025-08-02T09:42:44.000Z</time>
      </trkpt>
      <trkpt lat="47.35605" lon="-1.20094">
        <ele>60</ele>
        <time>2025-08-02T09:42:45.000Z</time>
      </trkpt>
      <trkpt lat="47.35604" lon="-1.20095">
        <ele>61</ele>
        <time>2025-08-02T09:42:46.000Z</time>
      </trkpt>
      <trkpt lat="47.35604" lon="-1.20096">
        <ele>61</ele>
        <time>2025-08-02T09:42:47.000Z</time>
      </trkpt>
      <trkpt lat="47.35604" lon="-1.20098">
        <ele>61</ele>
        <time>2025-08-02T09:42:48.000Z</time>
      </trkpt>
      <trkpt lat="47.35604" lon="-1.201">
        <ele>61</ele>
        <time>2025-08-02T09:42:49.000Z</time>
      </trkpt>
      <trkpt lat="47.35604" lon="-1.20101">
        <ele>61</ele>
        <time>2025-08-02T09:42:50.000Z</time>
      </trkpt>
      <trkpt lat="47.35604" lon="-1.20104">
        <ele>61</ele>
        <time>2025-08-02T09:42:51.000Z</time>
      </trkpt>
      <trkpt lat="47.35605" lon="-1.20105">
        <ele>61</ele>
        <time>2025-08-02T09:42:52.000Z</time>
      </trkpt>
      <trkpt lat="47.35605" lon="-1.20107">
        <ele>61</ele>
        <time>2025-08-02T09:42:53.000Z</time>
      </trkpt>
      <trkpt lat="47.35605" lon="-1.20108">
        <ele>62</ele>
        <time>2025-08-02T09:42:54.000Z</time>
      </trkpt>
      <trkpt lat="47.35605" lon="-1.20109">
        <ele>62</ele>
        <time>2025-08-02T09:42:55.000Z</time>
      </trkpt>
      <trkpt lat="47.35604" lon="-1.20111">
        <ele>62</ele>
        <time>2025-08-02T09:42:56.000Z</time>
      </trkpt>
      <trkpt lat="47.35604" lon="-1.20113">
        <ele>62</ele>
        <time>2025-08-02T09:42:57.000Z</time>
      </trkpt>
      <trkpt lat="47.35604" lon="-1.20113">
        <ele>62</ele>
        <time>2025-08-02T09:42:58.000Z</time>
      </trkpt>
      <trkpt lat="47.35605" lon="-1.20113">
        <ele>62</ele>
        <time>2025-08-02T09:42:59.000Z</time>
      </trkpt>
      <trkpt lat="47.35605" lon="-1.20113">
        <ele>62</ele>
        <time>2025-08-02T09:43:00.000Z</time>
      </trkpt>
      <trkpt lat="47.35605" lon="-1.20114">
        <ele>62</ele>
        <time>2025-08-02T09:43:01.000Z</time>
      </trkpt>
      <trkpt lat="47.35605" lon="-1.20116">
        <ele>62</ele>
        <time>2025-08-02T09:43:02.000Z</time>
      </trkpt>
      <trkpt lat="47.35606" lon="-1.20118">
        <ele>61</ele>
        <time>2025-08-02T09:43:03.000Z</time>
      </trkpt>
      <trkpt lat="47.35606" lon="-1.2012">
        <ele>62</ele>
        <time>2025-08-02T09:43:04.000Z</time>
      </trkpt>
      <trkpt lat="47.35606" lon="-1.20122">
        <ele>62</ele>
        <time>2025-08-02T09:43:05.000Z</time>
      </trkpt>
      <trkpt lat="47.35605" lon="-1.20124">
        <ele>62</ele>
        <time>2025-08-02T09:43:06.000Z</time>
      </trkpt>
      <trkpt lat="47.35606" lon="-1.20127">
        <ele>62</ele>
        <time>2025-08-02T09:43:07.000Z</time>
      </trkpt>
      <trkpt lat="47.35605" lon="-1.20129">
        <ele>61</ele>
        <time>2025-08-02T09:43:08.000Z</time>
      </trkpt>
      <trkpt lat="47.35605" lon="-1.20132">
        <ele>61</ele>
        <time>2025-08-02T09:43:09.000Z</time>
      </trkpt>
      <trkpt lat="47.35604" lon="-1.20134">
        <ele>61</ele>
        <time>2025-08-02T09:43:10.000Z</time>
      </trkpt>
      <trkpt lat="47.35604" lon="-1.20137">
        <ele>61</ele>
        <time>2025-08-02T09:43:11.000Z</time>
      </trkpt>
      <trkpt lat="47.35604" lon="-1.20138">
        <ele>61</ele>
        <time>2025-08-02T09:43:12.000Z</time>
      </trkpt>
      <trkpt lat="47.35604" lon="-1.2014">
        <ele>61</ele>
        <time>2025-08-02T09:43:13.000Z</time>
      </trkpt>
      <trkpt lat="47.35604" lon="-1.20143">
        <ele>61</ele>
        <time>2025-08-02T09:43:14.000Z</time>
      </trkpt>
      <trkpt lat="47.35604" lon="-1.20146">
        <ele>60</ele>
        <time>2025-08-02T09:43:15.000Z</time>
      </trkpt>
      <trkpt lat="47.35604" lon="-1.20148">
        <ele>60</ele>
        <time>2025-08-02T09:43:16.000Z</time>
      </trkpt>
      <trkpt lat="47.35604" lon="-1.2015">
        <ele>61</ele>
        <time>2025-08-02T09:43:17.000Z</time>
      </trkpt>
      <trkpt lat="47.35603" lon="-1.20152">
        <ele>61</ele>
        <time>2025-08-02T09:43:18.000Z</time>
      </trkpt>
      <trkpt lat="47.35603" lon="-1.20154">
        <ele>61</ele>
        <time>2025-08-02T09:43:19.000Z</time>
      </trkpt>
      <trkpt lat="47.35603" lon="-1.20156">
        <ele>61</ele>
        <time>2025-08-02T09:43:20.000Z</time>
      </trkpt>
      <trkpt lat="47.35603" lon="-1.20158">
        <ele>60</ele>
        <time>2025-08-02T09:43:21.000Z</time>
      </trkpt>
      <trkpt lat="47.35602" lon="-1.20159">
        <ele>60</ele>
        <time>2025-08-02T09:43:22.000Z</time>
      </trkpt>
      <trkpt lat="47.35602" lon="-1.20161">
        <ele>60</ele>
        <time>2025-08-02T09:43:23.000Z</time>
      </trkpt>
      <trkpt lat="47.35602" lon="-1.20162">
        <ele>60</ele>
        <time>2025-08-02T09:43:24.000Z</time>
      </trkpt>
      <trkpt lat="47.35603" lon="-1.20164">
        <ele>59</ele>
        <time>2025-08-02T09:43:25.000Z</time>
      </trkpt>
      <trkpt lat="47.35603" lon="-1.20166">
        <ele>58</ele>
        <time>2025-08-02T09:43:26.000Z</time>
      </trkpt>
      <trkpt lat="47.35603" lon="-1.20168">
        <ele>59</ele>
        <time>2025-08-02T09:43:27.000Z</time>
      </trkpt>
      <trkpt lat="47.35604" lon="-1.2017">
        <ele>59</ele>
        <time>2025-08-02T09:43:28.000Z</time>
      </trkpt>
      <trkpt lat="47.35604" lon="-1.20173">
        <ele>59</ele>
        <time>2025-08-02T09:43:29.000Z</time>
      </trkpt>
      <trkpt lat="47.35605" lon="-1.20174">
        <ele>60</ele>
        <time>2025-08-02T09:43:30.000Z</time>
      </trkpt>
      <trkpt lat="47.35605" lon="-1.20175">
        <ele>60</ele>
        <time>2025-08-02T09:43:31.000Z</time>
      </trkpt>
      <trkpt lat="47.35605" lon="-1.20176">
        <ele>59</ele>
        <time>2025-08-02T09:43:32.000Z</time>
      </trkpt>
      <trkpt lat="47.35606" lon="-1.20178">
        <ele>59</ele>
        <time>2025-08-02T09:43:33.000Z</time>
      </trkpt>
      <trkpt lat="47.35607" lon="-1.20179">
        <ele>59</ele>
        <time>2025-08-02T09:43:34.000Z</time>
      </trkpt>
      <trkpt lat="47.35607" lon="-1.20181">
        <ele>58</ele>
        <time>2025-08-02T09:43:35.000Z</time>
      </trkpt>
      <trkpt lat="47.35608" lon="-1.20183">
        <ele>58</ele>
        <time>2025-08-02T09:43:36.000Z</time>
      </trkpt>
      <trkpt lat="47.35608" lon="-1.20184">
        <ele>58</ele>
        <time>2025-08-02T09:43:37.000Z</time>
      </trkpt>
      <trkpt lat="47.35608" lon="-1.20186">
        <ele>58</ele>
        <time>2025-08-02T09:43:38.000Z</time>
      </trkpt>
      <trkpt lat="47.35608" lon="-1.20187">
        <ele>57</ele>
        <time>2025-08-02T09:43:39.000Z</time>
      </trkpt>
      <trkpt lat="47.35609" lon="-1.20187">
        <ele>58</ele>
        <time>2025-08-02T09:43:40.000Z</time>
      </trkpt>
      <trkpt lat="47.35609" lon="-1.20188">
        <ele>58</ele>
        <time>2025-08-02T09:43:41.000Z</time>
      </trkpt>
      <trkpt lat="47.35609" lon="-1.20189">
        <ele>58</ele>
        <time>2025-08-02T09:43:42.000Z</time>
      </trkpt>
      <trkpt lat="47.35609" lon="-1.2019">
        <ele>58</ele>
        <time>2025-08-02T09:43:43.000Z</time>
      </trkpt>
      <trkpt lat="47.35609" lon="-1.20191">
        <ele>58</ele>
        <time>2025-08-02T09:43:44.000Z</time>
      </trkpt>
      <trkpt lat="47.3561" lon="-1.20193">
        <ele>58</ele>
        <time>2025-08-02T09:43:45.000Z</time>
      </trkpt>
      <trkpt lat="47.3561" lon="-1.20194">
        <ele>57</ele>
        <time>2025-08-02T09:43:46.000Z</time>
      </trkpt>
      <trkpt lat="47.3561" lon="-1.20195">
        <ele>57</ele>
        <time>2025-08-02T09:43:47.000Z</time>
      </trkpt>
      <trkpt lat="47.3561" lon="-1.20196">
        <ele>57</ele>
        <time>2025-08-02T09:43:48.000Z</time>
      </trkpt>
      <trkpt lat="47.35611" lon="-1.20197">
        <ele>57</ele>
        <time>2025-08-02T09:43:49.000Z</time>
      </trkpt>
      <trkpt lat="47.35611" lon="-1.20199">
        <ele>55</ele>
        <time>2025-08-02T09:43:50.000Z</time>
      </trkpt>
      <trkpt lat="47.35611" lon="-1.20199">
        <ele>55</ele>
        <time>2025-08-02T09:43:51.000Z</time>
      </trkpt>
      <trkpt lat="47.35611" lon="-1.20199">
        <ele>55</ele>
        <time>2025-08-02T09:43:52.000Z</time>
      </trkpt>
      <trkpt lat="47.35612" lon="-1.20205">
        <ele>53</ele>
        <time>2025-08-02T09:43:53.000Z</time>
      </trkpt>
      <trkpt lat="47.35612" lon="-1.20207">
        <ele>52</ele>
        <time>2025-08-02T09:43:54.000Z</time>
      </trkpt>
      <trkpt lat="47.35612" lon="-1.20209">
        <ele>52</ele>
        <time>2025-08-02T09:43:55.000Z</time>
      </trkpt>
      <trkpt lat="47.35612" lon="-1.2021">
        <ele>53</ele>
        <time>2025-08-02T09:43:56.000Z</time>
      </trkpt>
      <trkpt lat="47.35612" lon="-1.20212">
        <ele>53</ele>
        <time>2025-08-02T09:43:57.000Z</time>
      </trkpt>
      <trkpt lat="47.35612" lon="-1.20212">
        <ele>53</ele>
        <time>2025-08-02T09:43:58.000Z</time>
      </trkpt>
      <trkpt lat="47.35612" lon="-1.20212">
        <ele>53</ele>
        <time>2025-08-02T09:43:59.000Z</time>
      </trkpt>
      <trkpt lat="47.35612" lon="-1.20212">
        <ele>53</ele>
        <time>2025-08-02T09:44:00.000Z</time>
      </trkpt>
      <trkpt lat="47.35612" lon="-1.20212">
        <ele>53</ele>
        <time>2025-08-02T09:44:01.000Z</time>
      </trkpt>
      <trkpt lat="47.35612" lon="-1.20212">
        <ele>53</ele>
        <time>2025-08-02T09:44:02.000Z</time>
      </trkpt>
      <trkpt lat="47.35612" lon="-1.20212">
        <ele>53</ele>
        <time>2025-08-02T09:44:03.000Z</time>
      </trkpt>
      <trkpt lat="47.35613" lon="-1.20212">
        <ele>53</ele>
        <time>2025-08-02T09:44:04.000Z</time>
      </trkpt>
      <trkpt lat="47.35614" lon="-1.20212">
        <ele>53</ele>
        <time>2025-08-02T09:44:05.000Z</time>
      </trkpt>
      <trkpt lat="47.35614" lon="-1.20212">
        <ele>53</ele>
        <time>2025-08-02T09:44:06.000Z</time>
      </trkpt>
      <trkpt lat="47.35614" lon="-1.20212">
        <ele>53</ele>
        <time>2025-08-02T09:44:07.000Z</time>
      </trkpt>
      <trkpt lat="47.35614" lon="-1.20212">
        <ele>53</ele>
        <time>2025-08-02T09:44:08.000Z</time>
      </trkpt>
      <trkpt lat="47.35614" lon="-1.20212">
        <ele>53</ele>
        <time>2025-08-02T09:44:09.000Z</time>
      </trkpt>
      <trkpt lat="47.35614" lon="-1.20212">
        <ele>53</ele>
        <time>2025-08-02T09:44:10.000Z</time>
      </trkpt>
      <trkpt lat="47.35614" lon="-1.20212">
        <ele>53</ele>
        <time>2025-08-02T09:44:11.000Z</time>
      </trkpt>
      <trkpt lat="47.35614" lon="-1.20212">
        <ele>53</ele>
        <time>2025-08-02T09:44:12.000Z</time>
      </trkpt>
      <trkpt lat="47.35614" lon="-1.20212">
        <ele>53</ele>
        <time>2025-08-02T09:44:13.000Z</time>
      </trkpt>
      <trkpt lat="47.35614" lon="-1.20212">
        <ele>53</ele>
        <time>2025-08-02T09:44:14.000Z</time>
      </trkpt>
      <trkpt lat="47.35614" lon="-1.20212">
        <ele>53</ele>
        <time>2025-08-02T09:44:15.000Z</time>
      </trkpt>
      <trkpt lat="47.35614" lon="-1.20212">
        <ele>53</ele>
        <time>2025-08-02T09:44:16.000Z</time>
      </trkpt>
      <trkpt lat="47.35614" lon="-1.20212">
        <ele>53</ele>
        <time>2025-08-02T09:44:17.000Z</time>
      </trkpt>
      <trkpt lat="47.35614" lon="-1.20212">
        <ele>53</ele>
        <time>2025-08-02T09:44:18.000Z</time>
      </trkpt>
      <trkpt lat="47.35614" lon="-1.20212">
        <ele>53</ele>
        <time>2025-08-02T09:44:19.000Z</time>
      </trkpt>
      <trkpt lat="47.35614" lon="-1.20212">
        <ele>53</ele>
        <time>2025-08-02T09:44:20.000Z</time>
      </trkpt>
      <trkpt lat="47.35614" lon="-1.20212">
        <ele>53</ele>
        <time>2025-08-02T09:44:21.000Z</time>
      </trkpt>
      <trkpt lat="47.35614" lon="-1.20212">
        <ele>53</ele>
        <time>2025-08-02T09:44:22.000Z</time>
      </trkpt>
      <trkpt lat="47.35614" lon="-1.20212">
        <ele>53</ele>
        <time>2025-08-02T09:44:23.000Z</time>
      </trkpt>
      <trkpt lat="47.35614" lon="-1.20212">
        <ele>53</ele>
        <time>2025-08-02T09:44:24.000Z</time>
      </trkpt>
      <trkpt lat="47.35614" lon="-1.20212">
        <ele>53</ele>
        <time>2025-08-02T09:44:25.000Z</time>
      </trkpt>
      <trkpt lat="47.35614" lon="-1.20212">
        <ele>53</ele>
        <time>2025-08-02T09:44:26.000Z</time>
      </trkpt>
      <trkpt lat="47.35614" lon="-1.20212">
        <ele>53</ele>
        <time>2025-08-02T09:44:27.000Z</time>
      </trkpt>
      <trkpt lat="47.35614" lon="-1.20212">
        <ele>53</ele>
        <time>2025-08-02T09:44:28.000Z</time>
      </trkpt>
      <trkpt lat="47.35614" lon="-1.20212">
        <ele>53</ele>
        <time>2025-08-02T09:44:29.000Z</time>
      </trkpt>
      <trkpt lat="47.35614" lon="-1.20212">
        <ele>53</ele>
        <time>2025-08-02T09:44:30.000Z</time>
      </trkpt>
      <trkpt lat="47.35614" lon="-1.20212">
        <ele>53</ele>
        <time>2025-08-02T09:44:31.000Z</time>
      </trkpt>
      <trkpt lat="47.35614" lon="-1.20212">
        <ele>53</ele>
        <time>2025-08-02T09:44:32.000Z</time>
      </trkpt>
      <trkpt lat="47.35614" lon="-1.20212">
        <ele>53</ele>
        <time>2025-08-02T09:44:33.000Z</time>
      </trkpt>
      <trkpt lat="47.35614" lon="-1.20212">
        <ele>53</ele>
        <time>2025-08-02T09:44:34.000Z</time>
      </trkpt>
      <trkpt lat="47.35614" lon="-1.20212">
        <ele>53</ele>
        <time>2025-08-02T09:44:35.000Z</time>
      </trkpt>
      <trkpt lat="47.35614" lon="-1.20212">
        <ele>53</ele>
        <time>2025-08-02T09:44:36.000Z</time>
      </trkpt>
      <trkpt lat="47.35614" lon="-1.20212">
        <ele>53</ele>
        <time>2025-08-02T09:44:37.000Z</time>
      </trkpt>
      <trkpt lat="47.35614" lon="-1.20212">
        <ele>53</ele>
        <time>2025-08-02T09:44:38.000Z</time>
      </trkpt>
      <trkpt lat="47.35614" lon="-1.20212">
        <ele>53</ele>
        <time>2025-08-02T09:44:39.000Z</time>
      </trkpt>
      <trkpt lat="47.35614" lon="-1.20212">
        <ele>53</ele>
        <time>2025-08-02T09:44:40.000Z</time>
      </trkpt>
      <trkpt lat="47.35614" lon="-1.20212">
        <ele>53</ele>
        <time>2025-08-02T09:44:41.000Z</time>
      </trkpt>
      <trkpt lat="47.35614" lon="-1.20212">
        <ele>53</ele>
        <time>2025-08-02T09:44:42.000Z</time>
      </trkpt>
      <trkpt lat="47.35613" lon="-1.20211">
        <ele>52</ele>
        <time>2025-08-02T09:44:43.000Z</time>
      </trkpt>
      <trkpt lat="47.35612" lon="-1.20211">
        <ele>52</ele>
        <time>2025-08-02T09:44:44.000Z</time>
      </trkpt>
      <trkpt lat="47.35611" lon="-1.2021">
        <ele>53</ele>
        <time>2025-08-02T09:44:45.000Z</time>
      </trkpt>
      <trkpt lat="47.35611" lon="-1.2021">
        <ele>53</ele>
        <time>2025-08-02T09:44:46.000Z</time>
      </trkpt>
      <trkpt lat="47.35611" lon="-1.2021">
        <ele>53</ele>
        <time>2025-08-02T09:44:47.000Z</time>
      </trkpt>
      <trkpt lat="47.35612" lon="-1.2021">
        <ele>53</ele>
        <time>2025-08-02T09:44:48.000Z</time>
      </trkpt>
      <trkpt lat="47.35612" lon="-1.2021">
        <ele>54</ele>
        <time>2025-08-02T09:44:49.000Z</time>
      </trkpt>
      <trkpt lat="47.35612" lon="-1.2021">
        <ele>54</ele>
        <time>2025-08-02T09:44:50.000Z</time>
      </trkpt>
      <trkpt lat="47.35612" lon="-1.2021">
        <ele>54</ele>
        <time>2025-08-02T09:44:51.000Z</time>
      </trkpt>
      <trkpt lat="47.35612" lon="-1.2021">
        <ele>54</ele>
        <time>2025-08-02T09:44:52.000Z</time>
      </trkpt>
      <trkpt lat="47.35612" lon="-1.2021">
        <ele>54</ele>
        <time>2025-08-02T09:44:53.000Z</time>
      </trkpt>
      <trkpt lat="47.35612" lon="-1.2021">
        <ele>54</ele>
        <time>2025-08-02T09:44:54.000Z</time>
      </trkpt>
      <trkpt lat="47.35612" lon="-1.2021">
        <ele>54</ele>
        <time>2025-08-02T09:44:55.000Z</time>
      </trkpt>
      <trkpt lat="47.35612" lon="-1.2021">
        <ele>54</ele>
        <time>2025-08-02T09:44:56.000Z</time>
      </trkpt>
      <trkpt lat="47.35612" lon="-1.2021">
        <ele>54</ele>
        <time>2025-08-02T09:44:57.000Z</time>
      </trkpt>
      <trkpt lat="47.35612" lon="-1.2021">
        <ele>54</ele>
        <time>2025-08-02T09:44:58.000Z</time>
      </trkpt>
      <trkpt lat="47.35612" lon="-1.2021">
        <ele>53</ele>
        <time>2025-08-02T09:44:59.000Z</time>
      </trkpt>
      <trkpt lat="47.35611" lon="-1.20211">
        <ele>53</ele>
        <time>2025-08-02T09:45:00.000Z</time>
      </trkpt>
      <trkpt lat="47.35612" lon="-1.20211">
        <ele>54</ele>
        <time>2025-08-02T09:45:01.000Z</time>
      </trkpt>
      <trkpt lat="47.35611" lon="-1.20211">
        <ele>54</ele>
        <time>2025-08-02T09:45:02.000Z</time>
      </trkpt>
      <trkpt lat="47.35611" lon="-1.20211">
        <ele>54</ele>
        <time>2025-08-02T09:45:03.000Z</time>
      </trkpt>
      <trkpt lat="47.35611" lon="-1.20211">
        <ele>54</ele>
        <time>2025-08-02T09:45:04.000Z</time>
      </trkpt>
      <trkpt lat="47.35611" lon="-1.20211">
        <ele>54</ele>
        <time>2025-08-02T09:45:05.000Z</time>
      </trkpt>
      <trkpt lat="47.35611" lon="-1.20211">
        <ele>54</ele>
        <time>2025-08-02T09:45:06.000Z</time>
      </trkpt>
      <trkpt lat="47.35611" lon="-1.20211">
        <ele>54</ele>
        <time>2025-08-02T09:45:07.000Z</time>
      </trkpt>
      <trkpt lat="47.35611" lon="-1.20211">
        <ele>54</ele>
        <time>2025-08-02T09:45:08.000Z</time>
      </trkpt>
      <trkpt lat="47.35611" lon="-1.20211">
        <ele>54</ele>
        <time>2025-08-02T09:45:09.000Z</time>
      </trkpt>
      <trkpt lat="47.35611" lon="-1.20211">
        <ele>54</ele>
        <time>2025-08-02T09:45:10.000Z</time>
      </trkpt>
      <trkpt lat="47.35611" lon="-1.20211">
        <ele>54</ele>
        <time>2025-08-02T09:45:11.000Z</time>
      </trkpt>
      <trkpt lat="47.35611" lon="-1.20211">
        <ele>54</ele>
        <time>2025-08-02T09:45:12.000Z</time>
      </trkpt>
      <trkpt lat="47.35611" lon="-1.20211">
        <ele>54</ele>
        <time>2025-08-02T09:45:13.000Z</time>
      </trkpt>
      <trkpt lat="47.35611" lon="-1.20211">
        <ele>54</ele>
        <time>2025-08-02T09:45:14.000Z</time>
      </trkpt>
      <trkpt lat="47.35611" lon="-1.20211">
        <ele>54</ele>
        <time>2025-08-02T09:45:15.000Z</time>
      </trkpt>
      <trkpt lat="47.35611" lon="-1.20211">
        <ele>54</ele>
        <time>2025-08-02T09:45:16.000Z</time>
      </trkpt>
      <trkpt lat="47.35611" lon="-1.20211">
        <ele>54</ele>
        <time>2025-08-02T09:45:17.000Z</time>
      </trkpt>
      <trkpt lat="47.35611" lon="-1.20211">
        <ele>54</ele>
        <time>2025-08-02T09:45:18.000Z</time>
      </trkpt>
      <trkpt lat="47.35611" lon="-1.20211">
        <ele>54</ele>
        <time>2025-08-02T09:45:19.000Z</time>
      </trkpt>
      <trkpt lat="47.35611" lon="-1.20211">
        <ele>54</ele>
        <time>2025-08-02T09:45:20.000Z</time>
      </trkpt>
      <trkpt lat="47.35611" lon="-1.20211">
        <ele>54</ele>
        <time>2025-08-02T09:45:21.000Z</time>
      </trkpt>
      <trkpt lat="47.35611" lon="-1.20211">
        <ele>54</ele>
        <time>2025-08-02T09:45:22.000Z</time>
      </trkpt>
      <trkpt lat="47.35611" lon="-1.20211">
        <ele>54</ele>
        <time>2025-08-02T09:45:23.000Z</time>
      </trkpt>
      <trkpt lat="47.35611" lon="-1.20211">
        <ele>54</ele>
        <time>2025-08-02T09:45:24.000Z</time>
      </trkpt>
      <trkpt lat="47.35611" lon="-1.20211">
        <ele>54</ele>
        <time>2025-08-02T09:45:25.000Z</time>
      </trkpt>
      <trkpt lat="47.35611" lon="-1.20211">
        <ele>54</ele>
        <time>2025-08-02T09:45:26.000Z</time>
      </trkpt>
      <trkpt lat="47.35611" lon="-1.20211">
        <ele>54</ele>
        <time>2025-08-02T09:45:27.000Z</time>
      </trkpt>
      <trkpt lat="47.35611" lon="-1.20211">
        <ele>54</ele>
        <time>2025-08-02T09:45:28.000Z</time>
      </trkpt>
      <trkpt lat="47.35611" lon="-1.20211">
        <ele>54</ele>
        <time>2025-08-02T09:45:29.000Z</time>
      </trkpt>
      <trkpt lat="47.35611" lon="-1.20211">
        <ele>54</ele>
        <time>2025-08-02T09:45:30.000Z</time>
      </trkpt>
      <trkpt lat="47.35611" lon="-1.20211">
        <ele>54</ele>
        <time>2025-08-02T09:45:31.000Z</time>
      </trkpt>
      <trkpt lat="47.35611" lon="-1.20211">
        <ele>54</ele>
        <time>2025-08-02T09:45:32.000Z</time>
      </trkpt>
      <trkpt lat="47.35611" lon="-1.20211">
        <ele>54</ele>
        <time>2025-08-02T09:45:33.000Z</time>
      </trkpt>
      <trkpt lat="47.35611" lon="-1.20211">
        <ele>54</ele>
        <time>2025-08-02T09:45:34.000Z</time>
      </trkpt>
      <trkpt lat="47.35611" lon="-1.20211">
        <ele>54</ele>
        <time>2025-08-02T09:45:35.000Z</time>
      </trkpt>
      <trkpt lat="47.35611" lon="-1.20211">
        <ele>54</ele>
        <time>2025-08-02T09:45:36.000Z</time>
      </trkpt>
      <trkpt lat="47.35611" lon="-1.20211">
        <ele>54</ele>
        <time>2025-08-02T09:45:37.000Z</time>
      </trkpt>
      <trkpt lat="47.35611" lon="-1.20211">
        <ele>54</ele>
        <time>2025-08-02T09:45:38.000Z</time>
      </trkpt>
      <trkpt lat="47.35611" lon="-1.20211">
        <ele>54</ele>
        <time>2025-08-02T09:45:39.000Z</time>
      </trkpt>
      <trkpt lat="47.35611" lon="-1.20211">
        <ele>54</ele>
        <time>2025-08-02T09:45:40.000Z</time>
      </trkpt>
      <trkpt lat="47.35611" lon="-1.20211">
        <ele>54</ele>
        <time>2025-08-02T09:45:41.000Z</time>
      </trkpt>
      <trkpt lat="47.35611" lon="-1.20211">
        <ele>54</ele>
        <time>2025-08-02T09:45:42.000Z</time>
      </trkpt>
      <trkpt lat="47.35611" lon="-1.20211">
        <ele>54</ele>
        <time>2025-08-02T09:45:43.000Z</time>
      </trkpt>
      <trkpt lat="47.35611" lon="-1.2021">
        <ele>54</ele>
        <time>2025-08-02T09:45:44.000Z</time>
      </trkpt>
      <trkpt lat="47.35611" lon="-1.2021">
        <ele>54</ele>
        <time>2025-08-02T09:45:45.000Z</time>
      </trkpt>
      <trkpt lat="47.35611" lon="-1.20209">
        <ele>54</ele>
        <time>2025-08-02T09:45:46.000Z</time>
      </trkpt>
      <trkpt lat="47.3561" lon="-1.20207">
        <ele>54</ele>
        <time>2025-08-02T09:45:47.000Z</time>
      </trkpt>
      <trkpt lat="47.3561" lon="-1.20206">
        <ele>54</ele>
        <time>2025-08-02T09:45:48.000Z</time>
      </trkpt>
      <trkpt lat="47.35609" lon="-1.20205">
        <ele>54</ele>
        <time>2025-08-02T09:45:49.000Z</time>
      </trkpt>
      <trkpt lat="47.35609" lon="-1.20204">
        <ele>53</ele>
        <time>2025-08-02T09:45:50.000Z</time>
      </trkpt>
      <trkpt lat="47.35608" lon="-1.20203">
        <ele>53</ele>
        <time>2025-08-02T09:45:51.000Z</time>
      </trkpt>
      <trkpt lat="47.35608" lon="-1.20202">
        <ele>53</ele>
        <time>2025-08-02T09:45:52.000Z</time>
      </trkpt>
      <trkpt lat="47.35608" lon="-1.202">
        <ele>53</ele>
        <time>2025-08-02T09:45:53.000Z</time>
      </trkpt>
      <trkpt lat="47.35607" lon="-1.20199">
        <ele>53</ele>
        <time>2025-08-02T09:45:54.000Z</time>
      </trkpt>
      <trkpt lat="47.35607" lon="-1.20197">
        <ele>52</ele>
        <time>2025-08-02T09:45:55.000Z</time>
      </trkpt>
      <trkpt lat="47.35606" lon="-1.20196">
        <ele>53</ele>
        <time>2025-08-02T09:45:56.000Z</time>
      </trkpt>
      <trkpt lat="47.35606" lon="-1.20194">
        <ele>53</ele>
        <time>2025-08-02T09:45:57.000Z</time>
      </trkpt>
      <trkpt lat="47.35605" lon="-1.20192">
        <ele>53</ele>
        <time>2025-08-02T09:45:58.000Z</time>
      </trkpt>
      <trkpt lat="47.35605" lon="-1.2019">
        <ele>53</ele>
        <time>2025-08-02T09:45:59.000Z</time>
      </trkpt>
      <trkpt lat="47.35604" lon="-1.20189">
        <ele>53</ele>
        <time>2025-08-02T09:46:00.000Z</time>
      </trkpt>
      <trkpt lat="47.35604" lon="-1.20188">
        <ele>53</ele>
        <time>2025-08-02T09:46:01.000Z</time>
      </trkpt>
      <trkpt lat="47.35603" lon="-1.20187">
        <ele>53</ele>
        <time>2025-08-02T09:46:02.000Z</time>
      </trkpt>
      <trkpt lat="47.35603" lon="-1.20187">
        <ele>53</ele>
        <time>2025-08-02T09:46:03.000Z</time>
      </trkpt>
      <trkpt lat="47.35603" lon="-1.20187">
        <ele>53</ele>
        <time>2025-08-02T09:46:04.000Z</time>
      </trkpt>
      <trkpt lat="47.35603" lon="-1.20187">
        <ele>53</ele>
        <time>2025-08-02T09:46:05.000Z</time>
      </trkpt>
      <trkpt lat="47.35603" lon="-1.20187">
        <ele>53</ele>
        <time>2025-08-02T09:46:06.000Z</time>
      </trkpt>
      <trkpt lat="47.35603" lon="-1.20187">
        <ele>53</ele>
        <time>2025-08-02T09:46:07.000Z</time>
      </trkpt>
      <trkpt lat="47.35603" lon="-1.20187">
        <ele>53</ele>
        <time>2025-08-02T09:46:08.000Z</time>
      </trkpt>
      <trkpt lat="47.35603" lon="-1.20187">
        <ele>53</ele>
        <time>2025-08-02T09:46:09.000Z</time>
      </trkpt>
      <trkpt lat="47.35603" lon="-1.20187">
        <ele>53</ele>
        <time>2025-08-02T09:46:10.000Z</time>
      </trkpt>
      <trkpt lat="47.35603" lon="-1.20187">
        <ele>53</ele>
        <time>2025-08-02T09:46:11.000Z</time>
      </trkpt>
      <trkpt lat="47.35603" lon="-1.20187">
        <ele>53</ele>
        <time>2025-08-02T09:46:12.000Z</time>
      </trkpt>
      <trkpt lat="47.35603" lon="-1.20187">
        <ele>53</ele>
        <time>2025-08-02T09:46:13.000Z</time>
      </trkpt>
      <trkpt lat="47.35603" lon="-1.20187">
        <ele>53</ele>
        <time>2025-08-02T09:46:14.000Z</time>
      </trkpt>
      <trkpt lat="47.35603" lon="-1.20187">
        <ele>53</ele>
        <time>2025-08-02T09:46:15.000Z</time>
      </trkpt>
      <trkpt lat="47.35603" lon="-1.20187">
        <ele>53</ele>
        <time>2025-08-02T09:46:16.000Z</time>
      </trkpt>
      <trkpt lat="47.35603" lon="-1.20187">
        <ele>53</ele>
        <time>2025-08-02T09:46:17.000Z</time>
      </trkpt>
      <trkpt lat="47.35603" lon="-1.20187">
        <ele>53</ele>
        <time>2025-08-02T09:46:18.000Z</time>
      </trkpt>
      <trkpt lat="47.35603" lon="-1.20186">
        <ele>54</ele>
        <time>2025-08-02T09:46:19.000Z</time>
      </trkpt>
      <trkpt lat="47.35603" lon="-1.20185">
        <ele>55</ele>
        <time>2025-08-02T09:46:20.000Z</time>
      </trkpt>
      <trkpt lat="47.35603" lon="-1.20185">
        <ele>55</ele>
        <time>2025-08-02T09:46:21.000Z</time>
      </trkpt>
      <trkpt lat="47.35603" lon="-1.20185">
        <ele>55</ele>
        <time>2025-08-02T09:46:22.000Z</time>
      </trkpt>
      <trkpt lat="47.35603" lon="-1.20185">
        <ele>55</ele>
        <time>2025-08-02T09:46:23.000Z</time>
      </trkpt>
      <trkpt lat="47.35603" lon="-1.20185">
        <ele>55</ele>
        <time>2025-08-02T09:46:24.000Z</time>
      </trkpt>
      <trkpt lat="47.35603" lon="-1.20185">
        <ele>55</ele>
        <time>2025-08-02T09:46:25.000Z</time>
      </trkpt>
      <trkpt lat="47.35603" lon="-1.20185">
        <ele>55</ele>
        <time>2025-08-02T09:46:26.000Z</time>
      </trkpt>
      <trkpt lat="47.35603" lon="-1.20185">
        <ele>55</ele>
        <time>2025-08-02T09:46:27.000Z</time>
      </trkpt>
      <trkpt lat="47.35602" lon="-1.20183">
        <ele>55</ele>
        <time>2025-08-02T09:46:28.000Z</time>
      </trkpt>
      <trkpt lat="47.35602" lon="-1.20182">
        <ele>55</ele>
        <time>2025-08-02T09:46:29.000Z</time>
      </trkpt>
      <trkpt lat="47.35602" lon="-1.20183">
        <ele>55</ele>
        <time>2025-08-02T09:46:30.000Z</time>
      </trkpt>
      <trkpt lat="47.35602" lon="-1.20183">
        <ele>55</ele>
        <time>2025-08-02T09:46:31.000Z</time>
      </trkpt>
      <trkpt lat="47.35602" lon="-1.20183">
        <ele>55</ele>
        <time>2025-08-02T09:46:32.000Z</time>
      </trkpt>
      <trkpt lat="47.35602" lon="-1.20182">
        <ele>55</ele>
        <time>2025-08-02T09:46:33.000Z</time>
      </trkpt>
      <trkpt lat="47.35602" lon="-1.20182">
        <ele>55</ele>
        <time>2025-08-02T09:46:34.000Z</time>
      </trkpt>
      <trkpt lat="47.35602" lon="-1.20182">
        <ele>55</ele>
        <time>2025-08-02T09:46:35.000Z</time>
      </trkpt>
      <trkpt lat="47.35602" lon="-1.20182">
        <ele>56</ele>
        <time>2025-08-02T09:46:36.000Z</time>
      </trkpt>
      <trkpt lat="47.35602" lon="-1.20182">
        <ele>56</ele>
        <time>2025-08-02T09:46:37.000Z</time>
      </trkpt>
      <trkpt lat="47.35602" lon="-1.20182">
        <ele>56</ele>
        <time>2025-08-02T09:46:38.000Z</time>
      </trkpt>
      <trkpt lat="47.35602" lon="-1.20182">
        <ele>56</ele>
        <time>2025-08-02T09:46:39.000Z</time>
      </trkpt>
      <trkpt lat="47.35602" lon="-1.20182">
        <ele>56</ele>
        <time>2025-08-02T09:46:40.000Z</time>
      </trkpt>
      <trkpt lat="47.35602" lon="-1.20182">
        <ele>56</ele>
        <time>2025-08-02T09:46:41.000Z</time>
      </trkpt>
      <trkpt lat="47.35602" lon="-1.20182">
        <ele>56</ele>
        <time>2025-08-02T09:46:42.000Z</time>
      </trkpt>
      <trkpt lat="47.35602" lon="-1.20182">
        <ele>56</ele>
        <time>2025-08-02T09:46:43.000Z</time>
      </trkpt>
      <trkpt lat="47.35602" lon="-1.20182">
        <ele>56</ele>
        <time>2025-08-02T09:46:44.000Z</time>
      </trkpt>
      <trkpt lat="47.35602" lon="-1.20182">
        <ele>56</ele>
        <time>2025-08-02T09:46:45.000Z</time>
      </trkpt>
      <trkpt lat="47.35602" lon="-1.20182">
        <ele>56</ele>
        <time>2025-08-02T09:46:46.000Z</time>
      </trkpt>
      <trkpt lat="47.35602" lon="-1.20182">
        <ele>56</ele>
        <time>2025-08-02T09:46:47.000Z</time>
      </trkpt>
      <trkpt lat="47.35602" lon="-1.20182">
        <ele>56</ele>
        <time>2025-08-02T09:46:48.000Z</time>
      </trkpt>
      <trkpt lat="47.35602" lon="-1.20182">
        <ele>56</ele>
        <time>2025-08-02T09:46:49.000Z</time>
      </trkpt>
      <trkpt lat="47.35602" lon="-1.20182">
        <ele>56</ele>
        <time>2025-08-02T09:46:50.000Z</time>
      </trkpt>
      <trkpt lat="47.35602" lon="-1.20182">
        <ele>56</ele>
        <time>2025-08-02T09:46:51.000Z</time>
      </trkpt>
      <trkpt lat="47.35602" lon="-1.20182">
        <ele>56</ele>
        <time>2025-08-02T09:46:52.000Z</time>
      </trkpt>
      <trkpt lat="47.35602" lon="-1.20182">
        <ele>56</ele>
        <time>2025-08-02T09:46:53.000Z</time>
      </trkpt>
      <trkpt lat="47.35602" lon="-1.20182">
        <ele>56</ele>
        <time>2025-08-02T09:46:54.000Z</time>
      </trkpt>
      <trkpt lat="47.35602" lon="-1.20182">
        <ele>56</ele>
        <time>2025-08-02T09:46:55.000Z</time>
      </trkpt>
      <trkpt lat="47.35602" lon="-1.20182">
        <ele>56</ele>
        <time>2025-08-02T09:46:56.000Z</time>
      </trkpt>
      <trkpt lat="47.35602" lon="-1.20182">
        <ele>56</ele>
        <time>2025-08-02T09:46:57.000Z</time>
      </trkpt>
      <trkpt lat="47.35602" lon="-1.20182">
        <ele>56</ele>
        <time>2025-08-02T09:46:58.000Z</time>
      </trkpt>
      <trkpt lat="47.35602" lon="-1.20182">
        <ele>56</ele>
        <time>2025-08-02T09:46:59.000Z</time>
      </trkpt>
      <trkpt lat="47.35602" lon="-1.20182">
        <ele>56</ele>
        <time>2025-08-02T09:47:00.000Z</time>
      </trkpt>
      <trkpt lat="47.35602" lon="-1.20182">
        <ele>56</ele>
        <time>2025-08-02T09:47:01.000Z</time>
      </trkpt>
      <trkpt lat="47.35602" lon="-1.20182">
        <ele>56</ele>
        <time>2025-08-02T09:47:02.000Z</time>
      </trkpt>
      <trkpt lat="47.35602" lon="-1.20182">
        <ele>56</ele>
        <time>2025-08-02T09:47:03.000Z</time>
      </trkpt>
      <trkpt lat="47.35602" lon="-1.20182">
        <ele>56</ele>
        <time>2025-08-02T09:47:04.000Z</time>
      </trkpt>
      <trkpt lat="47.35602" lon="-1.20182">
        <ele>56</ele>
        <time>2025-08-02T09:47:05.000Z</time>
      </trkpt>
      <trkpt lat="47.35602" lon="-1.20182">
        <ele>56</ele>
        <time>2025-08-02T09:47:06.000Z</time>
      </trkpt>
      <trkpt lat="47.35602" lon="-1.20182">
        <ele>56</ele>
        <time>2025-08-02T09:47:07.000Z</time>
      </trkpt>
      <trkpt lat="47.35602" lon="-1.20182">
        <ele>56</ele>
        <time>2025-08-02T09:47:08.000Z</time>
      </trkpt>
      <trkpt lat="47.35602" lon="-1.20182">
        <ele>56</ele>
        <time>2025-08-02T09:47:09.000Z</time>
      </trkpt>
      <trkpt lat="47.35602" lon="-1.20182">
        <ele>56</ele>
        <time>2025-08-02T09:47:10.000Z</time>
      </trkpt>
      <trkpt lat="47.35602" lon="-1.20182">
        <ele>56</ele>
        <time>2025-08-02T09:47:11.000Z</time>
      </trkpt>
      <trkpt lat="47.35602" lon="-1.20182">
        <ele>56</ele>
        <time>2025-08-02T09:47:12.000Z</time>
      </trkpt>
      <trkpt lat="47.35602" lon="-1.20182">
        <ele>56</ele>
        <time>2025-08-02T09:47:13.000Z</time>
      </trkpt>
      <trkpt lat="47.35602" lon="-1.20182">
        <ele>56</ele>
        <time>2025-08-02T09:47:14.000Z</time>
      </trkpt>
      <trkpt lat="47.35602" lon="-1.20182">
        <ele>56</ele>
        <time>2025-08-02T09:47:15.000Z</time>
      </trkpt>
      <trkpt lat="47.35602" lon="-1.20182">
        <ele>56</ele>
        <time>2025-08-02T09:47:16.000Z</time>
      </trkpt>
      <trkpt lat="47.35602" lon="-1.20182">
        <ele>56</ele>
        <time>2025-08-02T09:47:17.000Z</time>
      </trkpt>
      <trkpt lat="47.35602" lon="-1.20182">
        <ele>56</ele>
        <time>2025-08-02T09:47:18.000Z</time>
      </trkpt>
      <trkpt lat="47.35602" lon="-1.20182">
        <ele>56</ele>
        <time>2025-08-02T09:47:19.000Z</time>
      </trkpt>
      <trkpt lat="47.35602" lon="-1.20182">
        <ele>56</ele>
        <time>2025-08-02T09:47:20.000Z</time>
      </trkpt>
      <trkpt lat="47.35602" lon="-1.20182">
        <ele>56</ele>
        <time>2025-08-02T09:47:21.000Z</time>
      </trkpt>
      <trkpt lat="47.35602" lon="-1.20182">
        <ele>56</ele>
        <time>2025-08-02T09:47:22.000Z</time>
      </trkpt>
      <trkpt lat="47.35602" lon="-1.20182">
        <ele>56</ele>
        <time>2025-08-02T09:47:23.000Z</time>
      </trkpt>
      <trkpt lat="47.35602" lon="-1.20182">
        <ele>56</ele>
        <time>2025-08-02T09:47:24.000Z</time>
      </trkpt>
      <trkpt lat="47.35602" lon="-1.20182">
        <ele>56</ele>
        <time>2025-08-02T09:47:25.000Z</time>
      </trkpt>
      <trkpt lat="47.35602" lon="-1.20182">
        <ele>56</ele>
        <time>2025-08-02T09:47:26.000Z</time>
      </trkpt>
      <trkpt lat="47.35602" lon="-1.20182">
        <ele>56</ele>
        <time>2025-08-02T09:47:27.000Z</time>
      </trkpt>
      <trkpt lat="47.35602" lon="-1.20182">
        <ele>56</ele>
        <time>2025-08-02T09:47:28.000Z</time>
      </trkpt>
      <trkpt lat="47.35602" lon="-1.20182">
        <ele>56</ele>
        <time>2025-08-02T09:47:29.000Z</time>
      </trkpt>
      <trkpt lat="47.35602" lon="-1.20182">
        <ele>56</ele>
        <time>2025-08-02T09:47:30.000Z</time>
      </trkpt>
      <trkpt lat="47.35602" lon="-1.20182">
        <ele>56</ele>
        <time>2025-08-02T09:47:31.000Z</time>
      </trkpt>
      <trkpt lat="47.35602" lon="-1.20182">
        <ele>56</ele>
        <time>2025-08-02T09:47:32.000Z</time>
      </trkpt>
      <trkpt lat="47.35602" lon="-1.20182">
        <ele>56</ele>
        <time>2025-08-02T09:47:33.000Z</time>
      </trkpt>
      <trkpt lat="47.35602" lon="-1.20182">
        <ele>56</ele>
        <time>2025-08-02T09:47:34.000Z</time>
      </trkpt>
      <trkpt lat="47.35602" lon="-1.20182">
        <ele>56</ele>
        <time>2025-08-02T09:47:35.000Z</time>
      </trkpt>
      <trkpt lat="47.35602" lon="-1.20182">
        <ele>56</ele>
        <time>2025-08-02T09:47:36.000Z</time>
      </trkpt>
      <trkpt lat="47.35602" lon="-1.20182">
        <ele>56</ele>
        <time>2025-08-02T09:47:37.000Z</time>
      </trkpt>
      <trkpt lat="47.35602" lon="-1.20182">
        <ele>56</ele>
        <time>2025-08-02T09:47:38.000Z</time>
      </trkpt>
      <trkpt lat="47.35602" lon="-1.20182">
        <ele>56</ele>
        <time>2025-08-02T09:47:39.000Z</time>
      </trkpt>
      <trkpt lat="47.35602" lon="-1.20182">
        <ele>56</ele>
        <time>2025-08-02T09:47:40.000Z</time>
      </trkpt>
      <trkpt lat="47.35602" lon="-1.20182">
        <ele>56</ele>
        <time>2025-08-02T09:47:41.000Z</time>
      </trkpt>
      <trkpt lat="47.35602" lon="-1.20182">
        <ele>56</ele>
        <time>2025-08-02T09:47:42.000Z</time>
      </trkpt>
      <trkpt lat="47.35603" lon="-1.2018">
        <ele>56</ele>
        <time>2025-08-02T09:47:43.000Z</time>
      </trkpt>
      <trkpt lat="47.35603" lon="-1.20178">
        <ele>56</ele>
        <time>2025-08-02T09:47:44.000Z</time>
      </trkpt>
      <trkpt lat="47.35603" lon="-1.20177">
        <ele>56</ele>
        <time>2025-08-02T09:47:45.000Z</time>
      </trkpt>
      <trkpt lat="47.35602" lon="-1.20175">
        <ele>56</ele>
        <time>2025-08-02T09:47:46.000Z</time>
      </trkpt>
      <trkpt lat="47.35602" lon="-1.20173">
        <ele>56</ele>
        <time>2025-08-02T09:47:47.000Z</time>
      </trkpt>
      <trkpt lat="47.35602" lon="-1.20171">
        <ele>56</ele>
        <time>2025-08-02T09:47:48.000Z</time>
      </trkpt>
      <trkpt lat="47.35602" lon="-1.2017">
        <ele>56</ele>
        <time>2025-08-02T09:47:49.000Z</time>
      </trkpt>
      <trkpt lat="47.35602" lon="-1.20168">
        <ele>57</ele>
        <time>2025-08-02T09:47:50.000Z</time>
      </trkpt>
      <trkpt lat="47.35601" lon="-1.20166">
        <ele>57</ele>
        <time>2025-08-02T09:47:51.000Z</time>
      </trkpt>
      <trkpt lat="47.35601" lon="-1.20165">
        <ele>56</ele>
        <time>2025-08-02T09:47:52.000Z</time>
      </trkpt>
      <trkpt lat="47.35601" lon="-1.20163">
        <ele>56</ele>
        <time>2025-08-02T09:47:53.000Z</time>
      </trkpt>
      <trkpt lat="47.35601" lon="-1.20162">
        <ele>57</ele>
        <time>2025-08-02T09:47:54.000Z</time>
      </trkpt>
      <trkpt lat="47.35601" lon="-1.20162">
        <ele>56</ele>
        <time>2025-08-02T09:47:55.000Z</time>
      </trkpt>
      <trkpt lat="47.35601" lon="-1.20161">
        <ele>56</ele>
        <time>2025-08-02T09:47:56.000Z</time>
      </trkpt>
      <trkpt lat="47.35601" lon="-1.20162">
        <ele>56</ele>
        <time>2025-08-02T09:47:57.000Z</time>
      </trkpt>
      <trkpt lat="47.35601" lon="-1.20163">
        <ele>56</ele>
        <time>2025-08-02T09:47:58.000Z</time>
      </trkpt>
      <trkpt lat="47.35601" lon="-1.20163">
        <ele>56</ele>
        <time>2025-08-02T09:47:59.000Z</time>
      </trkpt>
      <trkpt lat="47.35601" lon="-1.20163">
        <ele>56</ele>
        <time>2025-08-02T09:48:00.000Z</time>
      </trkpt>
      <trkpt lat="47.356" lon="-1.20163">
        <ele>56</ele>
        <time>2025-08-02T09:48:01.000Z</time>
      </trkpt>
      <trkpt lat="47.356" lon="-1.20163">
        <ele>56</ele>
        <time>2025-08-02T09:48:02.000Z</time>
      </trkpt>
      <trkpt lat="47.356" lon="-1.20163">
        <ele>56</ele>
        <time>2025-08-02T09:48:03.000Z</time>
      </trkpt>
      <trkpt lat="47.356" lon="-1.20163">
        <ele>56</ele>
        <time>2025-08-02T09:48:04.000Z</time>
      </trkpt>
      <trkpt lat="47.356" lon="-1.20163">
        <ele>56</ele>
        <time>2025-08-02T09:48:05.000Z</time>
      </trkpt>
      <trkpt lat="47.356" lon="-1.20163">
        <ele>56</ele>
        <time>2025-08-02T09:48:06.000Z</time>
      </trkpt>
      <trkpt lat="47.356" lon="-1.20163">
        <ele>56</ele>
        <time>2025-08-02T09:48:07.000Z</time>
      </trkpt>
      <trkpt lat="47.356" lon="-1.20162">
        <ele>56</ele>
        <time>2025-08-02T09:48:08.000Z</time>
      </trkpt>
      <trkpt lat="47.356" lon="-1.20161">
        <ele>56</ele>
        <time>2025-08-02T09:48:09.000Z</time>
      </trkpt>
      <trkpt lat="47.356" lon="-1.20159">
        <ele>56</ele>
        <time>2025-08-02T09:48:10.000Z</time>
      </trkpt>
      <trkpt lat="47.35599" lon="-1.20158">
        <ele>56</ele>
        <time>2025-08-02T09:48:11.000Z</time>
      </trkpt>
      <trkpt lat="47.35599" lon="-1.20156">
        <ele>56</ele>
        <time>2025-08-02T09:48:12.000Z</time>
      </trkpt>
      <trkpt lat="47.35598" lon="-1.20156">
        <ele>56</ele>
        <time>2025-08-02T09:48:13.000Z</time>
      </trkpt>
      <trkpt lat="47.35598" lon="-1.20156">
        <ele>56</ele>
        <time>2025-08-02T09:48:14.000Z</time>
      </trkpt>
      <trkpt lat="47.35598" lon="-1.20158">
        <ele>55</ele>
        <time>2025-08-02T09:48:15.000Z</time>
      </trkpt>
      <trkpt lat="47.35599" lon="-1.20159">
        <ele>55</ele>
        <time>2025-08-02T09:48:16.000Z</time>
      </trkpt>
      <trkpt lat="47.35599" lon="-1.20161">
        <ele>54</ele>
        <time>2025-08-02T09:48:17.000Z</time>
      </trkpt>
      <trkpt lat="47.35599" lon="-1.20162">
        <ele>54</ele>
        <time>2025-08-02T09:48:18.000Z</time>
      </trkpt>
      <trkpt lat="47.35599" lon="-1.20163">
        <ele>54</ele>
        <time>2025-08-02T09:48:19.000Z</time>
      </trkpt>
      <trkpt lat="47.35599" lon="-1.20165">
        <ele>54</ele>
        <time>2025-08-02T09:48:20.000Z</time>
      </trkpt>
      <trkpt lat="47.35599" lon="-1.20166">
        <ele>54</ele>
        <time>2025-08-02T09:48:21.000Z</time>
      </trkpt>
      <trkpt lat="47.35599" lon="-1.20168">
        <ele>54</ele>
        <time>2025-08-02T09:48:22.000Z</time>
      </trkpt>
      <trkpt lat="47.35598" lon="-1.2017">
        <ele>54</ele>
        <time>2025-08-02T09:48:23.000Z</time>
      </trkpt>
      <trkpt lat="47.35598" lon="-1.20172">
        <ele>54</ele>
        <time>2025-08-02T09:48:24.000Z</time>
      </trkpt>
      <trkpt lat="47.35599" lon="-1.20173">
        <ele>54</ele>
        <time>2025-08-02T09:48:25.000Z</time>
      </trkpt>
      <trkpt lat="47.35598" lon="-1.20173">
        <ele>54</ele>
        <time>2025-08-02T09:48:26.000Z</time>
      </trkpt>
      <trkpt lat="47.35598" lon="-1.20173">
        <ele>54</ele>
        <time>2025-08-02T09:48:27.000Z</time>
      </trkpt>
      <trkpt lat="47.35598" lon="-1.20174">
        <ele>55</ele>
        <time>2025-08-02T09:48:28.000Z</time>
      </trkpt>
      <trkpt lat="47.35598" lon="-1.20174">
        <ele>55</ele>
        <time>2025-08-02T09:48:29.000Z</time>
      </trkpt>
      <trkpt lat="47.35597" lon="-1.20173">
        <ele>54</ele>
        <time>2025-08-02T09:48:30.000Z</time>
      </trkpt>
      <trkpt lat="47.35597" lon="-1.20173">
        <ele>54</ele>
        <time>2025-08-02T09:48:31.000Z</time>
      </trkpt>
      <trkpt lat="47.35597" lon="-1.20173">
        <ele>54</ele>
        <time>2025-08-02T09:48:32.000Z</time>
      </trkpt>
      <trkpt lat="47.35597" lon="-1.20173">
        <ele>54</ele>
        <time>2025-08-02T09:48:33.000Z</time>
      </trkpt>
      <trkpt lat="47.35597" lon="-1.20173">
        <ele>54</ele>
        <time>2025-08-02T09:48:34.000Z</time>
      </trkpt>
      <trkpt lat="47.35597" lon="-1.20173">
        <ele>54</ele>
        <time>2025-08-02T09:48:35.000Z</time>
      </trkpt>
      <trkpt lat="47.35597" lon="-1.20173">
        <ele>54</ele>
        <time>2025-08-02T09:48:36.000Z</time>
      </trkpt>
      <trkpt lat="47.35597" lon="-1.20173">
        <ele>54</ele>
        <time>2025-08-02T09:48:37.000Z</time>
      </trkpt>
      <trkpt lat="47.35597" lon="-1.20173">
        <ele>54</ele>
        <time>2025-08-02T09:48:38.000Z</time>
      </trkpt>
      <trkpt lat="47.35597" lon="-1.20173">
        <ele>54</ele>
        <time>2025-08-02T09:48:39.000Z</time>
      </trkpt>
      <trkpt lat="47.35597" lon="-1.20173">
        <ele>54</ele>
        <time>2025-08-02T09:48:40.000Z</time>
      </trkpt>
      <trkpt lat="47.35597" lon="-1.20173">
        <ele>54</ele>
        <time>2025-08-02T09:48:41.000Z</time>
      </trkpt>
      <trkpt lat="47.35597" lon="-1.20173">
        <ele>54</ele>
        <time>2025-08-02T09:48:42.000Z</time>
      </trkpt>
      <trkpt lat="47.35597" lon="-1.20173">
        <ele>54</ele>
        <time>2025-08-02T09:48:43.000Z</time>
      </trkpt>
      <trkpt lat="47.35597" lon="-1.20173">
        <ele>54</ele>
        <time>2025-08-02T09:48:44.000Z</time>
      </trkpt>
      <trkpt lat="47.35597" lon="-1.20173">
        <ele>54</ele>
        <time>2025-08-02T09:48:45.000Z</time>
      </trkpt>
      <trkpt lat="47.35597" lon="-1.20173">
        <ele>54</ele>
        <time>2025-08-02T09:48:46.000Z</time>
      </trkpt>
      <trkpt lat="47.35597" lon="-1.20173">
        <ele>54</ele>
        <time>2025-08-02T09:48:47.000Z</time>
      </trkpt>
      <trkpt lat="47.35598" lon="-1.20174">
        <ele>55</ele>
        <time>2025-08-02T09:48:48.000Z</time>
      </trkpt>
      <trkpt lat="47.35598" lon="-1.20174">
        <ele>55</ele>
        <time>2025-08-02T09:48:49.000Z</time>
      </trkpt>
      <trkpt lat="47.35599" lon="-1.20175">
        <ele>55</ele>
        <time>2025-08-02T09:48:50.000Z</time>
      </trkpt>
      <trkpt lat="47.35599" lon="-1.20177">
        <ele>55</ele>
        <time>2025-08-02T09:48:51.000Z</time>
      </trkpt>
      <trkpt lat="47.35599" lon="-1.20179">
        <ele>54</ele>
        <time>2025-08-02T09:48:52.000Z</time>
      </trkpt>
      <trkpt lat="47.35599" lon="-1.20181">
        <ele>54</ele>
        <time>2025-08-02T09:48:53.000Z</time>
      </trkpt>
      <trkpt lat="47.356" lon="-1.20182">
        <ele>54</ele>
        <time>2025-08-02T09:48:54.000Z</time>
      </trkpt>
      <trkpt lat="47.356" lon="-1.20184">
        <ele>54</ele>
        <time>2025-08-02T09:48:55.000Z</time>
      </trkpt>
      <trkpt lat="47.35601" lon="-1.20185">
        <ele>54</ele>
        <time>2025-08-02T09:48:56.000Z</time>
      </trkpt>
      <trkpt lat="47.35601" lon="-1.20187">
        <ele>54</ele>
        <time>2025-08-02T09:48:57.000Z</time>
      </trkpt>
      <trkpt lat="47.35602" lon="-1.20188">
        <ele>53</ele>
        <time>2025-08-02T09:48:58.000Z</time>
      </trkpt>
      <trkpt lat="47.35603" lon="-1.20189">
        <ele>54</ele>
        <time>2025-08-02T09:48:59.000Z</time>
      </trkpt>
      <trkpt lat="47.35603" lon="-1.20191">
        <ele>53</ele>
        <time>2025-08-02T09:49:00.000Z</time>
      </trkpt>
      <trkpt lat="47.35604" lon="-1.20192">
        <ele>53</ele>
        <time>2025-08-02T09:49:01.000Z</time>
      </trkpt>
      <trkpt lat="47.35604" lon="-1.20194">
        <ele>53</ele>
        <time>2025-08-02T09:49:02.000Z</time>
      </trkpt>
      <trkpt lat="47.35605" lon="-1.20196">
        <ele>53</ele>
        <time>2025-08-02T09:49:03.000Z</time>
      </trkpt>
      <trkpt lat="47.35606" lon="-1.20197">
        <ele>54</ele>
        <time>2025-08-02T09:49:04.000Z</time>
      </trkpt>
      <trkpt lat="47.35606" lon="-1.20199">
        <ele>54</ele>
        <time>2025-08-02T09:49:05.000Z</time>
      </trkpt>
      <trkpt lat="47.35607" lon="-1.202">
        <ele>53</ele>
        <time>2025-08-02T09:49:06.000Z</time>
      </trkpt>
      <trkpt lat="47.35608" lon="-1.20201">
        <ele>54</ele>
        <time>2025-08-02T09:49:07.000Z</time>
      </trkpt>
      <trkpt lat="47.35609" lon="-1.20202">
        <ele>54</ele>
        <time>2025-08-02T09:49:08.000Z</time>
      </trkpt>
      <trkpt lat="47.35609" lon="-1.20204">
        <ele>53</ele>
        <time>2025-08-02T09:49:09.000Z</time>
      </trkpt>
      <trkpt lat="47.3561" lon="-1.20206">
        <ele>54</ele>
        <time>2025-08-02T09:49:10.000Z</time>
      </trkpt>
      <trkpt lat="47.35611" lon="-1.20207">
        <ele>53</ele>
        <time>2025-08-02T09:49:11.000Z</time>
      </trkpt>
      <trkpt lat="47.35612" lon="-1.20209">
        <ele>53</ele>
        <time>2025-08-02T09:49:12.000Z</time>
      </trkpt>
      <trkpt lat="47.35612" lon="-1.2021">
        <ele>54</ele>
        <time>2025-08-02T09:49:13.000Z</time>
      </trkpt>
      <trkpt lat="47.35613" lon="-1.20211">
        <ele>54</ele>
        <time>2025-08-02T09:49:14.000Z</time>
      </trkpt>
      <trkpt lat="47.35614" lon="-1.20212">
        <ele>54</ele>
        <time>2025-08-02T09:49:15.000Z</time>
      </trkpt>
      <trkpt lat="47.35615" lon="-1.20212">
        <ele>54</ele>
        <time>2025-08-02T09:49:16.000Z</time>
      </trkpt>
      <trkpt lat="47.35616" lon="-1.20211">
        <ele>53</ele>
        <time>2025-08-02T09:49:17.000Z</time>
      </trkpt>
      <trkpt lat="47.35617" lon="-1.20211">
        <ele>53</ele>
        <time>2025-08-02T09:49:18.000Z</time>
      </trkpt>
      <trkpt lat="47.35618" lon="-1.20211">
        <ele>53</ele>
        <time>2025-08-02T09:49:19.000Z</time>
      </trkpt>
      <trkpt lat="47.35619" lon="-1.2021">
        <ele>53</ele>
        <time>2025-08-02T09:49:20.000Z</time>
      </trkpt>
      <trkpt lat="47.3562" lon="-1.20208">
        <ele>54</ele>
        <time>2025-08-02T09:49:21.000Z</time>
      </trkpt>
      <trkpt lat="47.35622" lon="-1.20209">
        <ele>54</ele>
        <time>2025-08-02T09:49:22.000Z</time>
      </trkpt>
      <trkpt lat="47.35623" lon="-1.20208">
        <ele>54</ele>
        <time>2025-08-02T09:49:23.000Z</time>
      </trkpt>
      <trkpt lat="47.35624" lon="-1.20207">
        <ele>54</ele>
        <time>2025-08-02T09:49:24.000Z</time>
      </trkpt>
      <trkpt lat="47.35625" lon="-1.20206">
        <ele>55</ele>
        <time>2025-08-02T09:49:25.000Z</time>
      </trkpt>
      <trkpt lat="47.35625" lon="-1.20205">
        <ele>55</ele>
        <time>2025-08-02T09:49:26.000Z</time>
      </trkpt>
      <trkpt lat="47.35626" lon="-1.20204">
        <ele>55</ele>
        <time>2025-08-02T09:49:27.000Z</time>
      </trkpt>
      <trkpt lat="47.35627" lon="-1.20204">
        <ele>55</ele>
        <time>2025-08-02T09:49:28.000Z</time>
      </trkpt>
      <trkpt lat="47.35628" lon="-1.20203">
        <ele>55</ele>
        <time>2025-08-02T09:49:29.000Z</time>
      </trkpt>
      <trkpt lat="47.35629" lon="-1.20202">
        <ele>54</ele>
        <time>2025-08-02T09:49:30.000Z</time>
      </trkpt>
      <trkpt lat="47.3563" lon="-1.20202">
        <ele>55</ele>
        <time>2025-08-02T09:49:31.000Z</time>
      </trkpt>
      <trkpt lat="47.35631" lon="-1.20201">
        <ele>55</ele>
        <time>2025-08-02T09:49:32.000Z</time>
      </trkpt>
      <trkpt lat="47.35632" lon="-1.202">
        <ele>54</ele>
        <time>2025-08-02T09:49:33.000Z</time>
      </trkpt>
      <trkpt lat="47.35633" lon="-1.20199">
        <ele>54</ele>
        <time>2025-08-02T09:49:34.000Z</time>
      </trkpt>
      <trkpt lat="47.35634" lon="-1.20198">
        <ele>54</ele>
        <time>2025-08-02T09:49:35.000Z</time>
      </trkpt>
      <trkpt lat="47.35635" lon="-1.20197">
        <ele>54</ele>
        <time>2025-08-02T09:49:36.000Z</time>
      </trkpt>
      <trkpt lat="47.35636" lon="-1.20196">
        <ele>54</ele>
        <time>2025-08-02T09:49:37.000Z</time>
      </trkpt>
      <trkpt lat="47.35637" lon="-1.20195">
        <ele>54</ele>
        <time>2025-08-02T09:49:38.000Z</time>
      </trkpt>
      <trkpt lat="47.35639" lon="-1.20194">
        <ele>55</ele>
        <time>2025-08-02T09:49:39.000Z</time>
      </trkpt>
      <trkpt lat="47.3564" lon="-1.20192">
        <ele>55</ele>
        <time>2025-08-02T09:49:40.000Z</time>
      </trkpt>
      <trkpt lat="47.3564" lon="-1.20191">
        <ele>55</ele>
        <time>2025-08-02T09:49:41.000Z</time>
      </trkpt>
      <trkpt lat="47.35641" lon="-1.2019">
        <ele>54</ele>
        <time>2025-08-02T09:49:42.000Z</time>
      </trkpt>
      <trkpt lat="47.35641" lon="-1.20189">
        <ele>54</ele>
        <time>2025-08-02T09:49:43.000Z</time>
      </trkpt>
      <trkpt lat="47.35642" lon="-1.20188">
        <ele>54</ele>
        <time>2025-08-02T09:49:44.000Z</time>
      </trkpt>
      <trkpt lat="47.35643" lon="-1.20186">
        <ele>54</ele>
        <time>2025-08-02T09:49:45.000Z</time>
      </trkpt>
      <trkpt lat="47.35643" lon="-1.20185">
        <ele>54</ele>
        <time>2025-08-02T09:49:46.000Z</time>
      </trkpt>
      <trkpt lat="47.35644" lon="-1.20183">
        <ele>54</ele>
        <time>2025-08-02T09:49:47.000Z</time>
      </trkpt>
      <trkpt lat="47.35645" lon="-1.20182">
        <ele>54</ele>
        <time>2025-08-02T09:49:48.000Z</time>
      </trkpt>
      <trkpt lat="47.35645" lon="-1.20182">
        <ele>54</ele>
        <time>2025-08-02T09:49:49.000Z</time>
      </trkpt>
      <trkpt lat="47.35646" lon="-1.20182">
        <ele>54</ele>
        <time>2025-08-02T09:49:50.000Z</time>
      </trkpt>
      <trkpt lat="47.35647" lon="-1.20181">
        <ele>54</ele>
        <time>2025-08-02T09:49:51.000Z</time>
      </trkpt>
      <trkpt lat="47.35648" lon="-1.2018">
        <ele>54</ele>
        <time>2025-08-02T09:49:52.000Z</time>
      </trkpt>
      <trkpt lat="47.35649" lon="-1.2018">
        <ele>54</ele>
        <time>2025-08-02T09:49:53.000Z</time>
      </trkpt>
      <trkpt lat="47.3565" lon="-1.20179">
        <ele>54</ele>
        <time>2025-08-02T09:49:54.000Z</time>
      </trkpt>
      <trkpt lat="47.35651" lon="-1.20178">
        <ele>54</ele>
        <time>2025-08-02T09:49:55.000Z</time>
      </trkpt>
      <trkpt lat="47.35652" lon="-1.20177">
        <ele>54</ele>
        <time>2025-08-02T09:49:56.000Z</time>
      </trkpt>
      <trkpt lat="47.35652" lon="-1.20176">
        <ele>54</ele>
        <time>2025-08-02T09:49:57.000Z</time>
      </trkpt>
      <trkpt lat="47.35653" lon="-1.20176">
        <ele>54</ele>
        <time>2025-08-02T09:49:58.000Z</time>
      </trkpt>
      <trkpt lat="47.35654" lon="-1.20175">
        <ele>55</ele>
        <time>2025-08-02T09:49:59.000Z</time>
      </trkpt>
      <trkpt lat="47.35655" lon="-1.20175">
        <ele>55</ele>
        <time>2025-08-02T09:50:00.000Z</time>
      </trkpt>
      <trkpt lat="47.35656" lon="-1.20174">
        <ele>55</ele>
        <time>2025-08-02T09:50:01.000Z</time>
      </trkpt>
      <trkpt lat="47.35656" lon="-1.20174">
        <ele>55</ele>
        <time>2025-08-02T09:50:02.000Z</time>
      </trkpt>
      <trkpt lat="47.35657" lon="-1.20173">
        <ele>55</ele>
        <time>2025-08-02T09:50:03.000Z</time>
      </trkpt>
      <trkpt lat="47.35658" lon="-1.20172">
        <ele>56</ele>
        <time>2025-08-02T09:50:04.000Z</time>
      </trkpt>
      <trkpt lat="47.35659" lon="-1.20171">
        <ele>56</ele>
        <time>2025-08-02T09:50:05.000Z</time>
      </trkpt>
      <trkpt lat="47.35659" lon="-1.2017">
        <ele>56</ele>
        <time>2025-08-02T09:50:06.000Z</time>
      </trkpt>
      <trkpt lat="47.3566" lon="-1.20169">
        <ele>55</ele>
        <time>2025-08-02T09:50:07.000Z</time>
      </trkpt>
      <trkpt lat="47.35661" lon="-1.20169">
        <ele>55</ele>
        <time>2025-08-02T09:50:08.000Z</time>
      </trkpt>
      <trkpt lat="47.35662" lon="-1.20168">
        <ele>55</ele>
        <time>2025-08-02T09:50:09.000Z</time>
      </trkpt>
      <trkpt lat="47.35663" lon="-1.20167">
        <ele>55</ele>
        <time>2025-08-02T09:50:10.000Z</time>
      </trkpt>
      <trkpt lat="47.35664" lon="-1.20167">
        <ele>55</ele>
        <time>2025-08-02T09:50:11.000Z</time>
      </trkpt>
      <trkpt lat="47.35665" lon="-1.20166">
        <ele>55</ele>
        <time>2025-08-02T09:50:12.000Z</time>
      </trkpt>
      <trkpt lat="47.35666" lon="-1.20165">
        <ele>55</ele>
        <time>2025-08-02T09:50:13.000Z</time>
      </trkpt>
      <trkpt lat="47.35667" lon="-1.20163">
        <ele>55</ele>
        <time>2025-08-02T09:50:14.000Z</time>
      </trkpt>
      <trkpt lat="47.35668" lon="-1.20162">
        <ele>56</ele>
        <time>2025-08-02T09:50:15.000Z</time>
      </trkpt>
      <trkpt lat="47.35668" lon="-1.20161">
        <ele>55</ele>
        <time>2025-08-02T09:50:16.000Z</time>
      </trkpt>
      <trkpt lat="47.35669" lon="-1.2016">
        <ele>56</ele>
        <time>2025-08-02T09:50:17.000Z</time>
      </trkpt>
      <trkpt lat="47.35671" lon="-1.20159">
        <ele>56</ele>
        <time>2025-08-02T09:50:18.000Z</time>
      </trkpt>
      <trkpt lat="47.35672" lon="-1.20157">
        <ele>56</ele>
        <time>2025-08-02T09:50:19.000Z</time>
      </trkpt>
      <trkpt lat="47.35673" lon="-1.20156">
        <ele>56</ele>
        <time>2025-08-02T09:50:20.000Z</time>
      </trkpt>
      <trkpt lat="47.35674" lon="-1.20156">
        <ele>56</ele>
        <time>2025-08-02T09:50:21.000Z</time>
      </trkpt>
      <trkpt lat="47.35676" lon="-1.20156">
        <ele>56</ele>
        <time>2025-08-02T09:50:22.000Z</time>
      </trkpt>
      <trkpt lat="47.35677" lon="-1.20155">
        <ele>56</ele>
        <time>2025-08-02T09:50:23.000Z</time>
      </trkpt>
      <trkpt lat="47.35679" lon="-1.20154">
        <ele>56</ele>
        <time>2025-08-02T09:50:24.000Z</time>
      </trkpt>
      <trkpt lat="47.35679" lon="-1.20153">
        <ele>56</ele>
        <time>2025-08-02T09:50:25.000Z</time>
      </trkpt>
      <trkpt lat="47.3568" lon="-1.20152">
        <ele>56</ele>
        <time>2025-08-02T09:50:26.000Z</time>
      </trkpt>
      <trkpt lat="47.35681" lon="-1.2015">
        <ele>55</ele>
        <time>2025-08-02T09:50:27.000Z</time>
      </trkpt>
      <trkpt lat="47.35681" lon="-1.20149">
        <ele>55</ele>
        <time>2025-08-02T09:50:28.000Z</time>
      </trkpt>
      <trkpt lat="47.35683" lon="-1.20147">
        <ele>55</ele>
        <time>2025-08-02T09:50:29.000Z</time>
      </trkpt>
      <trkpt lat="47.35683" lon="-1.20146">
        <ele>55</ele>
        <time>2025-08-02T09:50:30.000Z</time>
      </trkpt>
      <trkpt lat="47.35684" lon="-1.20146">
        <ele>55</ele>
        <time>2025-08-02T09:50:31.000Z</time>
      </trkpt>
      <trkpt lat="47.35685" lon="-1.20145">
        <ele>55</ele>
        <time>2025-08-02T09:50:32.000Z</time>
      </trkpt>
      <trkpt lat="47.35686" lon="-1.20144">
        <ele>55</ele>
        <time>2025-08-02T09:50:33.000Z</time>
      </trkpt>
      <trkpt lat="47.35687" lon="-1.20143">
        <ele>55</ele>
        <time>2025-08-02T09:50:34.000Z</time>
      </trkpt>
      <trkpt lat="47.35688" lon="-1.20142">
        <ele>55</ele>
        <time>2025-08-02T09:50:35.000Z</time>
      </trkpt>
      <trkpt lat="47.35689" lon="-1.20141">
        <ele>56</ele>
        <time>2025-08-02T09:50:36.000Z</time>
      </trkpt>
      <trkpt lat="47.3569" lon="-1.2014">
        <ele>56</ele>
        <time>2025-08-02T09:50:37.000Z</time>
      </trkpt>
      <trkpt lat="47.35691" lon="-1.2014">
        <ele>56</ele>
        <time>2025-08-02T09:50:38.000Z</time>
      </trkpt>
      <trkpt lat="47.35692" lon="-1.20139">
        <ele>56</ele>
        <time>2025-08-02T09:50:39.000Z</time>
      </trkpt>
      <trkpt lat="47.35693" lon="-1.20139">
        <ele>57</ele>
        <time>2025-08-02T09:50:40.000Z</time>
      </trkpt>
      <trkpt lat="47.35694" lon="-1.20138">
        <ele>57</ele>
        <time>2025-08-02T09:50:41.000Z</time>
      </trkpt>
      <trkpt lat="47.35695" lon="-1.20138">
        <ele>57</ele>
        <time>2025-08-02T09:50:42.000Z</time>
      </trkpt>
      <trkpt lat="47.35696" lon="-1.20138">
        <ele>57</ele>
        <time>2025-08-02T09:50:43.000Z</time>
      </trkpt>
      <trkpt lat="47.35697" lon="-1.20138">
        <ele>58</ele>
        <time>2025-08-02T09:50:44.000Z</time>
      </trkpt>
      <trkpt lat="47.35698" lon="-1.20137">
        <ele>58</ele>
        <time>2025-08-02T09:50:45.000Z</time>
      </trkpt>
      <trkpt lat="47.357" lon="-1.20137">
        <ele>58</ele>
        <time>2025-08-02T09:50:46.000Z</time>
      </trkpt>
      <trkpt lat="47.35701" lon="-1.20137">
        <ele>58</ele>
        <time>2025-08-02T09:50:47.000Z</time>
      </trkpt>
      <trkpt lat="47.35702" lon="-1.20135">
        <ele>58</ele>
        <time>2025-08-02T09:50:48.000Z</time>
      </trkpt>
      <trkpt lat="47.35704" lon="-1.20133">
        <ele>57</ele>
        <time>2025-08-02T09:50:49.000Z</time>
      </trkpt>
      <trkpt lat="47.35705" lon="-1.20132">
        <ele>57</ele>
        <time>2025-08-02T09:50:50.000Z</time>
      </trkpt>
      <trkpt lat="47.35706" lon="-1.20131">
        <ele>57</ele>
        <time>2025-08-02T09:50:51.000Z</time>
      </trkpt>
      <trkpt lat="47.35708" lon="-1.20131">
        <ele>57</ele>
        <time>2025-08-02T09:50:52.000Z</time>
      </trkpt>
      <trkpt lat="47.35709" lon="-1.20132">
        <ele>57</ele>
        <time>2025-08-02T09:50:53.000Z</time>
      </trkpt>
      <trkpt lat="47.3571" lon="-1.20133">
        <ele>57</ele>
        <time>2025-08-02T09:50:54.000Z</time>
      </trkpt>
      <trkpt lat="47.3571" lon="-1.20132">
        <ele>57</ele>
        <time>2025-08-02T09:50:55.000Z</time>
      </trkpt>
      <trkpt lat="47.35711" lon="-1.20132">
        <ele>57</ele>
        <time>2025-08-02T09:50:56.000Z</time>
      </trkpt>
      <trkpt lat="47.35711" lon="-1.20132">
        <ele>57</ele>
        <time>2025-08-02T09:50:57.000Z</time>
      </trkpt>
      <trkpt lat="47.35711" lon="-1.20132">
        <ele>57</ele>
        <time>2025-08-02T09:50:58.000Z</time>
      </trkpt>
      <trkpt lat="47.35713" lon="-1.20131">
        <ele>58</ele>
        <time>2025-08-02T09:50:59.000Z</time>
      </trkpt>
      <trkpt lat="47.35714" lon="-1.20129">
        <ele>58</ele>
        <time>2025-08-02T09:51:00.000Z</time>
      </trkpt>
      <trkpt lat="47.35715" lon="-1.20128">
        <ele>58</ele>
        <time>2025-08-02T09:51:01.000Z</time>
      </trkpt>
      <trkpt lat="47.35716" lon="-1.20127">
        <ele>57</ele>
        <time>2025-08-02T09:51:02.000Z</time>
      </trkpt>
      <trkpt lat="47.35717" lon="-1.20127">
        <ele>57</ele>
        <time>2025-08-02T09:51:03.000Z</time>
      </trkpt>
      <trkpt lat="47.35718" lon="-1.20126">
        <ele>58</ele>
        <time>2025-08-02T09:51:04.000Z</time>
      </trkpt>
      <trkpt lat="47.3572" lon="-1.20125">
        <ele>58</ele>
        <time>2025-08-02T09:51:05.000Z</time>
      </trkpt>
      <trkpt lat="47.35721" lon="-1.20124">
        <ele>59</ele>
        <time>2025-08-02T09:51:06.000Z</time>
      </trkpt>
      <trkpt lat="47.35722" lon="-1.20123">
        <ele>59</ele>
        <time>2025-08-02T09:51:07.000Z</time>
      </trkpt>
      <trkpt lat="47.35723" lon="-1.20123">
        <ele>60</ele>
        <time>2025-08-02T09:51:08.000Z</time>
      </trkpt>
      <trkpt lat="47.35725" lon="-1.20123">
        <ele>60</ele>
        <time>2025-08-02T09:51:09.000Z</time>
      </trkpt>
      <trkpt lat="47.35726" lon="-1.20122">
        <ele>59</ele>
        <time>2025-08-02T09:51:10.000Z</time>
      </trkpt>
      <trkpt lat="47.35728" lon="-1.20122">
        <ele>59</ele>
        <time>2025-08-02T09:51:11.000Z</time>
      </trkpt>
      <trkpt lat="47.35729" lon="-1.20122">
        <ele>59</ele>
        <time>2025-08-02T09:51:12.000Z</time>
      </trkpt>
      <trkpt lat="47.35731" lon="-1.20121">
        <ele>59</ele>
        <time>2025-08-02T09:51:13.000Z</time>
      </trkpt>
      <trkpt lat="47.35732" lon="-1.20121">
        <ele>59</ele>
        <time>2025-08-02T09:51:14.000Z</time>
      </trkpt>
      <trkpt lat="47.35733" lon="-1.2012">
        <ele>59</ele>
        <time>2025-08-02T09:51:15.000Z</time>
      </trkpt>
      <trkpt lat="47.35734" lon="-1.2012">
        <ele>59</ele>
        <time>2025-08-02T09:51:16.000Z</time>
      </trkpt>
      <trkpt lat="47.35735" lon="-1.20119">
        <ele>59</ele>
        <time>2025-08-02T09:51:17.000Z</time>
      </trkpt>
      <trkpt lat="47.35736" lon="-1.20118">
        <ele>59</ele>
        <time>2025-08-02T09:51:18.000Z</time>
      </trkpt>
      <trkpt lat="47.35738" lon="-1.20118">
        <ele>59</ele>
        <time>2025-08-02T09:51:19.000Z</time>
      </trkpt>
      <trkpt lat="47.35739" lon="-1.20117">
        <ele>59</ele>
        <time>2025-08-02T09:51:20.000Z</time>
      </trkpt>
      <trkpt lat="47.3574" lon="-1.20116">
        <ele>60</ele>
        <time>2025-08-02T09:51:21.000Z</time>
      </trkpt>
      <trkpt lat="47.35742" lon="-1.20116">
        <ele>60</ele>
        <time>2025-08-02T09:51:22.000Z</time>
      </trkpt>
      <trkpt lat="47.35743" lon="-1.20116">
        <ele>60</ele>
        <time>2025-08-02T09:51:23.000Z</time>
      </trkpt>
      <trkpt lat="47.35745" lon="-1.20117">
        <ele>60</ele>
        <time>2025-08-02T09:51:24.000Z</time>
      </trkpt>
      <trkpt lat="47.35745" lon="-1.20118">
        <ele>59</ele>
        <time>2025-08-02T09:51:25.000Z</time>
      </trkpt>
      <trkpt lat="47.35746" lon="-1.20119">
        <ele>59</ele>
        <time>2025-08-02T09:51:26.000Z</time>
      </trkpt>
      <trkpt lat="47.35747" lon="-1.2012">
        <ele>59</ele>
        <time>2025-08-02T09:51:27.000Z</time>
      </trkpt>
      <trkpt lat="47.35748" lon="-1.20121">
        <ele>60</ele>
        <time>2025-08-02T09:51:28.000Z</time>
      </trkpt>
      <trkpt lat="47.35749" lon="-1.20122">
        <ele>60</ele>
        <time>2025-08-02T09:51:29.000Z</time>
      </trkpt>
      <trkpt lat="47.3575" lon="-1.20123">
        <ele>60</ele>
        <time>2025-08-02T09:51:30.000Z</time>
      </trkpt>
      <trkpt lat="47.35751" lon="-1.20124">
        <ele>61</ele>
        <time>2025-08-02T09:51:31.000Z</time>
      </trkpt>
      <trkpt lat="47.35753" lon="-1.20125">
        <ele>61</ele>
        <time>2025-08-02T09:51:32.000Z</time>
      </trkpt>
      <trkpt lat="47.35754" lon="-1.20125">
        <ele>61</ele>
        <time>2025-08-02T09:51:33.000Z</time>
      </trkpt>
      <trkpt lat="47.35756" lon="-1.20125">
        <ele>61</ele>
        <time>2025-08-02T09:51:34.000Z</time>
      </trkpt>
      <trkpt lat="47.35757" lon="-1.20125">
        <ele>61</ele>
        <time>2025-08-02T09:51:35.000Z</time>
      </trkpt>
      <trkpt lat="47.35758" lon="-1.20125">
        <ele>61</ele>
        <time>2025-08-02T09:51:36.000Z</time>
      </trkpt>
      <trkpt lat="47.35759" lon="-1.20125">
        <ele>61</ele>
        <time>2025-08-02T09:51:37.000Z</time>
      </trkpt>
      <trkpt lat="47.3576" lon="-1.20125">
        <ele>62</ele>
        <time>2025-08-02T09:51:38.000Z</time>
      </trkpt>
      <trkpt lat="47.35761" lon="-1.20127">
        <ele>62</ele>
        <time>2025-08-02T09:51:39.000Z</time>
      </trkpt>
      <trkpt lat="47.35763" lon="-1.20127">
        <ele>62</ele>
        <time>2025-08-02T09:51:40.000Z</time>
      </trkpt>
      <trkpt lat="47.35763" lon="-1.20128">
        <ele>62</ele>
        <time>2025-08-02T09:51:41.000Z</time>
      </trkpt>
      <trkpt lat="47.35764" lon="-1.20128">
        <ele>62</ele>
        <time>2025-08-02T09:51:42.000Z</time>
      </trkpt>
      <trkpt lat="47.35766" lon="-1.20129">
        <ele>62</ele>
        <time>2025-08-02T09:51:43.000Z</time>
      </trkpt>
      <trkpt lat="47.35767" lon="-1.20129">
        <ele>63</ele>
        <time>2025-08-02T09:51:44.000Z</time>
      </trkpt>
      <trkpt lat="47.35768" lon="-1.2013">
        <ele>62</ele>
        <time>2025-08-02T09:51:45.000Z</time>
      </trkpt>
      <trkpt lat="47.35769" lon="-1.2013">
        <ele>62</ele>
        <time>2025-08-02T09:51:46.000Z</time>
      </trkpt>
      <trkpt lat="47.35769" lon="-1.2013">
        <ele>62</ele>
        <time>2025-08-02T09:51:47.000Z</time>
      </trkpt>
      <trkpt lat="47.3577" lon="-1.20131">
        <ele>63</ele>
        <time>2025-08-02T09:51:48.000Z</time>
      </trkpt>
      <trkpt lat="47.35771" lon="-1.20131">
        <ele>63</ele>
        <time>2025-08-02T09:51:49.000Z</time>
      </trkpt>
      <trkpt lat="47.35772" lon="-1.20132">
        <ele>64</ele>
        <time>2025-08-02T09:51:50.000Z</time>
      </trkpt>
      <trkpt lat="47.35773" lon="-1.20133">
        <ele>63</ele>
        <time>2025-08-02T09:51:51.000Z</time>
      </trkpt>
      <trkpt lat="47.35776" lon="-1.20133">
        <ele>64</ele>
        <time>2025-08-02T09:51:52.000Z</time>
      </trkpt>
      <trkpt lat="47.35777" lon="-1.20133">
        <ele>65</ele>
        <time>2025-08-02T09:51:53.000Z</time>
      </trkpt>
      <trkpt lat="47.35779" lon="-1.20133">
        <ele>64</ele>
        <time>2025-08-02T09:51:54.000Z</time>
      </trkpt>
      <trkpt lat="47.35781" lon="-1.20133">
        <ele>64</ele>
        <time>2025-08-02T09:51:55.000Z</time>
      </trkpt>
      <trkpt lat="47.35782" lon="-1.20133">
        <ele>64</ele>
        <time>2025-08-02T09:51:56.000Z</time>
      </trkpt>
      <trkpt lat="47.35783" lon="-1.20132">
        <ele>64</ele>
        <time>2025-08-02T09:51:57.000Z</time>
      </trkpt>
      <trkpt lat="47.35785" lon="-1.20131">
        <ele>63</ele>
        <time>2025-08-02T09:51:58.000Z</time>
      </trkpt>
      <trkpt lat="47.35786" lon="-1.20131">
        <ele>63</ele>
        <time>2025-08-02T09:51:59.000Z</time>
      </trkpt>
      <trkpt lat="47.35787" lon="-1.20131">
        <ele>63</ele>
        <time>2025-08-02T09:52:00.000Z</time>
      </trkpt>
      <trkpt lat="47.35788" lon="-1.2013">
        <ele>62</ele>
        <time>2025-08-02T09:52:01.000Z</time>
      </trkpt>
      <trkpt lat="47.3579" lon="-1.20131">
        <ele>63</ele>
        <time>2025-08-02T09:52:02.000Z</time>
      </trkpt>
      <trkpt lat="47.35791" lon="-1.20131">
        <ele>63</ele>
        <time>2025-08-02T09:52:03.000Z</time>
      </trkpt>
      <trkpt lat="47.35792" lon="-1.20131">
        <ele>63</ele>
        <time>2025-08-02T09:52:04.000Z</time>
      </trkpt>
      <trkpt lat="47.35793" lon="-1.20131">
        <ele>64</ele>
        <time>2025-08-02T09:52:05.000Z</time>
      </trkpt>
      <trkpt lat="47.35794" lon="-1.20131">
        <ele>64</ele>
        <time>2025-08-02T09:52:06.000Z</time>
      </trkpt>
      <trkpt lat="47.35795" lon="-1.20131">
        <ele>64</ele>
        <time>2025-08-02T09:52:07.000Z</time>
      </trkpt>
      <trkpt lat="47.35796" lon="-1.20131">
        <ele>64</ele>
        <time>2025-08-02T09:52:08.000Z</time>
      </trkpt>
      <trkpt lat="47.35798" lon="-1.20132">
        <ele>64</ele>
        <time>2025-08-02T09:52:09.000Z</time>
      </trkpt>
      <trkpt lat="47.35799" lon="-1.20132">
        <ele>64</ele>
        <time>2025-08-02T09:52:10.000Z</time>
      </trkpt>
      <trkpt lat="47.358" lon="-1.20132">
        <ele>64</ele>
        <time>2025-08-02T09:52:11.000Z</time>
      </trkpt>
      <trkpt lat="47.35801" lon="-1.20132">
        <ele>63</ele>
        <time>2025-08-02T09:52:12.000Z</time>
      </trkpt>
      <trkpt lat="47.35802" lon="-1.20133">
        <ele>63</ele>
        <time>2025-08-02T09:52:13.000Z</time>
      </trkpt>
      <trkpt lat="47.35803" lon="-1.20133">
        <ele>63</ele>
        <time>2025-08-02T09:52:14.000Z</time>
      </trkpt>
      <trkpt lat="47.35804" lon="-1.20133">
        <ele>62</ele>
        <time>2025-08-02T09:52:15.000Z</time>
      </trkpt>
      <trkpt lat="47.35807" lon="-1.20134">
        <ele>62</ele>
        <time>2025-08-02T09:52:16.000Z</time>
      </trkpt>
      <trkpt lat="47.35809" lon="-1.20134">
        <ele>62</ele>
        <time>2025-08-02T09:52:17.000Z</time>
      </trkpt>
      <trkpt lat="47.3581" lon="-1.20134">
        <ele>62</ele>
        <time>2025-08-02T09:52:18.000Z</time>
      </trkpt>
      <trkpt lat="47.35811" lon="-1.20135">
        <ele>61</ele>
        <time>2025-08-02T09:52:19.000Z</time>
      </trkpt>
      <trkpt lat="47.35812" lon="-1.20136">
        <ele>62</ele>
        <time>2025-08-02T09:52:20.000Z</time>
      </trkpt>
      <trkpt lat="47.35813" lon="-1.20137">
        <ele>62</ele>
        <time>2025-08-02T09:52:21.000Z</time>
      </trkpt>
      <trkpt lat="47.35815" lon="-1.20139">
        <ele>63</ele>
        <time>2025-08-02T09:52:22.000Z</time>
      </trkpt>
      <trkpt lat="47.35816" lon="-1.20141">
        <ele>64</ele>
        <time>2025-08-02T09:52:23.000Z</time>
      </trkpt>
      <trkpt lat="47.35817" lon="-1.20143">
        <ele>64</ele>
        <time>2025-08-02T09:52:24.000Z</time>
      </trkpt>
      <trkpt lat="47.35818" lon="-1.20144">
        <ele>65</ele>
        <time>2025-08-02T09:52:25.000Z</time>
      </trkpt>
      <trkpt lat="47.3582" lon="-1.20146">
        <ele>66</ele>
        <time>2025-08-02T09:52:26.000Z</time>
      </trkpt>
      <trkpt lat="47.35822" lon="-1.20146">
        <ele>66</ele>
        <time>2025-08-02T09:52:27.000Z</time>
      </trkpt>
      <trkpt lat="47.35824" lon="-1.20146">
        <ele>66</ele>
        <time>2025-08-02T09:52:28.000Z</time>
      </trkpt>
      <trkpt lat="47.35825" lon="-1.20147">
        <ele>67</ele>
        <time>2025-08-02T09:52:29.000Z</time>
      </trkpt>
      <trkpt lat="47.35826" lon="-1.20147">
        <ele>66</ele>
        <time>2025-08-02T09:52:30.000Z</time>
      </trkpt>
      <trkpt lat="47.35827" lon="-1.20146">
        <ele>66</ele>
        <time>2025-08-02T09:52:31.000Z</time>
      </trkpt>
      <trkpt lat="47.35828" lon="-1.20146">
        <ele>66</ele>
        <time>2025-08-02T09:52:32.000Z</time>
      </trkpt>
      <trkpt lat="47.35829" lon="-1.20146">
        <ele>66</ele>
        <time>2025-08-02T09:52:33.000Z</time>
      </trkpt>
      <trkpt lat="47.3583" lon="-1.20146">
        <ele>66</ele>
        <time>2025-08-02T09:52:34.000Z</time>
      </trkpt>
      <trkpt lat="47.35831" lon="-1.20146">
        <ele>66</ele>
        <time>2025-08-02T09:52:35.000Z</time>
      </trkpt>
      <trkpt lat="47.35833" lon="-1.20146">
        <ele>66</ele>
        <time>2025-08-02T09:52:36.000Z</time>
      </trkpt>
      <trkpt lat="47.35835" lon="-1.20148">
        <ele>66</ele>
        <time>2025-08-02T09:52:37.000Z</time>
      </trkpt>
      <trkpt lat="47.35836" lon="-1.20148">
        <ele>65</ele>
        <time>2025-08-02T09:52:38.000Z</time>
      </trkpt>
      <trkpt lat="47.35837" lon="-1.2015">
        <ele>66</ele>
        <time>2025-08-02T09:52:39.000Z</time>
      </trkpt>
      <trkpt lat="47.35839" lon="-1.2015">
        <ele>66</ele>
        <time>2025-08-02T09:52:40.000Z</time>
      </trkpt>
      <trkpt lat="47.3584" lon="-1.2015">
        <ele>66</ele>
        <time>2025-08-02T09:52:41.000Z</time>
      </trkpt>
      <trkpt lat="47.35842" lon="-1.2015">
        <ele>66</ele>
        <time>2025-08-02T09:52:42.000Z</time>
      </trkpt>
      <trkpt lat="47.35843" lon="-1.2015">
        <ele>65</ele>
        <time>2025-08-02T09:52:43.000Z</time>
      </trkpt>
      <trkpt lat="47.35844" lon="-1.20151">
        <ele>65</ele>
        <time>2025-08-02T09:52:44.000Z</time>
      </trkpt>
      <trkpt lat="47.35844" lon="-1.20151">
        <ele>65</ele>
        <time>2025-08-02T09:52:45.000Z</time>
      </trkpt>
      <trkpt lat="47.35845" lon="-1.20152">
        <ele>65</ele>
        <time>2025-08-02T09:52:46.000Z</time>
      </trkpt>
      <trkpt lat="47.35846" lon="-1.20152">
        <ele>65</ele>
        <time>2025-08-02T09:52:47.000Z</time>
      </trkpt>
      <trkpt lat="47.35847" lon="-1.20152">
        <ele>65</ele>
        <time>2025-08-02T09:52:48.000Z</time>
      </trkpt>
      <trkpt lat="47.35849" lon="-1.20151">
        <ele>66</ele>
        <time>2025-08-02T09:52:49.000Z</time>
      </trkpt>
      <trkpt lat="47.3585" lon="-1.20151">
        <ele>66</ele>
        <time>2025-08-02T09:52:50.000Z</time>
      </trkpt>
      <trkpt lat="47.35851" lon="-1.2015">
        <ele>66</ele>
        <time>2025-08-02T09:52:51.000Z</time>
      </trkpt>
      <trkpt lat="47.35853" lon="-1.2015">
        <ele>66</ele>
        <time>2025-08-02T09:52:52.000Z</time>
      </trkpt>
      <trkpt lat="47.35855" lon="-1.2015">
        <ele>66</ele>
        <time>2025-08-02T09:52:53.000Z</time>
      </trkpt>
      <trkpt lat="47.35856" lon="-1.2015">
        <ele>66</ele>
        <time>2025-08-02T09:52:54.000Z</time>
      </trkpt>
      <trkpt lat="47.35858" lon="-1.2015">
        <ele>66</ele>
        <time>2025-08-02T09:52:55.000Z</time>
      </trkpt>
      <trkpt lat="47.35859" lon="-1.2015">
        <ele>65</ele>
        <time>2025-08-02T09:52:56.000Z</time>
      </trkpt>
      <trkpt lat="47.3586" lon="-1.20151">
        <ele>65</ele>
        <time>2025-08-02T09:52:57.000Z</time>
      </trkpt>
      <trkpt lat="47.35861" lon="-1.20151">
        <ele>65</ele>
        <time>2025-08-02T09:52:58.000Z</time>
      </trkpt>
      <trkpt lat="47.35863" lon="-1.20151">
        <ele>65</ele>
        <time>2025-08-02T09:52:59.000Z</time>
      </trkpt>
      <trkpt lat="47.35864" lon="-1.2015">
        <ele>64</ele>
        <time>2025-08-02T09:53:00.000Z</time>
      </trkpt>
      <trkpt lat="47.35866" lon="-1.2015">
        <ele>64</ele>
        <time>2025-08-02T09:53:01.000Z</time>
      </trkpt>
      <trkpt lat="47.35868" lon="-1.20149">
        <ele>64</ele>
        <time>2025-08-02T09:53:02.000Z</time>
      </trkpt>
      <trkpt lat="47.3587" lon="-1.20149">
        <ele>64</ele>
        <time>2025-08-02T09:53:03.000Z</time>
      </trkpt>
      <trkpt lat="47.35871" lon="-1.20149">
        <ele>64</ele>
        <time>2025-08-02T09:53:04.000Z</time>
      </trkpt>
      <trkpt lat="47.35873" lon="-1.2015">
        <ele>63</ele>
        <time>2025-08-02T09:53:05.000Z</time>
      </trkpt>
      <trkpt lat="47.35874" lon="-1.2015">
        <ele>63</ele>
        <time>2025-08-02T09:53:06.000Z</time>
      </trkpt>
      <trkpt lat="47.35876" lon="-1.20149">
        <ele>63</ele>
        <time>2025-08-02T09:53:07.000Z</time>
      </trkpt>
      <trkpt lat="47.35877" lon="-1.20149">
        <ele>63</ele>
        <time>2025-08-02T09:53:08.000Z</time>
      </trkpt>
      <trkpt lat="47.35878" lon="-1.20148">
        <ele>63</ele>
        <time>2025-08-02T09:53:09.000Z</time>
      </trkpt>
      <trkpt lat="47.35879" lon="-1.20147">
        <ele>63</ele>
        <time>2025-08-02T09:53:10.000Z</time>
      </trkpt>
      <trkpt lat="47.35881" lon="-1.20146">
        <ele>63</ele>
        <time>2025-08-02T09:53:11.000Z</time>
      </trkpt>
      <trkpt lat="47.35882" lon="-1.20146">
        <ele>63</ele>
        <time>2025-08-02T09:53:12.000Z</time>
      </trkpt>
      <trkpt lat="47.35884" lon="-1.20145">
        <ele>62</ele>
        <time>2025-08-02T09:53:13.000Z</time>
      </trkpt>
      <trkpt lat="47.35885" lon="-1.20146">
        <ele>62</ele>
        <time>2025-08-02T09:53:14.000Z</time>
      </trkpt>
      <trkpt lat="47.35887" lon="-1.20145">
        <ele>62</ele>
        <time>2025-08-02T09:53:15.000Z</time>
      </trkpt>
      <trkpt lat="47.35888" lon="-1.20145">
        <ele>61</ele>
        <time>2025-08-02T09:53:16.000Z</time>
      </trkpt>
      <trkpt lat="47.3589" lon="-1.20144">
        <ele>61</ele>
        <time>2025-08-02T09:53:17.000Z</time>
      </trkpt>
      <trkpt lat="47.35891" lon="-1.20143">
        <ele>61</ele>
        <time>2025-08-02T09:53:18.000Z</time>
      </trkpt>
      <trkpt lat="47.35892" lon="-1.20141">
        <ele>60</ele>
        <time>2025-08-02T09:53:19.000Z</time>
      </trkpt>
      <trkpt lat="47.35893" lon="-1.2014">
        <ele>60</ele>
        <time>2025-08-02T09:53:20.000Z</time>
      </trkpt>
      <trkpt lat="47.35894" lon="-1.20138">
        <ele>59</ele>
        <time>2025-08-02T09:53:21.000Z</time>
      </trkpt>
      <trkpt lat="47.35896" lon="-1.20137">
        <ele>58</ele>
        <time>2025-08-02T09:53:22.000Z</time>
      </trkpt>
      <trkpt lat="47.35897" lon="-1.20137">
        <ele>59</ele>
        <time>2025-08-02T09:53:23.000Z</time>
      </trkpt>
      <trkpt lat="47.35898" lon="-1.20136">
        <ele>59</ele>
        <time>2025-08-02T09:53:24.000Z</time>
      </trkpt>
      <trkpt lat="47.35899" lon="-1.20136">
        <ele>59</ele>
        <time>2025-08-02T09:53:25.000Z</time>
      </trkpt>
      <trkpt lat="47.35901" lon="-1.20136">
        <ele>59</ele>
        <time>2025-08-02T09:53:26.000Z</time>
      </trkpt>
      <trkpt lat="47.35902" lon="-1.20135">
        <ele>59</ele>
        <time>2025-08-02T09:53:27.000Z</time>
      </trkpt>
      <trkpt lat="47.35903" lon="-1.20135">
        <ele>59</ele>
        <time>2025-08-02T09:53:28.000Z</time>
      </trkpt>
      <trkpt lat="47.35904" lon="-1.20134">
        <ele>59</ele>
        <time>2025-08-02T09:53:29.000Z</time>
      </trkpt>
      <trkpt lat="47.35905" lon="-1.20134">
        <ele>60</ele>
        <time>2025-08-02T09:53:30.000Z</time>
      </trkpt>
      <trkpt lat="47.35906" lon="-1.20133">
        <ele>60</ele>
        <time>2025-08-02T09:53:31.000Z</time>
      </trkpt>
      <trkpt lat="47.35907" lon="-1.20131">
        <ele>60</ele>
        <time>2025-08-02T09:53:32.000Z</time>
      </trkpt>
      <trkpt lat="47.35908" lon="-1.2013">
        <ele>60</ele>
        <time>2025-08-02T09:53:33.000Z</time>
      </trkpt>
      <trkpt lat="47.35908" lon="-1.20128">
        <ele>60</ele>
        <time>2025-08-02T09:53:34.000Z</time>
      </trkpt>
      <trkpt lat="47.35909" lon="-1.20127">
        <ele>60</ele>
        <time>2025-08-02T09:53:35.000Z</time>
      </trkpt>
      <trkpt lat="47.3591" lon="-1.20125">
        <ele>59</ele>
        <time>2025-08-02T09:53:36.000Z</time>
      </trkpt>
      <trkpt lat="47.3591" lon="-1.20125">
        <ele>59</ele>
        <time>2025-08-02T09:53:37.000Z</time>
      </trkpt>
      <trkpt lat="47.35911" lon="-1.20123">
        <ele>59</ele>
        <time>2025-08-02T09:53:38.000Z</time>
      </trkpt>
      <trkpt lat="47.35912" lon="-1.20122">
        <ele>58</ele>
        <time>2025-08-02T09:53:39.000Z</time>
      </trkpt>
      <trkpt lat="47.35912" lon="-1.20121">
        <ele>58</ele>
        <time>2025-08-02T09:53:40.000Z</time>
      </trkpt>
      <trkpt lat="47.35913" lon="-1.2012">
        <ele>58</ele>
        <time>2025-08-02T09:53:41.000Z</time>
      </trkpt>
      <trkpt lat="47.35914" lon="-1.20119">
        <ele>58</ele>
        <time>2025-08-02T09:53:42.000Z</time>
      </trkpt>
      <trkpt lat="47.35915" lon="-1.20118">
        <ele>59</ele>
        <time>2025-08-02T09:53:43.000Z</time>
      </trkpt>
      <trkpt lat="47.35916" lon="-1.20116">
        <ele>59</ele>
        <time>2025-08-02T09:53:44.000Z</time>
      </trkpt>
      <trkpt lat="47.35917" lon="-1.20115">
        <ele>59</ele>
        <time>2025-08-02T09:53:45.000Z</time>
      </trkpt>
      <trkpt lat="47.35918" lon="-1.20113">
        <ele>59</ele>
        <time>2025-08-02T09:53:46.000Z</time>
      </trkpt>
      <trkpt lat="47.35918" lon="-1.20112">
        <ele>59</ele>
        <time>2025-08-02T09:53:47.000Z</time>
      </trkpt>
      <trkpt lat="47.35919" lon="-1.20112">
        <ele>59</ele>
        <time>2025-08-02T09:53:48.000Z</time>
      </trkpt>
      <trkpt lat="47.3592" lon="-1.20111">
        <ele>58</ele>
        <time>2025-08-02T09:53:49.000Z</time>
      </trkpt>
      <trkpt lat="47.35921" lon="-1.20111">
        <ele>58</ele>
        <time>2025-08-02T09:53:50.000Z</time>
      </trkpt>
      <trkpt lat="47.35922" lon="-1.20109">
        <ele>58</ele>
        <time>2025-08-02T09:53:51.000Z</time>
      </trkpt>
      <trkpt lat="47.35923" lon="-1.20109">
        <ele>57</ele>
        <time>2025-08-02T09:53:52.000Z</time>
      </trkpt>
      <trkpt lat="47.35923" lon="-1.20109">
        <ele>56</ele>
        <time>2025-08-02T09:53:53.000Z</time>
      </trkpt>
      <trkpt lat="47.35924" lon="-1.20109">
        <ele>56</ele>
        <time>2025-08-02T09:53:54.000Z</time>
      </trkpt>
      <trkpt lat="47.35924" lon="-1.20109">
        <ele>56</ele>
        <time>2025-08-02T09:53:55.000Z</time>
      </trkpt>
      <trkpt lat="47.35925" lon="-1.20109">
        <ele>56</ele>
        <time>2025-08-02T09:53:56.000Z</time>
      </trkpt>
      <trkpt lat="47.35925" lon="-1.20109">
        <ele>56</ele>
        <time>2025-08-02T09:53:57.000Z</time>
      </trkpt>
      <trkpt lat="47.35925" lon="-1.20109">
        <ele>56</ele>
        <time>2025-08-02T09:53:58.000Z</time>
      </trkpt>
      <trkpt lat="47.35925" lon="-1.20108">
        <ele>55</ele>
        <time>2025-08-02T09:53:59.000Z</time>
      </trkpt>
      <trkpt lat="47.35926" lon="-1.20108">
        <ele>55</ele>
        <time>2025-08-02T09:54:00.000Z</time>
      </trkpt>
      <trkpt lat="47.35926" lon="-1.20107">
        <ele>54</ele>
        <time>2025-08-02T09:54:01.000Z</time>
      </trkpt>
      <trkpt lat="47.35926" lon="-1.20107">
        <ele>54</ele>
        <time>2025-08-02T09:54:02.000Z</time>
      </trkpt>
      <trkpt lat="47.35927" lon="-1.20107">
        <ele>54</ele>
        <time>2025-08-02T09:54:03.000Z</time>
      </trkpt>
      <trkpt lat="47.35928" lon="-1.20107">
        <ele>54</ele>
        <time>2025-08-02T09:54:04.000Z</time>
      </trkpt>
      <trkpt lat="47.35928" lon="-1.20107">
        <ele>54</ele>
        <time>2025-08-02T09:54:05.000Z</time>
      </trkpt>
      <trkpt lat="47.35928" lon="-1.20107">
        <ele>54</ele>
        <time>2025-08-02T09:54:06.000Z</time>
      </trkpt>
      <trkpt lat="47.35929" lon="-1.20107">
        <ele>52</ele>
        <time>2025-08-02T09:54:07.000Z</time>
      </trkpt>
      <trkpt lat="47.35929" lon="-1.20107">
        <ele>53</ele>
        <time>2025-08-02T09:54:08.000Z</time>
      </trkpt>
      <trkpt lat="47.35929" lon="-1.20107">
        <ele>53</ele>
        <time>2025-08-02T09:54:09.000Z</time>
      </trkpt>
      <trkpt lat="47.35929" lon="-1.20107">
        <ele>52</ele>
        <time>2025-08-02T09:54:10.000Z</time>
      </trkpt>
      <trkpt lat="47.35929" lon="-1.20107">
        <ele>52</ele>
        <time>2025-08-02T09:54:11.000Z</time>
      </trkpt>
      <trkpt lat="47.35929" lon="-1.20107">
        <ele>52</ele>
        <time>2025-08-02T09:54:12.000Z</time>
      </trkpt>
      <trkpt lat="47.3593" lon="-1.20106">
        <ele>52</ele>
        <time>2025-08-02T09:54:13.000Z</time>
      </trkpt>
      <trkpt lat="47.3593" lon="-1.20106">
        <ele>51</ele>
        <time>2025-08-02T09:54:14.000Z</time>
      </trkpt>
      <trkpt lat="47.35931" lon="-1.20104">
        <ele>51</ele>
        <time>2025-08-02T09:54:15.000Z</time>
      </trkpt>
      <trkpt lat="47.35932" lon="-1.20102">
        <ele>52</ele>
        <time>2025-08-02T09:54:16.000Z</time>
      </trkpt>
      <trkpt lat="47.35933" lon="-1.201">
        <ele>52</ele>
        <time>2025-08-02T09:54:17.000Z</time>
      </trkpt>
      <trkpt lat="47.35934" lon="-1.20099">
        <ele>52</ele>
        <time>2025-08-02T09:54:18.000Z</time>
      </trkpt>
      <trkpt lat="47.35935" lon="-1.20098">
        <ele>51</ele>
        <time>2025-08-02T09:54:19.000Z</time>
      </trkpt>
      <trkpt lat="47.35935" lon="-1.20096">
        <ele>51</ele>
        <time>2025-08-02T09:54:20.000Z</time>
      </trkpt>
      <trkpt lat="47.35936" lon="-1.20095">
        <ele>51</ele>
        <time>2025-08-02T09:54:21.000Z</time>
      </trkpt>
      <trkpt lat="47.35937" lon="-1.20095">
        <ele>51</ele>
        <time>2025-08-02T09:54:22.000Z</time>
      </trkpt>
      <trkpt lat="47.35938" lon="-1.20094">
        <ele>51</ele>
        <time>2025-08-02T09:54:23.000Z</time>
      </trkpt>
      <trkpt lat="47.35939" lon="-1.20093">
        <ele>50</ele>
        <time>2025-08-02T09:54:24.000Z</time>
      </trkpt>
      <trkpt lat="47.3594" lon="-1.20091">
        <ele>50</ele>
        <time>2025-08-02T09:54:25.000Z</time>
      </trkpt>
      <trkpt lat="47.3594" lon="-1.2009">
        <ele>50</ele>
        <time>2025-08-02T09:54:26.000Z</time>
      </trkpt>
      <trkpt lat="47.35941" lon="-1.20089">
        <ele>50</ele>
        <time>2025-08-02T09:54:27.000Z</time>
      </trkpt>
      <trkpt lat="47.35941" lon="-1.20088">
        <ele>50</ele>
        <time>2025-08-02T09:54:28.000Z</time>
      </trkpt>
      <trkpt lat="47.35942" lon="-1.20087">
        <ele>51</ele>
        <time>2025-08-02T09:54:29.000Z</time>
      </trkpt>
      <trkpt lat="47.35943" lon="-1.20086">
        <ele>51</ele>
        <time>2025-08-02T09:54:30.000Z</time>
      </trkpt>
      <trkpt lat="47.35944" lon="-1.20085">
        <ele>51</ele>
        <time>2025-08-02T09:54:31.000Z</time>
      </trkpt>
      <trkpt lat="47.35945" lon="-1.20084">
        <ele>50</ele>
        <time>2025-08-02T09:54:32.000Z</time>
      </trkpt>
      <trkpt lat="47.35946" lon="-1.20083">
        <ele>50</ele>
        <time>2025-08-02T09:54:33.000Z</time>
      </trkpt>
      <trkpt lat="47.35948" lon="-1.20081">
        <ele>51</ele>
        <time>2025-08-02T09:54:34.000Z</time>
      </trkpt>
      <trkpt lat="47.35949" lon="-1.2008">
        <ele>50</ele>
        <time>2025-08-02T09:54:35.000Z</time>
      </trkpt>
      <trkpt lat="47.3595" lon="-1.20078">
        <ele>50</ele>
        <time>2025-08-02T09:54:36.000Z</time>
      </trkpt>
      <trkpt lat="47.35951" lon="-1.20077">
        <ele>50</ele>
        <time>2025-08-02T09:54:37.000Z</time>
      </trkpt>
      <trkpt lat="47.35952" lon="-1.20076">
        <ele>49</ele>
        <time>2025-08-02T09:54:38.000Z</time>
      </trkpt>
      <trkpt lat="47.35952" lon="-1.20075">
        <ele>49</ele>
        <time>2025-08-02T09:54:39.000Z</time>
      </trkpt>
      <trkpt lat="47.35953" lon="-1.20074">
        <ele>49</ele>
        <time>2025-08-02T09:54:40.000Z</time>
      </trkpt>
      <trkpt lat="47.35954" lon="-1.20074">
        <ele>48</ele>
        <time>2025-08-02T09:54:41.000Z</time>
      </trkpt>
      <trkpt lat="47.35955" lon="-1.20073">
        <ele>48</ele>
        <time>2025-08-02T09:54:42.000Z</time>
      </trkpt>
      <trkpt lat="47.35956" lon="-1.20071">
        <ele>48</ele>
        <time>2025-08-02T09:54:43.000Z</time>
      </trkpt>
      <trkpt lat="47.35957" lon="-1.2007">
        <ele>48</ele>
        <time>2025-08-02T09:54:44.000Z</time>
      </trkpt>
      <trkpt lat="47.35957" lon="-1.20069">
        <ele>48</ele>
        <time>2025-08-02T09:54:45.000Z</time>
      </trkpt>
      <trkpt lat="47.35958" lon="-1.20068">
        <ele>48</ele>
        <time>2025-08-02T09:54:46.000Z</time>
      </trkpt>
      <trkpt lat="47.35959" lon="-1.20067">
        <ele>48</ele>
        <time>2025-08-02T09:54:47.000Z</time>
      </trkpt>
      <trkpt lat="47.3596" lon="-1.20066">
        <ele>49</ele>
        <time>2025-08-02T09:54:48.000Z</time>
      </trkpt>
      <trkpt lat="47.3596" lon="-1.20065">
        <ele>49</ele>
        <time>2025-08-02T09:54:49.000Z</time>
      </trkpt>
      <trkpt lat="47.35962" lon="-1.20064">
        <ele>50</ele>
        <time>2025-08-02T09:54:50.000Z</time>
      </trkpt>
      <trkpt lat="47.35963" lon="-1.20062">
        <ele>50</ele>
        <time>2025-08-02T09:54:51.000Z</time>
      </trkpt>
      <trkpt lat="47.35964" lon="-1.20061">
        <ele>50</ele>
        <time>2025-08-02T09:54:52.000Z</time>
      </trkpt>
      <trkpt lat="47.35965" lon="-1.2006">
        <ele>50</ele>
        <time>2025-08-02T09:54:53.000Z</time>
      </trkpt>
      <trkpt lat="47.35966" lon="-1.20059">
        <ele>50</ele>
        <time>2025-08-02T09:54:54.000Z</time>
      </trkpt>
      <trkpt lat="47.35967" lon="-1.20057">
        <ele>50</ele>
        <time>2025-08-02T09:54:55.000Z</time>
      </trkpt>
      <trkpt lat="47.35968" lon="-1.20055">
        <ele>49</ele>
        <time>2025-08-02T09:54:56.000Z</time>
      </trkpt>
      <trkpt lat="47.35969" lon="-1.20054">
        <ele>50</ele>
        <time>2025-08-02T09:54:57.000Z</time>
      </trkpt>
      <trkpt lat="47.35969" lon="-1.20054">
        <ele>49</ele>
        <time>2025-08-02T09:54:58.000Z</time>
      </trkpt>
      <trkpt lat="47.3597" lon="-1.20052">
        <ele>50</ele>
        <time>2025-08-02T09:54:59.000Z</time>
      </trkpt>
      <trkpt lat="47.3597" lon="-1.2005">
        <ele>49</ele>
        <time>2025-08-02T09:55:00.000Z</time>
      </trkpt>
      <trkpt lat="47.35971" lon="-1.20049">
        <ele>49</ele>
        <time>2025-08-02T09:55:01.000Z</time>
      </trkpt>
      <trkpt lat="47.35972" lon="-1.20047">
        <ele>49</ele>
        <time>2025-08-02T09:55:02.000Z</time>
      </trkpt>
      <trkpt lat="47.35974" lon="-1.20045">
        <ele>49</ele>
        <time>2025-08-02T09:55:03.000Z</time>
      </trkpt>
      <trkpt lat="47.35975" lon="-1.20043">
        <ele>49</ele>
        <time>2025-08-02T09:55:04.000Z</time>
      </trkpt>
      <trkpt lat="47.35976" lon="-1.20042">
        <ele>49</ele>
        <time>2025-08-02T09:55:05.000Z</time>
      </trkpt>
      <trkpt lat="47.35977" lon="-1.2004">
        <ele>49</ele>
        <time>2025-08-02T09:55:06.000Z</time>
      </trkpt>
      <trkpt lat="47.35977" lon="-1.20038">
        <ele>49</ele>
        <time>2025-08-02T09:55:07.000Z</time>
      </trkpt>
      <trkpt lat="47.35978" lon="-1.20037">
        <ele>50</ele>
        <time>2025-08-02T09:55:08.000Z</time>
      </trkpt>
      <trkpt lat="47.35979" lon="-1.20036">
        <ele>50</ele>
        <time>2025-08-02T09:55:09.000Z</time>
      </trkpt>
      <trkpt lat="47.3598" lon="-1.20034">
        <ele>50</ele>
        <time>2025-08-02T09:55:10.000Z</time>
      </trkpt>
      <trkpt lat="47.3598" lon="-1.20033">
        <ele>49</ele>
        <time>2025-08-02T09:55:11.000Z</time>
      </trkpt>
      <trkpt lat="47.3598" lon="-1.20032">
        <ele>49</ele>
        <time>2025-08-02T09:55:12.000Z</time>
      </trkpt>
      <trkpt lat="47.3598" lon="-1.20031">
        <ele>49</ele>
        <time>2025-08-02T09:55:13.000Z</time>
      </trkpt>
      <trkpt lat="47.35981" lon="-1.2003">
        <ele>49</ele>
        <time>2025-08-02T09:55:14.000Z</time>
      </trkpt>
      <trkpt lat="47.35982" lon="-1.20028">
        <ele>50</ele>
        <time>2025-08-02T09:55:15.000Z</time>
      </trkpt>
      <trkpt lat="47.35982" lon="-1.20026">
        <ele>50</ele>
        <time>2025-08-02T09:55:16.000Z</time>
      </trkpt>
      <trkpt lat="47.35983" lon="-1.20026">
        <ele>50</ele>
        <time>2025-08-02T09:55:17.000Z</time>
      </trkpt>
      <trkpt lat="47.35984" lon="-1.20025">
        <ele>50</ele>
        <time>2025-08-02T09:55:18.000Z</time>
      </trkpt>
      <trkpt lat="47.35984" lon="-1.20024">
        <ele>51</ele>
        <time>2025-08-02T09:55:19.000Z</time>
      </trkpt>
      <trkpt lat="47.35985" lon="-1.20023">
        <ele>51</ele>
        <time>2025-08-02T09:55:20.000Z</time>
      </trkpt>
      <trkpt lat="47.35986" lon="-1.20023">
        <ele>51</ele>
        <time>2025-08-02T09:55:21.000Z</time>
      </trkpt>
      <trkpt lat="47.35987" lon="-1.20022">
        <ele>50</ele>
        <time>2025-08-02T09:55:22.000Z</time>
      </trkpt>
      <trkpt lat="47.35988" lon="-1.2002">
        <ele>50</ele>
        <time>2025-08-02T09:55:23.000Z</time>
      </trkpt>
      <trkpt lat="47.35988" lon="-1.20018">
        <ele>50</ele>
        <time>2025-08-02T09:55:24.000Z</time>
      </trkpt>
      <trkpt lat="47.35989" lon="-1.20016">
        <ele>49</ele>
        <time>2025-08-02T09:55:25.000Z</time>
      </trkpt>
      <trkpt lat="47.3599" lon="-1.20014">
        <ele>49</ele>
        <time>2025-08-02T09:55:26.000Z</time>
      </trkpt>
      <trkpt lat="47.35991" lon="-1.20012">
        <ele>49</ele>
        <time>2025-08-02T09:55:27.000Z</time>
      </trkpt>
      <trkpt lat="47.35991" lon="-1.2001">
        <ele>49</ele>
        <time>2025-08-02T09:55:28.000Z</time>
      </trkpt>
      <trkpt lat="47.35992" lon="-1.20008">
        <ele>48</ele>
        <time>2025-08-02T09:55:29.000Z</time>
      </trkpt>
      <trkpt lat="47.35992" lon="-1.20007">
        <ele>49</ele>
        <time>2025-08-02T09:55:30.000Z</time>
      </trkpt>
      <trkpt lat="47.35993" lon="-1.20006">
        <ele>49</ele>
        <time>2025-08-02T09:55:31.000Z</time>
      </trkpt>
      <trkpt lat="47.35993" lon="-1.20005">
        <ele>50</ele>
        <time>2025-08-02T09:55:32.000Z</time>
      </trkpt>
      <trkpt lat="47.35994" lon="-1.20003">
        <ele>50</ele>
        <time>2025-08-02T09:55:33.000Z</time>
      </trkpt>
      <trkpt lat="47.35995" lon="-1.20001">
        <ele>51</ele>
        <time>2025-08-02T09:55:34.000Z</time>
      </trkpt>
      <trkpt lat="47.35996" lon="-1.2">
        <ele>50</ele>
        <time>2025-08-02T09:55:35.000Z</time>
      </trkpt>
      <trkpt lat="47.35997" lon="-1.19998">
        <ele>51</ele>
        <time>2025-08-02T09:55:36.000Z</time>
      </trkpt>
      <trkpt lat="47.35998" lon="-1.19996">
        <ele>51</ele>
        <time>2025-08-02T09:55:37.000Z</time>
      </trkpt>
      <trkpt lat="47.35999" lon="-1.19995">
        <ele>52</ele>
        <time>2025-08-02T09:55:38.000Z</time>
      </trkpt>
      <trkpt lat="47.35999" lon="-1.19993">
        <ele>52</ele>
        <time>2025-08-02T09:55:39.000Z</time>
      </trkpt>
      <trkpt lat="47.36" lon="-1.19991">
        <ele>52</ele>
        <time>2025-08-02T09:55:40.000Z</time>
      </trkpt>
      <trkpt lat="47.36001" lon="-1.1999">
        <ele>52</ele>
        <time>2025-08-02T09:55:41.000Z</time>
      </trkpt>
      <trkpt lat="47.36002" lon="-1.19989">
        <ele>52</ele>
        <time>2025-08-02T09:55:42.000Z</time>
      </trkpt>
      <trkpt lat="47.36002" lon="-1.19989">
        <ele>51</ele>
        <time>2025-08-02T09:55:43.000Z</time>
      </trkpt>
      <trkpt lat="47.36002" lon="-1.19989">
        <ele>51</ele>
        <time>2025-08-02T09:55:44.000Z</time>
      </trkpt>
      <trkpt lat="47.36002" lon="-1.19988">
        <ele>51</ele>
        <time>2025-08-02T09:55:45.000Z</time>
      </trkpt>
      <trkpt lat="47.36002" lon="-1.19988">
        <ele>51</ele>
        <time>2025-08-02T09:55:46.000Z</time>
      </trkpt>
      <trkpt lat="47.36002" lon="-1.19987">
        <ele>51</ele>
        <time>2025-08-02T09:55:47.000Z</time>
      </trkpt>
      <trkpt lat="47.36002" lon="-1.19987">
        <ele>51</ele>
        <time>2025-08-02T09:55:48.000Z</time>
      </trkpt>
      <trkpt lat="47.36002" lon="-1.19987">
        <ele>51</ele>
        <time>2025-08-02T09:55:49.000Z</time>
      </trkpt>
      <trkpt lat="47.36002" lon="-1.19987">
        <ele>51</ele>
        <time>2025-08-02T09:55:50.000Z</time>
      </trkpt>
      <trkpt lat="47.36002" lon="-1.19987">
        <ele>51</ele>
        <time>2025-08-02T09:55:51.000Z</time>
      </trkpt>
      <trkpt lat="47.36002" lon="-1.19987">
        <ele>51</ele>
        <time>2025-08-02T09:55:52.000Z</time>
      </trkpt>
      <trkpt lat="47.36002" lon="-1.19987">
        <ele>51</ele>
        <time>2025-08-02T09:55:53.000Z</time>
      </trkpt>
      <trkpt lat="47.36002" lon="-1.19987">
        <ele>51</ele>
        <time>2025-08-02T09:55:54.000Z</time>
      </trkpt>
      <trkpt lat="47.36002" lon="-1.19987">
        <ele>51</ele>
        <time>2025-08-02T09:55:55.000Z</time>
      </trkpt>
      <trkpt lat="47.36002" lon="-1.19987">
        <ele>51</ele>
        <time>2025-08-02T09:55:56.000Z</time>
      </trkpt>
      <trkpt lat="47.36002" lon="-1.19987">
        <ele>51</ele>
        <time>2025-08-02T09:55:57.000Z</time>
      </trkpt>
      <trkpt lat="47.36002" lon="-1.19987">
        <ele>51</ele>
        <time>2025-08-02T09:55:58.000Z</time>
      </trkpt>
      <trkpt lat="47.36002" lon="-1.19987">
        <ele>51</ele>
        <time>2025-08-02T09:55:59.000Z</time>
      </trkpt>
      <trkpt lat="47.36002" lon="-1.19987">
        <ele>51</ele>
        <time>2025-08-02T09:56:00.000Z</time>
      </trkpt>
      <trkpt lat="47.36004" lon="-1.19988">
        <ele>51</ele>
        <time>2025-08-02T09:56:01.000Z</time>
      </trkpt>
      <trkpt lat="47.36006" lon="-1.19989">
        <ele>52</ele>
        <time>2025-08-02T09:56:02.000Z</time>
      </trkpt>
      <trkpt lat="47.36007" lon="-1.19989">
        <ele>52</ele>
        <time>2025-08-02T09:56:03.000Z</time>
      </trkpt>
      <trkpt lat="47.36008" lon="-1.19989">
        <ele>51</ele>
        <time>2025-08-02T09:56:04.000Z</time>
      </trkpt>
      <trkpt lat="47.36009" lon="-1.19989">
        <ele>51</ele>
        <time>2025-08-02T09:56:05.000Z</time>
      </trkpt>
      <trkpt lat="47.3601" lon="-1.19988">
        <ele>51</ele>
        <time>2025-08-02T09:56:06.000Z</time>
      </trkpt>
      <trkpt lat="47.36011" lon="-1.19987">
        <ele>51</ele>
        <time>2025-08-02T09:56:07.000Z</time>
      </trkpt>
      <trkpt lat="47.36013" lon="-1.19987">
        <ele>51</ele>
        <time>2025-08-02T09:56:08.000Z</time>
      </trkpt>
      <trkpt lat="47.36014" lon="-1.19987">
        <ele>51</ele>
        <time>2025-08-02T09:56:09.000Z</time>
      </trkpt>
      <trkpt lat="47.36015" lon="-1.19987">
        <ele>51</ele>
        <time>2025-08-02T09:56:10.000Z</time>
      </trkpt>
      <trkpt lat="47.36016" lon="-1.19988">
        <ele>51</ele>
        <time>2025-08-02T09:56:11.000Z</time>
      </trkpt>
      <trkpt lat="47.36018" lon="-1.19988">
        <ele>51</ele>
        <time>2025-08-02T09:56:12.000Z</time>
      </trkpt>
      <trkpt lat="47.36019" lon="-1.19988">
        <ele>52</ele>
        <time>2025-08-02T09:56:13.000Z</time>
      </trkpt>
      <trkpt lat="47.3602" lon="-1.19988">
        <ele>52</ele>
        <time>2025-08-02T09:56:14.000Z</time>
      </trkpt>
      <trkpt lat="47.36021" lon="-1.19989">
        <ele>53</ele>
        <time>2025-08-02T09:56:15.000Z</time>
      </trkpt>
      <trkpt lat="47.36022" lon="-1.19988">
        <ele>53</ele>
        <time>2025-08-02T09:56:16.000Z</time>
      </trkpt>
      <trkpt lat="47.36024" lon="-1.19988">
        <ele>53</ele>
        <time>2025-08-02T09:56:17.000Z</time>
      </trkpt>
      <trkpt lat="47.36024" lon="-1.19988">
        <ele>52</ele>
        <time>2025-08-02T09:56:18.000Z</time>
      </trkpt>
      <trkpt lat="47.36025" lon="-1.19988">
        <ele>52</ele>
        <time>2025-08-02T09:56:19.000Z</time>
      </trkpt>
      <trkpt lat="47.36027" lon="-1.19988">
        <ele>52</ele>
        <time>2025-08-02T09:56:20.000Z</time>
      </trkpt>
      <trkpt lat="47.36028" lon="-1.19988">
        <ele>53</ele>
        <time>2025-08-02T09:56:21.000Z</time>
      </trkpt>
      <trkpt lat="47.36028" lon="-1.19989">
        <ele>53</ele>
        <time>2025-08-02T09:56:22.000Z</time>
      </trkpt>
      <trkpt lat="47.36029" lon="-1.19988">
        <ele>53</ele>
        <time>2025-08-02T09:56:23.000Z</time>
      </trkpt>
      <trkpt lat="47.3603" lon="-1.19988">
        <ele>53</ele>
        <time>2025-08-02T09:56:24.000Z</time>
      </trkpt>
      <trkpt lat="47.3603" lon="-1.19988">
        <ele>53</ele>
        <time>2025-08-02T09:56:25.000Z</time>
      </trkpt>
      <trkpt lat="47.36031" lon="-1.19988">
        <ele>53</ele>
        <time>2025-08-02T09:56:26.000Z</time>
      </trkpt>
      <trkpt lat="47.36031" lon="-1.19988">
        <ele>53</ele>
        <time>2025-08-02T09:56:27.000Z</time>
      </trkpt>
      <trkpt lat="47.36031" lon="-1.19988">
        <ele>53</ele>
        <time>2025-08-02T09:56:28.000Z</time>
      </trkpt>
      <trkpt lat="47.36031" lon="-1.19988">
        <ele>53</ele>
        <time>2025-08-02T09:56:29.000Z</time>
      </trkpt>
      <trkpt lat="47.36033" lon="-1.19988">
        <ele>53</ele>
        <time>2025-08-02T09:56:30.000Z</time>
      </trkpt>
      <trkpt lat="47.36034" lon="-1.19988">
        <ele>53</ele>
        <time>2025-08-02T09:56:31.000Z</time>
      </trkpt>
      <trkpt lat="47.36035" lon="-1.19988">
        <ele>53</ele>
        <time>2025-08-02T09:56:32.000Z</time>
      </trkpt>
      <trkpt lat="47.36036" lon="-1.19987">
        <ele>53</ele>
        <time>2025-08-02T09:56:33.000Z</time>
      </trkpt>
      <trkpt lat="47.36036" lon="-1.19987">
        <ele>53</ele>
        <time>2025-08-02T09:56:34.000Z</time>
      </trkpt>
      <trkpt lat="47.36037" lon="-1.19987">
        <ele>54</ele>
        <time>2025-08-02T09:56:35.000Z</time>
      </trkpt>
      <trkpt lat="47.36038" lon="-1.19987">
        <ele>54</ele>
        <time>2025-08-02T09:56:36.000Z</time>
      </trkpt>
      <trkpt lat="47.3604" lon="-1.19987">
        <ele>54</ele>
        <time>2025-08-02T09:56:37.000Z</time>
      </trkpt>
      <trkpt lat="47.36041" lon="-1.19986">
        <ele>55</ele>
        <time>2025-08-02T09:56:38.000Z</time>
      </trkpt>
      <trkpt lat="47.36042" lon="-1.19986">
        <ele>55</ele>
        <time>2025-08-02T09:56:39.000Z</time>
      </trkpt>
      <trkpt lat="47.36044" lon="-1.19985">
        <ele>55</ele>
        <time>2025-08-02T09:56:40.000Z</time>
      </trkpt>
      <trkpt lat="47.36045" lon="-1.19985">
        <ele>55</ele>
        <time>2025-08-02T09:56:41.000Z</time>
      </trkpt>
      <trkpt lat="47.36046" lon="-1.19985">
        <ele>55</ele>
        <time>2025-08-02T09:56:42.000Z</time>
      </trkpt>
      <trkpt lat="47.36047" lon="-1.19985">
        <ele>55</ele>
        <time>2025-08-02T09:56:43.000Z</time>
      </trkpt>
      <trkpt lat="47.36048" lon="-1.19985">
        <ele>56</ele>
        <time>2025-08-02T09:56:44.000Z</time>
      </trkpt>
      <trkpt lat="47.36049" lon="-1.19985">
        <ele>55</ele>
        <time>2025-08-02T09:56:45.000Z</time>
      </trkpt>
      <trkpt lat="47.36049" lon="-1.19985">
        <ele>55</ele>
        <time>2025-08-02T09:56:46.000Z</time>
      </trkpt>
      <trkpt lat="47.36051" lon="-1.19985">
        <ele>55</ele>
        <time>2025-08-02T09:56:47.000Z</time>
      </trkpt>
      <trkpt lat="47.36052" lon="-1.19985">
        <ele>55</ele>
        <time>2025-08-02T09:56:48.000Z</time>
      </trkpt>
      <trkpt lat="47.36053" lon="-1.19983">
        <ele>56</ele>
        <time>2025-08-02T09:56:49.000Z</time>
      </trkpt>
      <trkpt lat="47.36054" lon="-1.19983">
        <ele>55</ele>
        <time>2025-08-02T09:56:50.000Z</time>
      </trkpt>
      <trkpt lat="47.36055" lon="-1.19982">
        <ele>56</ele>
        <time>2025-08-02T09:56:51.000Z</time>
      </trkpt>
      <trkpt lat="47.36056" lon="-1.1998">
        <ele>56</ele>
        <time>2025-08-02T09:56:52.000Z</time>
      </trkpt>
      <trkpt lat="47.36057" lon="-1.19979">
        <ele>56</ele>
        <time>2025-08-02T09:56:53.000Z</time>
      </trkpt>
      <trkpt lat="47.36058" lon="-1.19979">
        <ele>56</ele>
        <time>2025-08-02T09:56:54.000Z</time>
      </trkpt>
      <trkpt lat="47.36059" lon="-1.19978">
        <ele>57</ele>
        <time>2025-08-02T09:56:55.000Z</time>
      </trkpt>
      <trkpt lat="47.36061" lon="-1.19978">
        <ele>58</ele>
        <time>2025-08-02T09:56:56.000Z</time>
      </trkpt>
      <trkpt lat="47.36063" lon="-1.19978">
        <ele>58</ele>
        <time>2025-08-02T09:56:57.000Z</time>
      </trkpt>
      <trkpt lat="47.36065" lon="-1.19979">
        <ele>58</ele>
        <time>2025-08-02T09:56:58.000Z</time>
      </trkpt>
      <trkpt lat="47.36066" lon="-1.19979">
        <ele>59</ele>
        <time>2025-08-02T09:56:59.000Z</time>
      </trkpt>
      <trkpt lat="47.36067" lon="-1.19978">
        <ele>58</ele>
        <time>2025-08-02T09:57:00.000Z</time>
      </trkpt>
      <trkpt lat="47.36068" lon="-1.19978">
        <ele>59</ele>
        <time>2025-08-02T09:57:01.000Z</time>
      </trkpt>
      <trkpt lat="47.36069" lon="-1.19978">
        <ele>59</ele>
        <time>2025-08-02T09:57:02.000Z</time>
      </trkpt>
      <trkpt lat="47.36071" lon="-1.19978">
        <ele>59</ele>
        <time>2025-08-02T09:57:03.000Z</time>
      </trkpt>
      <trkpt lat="47.36073" lon="-1.19978">
        <ele>58</ele>
        <time>2025-08-02T09:57:04.000Z</time>
      </trkpt>
      <trkpt lat="47.36074" lon="-1.19977">
        <ele>58</ele>
        <time>2025-08-02T09:57:05.000Z</time>
      </trkpt>
      <trkpt lat="47.36076" lon="-1.19977">
        <ele>58</ele>
        <time>2025-08-02T09:57:06.000Z</time>
      </trkpt>
      <trkpt lat="47.36077" lon="-1.19976">
        <ele>58</ele>
        <time>2025-08-02T09:57:07.000Z</time>
      </trkpt>
      <trkpt lat="47.36078" lon="-1.19976">
        <ele>58</ele>
        <time>2025-08-02T09:57:08.000Z</time>
      </trkpt>
      <trkpt lat="47.36079" lon="-1.19975">
        <ele>58</ele>
        <time>2025-08-02T09:57:09.000Z</time>
      </trkpt>
      <trkpt lat="47.3608" lon="-1.19973">
        <ele>58</ele>
        <time>2025-08-02T09:57:10.000Z</time>
      </trkpt>
      <trkpt lat="47.36081" lon="-1.19972">
        <ele>59</ele>
        <time>2025-08-02T09:57:11.000Z</time>
      </trkpt>
      <trkpt lat="47.36082" lon="-1.1997">
        <ele>59</ele>
        <time>2025-08-02T09:57:12.000Z</time>
      </trkpt>
      <trkpt lat="47.36083" lon="-1.1997">
        <ele>59</ele>
        <time>2025-08-02T09:57:13.000Z</time>
      </trkpt>
      <trkpt lat="47.36084" lon="-1.19969">
        <ele>58</ele>
        <time>2025-08-02T09:57:14.000Z</time>
      </trkpt>
      <trkpt lat="47.36085" lon="-1.19969">
        <ele>58</ele>
        <time>2025-08-02T09:57:15.000Z</time>
      </trkpt>
      <trkpt lat="47.36085" lon="-1.19969">
        <ele>58</ele>
        <time>2025-08-02T09:57:16.000Z</time>
      </trkpt>
      <trkpt lat="47.36087" lon="-1.1997">
        <ele>58</ele>
        <time>2025-08-02T09:57:17.000Z</time>
      </trkpt>
      <trkpt lat="47.36088" lon="-1.1997">
        <ele>58</ele>
        <time>2025-08-02T09:57:18.000Z</time>
      </trkpt>
      <trkpt lat="47.36089" lon="-1.1997">
        <ele>58</ele>
        <time>2025-08-02T09:57:19.000Z</time>
      </trkpt>
      <trkpt lat="47.36091" lon="-1.19969">
        <ele>59</ele>
        <time>2025-08-02T09:57:20.000Z</time>
      </trkpt>
      <trkpt lat="47.36093" lon="-1.1997">
        <ele>60</ele>
        <time>2025-08-02T09:57:21.000Z</time>
      </trkpt>
      <trkpt lat="47.36094" lon="-1.19969">
        <ele>60</ele>
        <time>2025-08-02T09:57:22.000Z</time>
      </trkpt>
      <trkpt lat="47.36095" lon="-1.1997">
        <ele>60</ele>
        <time>2025-08-02T09:57:23.000Z</time>
      </trkpt>
      <trkpt lat="47.36097" lon="-1.1997">
        <ele>60</ele>
        <time>2025-08-02T09:57:24.000Z</time>
      </trkpt>
      <trkpt lat="47.36098" lon="-1.19971">
        <ele>60</ele>
        <time>2025-08-02T09:57:25.000Z</time>
      </trkpt>
      <trkpt lat="47.36099" lon="-1.19971">
        <ele>60</ele>
        <time>2025-08-02T09:57:26.000Z</time>
      </trkpt>
      <trkpt lat="47.361" lon="-1.1997">
        <ele>60</ele>
        <time>2025-08-02T09:57:27.000Z</time>
      </trkpt>
      <trkpt lat="47.36101" lon="-1.19969">
        <ele>60</ele>
        <time>2025-08-02T09:57:28.000Z</time>
      </trkpt>
      <trkpt lat="47.36102" lon="-1.19968">
        <ele>59</ele>
        <time>2025-08-02T09:57:29.000Z</time>
      </trkpt>
      <trkpt lat="47.36103" lon="-1.19969">
        <ele>60</ele>
        <time>2025-08-02T09:57:30.000Z</time>
      </trkpt>
      <trkpt lat="47.36105" lon="-1.19969">
        <ele>60</ele>
        <time>2025-08-02T09:57:31.000Z</time>
      </trkpt>
      <trkpt lat="47.36106" lon="-1.19969">
        <ele>59</ele>
        <time>2025-08-02T09:57:32.000Z</time>
      </trkpt>
      <trkpt lat="47.36107" lon="-1.19968">
        <ele>59</ele>
        <time>2025-08-02T09:57:33.000Z</time>
      </trkpt>
      <trkpt lat="47.36108" lon="-1.19967">
        <ele>59</ele>
        <time>2025-08-02T09:57:34.000Z</time>
      </trkpt>
      <trkpt lat="47.3611" lon="-1.19966">
        <ele>59</ele>
        <time>2025-08-02T09:57:35.000Z</time>
      </trkpt>
      <trkpt lat="47.36111" lon="-1.19967">
        <ele>58</ele>
        <time>2025-08-02T09:57:36.000Z</time>
      </trkpt>
      <trkpt lat="47.36112" lon="-1.19966">
        <ele>58</ele>
        <time>2025-08-02T09:57:37.000Z</time>
      </trkpt>
      <trkpt lat="47.36113" lon="-1.19966">
        <ele>58</ele>
        <time>2025-08-02T09:57:38.000Z</time>
      </trkpt>
      <trkpt lat="47.36115" lon="-1.19966">
        <ele>58</ele>
        <time>2025-08-02T09:57:39.000Z</time>
      </trkpt>
      <trkpt lat="47.36116" lon="-1.19965">
        <ele>59</ele>
        <time>2025-08-02T09:57:40.000Z</time>
      </trkpt>
      <trkpt lat="47.36117" lon="-1.19965">
        <ele>59</ele>
        <time>2025-08-02T09:57:41.000Z</time>
      </trkpt>
      <trkpt lat="47.36119" lon="-1.19964">
        <ele>60</ele>
        <time>2025-08-02T09:57:42.000Z</time>
      </trkpt>
      <trkpt lat="47.36121" lon="-1.19963">
        <ele>60</ele>
        <time>2025-08-02T09:57:43.000Z</time>
      </trkpt>
      <trkpt lat="47.36123" lon="-1.19962">
        <ele>60</ele>
        <time>2025-08-02T09:57:44.000Z</time>
      </trkpt>
      <trkpt lat="47.36123" lon="-1.19961">
        <ele>60</ele>
        <time>2025-08-02T09:57:45.000Z</time>
      </trkpt>
      <trkpt lat="47.36125" lon="-1.19961">
        <ele>61</ele>
        <time>2025-08-02T09:57:46.000Z</time>
      </trkpt>
      <trkpt lat="47.36127" lon="-1.19961">
        <ele>61</ele>
        <time>2025-08-02T09:57:47.000Z</time>
      </trkpt>
      <trkpt lat="47.36129" lon="-1.19959">
        <ele>61</ele>
        <time>2025-08-02T09:57:48.000Z</time>
      </trkpt>
      <trkpt lat="47.3613" lon="-1.19958">
        <ele>61</ele>
        <time>2025-08-02T09:57:49.000Z</time>
      </trkpt>
      <trkpt lat="47.36131" lon="-1.19957">
        <ele>61</ele>
        <time>2025-08-02T09:57:50.000Z</time>
      </trkpt>
      <trkpt lat="47.36132" lon="-1.19956">
        <ele>61</ele>
        <time>2025-08-02T09:57:51.000Z</time>
      </trkpt>
      <trkpt lat="47.36133" lon="-1.19956">
        <ele>61</ele>
        <time>2025-08-02T09:57:52.000Z</time>
      </trkpt>
      <trkpt lat="47.36133" lon="-1.19955">
        <ele>62</ele>
        <time>2025-08-02T09:57:53.000Z</time>
      </trkpt>
      <trkpt lat="47.36134" lon="-1.19956">
        <ele>62</ele>
        <time>2025-08-02T09:57:54.000Z</time>
      </trkpt>
      <trkpt lat="47.36135" lon="-1.19956">
        <ele>62</ele>
        <time>2025-08-02T09:57:55.000Z</time>
      </trkpt>
      <trkpt lat="47.36137" lon="-1.19956">
        <ele>62</ele>
        <time>2025-08-02T09:57:56.000Z</time>
      </trkpt>
      <trkpt lat="47.36138" lon="-1.19956">
        <ele>63</ele>
        <time>2025-08-02T09:57:57.000Z</time>
      </trkpt>
      <trkpt lat="47.36139" lon="-1.19956">
        <ele>62</ele>
        <time>2025-08-02T09:57:58.000Z</time>
      </trkpt>
      <trkpt lat="47.3614" lon="-1.19955">
        <ele>62</ele>
        <time>2025-08-02T09:57:59.000Z</time>
      </trkpt>
      <trkpt lat="47.36142" lon="-1.19955">
        <ele>62</ele>
        <time>2025-08-02T09:58:00.000Z</time>
      </trkpt>
      <trkpt lat="47.36143" lon="-1.19955">
        <ele>62</ele>
        <time>2025-08-02T09:58:01.000Z</time>
      </trkpt>
      <trkpt lat="47.36144" lon="-1.19955">
        <ele>62</ele>
        <time>2025-08-02T09:58:02.000Z</time>
      </trkpt>
      <trkpt lat="47.36145" lon="-1.19955">
        <ele>61</ele>
        <time>2025-08-02T09:58:03.000Z</time>
      </trkpt>
      <trkpt lat="47.36147" lon="-1.19955">
        <ele>61</ele>
        <time>2025-08-02T09:58:04.000Z</time>
      </trkpt>
      <trkpt lat="47.36148" lon="-1.19955">
        <ele>61</ele>
        <time>2025-08-02T09:58:05.000Z</time>
      </trkpt>
      <trkpt lat="47.36149" lon="-1.19956">
        <ele>61</ele>
        <time>2025-08-02T09:58:06.000Z</time>
      </trkpt>
      <trkpt lat="47.3615" lon="-1.19957">
        <ele>62</ele>
        <time>2025-08-02T09:58:07.000Z</time>
      </trkpt>
      <trkpt lat="47.36151" lon="-1.19957">
        <ele>63</ele>
        <time>2025-08-02T09:58:08.000Z</time>
      </trkpt>
      <trkpt lat="47.36153" lon="-1.19957">
        <ele>63</ele>
        <time>2025-08-02T09:58:09.000Z</time>
      </trkpt>
      <trkpt lat="47.36154" lon="-1.19958">
        <ele>63</ele>
        <time>2025-08-02T09:58:10.000Z</time>
      </trkpt>
      <trkpt lat="47.36156" lon="-1.19959">
        <ele>63</ele>
        <time>2025-08-02T09:58:11.000Z</time>
      </trkpt>
      <trkpt lat="47.36157" lon="-1.1996">
        <ele>63</ele>
        <time>2025-08-02T09:58:12.000Z</time>
      </trkpt>
      <trkpt lat="47.36158" lon="-1.19961">
        <ele>63</ele>
        <time>2025-08-02T09:58:13.000Z</time>
      </trkpt>
      <trkpt lat="47.3616" lon="-1.19962">
        <ele>63</ele>
        <time>2025-08-02T09:58:14.000Z</time>
      </trkpt>
      <trkpt lat="47.36162" lon="-1.19963">
        <ele>62</ele>
        <time>2025-08-02T09:58:15.000Z</time>
      </trkpt>
      <trkpt lat="47.36163" lon="-1.19963">
        <ele>62</ele>
        <time>2025-08-02T09:58:16.000Z</time>
      </trkpt>
      <trkpt lat="47.36164" lon="-1.19964">
        <ele>61</ele>
        <time>2025-08-02T09:58:17.000Z</time>
      </trkpt>
      <trkpt lat="47.36165" lon="-1.19964">
        <ele>61</ele>
        <time>2025-08-02T09:58:18.000Z</time>
      </trkpt>
      <trkpt lat="47.36166" lon="-1.19964">
        <ele>60</ele>
        <time>2025-08-02T09:58:19.000Z</time>
      </trkpt>
      <trkpt lat="47.36167" lon="-1.19965">
        <ele>60</ele>
        <time>2025-08-02T09:58:20.000Z</time>
      </trkpt>
      <trkpt lat="47.36168" lon="-1.19965">
        <ele>60</ele>
        <time>2025-08-02T09:58:21.000Z</time>
      </trkpt>
      <trkpt lat="47.36169" lon="-1.19965">
        <ele>60</ele>
        <time>2025-08-02T09:58:22.000Z</time>
      </trkpt>
      <trkpt lat="47.36171" lon="-1.19966">
        <ele>59</ele>
        <time>2025-08-02T09:58:23.000Z</time>
      </trkpt>
      <trkpt lat="47.36171" lon="-1.19966">
        <ele>59</ele>
        <time>2025-08-02T09:58:24.000Z</time>
      </trkpt>
      <trkpt lat="47.36172" lon="-1.19967">
        <ele>59</ele>
        <time>2025-08-02T09:58:25.000Z</time>
      </trkpt>
      <trkpt lat="47.36172" lon="-1.19968">
        <ele>58</ele>
        <time>2025-08-02T09:58:26.000Z</time>
      </trkpt>
      <trkpt lat="47.36173" lon="-1.19969">
        <ele>59</ele>
        <time>2025-08-02T09:58:27.000Z</time>
      </trkpt>
      <trkpt lat="47.36175" lon="-1.1997">
        <ele>59</ele>
        <time>2025-08-02T09:58:28.000Z</time>
      </trkpt>
      <trkpt lat="47.36176" lon="-1.19971">
        <ele>59</ele>
        <time>2025-08-02T09:58:29.000Z</time>
      </trkpt>
      <trkpt lat="47.36177" lon="-1.19971">
        <ele>58</ele>
        <time>2025-08-02T09:58:30.000Z</time>
      </trkpt>
      <trkpt lat="47.36178" lon="-1.19972">
        <ele>58</ele>
        <time>2025-08-02T09:58:31.000Z</time>
      </trkpt>
      <trkpt lat="47.36179" lon="-1.19972">
        <ele>59</ele>
        <time>2025-08-02T09:58:32.000Z</time>
      </trkpt>
      <trkpt lat="47.3618" lon="-1.19973">
        <ele>59</ele>
        <time>2025-08-02T09:58:33.000Z</time>
      </trkpt>
      <trkpt lat="47.36181" lon="-1.19973">
        <ele>59</ele>
        <time>2025-08-02T09:58:34.000Z</time>
      </trkpt>
      <trkpt lat="47.36182" lon="-1.19974">
        <ele>59</ele>
        <time>2025-08-02T09:58:35.000Z</time>
      </trkpt>
      <trkpt lat="47.36183" lon="-1.19975">
        <ele>59</ele>
        <time>2025-08-02T09:58:36.000Z</time>
      </trkpt>
      <trkpt lat="47.36183" lon="-1.19976">
        <ele>60</ele>
        <time>2025-08-02T09:58:37.000Z</time>
      </trkpt>
      <trkpt lat="47.36184" lon="-1.19977">
        <ele>60</ele>
        <time>2025-08-02T09:58:38.000Z</time>
      </trkpt>
      <trkpt lat="47.36185" lon="-1.19977">
        <ele>60</ele>
        <time>2025-08-02T09:58:39.000Z</time>
      </trkpt>
      <trkpt lat="47.36186" lon="-1.19978">
        <ele>59</ele>
        <time>2025-08-02T09:58:40.000Z</time>
      </trkpt>
      <trkpt lat="47.36186" lon="-1.19979">
        <ele>59</ele>
        <time>2025-08-02T09:58:41.000Z</time>
      </trkpt>
      <trkpt lat="47.36187" lon="-1.1998">
        <ele>59</ele>
        <time>2025-08-02T09:58:42.000Z</time>
      </trkpt>
      <trkpt lat="47.36188" lon="-1.19981">
        <ele>58</ele>
        <time>2025-08-02T09:58:43.000Z</time>
      </trkpt>
      <trkpt lat="47.36188" lon="-1.19981">
        <ele>58</ele>
        <time>2025-08-02T09:58:44.000Z</time>
      </trkpt>
      <trkpt lat="47.36188" lon="-1.19981">
        <ele>58</ele>
        <time>2025-08-02T09:58:45.000Z</time>
      </trkpt>
      <trkpt lat="47.36188" lon="-1.19981">
        <ele>58</ele>
        <time>2025-08-02T09:58:46.000Z</time>
      </trkpt>
      <trkpt lat="47.36188" lon="-1.19981">
        <ele>58</ele>
        <time>2025-08-02T09:58:47.000Z</time>
      </trkpt>
      <trkpt lat="47.36188" lon="-1.19981">
        <ele>58</ele>
        <time>2025-08-02T09:58:48.000Z</time>
      </trkpt>
      <trkpt lat="47.36191" lon="-1.19987">
        <ele>56</ele>
        <time>2025-08-02T09:58:49.000Z</time>
      </trkpt>
      <trkpt lat="47.36193" lon="-1.1999">
        <ele>54</ele>
        <time>2025-08-02T09:58:50.000Z</time>
      </trkpt>
      <trkpt lat="47.36194" lon="-1.19991">
        <ele>55</ele>
        <time>2025-08-02T09:58:51.000Z</time>
      </trkpt>
      <trkpt lat="47.36194" lon="-1.19991">
        <ele>55</ele>
        <time>2025-08-02T09:58:52.000Z</time>
      </trkpt>
      <trkpt lat="47.36194" lon="-1.19991">
        <ele>55</ele>
        <time>2025-08-02T09:58:53.000Z</time>
      </trkpt>
      <trkpt lat="47.36194" lon="-1.19991">
        <ele>55</ele>
        <time>2025-08-02T09:58:54.000Z</time>
      </trkpt>
      <trkpt lat="47.36194" lon="-1.19991">
        <ele>55</ele>
        <time>2025-08-02T09:58:55.000Z</time>
      </trkpt>
      <trkpt lat="47.36194" lon="-1.19991">
        <ele>55</ele>
        <time>2025-08-02T09:58:56.000Z</time>
      </trkpt>
      <trkpt lat="47.36194" lon="-1.19991">
        <ele>55</ele>
        <time>2025-08-02T09:58:57.000Z</time>
      </trkpt>
      <trkpt lat="47.36194" lon="-1.19991">
        <ele>55</ele>
        <time>2025-08-02T09:58:58.000Z</time>
      </trkpt>
      <trkpt lat="47.36194" lon="-1.19991">
        <ele>55</ele>
        <time>2025-08-02T09:58:59.000Z</time>
      </trkpt>
      <trkpt lat="47.36194" lon="-1.19991">
        <ele>55</ele>
        <time>2025-08-02T09:59:00.000Z</time>
      </trkpt>
      <trkpt lat="47.36194" lon="-1.19991">
        <ele>55</ele>
        <time>2025-08-02T09:59:01.000Z</time>
      </trkpt>
      <trkpt lat="47.36194" lon="-1.19991">
        <ele>55</ele>
        <time>2025-08-02T09:59:02.000Z</time>
      </trkpt>
      <trkpt lat="47.36194" lon="-1.19991">
        <ele>55</ele>
        <time>2025-08-02T09:59:03.000Z</time>
      </trkpt>
      <trkpt lat="47.36194" lon="-1.19991">
        <ele>55</ele>
        <time>2025-08-02T09:59:04.000Z</time>
      </trkpt>
      <trkpt lat="47.36194" lon="-1.19991">
        <ele>55</ele>
        <time>2025-08-02T09:59:05.000Z</time>
      </trkpt>
      <trkpt lat="47.36194" lon="-1.19991">
        <ele>55</ele>
        <time>2025-08-02T09:59:06.000Z</time>
      </trkpt>
      <trkpt lat="47.36194" lon="-1.19991">
        <ele>55</ele>
        <time>2025-08-02T09:59:07.000Z</time>
      </trkpt>
      <trkpt lat="47.36194" lon="-1.19991">
        <ele>55</ele>
        <time>2025-08-02T09:59:08.000Z</time>
      </trkpt>
      <trkpt lat="47.36194" lon="-1.19991">
        <ele>55</ele>
        <time>2025-08-02T09:59:09.000Z</time>
      </trkpt>
      <trkpt lat="47.36194" lon="-1.19991">
        <ele>55</ele>
        <time>2025-08-02T09:59:10.000Z</time>
      </trkpt>
      <trkpt lat="47.36194" lon="-1.19991">
        <ele>55</ele>
        <time>2025-08-02T09:59:11.000Z</time>
      </trkpt>
      <trkpt lat="47.36194" lon="-1.19991">
        <ele>55</ele>
        <time>2025-08-02T09:59:12.000Z</time>
      </trkpt>
      <trkpt lat="47.36194" lon="-1.19991">
        <ele>55</ele>
        <time>2025-08-02T09:59:13.000Z</time>
      </trkpt>
      <trkpt lat="47.36194" lon="-1.19991">
        <ele>55</ele>
        <time>2025-08-02T09:59:14.000Z</time>
      </trkpt>
      <trkpt lat="47.36194" lon="-1.19991">
        <ele>55</ele>
        <time>2025-08-02T09:59:15.000Z</time>
      </trkpt>
      <trkpt lat="47.36194" lon="-1.19991">
        <ele>55</ele>
        <time>2025-08-02T09:59:16.000Z</time>
      </trkpt>
      <trkpt lat="47.36194" lon="-1.19991">
        <ele>55</ele>
        <time>2025-08-02T09:59:17.000Z</time>
      </trkpt>
      <trkpt lat="47.36194" lon="-1.19991">
        <ele>55</ele>
        <time>2025-08-02T09:59:18.000Z</time>
      </trkpt>
      <trkpt lat="47.36194" lon="-1.19991">
        <ele>55</ele>
        <time>2025-08-02T09:59:19.000Z</time>
      </trkpt>
      <trkpt lat="47.36194" lon="-1.19991">
        <ele>55</ele>
        <time>2025-08-02T09:59:20.000Z</time>
      </trkpt>
      <trkpt lat="47.36194" lon="-1.19991">
        <ele>55</ele>
        <time>2025-08-02T09:59:21.000Z</time>
      </trkpt>
      <trkpt lat="47.36194" lon="-1.19991">
        <ele>55</ele>
        <time>2025-08-02T09:59:22.000Z</time>
      </trkpt>
      <trkpt lat="47.36194" lon="-1.19991">
        <ele>55</ele>
        <time>2025-08-02T09:59:23.000Z</time>
      </trkpt>
      <trkpt lat="47.36194" lon="-1.19991">
        <ele>55</ele>
        <time>2025-08-02T09:59:24.000Z</time>
      </trkpt>
      <trkpt lat="47.36194" lon="-1.19991">
        <ele>55</ele>
        <time>2025-08-02T09:59:25.000Z</time>
      </trkpt>
      <trkpt lat="47.36194" lon="-1.19991">
        <ele>55</ele>
        <time>2025-08-02T09:59:26.000Z</time>
      </trkpt>
      <trkpt lat="47.36194" lon="-1.19991">
        <ele>55</ele>
        <time>2025-08-02T09:59:27.000Z</time>
      </trkpt>
      <trkpt lat="47.36194" lon="-1.19991">
        <ele>55</ele>
        <time>2025-08-02T09:59:28.000Z</time>
      </trkpt>
      <trkpt lat="47.36194" lon="-1.19991">
        <ele>55</ele>
        <time>2025-08-02T09:59:29.000Z</time>
      </trkpt>
      <trkpt lat="47.36194" lon="-1.19991">
        <ele>55</ele>
        <time>2025-08-02T09:59:30.000Z</time>
      </trkpt>
      <trkpt lat="47.36194" lon="-1.19991">
        <ele>55</ele>
        <time>2025-08-02T09:59:31.000Z</time>
      </trkpt>
      <trkpt lat="47.36194" lon="-1.19991">
        <ele>55</ele>
        <time>2025-08-02T09:59:32.000Z</time>
      </trkpt>
      <trkpt lat="47.36194" lon="-1.19991">
        <ele>55</ele>
        <time>2025-08-02T09:59:33.000Z</time>
      </trkpt>
      <trkpt lat="47.36194" lon="-1.19992">
        <ele>56</ele>
        <time>2025-08-02T09:59:34.000Z</time>
      </trkpt>
      <trkpt lat="47.36194" lon="-1.19992">
        <ele>56</ele>
        <time>2025-08-02T09:59:35.000Z</time>
      </trkpt>
      <trkpt lat="47.36194" lon="-1.19992">
        <ele>56</ele>
        <time>2025-08-02T09:59:36.000Z</time>
      </trkpt>
      <trkpt lat="47.36194" lon="-1.19992">
        <ele>56</ele>
        <time>2025-08-02T09:59:37.000Z</time>
      </trkpt>
      <trkpt lat="47.36194" lon="-1.19992">
        <ele>56</ele>
        <time>2025-08-02T09:59:38.000Z</time>
      </trkpt>
      <trkpt lat="47.36194" lon="-1.19992">
        <ele>56</ele>
        <time>2025-08-02T09:59:39.000Z</time>
      </trkpt>
      <trkpt lat="47.36194" lon="-1.19992">
        <ele>56</ele>
        <time>2025-08-02T09:59:40.000Z</time>
      </trkpt>
      <trkpt lat="47.36194" lon="-1.19992">
        <ele>56</ele>
        <time>2025-08-02T09:59:41.000Z</time>
      </trkpt>
      <trkpt lat="47.36194" lon="-1.19992">
        <ele>56</ele>
        <time>2025-08-02T09:59:42.000Z</time>
      </trkpt>
      <trkpt lat="47.36194" lon="-1.19992">
        <ele>56</ele>
        <time>2025-08-02T09:59:43.000Z</time>
      </trkpt>
      <trkpt lat="47.36194" lon="-1.19992">
        <ele>56</ele>
        <time>2025-08-02T09:59:44.000Z</time>
      </trkpt>
      <trkpt lat="47.36194" lon="-1.19992">
        <ele>56</ele>
        <time>2025-08-02T09:59:45.000Z</time>
      </trkpt>
      <trkpt lat="47.36194" lon="-1.19992">
        <ele>56</ele>
        <time>2025-08-02T09:59:46.000Z</time>
      </trkpt>
      <trkpt lat="47.36194" lon="-1.19992">
        <ele>56</ele>
        <time>2025-08-02T09:59:47.000Z</time>
      </trkpt>
      <trkpt lat="47.36194" lon="-1.19992">
        <ele>56</ele>
        <time>2025-08-02T09:59:48.000Z</time>
      </trkpt>
      <trkpt lat="47.36194" lon="-1.19992">
        <ele>56</ele>
        <time>2025-08-02T09:59:49.000Z</time>
      </trkpt>
      <trkpt lat="47.36195" lon="-1.19995">
        <ele>56</ele>
        <time>2025-08-02T09:59:50.000Z</time>
      </trkpt>
      <trkpt lat="47.36196" lon="-1.19997">
        <ele>56</ele>
        <time>2025-08-02T09:59:51.000Z</time>
      </trkpt>
      <trkpt lat="47.36196" lon="-1.19998">
        <ele>56</ele>
        <time>2025-08-02T09:59:52.000Z</time>
      </trkpt>
      <trkpt lat="47.36196" lon="-1.2">
        <ele>56</ele>
        <time>2025-08-02T09:59:53.000Z</time>
      </trkpt>
      <trkpt lat="47.36196" lon="-1.20002">
        <ele>56</ele>
        <time>2025-08-02T09:59:54.000Z</time>
      </trkpt>
      <trkpt lat="47.36196" lon="-1.20003">
        <ele>56</ele>
        <time>2025-08-02T09:59:55.000Z</time>
      </trkpt>
      <trkpt lat="47.36196" lon="-1.20005">
        <ele>56</ele>
        <time>2025-08-02T09:59:56.000Z</time>
      </trkpt>
      <trkpt lat="47.36196" lon="-1.20006">
        <ele>55</ele>
        <time>2025-08-02T09:59:57.000Z</time>
      </trkpt>
      <trkpt lat="47.36195" lon="-1.20008">
        <ele>56</ele>
        <time>2025-08-02T09:59:58.000Z</time>
      </trkpt>
      <trkpt lat="47.36195" lon="-1.20009">
        <ele>55</ele>
        <time>2025-08-02T09:59:59.000Z</time>
      </trkpt>
      <trkpt lat="47.36194" lon="-1.2001">
        <ele>56</ele>
        <time>2025-08-02T10:00:00.000Z</time>
      </trkpt>
      <trkpt lat="47.36194" lon="-1.20012">
        <ele>56</ele>
        <time>2025-08-02T10:00:01.000Z</time>
      </trkpt>
      <trkpt lat="47.36194" lon="-1.20014">
        <ele>56</ele>
        <time>2025-08-02T10:00:02.000Z</time>
      </trkpt>
      <trkpt lat="47.36194" lon="-1.20015">
        <ele>57</ele>
        <time>2025-08-02T10:00:03.000Z</time>
      </trkpt>
      <trkpt lat="47.36193" lon="-1.20016">
        <ele>57</ele>
        <time>2025-08-02T10:00:04.000Z</time>
      </trkpt>
      <trkpt lat="47.36193" lon="-1.20018">
        <ele>57</ele>
        <time>2025-08-02T10:00:05.000Z</time>
      </trkpt>
      <trkpt lat="47.36192" lon="-1.20019">
        <ele>57</ele>
        <time>2025-08-02T10:00:06.000Z</time>
      </trkpt>
      <trkpt lat="47.36192" lon="-1.20021">
        <ele>57</ele>
        <time>2025-08-02T10:00:07.000Z</time>
      </trkpt>
      <trkpt lat="47.36193" lon="-1.20022">
        <ele>56</ele>
        <time>2025-08-02T10:00:08.000Z</time>
      </trkpt>
      <trkpt lat="47.36193" lon="-1.20024">
        <ele>56</ele>
        <time>2025-08-02T10:00:09.000Z</time>
      </trkpt>
      <trkpt lat="47.36193" lon="-1.20026">
        <ele>56</ele>
        <time>2025-08-02T10:00:10.000Z</time>
      </trkpt>
      <trkpt lat="47.36193" lon="-1.20027">
        <ele>56</ele>
        <time>2025-08-02T10:00:11.000Z</time>
      </trkpt>
      <trkpt lat="47.36193" lon="-1.20029">
        <ele>56</ele>
        <time>2025-08-02T10:00:12.000Z</time>
      </trkpt>
      <trkpt lat="47.36194" lon="-1.20031">
        <ele>56</ele>
        <time>2025-08-02T10:00:13.000Z</time>
      </trkpt>
      <trkpt lat="47.36194" lon="-1.20032">
        <ele>56</ele>
        <time>2025-08-02T10:00:14.000Z</time>
      </trkpt>
      <trkpt lat="47.36193" lon="-1.20033">
        <ele>56</ele>
        <time>2025-08-02T10:00:15.000Z</time>
      </trkpt>
      <trkpt lat="47.36193" lon="-1.20035">
        <ele>56</ele>
        <time>2025-08-02T10:00:16.000Z</time>
      </trkpt>
      <trkpt lat="47.36192" lon="-1.20036">
        <ele>56</ele>
        <time>2025-08-02T10:00:17.000Z</time>
      </trkpt>
      <trkpt lat="47.36192" lon="-1.20037">
        <ele>56</ele>
        <time>2025-08-02T10:00:18.000Z</time>
      </trkpt>
      <trkpt lat="47.36191" lon="-1.20038">
        <ele>56</ele>
        <time>2025-08-02T10:00:19.000Z</time>
      </trkpt>
      <trkpt lat="47.36191" lon="-1.20039">
        <ele>56</ele>
        <time>2025-08-02T10:00:20.000Z</time>
      </trkpt>
      <trkpt lat="47.3619" lon="-1.20039">
        <ele>56</ele>
        <time>2025-08-02T10:00:21.000Z</time>
      </trkpt>
      <trkpt lat="47.3619" lon="-1.20041">
        <ele>56</ele>
        <time>2025-08-02T10:00:22.000Z</time>
      </trkpt>
      <trkpt lat="47.3619" lon="-1.20041">
        <ele>56</ele>
        <time>2025-08-02T10:00:23.000Z</time>
      </trkpt>
      <trkpt lat="47.3619" lon="-1.20041">
        <ele>56</ele>
        <time>2025-08-02T10:00:24.000Z</time>
      </trkpt>
      <trkpt lat="47.3619" lon="-1.20042">
        <ele>56</ele>
        <time>2025-08-02T10:00:25.000Z</time>
      </trkpt>
      <trkpt lat="47.3619" lon="-1.20043">
        <ele>57</ele>
        <time>2025-08-02T10:00:26.000Z</time>
      </trkpt>
      <trkpt lat="47.3619" lon="-1.20045">
        <ele>57</ele>
        <time>2025-08-02T10:00:27.000Z</time>
      </trkpt>
      <trkpt lat="47.3619" lon="-1.20047">
        <ele>57</ele>
        <time>2025-08-02T10:00:28.000Z</time>
      </trkpt>
      <trkpt lat="47.3619" lon="-1.20049">
        <ele>57</ele>
        <time>2025-08-02T10:00:29.000Z</time>
      </trkpt>
      <trkpt lat="47.3619" lon="-1.2005">
        <ele>57</ele>
        <time>2025-08-02T10:00:30.000Z</time>
      </trkpt>
      <trkpt lat="47.3619" lon="-1.20052">
        <ele>57</ele>
        <time>2025-08-02T10:00:31.000Z</time>
      </trkpt>
      <trkpt lat="47.3619" lon="-1.20053">
        <ele>57</ele>
        <time>2025-08-02T10:00:32.000Z</time>
      </trkpt>
      <trkpt lat="47.3619" lon="-1.20056">
        <ele>57</ele>
        <time>2025-08-02T10:00:33.000Z</time>
      </trkpt>
      <trkpt lat="47.36189" lon="-1.20057">
        <ele>57</ele>
        <time>2025-08-02T10:00:34.000Z</time>
      </trkpt>
      <trkpt lat="47.36189" lon="-1.20058">
        <ele>57</ele>
        <time>2025-08-02T10:00:35.000Z</time>
      </trkpt>
      <trkpt lat="47.36189" lon="-1.20058">
        <ele>57</ele>
        <time>2025-08-02T10:00:36.000Z</time>
      </trkpt>
      <trkpt lat="47.36189" lon="-1.20059">
        <ele>57</ele>
        <time>2025-08-02T10:00:37.000Z</time>
      </trkpt>
      <trkpt lat="47.36188" lon="-1.2006">
        <ele>57</ele>
        <time>2025-08-02T10:00:38.000Z</time>
      </trkpt>
      <trkpt lat="47.36188" lon="-1.20062">
        <ele>56</ele>
        <time>2025-08-02T10:00:39.000Z</time>
      </trkpt>
      <trkpt lat="47.36187" lon="-1.20064">
        <ele>56</ele>
        <time>2025-08-02T10:00:40.000Z</time>
      </trkpt>
      <trkpt lat="47.36187" lon="-1.20065">
        <ele>55</ele>
        <time>2025-08-02T10:00:41.000Z</time>
      </trkpt>
      <trkpt lat="47.36187" lon="-1.20067">
        <ele>55</ele>
        <time>2025-08-02T10:00:42.000Z</time>
      </trkpt>
      <trkpt lat="47.36187" lon="-1.20068">
        <ele>55</ele>
        <time>2025-08-02T10:00:43.000Z</time>
      </trkpt>
      <trkpt lat="47.36186" lon="-1.2007">
        <ele>55</ele>
        <time>2025-08-02T10:00:44.000Z</time>
      </trkpt>
      <trkpt lat="47.36186" lon="-1.20071">
        <ele>55</ele>
        <time>2025-08-02T10:00:45.000Z</time>
      </trkpt>
      <trkpt lat="47.36185" lon="-1.20071">
        <ele>55</ele>
        <time>2025-08-02T10:00:46.000Z</time>
      </trkpt>
      <trkpt lat="47.36185" lon="-1.20073">
        <ele>55</ele>
        <time>2025-08-02T10:00:47.000Z</time>
      </trkpt>
      <trkpt lat="47.36184" lon="-1.20076">
        <ele>55</ele>
        <time>2025-08-02T10:00:48.000Z</time>
      </trkpt>
      <trkpt lat="47.36184" lon="-1.20078">
        <ele>55</ele>
        <time>2025-08-02T10:00:49.000Z</time>
      </trkpt>
      <trkpt lat="47.36184" lon="-1.20078">
        <ele>55</ele>
        <time>2025-08-02T10:00:50.000Z</time>
      </trkpt>
      <trkpt lat="47.36184" lon="-1.2008">
        <ele>55</ele>
        <time>2025-08-02T10:00:51.000Z</time>
      </trkpt>
      <trkpt lat="47.36184" lon="-1.20082">
        <ele>55</ele>
        <time>2025-08-02T10:00:52.000Z</time>
      </trkpt>
      <trkpt lat="47.36184" lon="-1.20084">
        <ele>55</ele>
        <time>2025-08-02T10:00:53.000Z</time>
      </trkpt>
      <trkpt lat="47.36183" lon="-1.20086">
        <ele>54</ele>
        <time>2025-08-02T10:00:54.000Z</time>
      </trkpt>
      <trkpt lat="47.36183" lon="-1.20087">
        <ele>54</ele>
        <time>2025-08-02T10:00:55.000Z</time>
      </trkpt>
      <trkpt lat="47.36183" lon="-1.20089">
        <ele>54</ele>
        <time>2025-08-02T10:00:56.000Z</time>
      </trkpt>
      <trkpt lat="47.36183" lon="-1.20091">
        <ele>54</ele>
        <time>2025-08-02T10:00:57.000Z</time>
      </trkpt>
      <trkpt lat="47.36183" lon="-1.20093">
        <ele>55</ele>
        <time>2025-08-02T10:00:58.000Z</time>
      </trkpt>
      <trkpt lat="47.36183" lon="-1.20096">
        <ele>54</ele>
        <time>2025-08-02T10:00:59.000Z</time>
      </trkpt>
      <trkpt lat="47.36183" lon="-1.20097">
        <ele>54</ele>
        <time>2025-08-02T10:01:00.000Z</time>
      </trkpt>
      <trkpt lat="47.36183" lon="-1.20098">
        <ele>55</ele>
        <time>2025-08-02T10:01:01.000Z</time>
      </trkpt>
      <trkpt lat="47.36183" lon="-1.20099">
        <ele>55</ele>
        <time>2025-08-02T10:01:02.000Z</time>
      </trkpt>
      <trkpt lat="47.36183" lon="-1.20101">
        <ele>54</ele>
        <time>2025-08-02T10:01:03.000Z</time>
      </trkpt>
      <trkpt lat="47.36183" lon="-1.20102">
        <ele>54</ele>
        <time>2025-08-02T10:01:04.000Z</time>
      </trkpt>
      <trkpt lat="47.36183" lon="-1.20103">
        <ele>54</ele>
        <time>2025-08-02T10:01:05.000Z</time>
      </trkpt>
      <trkpt lat="47.36183" lon="-1.20105">
        <ele>55</ele>
        <time>2025-08-02T10:01:06.000Z</time>
      </trkpt>
      <trkpt lat="47.36183" lon="-1.20108">
        <ele>54</ele>
        <time>2025-08-02T10:01:07.000Z</time>
      </trkpt>
      <trkpt lat="47.36183" lon="-1.2011">
        <ele>54</ele>
        <time>2025-08-02T10:01:08.000Z</time>
      </trkpt>
      <trkpt lat="47.36183" lon="-1.20111">
        <ele>54</ele>
        <time>2025-08-02T10:01:09.000Z</time>
      </trkpt>
      <trkpt lat="47.36183" lon="-1.20113">
        <ele>54</ele>
        <time>2025-08-02T10:01:10.000Z</time>
      </trkpt>
      <trkpt lat="47.36183" lon="-1.20115">
        <ele>54</ele>
        <time>2025-08-02T10:01:11.000Z</time>
      </trkpt>
      <trkpt lat="47.36183" lon="-1.20116">
        <ele>54</ele>
        <time>2025-08-02T10:01:12.000Z</time>
      </trkpt>
      <trkpt lat="47.36182" lon="-1.20119">
        <ele>54</ele>
        <time>2025-08-02T10:01:13.000Z</time>
      </trkpt>
      <trkpt lat="47.36182" lon="-1.2012">
        <ele>53</ele>
        <time>2025-08-02T10:01:14.000Z</time>
      </trkpt>
      <trkpt lat="47.36183" lon="-1.20122">
        <ele>54</ele>
        <time>2025-08-02T10:01:15.000Z</time>
      </trkpt>
      <trkpt lat="47.36183" lon="-1.20124">
        <ele>54</ele>
        <time>2025-08-02T10:01:16.000Z</time>
      </trkpt>
      <trkpt lat="47.36183" lon="-1.20126">
        <ele>54</ele>
        <time>2025-08-02T10:01:17.000Z</time>
      </trkpt>
      <trkpt lat="47.36183" lon="-1.20128">
        <ele>54</ele>
        <time>2025-08-02T10:01:18.000Z</time>
      </trkpt>
      <trkpt lat="47.36184" lon="-1.2013">
        <ele>55</ele>
        <time>2025-08-02T10:01:19.000Z</time>
      </trkpt>
      <trkpt lat="47.36184" lon="-1.20132">
        <ele>54</ele>
        <time>2025-08-02T10:01:20.000Z</time>
      </trkpt>
      <trkpt lat="47.36184" lon="-1.20133">
        <ele>55</ele>
        <time>2025-08-02T10:01:21.000Z</time>
      </trkpt>
      <trkpt lat="47.36185" lon="-1.20135">
        <ele>55</ele>
        <time>2025-08-02T10:01:22.000Z</time>
      </trkpt>
      <trkpt lat="47.36185" lon="-1.20136">
        <ele>55</ele>
        <time>2025-08-02T10:01:23.000Z</time>
      </trkpt>
      <trkpt lat="47.36186" lon="-1.20137">
        <ele>55</ele>
        <time>2025-08-02T10:01:24.000Z</time>
      </trkpt>
      <trkpt lat="47.36187" lon="-1.20139">
        <ele>55</ele>
        <time>2025-08-02T10:01:25.000Z</time>
      </trkpt>
      <trkpt lat="47.36187" lon="-1.20141">
        <ele>55</ele>
        <time>2025-08-02T10:01:26.000Z</time>
      </trkpt>
      <trkpt lat="47.36188" lon="-1.20143">
        <ele>55</ele>
        <time>2025-08-02T10:01:27.000Z</time>
      </trkpt>
      <trkpt lat="47.36189" lon="-1.20144">
        <ele>55</ele>
        <time>2025-08-02T10:01:28.000Z</time>
      </trkpt>
      <trkpt lat="47.36189" lon="-1.20146">
        <ele>55</ele>
        <time>2025-08-02T10:01:29.000Z</time>
      </trkpt>
      <trkpt lat="47.3619" lon="-1.20147">
        <ele>55</ele>
        <time>2025-08-02T10:01:30.000Z</time>
      </trkpt>
      <trkpt lat="47.36192" lon="-1.20147">
        <ele>55</ele>
        <time>2025-08-02T10:01:31.000Z</time>
      </trkpt>
      <trkpt lat="47.36193" lon="-1.20148">
        <ele>54</ele>
        <time>2025-08-02T10:01:32.000Z</time>
      </trkpt>
      <trkpt lat="47.36194" lon="-1.20149">
        <ele>54</ele>
        <time>2025-08-02T10:01:33.000Z</time>
      </trkpt>
      <trkpt lat="47.36195" lon="-1.20149">
        <ele>54</ele>
        <time>2025-08-02T10:01:34.000Z</time>
      </trkpt>
      <trkpt lat="47.36196" lon="-1.2015">
        <ele>55</ele>
        <time>2025-08-02T10:01:35.000Z</time>
      </trkpt>
      <trkpt lat="47.36197" lon="-1.20151">
        <ele>55</ele>
        <time>2025-08-02T10:01:36.000Z</time>
      </trkpt>
      <trkpt lat="47.36198" lon="-1.20152">
        <ele>55</ele>
        <time>2025-08-02T10:01:37.000Z</time>
      </trkpt>
      <trkpt lat="47.36199" lon="-1.20154">
        <ele>55</ele>
        <time>2025-08-02T10:01:38.000Z</time>
      </trkpt>
      <trkpt lat="47.362" lon="-1.20155">
        <ele>55</ele>
        <time>2025-08-02T10:01:39.000Z</time>
      </trkpt>
      <trkpt lat="47.36201" lon="-1.20157">
        <ele>56</ele>
        <time>2025-08-02T10:01:40.000Z</time>
      </trkpt>
      <trkpt lat="47.36202" lon="-1.20158">
        <ele>55</ele>
        <time>2025-08-02T10:01:41.000Z</time>
      </trkpt>
      <trkpt lat="47.36202" lon="-1.20159">
        <ele>56</ele>
        <time>2025-08-02T10:01:42.000Z</time>
      </trkpt>
      <trkpt lat="47.36203" lon="-1.2016">
        <ele>56</ele>
        <time>2025-08-02T10:01:43.000Z</time>
      </trkpt>
      <trkpt lat="47.36203" lon="-1.20162">
        <ele>56</ele>
        <time>2025-08-02T10:01:44.000Z</time>
      </trkpt>
      <trkpt lat="47.36204" lon="-1.20163">
        <ele>57</ele>
        <time>2025-08-02T10:01:45.000Z</time>
      </trkpt>
      <trkpt lat="47.36205" lon="-1.20165">
        <ele>57</ele>
        <time>2025-08-02T10:01:46.000Z</time>
      </trkpt>
      <trkpt lat="47.36206" lon="-1.20166">
        <ele>57</ele>
        <time>2025-08-02T10:01:47.000Z</time>
      </trkpt>
      <trkpt lat="47.36207" lon="-1.20167">
        <ele>58</ele>
        <time>2025-08-02T10:01:48.000Z</time>
      </trkpt>
      <trkpt lat="47.36208" lon="-1.20169">
        <ele>58</ele>
        <time>2025-08-02T10:01:49.000Z</time>
      </trkpt>
      <trkpt lat="47.36209" lon="-1.2017">
        <ele>59</ele>
        <time>2025-08-02T10:01:50.000Z</time>
      </trkpt>
      <trkpt lat="47.36209" lon="-1.20169">
        <ele>59</ele>
        <time>2025-08-02T10:01:51.000Z</time>
      </trkpt>
      <trkpt lat="47.3621" lon="-1.20168">
        <ele>59</ele>
        <time>2025-08-02T10:01:52.000Z</time>
      </trkpt>
      <trkpt lat="47.3621" lon="-1.20168">
        <ele>59</ele>
        <time>2025-08-02T10:01:53.000Z</time>
      </trkpt>
      <trkpt lat="47.3621" lon="-1.20168">
        <ele>59</ele>
        <time>2025-08-02T10:01:54.000Z</time>
      </trkpt>
      <trkpt lat="47.3621" lon="-1.20168">
        <ele>59</ele>
        <time>2025-08-02T10:01:55.000Z</time>
      </trkpt>
      <trkpt lat="47.3621" lon="-1.20168">
        <ele>59</ele>
        <time>2025-08-02T10:01:56.000Z</time>
      </trkpt>
      <trkpt lat="47.3621" lon="-1.20168">
        <ele>59</ele>
        <time>2025-08-02T10:01:57.000Z</time>
      </trkpt>
      <trkpt lat="47.36211" lon="-1.20168">
        <ele>60</ele>
        <time>2025-08-02T10:01:58.000Z</time>
      </trkpt>
      <trkpt lat="47.36212" lon="-1.20168">
        <ele>60</ele>
        <time>2025-08-02T10:01:59.000Z</time>
      </trkpt>
      <trkpt lat="47.36213" lon="-1.20169">
        <ele>59</ele>
        <time>2025-08-02T10:02:00.000Z</time>
      </trkpt>
      <trkpt lat="47.36213" lon="-1.2017">
        <ele>59</ele>
        <time>2025-08-02T10:02:01.000Z</time>
      </trkpt>
      <trkpt lat="47.36214" lon="-1.20171">
        <ele>59</ele>
        <time>2025-08-02T10:02:02.000Z</time>
      </trkpt>
      <trkpt lat="47.36215" lon="-1.20172">
        <ele>59</ele>
        <time>2025-08-02T10:02:03.000Z</time>
      </trkpt>
      <trkpt lat="47.36215" lon="-1.20173">
        <ele>59</ele>
        <time>2025-08-02T10:02:04.000Z</time>
      </trkpt>
      <trkpt lat="47.36216" lon="-1.20174">
        <ele>59</ele>
        <time>2025-08-02T10:02:05.000Z</time>
      </trkpt>
      <trkpt lat="47.36218" lon="-1.20175">
        <ele>59</ele>
        <time>2025-08-02T10:02:06.000Z</time>
      </trkpt>
      <trkpt lat="47.36219" lon="-1.20175">
        <ele>59</ele>
        <time>2025-08-02T10:02:07.000Z</time>
      </trkpt>
      <trkpt lat="47.3622" lon="-1.20176">
        <ele>59</ele>
        <time>2025-08-02T10:02:08.000Z</time>
      </trkpt>
      <trkpt lat="47.36221" lon="-1.20177">
        <ele>59</ele>
        <time>2025-08-02T10:02:09.000Z</time>
      </trkpt>
      <trkpt lat="47.36221" lon="-1.20178">
        <ele>59</ele>
        <time>2025-08-02T10:02:10.000Z</time>
      </trkpt>
      <trkpt lat="47.36222" lon="-1.20179">
        <ele>58</ele>
        <time>2025-08-02T10:02:11.000Z</time>
      </trkpt>
      <trkpt lat="47.36222" lon="-1.20179">
        <ele>58</ele>
        <time>2025-08-02T10:02:12.000Z</time>
      </trkpt>
      <trkpt lat="47.36223" lon="-1.2018">
        <ele>58</ele>
        <time>2025-08-02T10:02:13.000Z</time>
      </trkpt>
      <trkpt lat="47.36224" lon="-1.20181">
        <ele>58</ele>
        <time>2025-08-02T10:02:14.000Z</time>
      </trkpt>
      <trkpt lat="47.36225" lon="-1.20181">
        <ele>58</ele>
        <time>2025-08-02T10:02:15.000Z</time>
      </trkpt>
      <trkpt lat="47.36225" lon="-1.20181">
        <ele>58</ele>
        <time>2025-08-02T10:02:16.000Z</time>
      </trkpt>
      <trkpt lat="47.36227" lon="-1.20181">
        <ele>58</ele>
        <time>2025-08-02T10:02:17.000Z</time>
      </trkpt>
      <trkpt lat="47.36228" lon="-1.20182">
        <ele>58</ele>
        <time>2025-08-02T10:02:18.000Z</time>
      </trkpt>
      <trkpt lat="47.36229" lon="-1.20182">
        <ele>58</ele>
        <time>2025-08-02T10:02:19.000Z</time>
      </trkpt>
      <trkpt lat="47.36229" lon="-1.20183">
        <ele>58</ele>
        <time>2025-08-02T10:02:20.000Z</time>
      </trkpt>
      <trkpt lat="47.3623" lon="-1.20184">
        <ele>57</ele>
        <time>2025-08-02T10:02:21.000Z</time>
      </trkpt>
      <trkpt lat="47.3623" lon="-1.20186">
        <ele>57</ele>
        <time>2025-08-02T10:02:22.000Z</time>
      </trkpt>
      <trkpt lat="47.36231" lon="-1.20186">
        <ele>58</ele>
        <time>2025-08-02T10:02:23.000Z</time>
      </trkpt>
      <trkpt lat="47.36232" lon="-1.20186">
        <ele>58</ele>
        <time>2025-08-02T10:02:24.000Z</time>
      </trkpt>
      <trkpt lat="47.36233" lon="-1.20185">
        <ele>57</ele>
        <time>2025-08-02T10:02:25.000Z</time>
      </trkpt>
      <trkpt lat="47.36233" lon="-1.20184">
        <ele>57</ele>
        <time>2025-08-02T10:02:26.000Z</time>
      </trkpt>
      <trkpt lat="47.36233" lon="-1.20184">
        <ele>57</ele>
        <time>2025-08-02T10:02:27.000Z</time>
      </trkpt>
      <trkpt lat="47.36233" lon="-1.20185">
        <ele>56</ele>
        <time>2025-08-02T10:02:28.000Z</time>
      </trkpt>
      <trkpt lat="47.36233" lon="-1.20185">
        <ele>56</ele>
        <time>2025-08-02T10:02:29.000Z</time>
      </trkpt>
      <trkpt lat="47.36233" lon="-1.20185">
        <ele>56</ele>
        <time>2025-08-02T10:02:30.000Z</time>
      </trkpt>
      <trkpt lat="47.36233" lon="-1.20185">
        <ele>56</ele>
        <time>2025-08-02T10:02:31.000Z</time>
      </trkpt>
      <trkpt lat="47.36233" lon="-1.20185">
        <ele>56</ele>
        <time>2025-08-02T10:02:32.000Z</time>
      </trkpt>
      <trkpt lat="47.36233" lon="-1.20185">
        <ele>56</ele>
        <time>2025-08-02T10:02:33.000Z</time>
      </trkpt>
      <trkpt lat="47.36233" lon="-1.20185">
        <ele>56</ele>
        <time>2025-08-02T10:02:34.000Z</time>
      </trkpt>
      <trkpt lat="47.36233" lon="-1.20185">
        <ele>56</ele>
        <time>2025-08-02T10:02:35.000Z</time>
      </trkpt>
      <trkpt lat="47.36233" lon="-1.20185">
        <ele>56</ele>
        <time>2025-08-02T10:02:36.000Z</time>
      </trkpt>
      <trkpt lat="47.36233" lon="-1.20185">
        <ele>56</ele>
        <time>2025-08-02T10:02:37.000Z</time>
      </trkpt>
      <trkpt lat="47.36233" lon="-1.20185">
        <ele>56</ele>
        <time>2025-08-02T10:02:38.000Z</time>
      </trkpt>
      <trkpt lat="47.36233" lon="-1.20185">
        <ele>56</ele>
        <time>2025-08-02T10:02:39.000Z</time>
      </trkpt>
      <trkpt lat="47.36233" lon="-1.20185">
        <ele>56</ele>
        <time>2025-08-02T10:02:40.000Z</time>
      </trkpt>
      <trkpt lat="47.36233" lon="-1.20185">
        <ele>56</ele>
        <time>2025-08-02T10:02:41.000Z</time>
      </trkpt>
      <trkpt lat="47.36235" lon="-1.20187">
        <ele>55</ele>
        <time>2025-08-02T10:02:42.000Z</time>
      </trkpt>
      <trkpt lat="47.36236" lon="-1.20187">
        <ele>54</ele>
        <time>2025-08-02T10:02:43.000Z</time>
      </trkpt>
      <trkpt lat="47.36236" lon="-1.20188">
        <ele>54</ele>
        <time>2025-08-02T10:02:44.000Z</time>
      </trkpt>
      <trkpt lat="47.36236" lon="-1.20188">
        <ele>54</ele>
        <time>2025-08-02T10:02:45.000Z</time>
      </trkpt>
      <trkpt lat="47.36236" lon="-1.20188">
        <ele>54</ele>
        <time>2025-08-02T10:02:46.000Z</time>
      </trkpt>
      <trkpt lat="47.36236" lon="-1.20188">
        <ele>54</ele>
        <time>2025-08-02T10:02:47.000Z</time>
      </trkpt>
      <trkpt lat="47.36236" lon="-1.20188">
        <ele>54</ele>
        <time>2025-08-02T10:02:48.000Z</time>
      </trkpt>
      <trkpt lat="47.36236" lon="-1.20188">
        <ele>54</ele>
        <time>2025-08-02T10:02:49.000Z</time>
      </trkpt>
      <trkpt lat="47.36236" lon="-1.20188">
        <ele>54</ele>
        <time>2025-08-02T10:02:50.000Z</time>
      </trkpt>
      <trkpt lat="47.36236" lon="-1.20187">
        <ele>54</ele>
        <time>2025-08-02T10:02:51.000Z</time>
      </trkpt>
      <trkpt lat="47.36237" lon="-1.20187">
        <ele>54</ele>
        <time>2025-08-02T10:02:52.000Z</time>
      </trkpt>
      <trkpt lat="47.36238" lon="-1.20186">
        <ele>54</ele>
        <time>2025-08-02T10:02:53.000Z</time>
      </trkpt>
      <trkpt lat="47.36239" lon="-1.20185">
        <ele>54</ele>
        <time>2025-08-02T10:02:54.000Z</time>
      </trkpt>
      <trkpt lat="47.36239" lon="-1.20184">
        <ele>54</ele>
        <time>2025-08-02T10:02:55.000Z</time>
      </trkpt>
      <trkpt lat="47.3624" lon="-1.20182">
        <ele>55</ele>
        <time>2025-08-02T10:02:56.000Z</time>
      </trkpt>
      <trkpt lat="47.3624" lon="-1.20181">
        <ele>55</ele>
        <time>2025-08-02T10:02:57.000Z</time>
      </trkpt>
      <trkpt lat="47.36241" lon="-1.2018">
        <ele>56</ele>
        <time>2025-08-02T10:02:58.000Z</time>
      </trkpt>
      <trkpt lat="47.36241" lon="-1.20179">
        <ele>56</ele>
        <time>2025-08-02T10:02:59.000Z</time>
      </trkpt>
      <trkpt lat="47.36242" lon="-1.20179">
        <ele>57</ele>
        <time>2025-08-02T10:03:00.000Z</time>
      </trkpt>
      <trkpt lat="47.36243" lon="-1.20177">
        <ele>57</ele>
        <time>2025-08-02T10:03:01.000Z</time>
      </trkpt>
      <trkpt lat="47.36244" lon="-1.20177">
        <ele>57</ele>
        <time>2025-08-02T10:03:02.000Z</time>
      </trkpt>
      <trkpt lat="47.36245" lon="-1.20176">
        <ele>58</ele>
        <time>2025-08-02T10:03:03.000Z</time>
      </trkpt>
      <trkpt lat="47.36245" lon="-1.20174">
        <ele>58</ele>
        <time>2025-08-02T10:03:04.000Z</time>
      </trkpt>
      <trkpt lat="47.36246" lon="-1.20173">
        <ele>58</ele>
        <time>2025-08-02T10:03:05.000Z</time>
      </trkpt>
      <trkpt lat="47.36246" lon="-1.20171">
        <ele>58</ele>
        <time>2025-08-02T10:03:06.000Z</time>
      </trkpt>
      <trkpt lat="47.36246" lon="-1.2017">
        <ele>58</ele>
        <time>2025-08-02T10:03:07.000Z</time>
      </trkpt>
      <trkpt lat="47.36246" lon="-1.20169">
        <ele>58</ele>
        <time>2025-08-02T10:03:08.000Z</time>
      </trkpt>
      <trkpt lat="47.36246" lon="-1.20167">
        <ele>58</ele>
        <time>2025-08-02T10:03:09.000Z</time>
      </trkpt>
      <trkpt lat="47.36247" lon="-1.20166">
        <ele>59</ele>
        <time>2025-08-02T10:03:10.000Z</time>
      </trkpt>
      <trkpt lat="47.36247" lon="-1.20164">
        <ele>58</ele>
        <time>2025-08-02T10:03:11.000Z</time>
      </trkpt>
      <trkpt lat="47.36247" lon="-1.20163">
        <ele>58</ele>
        <time>2025-08-02T10:03:12.000Z</time>
      </trkpt>
      <trkpt lat="47.36247" lon="-1.20161">
        <ele>58</ele>
        <time>2025-08-02T10:03:13.000Z</time>
      </trkpt>
      <trkpt lat="47.36247" lon="-1.20159">
        <ele>59</ele>
        <time>2025-08-02T10:03:14.000Z</time>
      </trkpt>
      <trkpt lat="47.36247" lon="-1.20158">
        <ele>59</ele>
        <time>2025-08-02T10:03:15.000Z</time>
      </trkpt>
      <trkpt lat="47.36248" lon="-1.20156">
        <ele>60</ele>
        <time>2025-08-02T10:03:16.000Z</time>
      </trkpt>
      <trkpt lat="47.36248" lon="-1.20155">
        <ele>60</ele>
        <time>2025-08-02T10:03:17.000Z</time>
      </trkpt>
      <trkpt lat="47.36248" lon="-1.20153">
        <ele>60</ele>
        <time>2025-08-02T10:03:18.000Z</time>
      </trkpt>
      <trkpt lat="47.36248" lon="-1.2015">
        <ele>60</ele>
        <time>2025-08-02T10:03:19.000Z</time>
      </trkpt>
      <trkpt lat="47.36248" lon="-1.20148">
        <ele>60</ele>
        <time>2025-08-02T10:03:20.000Z</time>
      </trkpt>
      <trkpt lat="47.36248" lon="-1.20146">
        <ele>60</ele>
        <time>2025-08-02T10:03:21.000Z</time>
      </trkpt>
      <trkpt lat="47.36249" lon="-1.20145">
        <ele>60</ele>
        <time>2025-08-02T10:03:22.000Z</time>
      </trkpt>
      <trkpt lat="47.36249" lon="-1.20143">
        <ele>60</ele>
        <time>2025-08-02T10:03:23.000Z</time>
      </trkpt>
      <trkpt lat="47.3625" lon="-1.20142">
        <ele>59</ele>
        <time>2025-08-02T10:03:24.000Z</time>
      </trkpt>
      <trkpt lat="47.36251" lon="-1.20141">
        <ele>59</ele>
        <time>2025-08-02T10:03:25.000Z</time>
      </trkpt>
      <trkpt lat="47.36252" lon="-1.20141">
        <ele>58</ele>
        <time>2025-08-02T10:03:26.000Z</time>
      </trkpt>
      <trkpt lat="47.36253" lon="-1.20139">
        <ele>58</ele>
        <time>2025-08-02T10:03:27.000Z</time>
      </trkpt>
      <trkpt lat="47.36254" lon="-1.20138">
        <ele>59</ele>
        <time>2025-08-02T10:03:28.000Z</time>
      </trkpt>
      <trkpt lat="47.36255" lon="-1.20137">
        <ele>59</ele>
        <time>2025-08-02T10:03:29.000Z</time>
      </trkpt>
      <trkpt lat="47.36256" lon="-1.20136">
        <ele>59</ele>
        <time>2025-08-02T10:03:30.000Z</time>
      </trkpt>
      <trkpt lat="47.36258" lon="-1.20135">
        <ele>59</ele>
        <time>2025-08-02T10:03:31.000Z</time>
      </trkpt>
      <trkpt lat="47.36259" lon="-1.20134">
        <ele>58</ele>
        <time>2025-08-02T10:03:32.000Z</time>
      </trkpt>
      <trkpt lat="47.3626" lon="-1.20133">
        <ele>58</ele>
        <time>2025-08-02T10:03:33.000Z</time>
      </trkpt>
      <trkpt lat="47.36261" lon="-1.20133">
        <ele>57</ele>
        <time>2025-08-02T10:03:34.000Z</time>
      </trkpt>
      <trkpt lat="47.36262" lon="-1.20132">
        <ele>57</ele>
        <time>2025-08-02T10:03:35.000Z</time>
      </trkpt>
      <trkpt lat="47.36263" lon="-1.20132">
        <ele>57</ele>
        <time>2025-08-02T10:03:36.000Z</time>
      </trkpt>
      <trkpt lat="47.36264" lon="-1.20131">
        <ele>57</ele>
        <time>2025-08-02T10:03:37.000Z</time>
      </trkpt>
      <trkpt lat="47.36265" lon="-1.2013">
        <ele>58</ele>
        <time>2025-08-02T10:03:38.000Z</time>
      </trkpt>
      <trkpt lat="47.36266" lon="-1.2013">
        <ele>58</ele>
        <time>2025-08-02T10:03:39.000Z</time>
      </trkpt>
      <trkpt lat="47.36267" lon="-1.20129">
        <ele>58</ele>
        <time>2025-08-02T10:03:40.000Z</time>
      </trkpt>
      <trkpt lat="47.36268" lon="-1.20129">
        <ele>58</ele>
        <time>2025-08-02T10:03:41.000Z</time>
      </trkpt>
      <trkpt lat="47.36269" lon="-1.20128">
        <ele>57</ele>
        <time>2025-08-02T10:03:42.000Z</time>
      </trkpt>
      <trkpt lat="47.36271" lon="-1.20127">
        <ele>57</ele>
        <time>2025-08-02T10:03:43.000Z</time>
      </trkpt>
      <trkpt lat="47.36272" lon="-1.20126">
        <ele>57</ele>
        <time>2025-08-02T10:03:44.000Z</time>
      </trkpt>
      <trkpt lat="47.36273" lon="-1.20126">
        <ele>57</ele>
        <time>2025-08-02T10:03:45.000Z</time>
      </trkpt>
      <trkpt lat="47.36274" lon="-1.20127">
        <ele>57</ele>
        <time>2025-08-02T10:03:46.000Z</time>
      </trkpt>
      <trkpt lat="47.36275" lon="-1.20126">
        <ele>57</ele>
        <time>2025-08-02T10:03:47.000Z</time>
      </trkpt>
      <trkpt lat="47.36276" lon="-1.20125">
        <ele>57</ele>
        <time>2025-08-02T10:03:48.000Z</time>
      </trkpt>
      <trkpt lat="47.36277" lon="-1.20124">
        <ele>57</ele>
        <time>2025-08-02T10:03:49.000Z</time>
      </trkpt>
      <trkpt lat="47.36278" lon="-1.20122">
        <ele>57</ele>
        <time>2025-08-02T10:03:50.000Z</time>
      </trkpt>
      <trkpt lat="47.36279" lon="-1.20121">
        <ele>57</ele>
        <time>2025-08-02T10:03:51.000Z</time>
      </trkpt>
      <trkpt lat="47.3628" lon="-1.2012">
        <ele>57</ele>
        <time>2025-08-02T10:03:52.000Z</time>
      </trkpt>
      <trkpt lat="47.36281" lon="-1.20119">
        <ele>57</ele>
        <time>2025-08-02T10:03:53.000Z</time>
      </trkpt>
      <trkpt lat="47.36283" lon="-1.20118">
        <ele>57</ele>
        <time>2025-08-02T10:03:54.000Z</time>
      </trkpt>
      <trkpt lat="47.36284" lon="-1.20118">
        <ele>58</ele>
        <time>2025-08-02T10:03:55.000Z</time>
      </trkpt>
      <trkpt lat="47.36285" lon="-1.20118">
        <ele>57</ele>
        <time>2025-08-02T10:03:56.000Z</time>
      </trkpt>
      <trkpt lat="47.36286" lon="-1.20117">
        <ele>57</ele>
        <time>2025-08-02T10:03:57.000Z</time>
      </trkpt>
      <trkpt lat="47.36288" lon="-1.20116">
        <ele>57</ele>
        <time>2025-08-02T10:03:58.000Z</time>
      </trkpt>
      <trkpt lat="47.36289" lon="-1.20115">
        <ele>57</ele>
        <time>2025-08-02T10:03:59.000Z</time>
      </trkpt>
      <trkpt lat="47.3629" lon="-1.20114">
        <ele>57</ele>
        <time>2025-08-02T10:04:00.000Z</time>
      </trkpt>
      <trkpt lat="47.36292" lon="-1.20113">
        <ele>57</ele>
        <time>2025-08-02T10:04:01.000Z</time>
      </trkpt>
      <trkpt lat="47.36293" lon="-1.20112">
        <ele>58</ele>
        <time>2025-08-02T10:04:02.000Z</time>
      </trkpt>
      <trkpt lat="47.36294" lon="-1.20112">
        <ele>58</ele>
        <time>2025-08-02T10:04:03.000Z</time>
      </trkpt>
      <trkpt lat="47.36296" lon="-1.20111">
        <ele>57</ele>
        <time>2025-08-02T10:04:04.000Z</time>
      </trkpt>
      <trkpt lat="47.36297" lon="-1.20109">
        <ele>57</ele>
        <time>2025-08-02T10:04:05.000Z</time>
      </trkpt>
      <trkpt lat="47.36298" lon="-1.20109">
        <ele>57</ele>
        <time>2025-08-02T10:04:06.000Z</time>
      </trkpt>
      <trkpt lat="47.36299" lon="-1.20108">
        <ele>58</ele>
        <time>2025-08-02T10:04:07.000Z</time>
      </trkpt>
      <trkpt lat="47.363" lon="-1.20108">
        <ele>58</ele>
        <time>2025-08-02T10:04:08.000Z</time>
      </trkpt>
      <trkpt lat="47.36301" lon="-1.20107">
        <ele>58</ele>
        <time>2025-08-02T10:04:09.000Z</time>
      </trkpt>
      <trkpt lat="47.36302" lon="-1.20107">
        <ele>58</ele>
        <time>2025-08-02T10:04:10.000Z</time>
      </trkpt>
      <trkpt lat="47.36304" lon="-1.20106">
        <ele>58</ele>
        <time>2025-08-02T10:04:11.000Z</time>
      </trkpt>
      <trkpt lat="47.36306" lon="-1.20106">
        <ele>59</ele>
        <time>2025-08-02T10:04:12.000Z</time>
      </trkpt>
      <trkpt lat="47.36307" lon="-1.20106">
        <ele>59</ele>
        <time>2025-08-02T10:04:13.000Z</time>
      </trkpt>
      <trkpt lat="47.36309" lon="-1.20105">
        <ele>60</ele>
        <time>2025-08-02T10:04:14.000Z</time>
      </trkpt>
      <trkpt lat="47.3631" lon="-1.20105">
        <ele>59</ele>
        <time>2025-08-02T10:04:15.000Z</time>
      </trkpt>
      <trkpt lat="47.36312" lon="-1.20104">
        <ele>59</ele>
        <time>2025-08-02T10:04:16.000Z</time>
      </trkpt>
      <trkpt lat="47.36313" lon="-1.20103">
        <ele>59</ele>
        <time>2025-08-02T10:04:17.000Z</time>
      </trkpt>
      <trkpt lat="47.36314" lon="-1.20102">
        <ele>59</ele>
        <time>2025-08-02T10:04:18.000Z</time>
      </trkpt>
      <trkpt lat="47.36315" lon="-1.20101">
        <ele>59</ele>
        <time>2025-08-02T10:04:19.000Z</time>
      </trkpt>
      <trkpt lat="47.36317" lon="-1.201">
        <ele>59</ele>
        <time>2025-08-02T10:04:20.000Z</time>
      </trkpt>
      <trkpt lat="47.36317" lon="-1.201">
        <ele>59</ele>
        <time>2025-08-02T10:04:21.000Z</time>
      </trkpt>
      <trkpt lat="47.36318" lon="-1.201">
        <ele>60</ele>
        <time>2025-08-02T10:04:22.000Z</time>
      </trkpt>
      <trkpt lat="47.36318" lon="-1.201">
        <ele>60</ele>
        <time>2025-08-02T10:04:23.000Z</time>
      </trkpt>
      <trkpt lat="47.36319" lon="-1.20099">
        <ele>61</ele>
        <time>2025-08-02T10:04:24.000Z</time>
      </trkpt>
      <trkpt lat="47.36319" lon="-1.20099">
        <ele>61</ele>
        <time>2025-08-02T10:04:25.000Z</time>
      </trkpt>
      <trkpt lat="47.3632" lon="-1.20098">
        <ele>60</ele>
        <time>2025-08-02T10:04:26.000Z</time>
      </trkpt>
      <trkpt lat="47.36321" lon="-1.20097">
        <ele>59</ele>
        <time>2025-08-02T10:04:27.000Z</time>
      </trkpt>
      <trkpt lat="47.36322" lon="-1.20096">
        <ele>59</ele>
        <time>2025-08-02T10:04:28.000Z</time>
      </trkpt>
      <trkpt lat="47.36323" lon="-1.20095">
        <ele>59</ele>
        <time>2025-08-02T10:04:29.000Z</time>
      </trkpt>
      <trkpt lat="47.36324" lon="-1.20094">
        <ele>59</ele>
        <time>2025-08-02T10:04:30.000Z</time>
      </trkpt>
      <trkpt lat="47.36324" lon="-1.20093">
        <ele>59</ele>
        <time>2025-08-02T10:04:31.000Z</time>
      </trkpt>
      <trkpt lat="47.36325" lon="-1.20093">
        <ele>60</ele>
        <time>2025-08-02T10:04:32.000Z</time>
      </trkpt>
      <trkpt lat="47.36325" lon="-1.20092">
        <ele>60</ele>
        <time>2025-08-02T10:04:33.000Z</time>
      </trkpt>
      <trkpt lat="47.36326" lon="-1.20091">
        <ele>61</ele>
        <time>2025-08-02T10:04:34.000Z</time>
      </trkpt>
      <trkpt lat="47.36327" lon="-1.20092">
        <ele>61</ele>
        <time>2025-08-02T10:04:35.000Z</time>
      </trkpt>
      <trkpt lat="47.36328" lon="-1.20091">
        <ele>61</ele>
        <time>2025-08-02T10:04:36.000Z</time>
      </trkpt>
      <trkpt lat="47.36329" lon="-1.20091">
        <ele>61</ele>
        <time>2025-08-02T10:04:37.000Z</time>
      </trkpt>
      <trkpt lat="47.3633" lon="-1.20092">
        <ele>62</ele>
        <time>2025-08-02T10:04:38.000Z</time>
      </trkpt>
      <trkpt lat="47.3633" lon="-1.20092">
        <ele>63</ele>
        <time>2025-08-02T10:04:39.000Z</time>
      </trkpt>
      <trkpt lat="47.36332" lon="-1.20092">
        <ele>63</ele>
        <time>2025-08-02T10:04:40.000Z</time>
      </trkpt>
      <trkpt lat="47.36333" lon="-1.20091">
        <ele>63</ele>
        <time>2025-08-02T10:04:41.000Z</time>
      </trkpt>
      <trkpt lat="47.36334" lon="-1.20091">
        <ele>63</ele>
        <time>2025-08-02T10:04:42.000Z</time>
      </trkpt>
      <trkpt lat="47.36335" lon="-1.20091">
        <ele>63</ele>
        <time>2025-08-02T10:04:43.000Z</time>
      </trkpt>
      <trkpt lat="47.36336" lon="-1.20092">
        <ele>64</ele>
        <time>2025-08-02T10:04:44.000Z</time>
      </trkpt>
      <trkpt lat="47.36337" lon="-1.20092">
        <ele>63</ele>
        <time>2025-08-02T10:04:45.000Z</time>
      </trkpt>
      <trkpt lat="47.36338" lon="-1.20093">
        <ele>63</ele>
        <time>2025-08-02T10:04:46.000Z</time>
      </trkpt>
      <trkpt lat="47.36339" lon="-1.20094">
        <ele>63</ele>
        <time>2025-08-02T10:04:47.000Z</time>
      </trkpt>
      <trkpt lat="47.3634" lon="-1.20094">
        <ele>63</ele>
        <time>2025-08-02T10:04:48.000Z</time>
      </trkpt>
      <trkpt lat="47.36341" lon="-1.20095">
        <ele>62</ele>
        <time>2025-08-02T10:04:49.000Z</time>
      </trkpt>
      <trkpt lat="47.36342" lon="-1.20095">
        <ele>63</ele>
        <time>2025-08-02T10:04:50.000Z</time>
      </trkpt>
      <trkpt lat="47.36343" lon="-1.20095">
        <ele>62</ele>
        <time>2025-08-02T10:04:51.000Z</time>
      </trkpt>
      <trkpt lat="47.36344" lon="-1.20095">
        <ele>62</ele>
        <time>2025-08-02T10:04:52.000Z</time>
      </trkpt>
      <trkpt lat="47.36344" lon="-1.20096">
        <ele>62</ele>
        <time>2025-08-02T10:04:53.000Z</time>
      </trkpt>
      <trkpt lat="47.36345" lon="-1.20097">
        <ele>62</ele>
        <time>2025-08-02T10:04:54.000Z</time>
      </trkpt>
      <trkpt lat="47.36345" lon="-1.20098">
        <ele>62</ele>
        <time>2025-08-02T10:04:55.000Z</time>
      </trkpt>
      <trkpt lat="47.36346" lon="-1.20098">
        <ele>63</ele>
        <time>2025-08-02T10:04:56.000Z</time>
      </trkpt>
      <trkpt lat="47.36347" lon="-1.20099">
        <ele>63</ele>
        <time>2025-08-02T10:04:57.000Z</time>
      </trkpt>
      <trkpt lat="47.36347" lon="-1.20101">
        <ele>63</ele>
        <time>2025-08-02T10:04:58.000Z</time>
      </trkpt>
      <trkpt lat="47.36347" lon="-1.20102">
        <ele>62</ele>
        <time>2025-08-02T10:04:59.000Z</time>
      </trkpt>
      <trkpt lat="47.36348" lon="-1.20104">
        <ele>62</ele>
        <time>2025-08-02T10:05:00.000Z</time>
      </trkpt>
      <trkpt lat="47.36348" lon="-1.20105">
        <ele>62</ele>
        <time>2025-08-02T10:05:01.000Z</time>
      </trkpt>
      <trkpt lat="47.36349" lon="-1.20106">
        <ele>62</ele>
        <time>2025-08-02T10:05:02.000Z</time>
      </trkpt>
      <trkpt lat="47.36349" lon="-1.20108">
        <ele>62</ele>
        <time>2025-08-02T10:05:03.000Z</time>
      </trkpt>
      <trkpt lat="47.3635" lon="-1.20109">
        <ele>62</ele>
        <time>2025-08-02T10:05:04.000Z</time>
      </trkpt>
      <trkpt lat="47.36351" lon="-1.20109">
        <ele>63</ele>
        <time>2025-08-02T10:05:05.000Z</time>
      </trkpt>
      <trkpt lat="47.36351" lon="-1.20109">
        <ele>64</ele>
        <time>2025-08-02T10:05:06.000Z</time>
      </trkpt>
      <trkpt lat="47.36351" lon="-1.20109">
        <ele>64</ele>
        <time>2025-08-02T10:05:07.000Z</time>
      </trkpt>
      <trkpt lat="47.36351" lon="-1.20109">
        <ele>64</ele>
        <time>2025-08-02T10:05:08.000Z</time>
      </trkpt>
      <trkpt lat="47.36351" lon="-1.2011">
        <ele>64</ele>
        <time>2025-08-02T10:05:09.000Z</time>
      </trkpt>
      <trkpt lat="47.36351" lon="-1.2011">
        <ele>64</ele>
        <time>2025-08-02T10:05:10.000Z</time>
      </trkpt>
      <trkpt lat="47.36351" lon="-1.20111">
        <ele>64</ele>
        <time>2025-08-02T10:05:11.000Z</time>
      </trkpt>
      <trkpt lat="47.36351" lon="-1.20112">
        <ele>64</ele>
        <time>2025-08-02T10:05:12.000Z</time>
      </trkpt>
      <trkpt lat="47.36351" lon="-1.20112">
        <ele>64</ele>
        <time>2025-08-02T10:05:13.000Z</time>
      </trkpt>
      <trkpt lat="47.36353" lon="-1.20114">
        <ele>65</ele>
        <time>2025-08-02T10:05:14.000Z</time>
      </trkpt>
      <trkpt lat="47.36353" lon="-1.20115">
        <ele>65</ele>
        <time>2025-08-02T10:05:15.000Z</time>
      </trkpt>
      <trkpt lat="47.36354" lon="-1.20116">
        <ele>66</ele>
        <time>2025-08-02T10:05:16.000Z</time>
      </trkpt>
      <trkpt lat="47.36355" lon="-1.20116">
        <ele>66</ele>
        <time>2025-08-02T10:05:17.000Z</time>
      </trkpt>
      <trkpt lat="47.36356" lon="-1.20117">
        <ele>66</ele>
        <time>2025-08-02T10:05:18.000Z</time>
      </trkpt>
      <trkpt lat="47.36357" lon="-1.20116">
        <ele>67</ele>
        <time>2025-08-02T10:05:19.000Z</time>
      </trkpt>
      <trkpt lat="47.36358" lon="-1.20117">
        <ele>67</ele>
        <time>2025-08-02T10:05:20.000Z</time>
      </trkpt>
      <trkpt lat="47.36359" lon="-1.20118">
        <ele>66</ele>
        <time>2025-08-02T10:05:21.000Z</time>
      </trkpt>
      <trkpt lat="47.3636" lon="-1.20118">
        <ele>66</ele>
        <time>2025-08-02T10:05:22.000Z</time>
      </trkpt>
      <trkpt lat="47.36361" lon="-1.20119">
        <ele>66</ele>
        <time>2025-08-02T10:05:23.000Z</time>
      </trkpt>
      <trkpt lat="47.36362" lon="-1.20119">
        <ele>66</ele>
        <time>2025-08-02T10:05:24.000Z</time>
      </trkpt>
      <trkpt lat="47.36363" lon="-1.20119">
        <ele>66</ele>
        <time>2025-08-02T10:05:25.000Z</time>
      </trkpt>
      <trkpt lat="47.36364" lon="-1.20118">
        <ele>66</ele>
        <time>2025-08-02T10:05:26.000Z</time>
      </trkpt>
      <trkpt lat="47.36365" lon="-1.20118">
        <ele>65</ele>
        <time>2025-08-02T10:05:27.000Z</time>
      </trkpt>
      <trkpt lat="47.36366" lon="-1.20118">
        <ele>65</ele>
        <time>2025-08-02T10:05:28.000Z</time>
      </trkpt>
      <trkpt lat="47.36366" lon="-1.20118">
        <ele>65</ele>
        <time>2025-08-02T10:05:29.000Z</time>
      </trkpt>
      <trkpt lat="47.36367" lon="-1.20117">
        <ele>66</ele>
        <time>2025-08-02T10:05:30.000Z</time>
      </trkpt>
      <trkpt lat="47.36367" lon="-1.20116">
        <ele>67</ele>
        <time>2025-08-02T10:05:31.000Z</time>
      </trkpt>
      <trkpt lat="47.36367" lon="-1.20116">
        <ele>67</ele>
        <time>2025-08-02T10:05:32.000Z</time>
      </trkpt>
      <trkpt lat="47.36366" lon="-1.20116">
        <ele>67</ele>
        <time>2025-08-02T10:05:33.000Z</time>
      </trkpt>
      <trkpt lat="47.36366" lon="-1.20116">
        <ele>67</ele>
        <time>2025-08-02T10:05:34.000Z</time>
      </trkpt>
      <trkpt lat="47.36366" lon="-1.20116">
        <ele>67</ele>
        <time>2025-08-02T10:05:35.000Z</time>
      </trkpt>
      <trkpt lat="47.36366" lon="-1.20116">
        <ele>67</ele>
        <time>2025-08-02T10:05:36.000Z</time>
      </trkpt>
      <trkpt lat="47.36366" lon="-1.20116">
        <ele>67</ele>
        <time>2025-08-02T10:05:37.000Z</time>
      </trkpt>
      <trkpt lat="47.36366" lon="-1.20116">
        <ele>67</ele>
        <time>2025-08-02T10:05:38.000Z</time>
      </trkpt>
      <trkpt lat="47.36366" lon="-1.20116">
        <ele>67</ele>
        <time>2025-08-02T10:05:39.000Z</time>
      </trkpt>
      <trkpt lat="47.36366" lon="-1.20116">
        <ele>67</ele>
        <time>2025-08-02T10:05:40.000Z</time>
      </trkpt>
      <trkpt lat="47.36366" lon="-1.20116">
        <ele>67</ele>
        <time>2025-08-02T10:05:41.000Z</time>
      </trkpt>
      <trkpt lat="47.36366" lon="-1.20116">
        <ele>67</ele>
        <time>2025-08-02T10:05:42.000Z</time>
      </trkpt>
      <trkpt lat="47.36366" lon="-1.20116">
        <ele>67</ele>
        <time>2025-08-02T10:05:43.000Z</time>
      </trkpt>
      <trkpt lat="47.36366" lon="-1.20116">
        <ele>67</ele>
        <time>2025-08-02T10:05:44.000Z</time>
      </trkpt>
      <trkpt lat="47.36366" lon="-1.20116">
        <ele>67</ele>
        <time>2025-08-02T10:05:45.000Z</time>
      </trkpt>
      <trkpt lat="47.36366" lon="-1.20116">
        <ele>67</ele>
        <time>2025-08-02T10:05:46.000Z</time>
      </trkpt>
      <trkpt lat="47.36366" lon="-1.20116">
        <ele>67</ele>
        <time>2025-08-02T10:05:47.000Z</time>
      </trkpt>
      <trkpt lat="47.36366" lon="-1.20116">
        <ele>67</ele>
        <time>2025-08-02T10:05:48.000Z</time>
      </trkpt>
      <trkpt lat="47.36366" lon="-1.20116">
        <ele>67</ele>
        <time>2025-08-02T10:05:49.000Z</time>
      </trkpt>
      <trkpt lat="47.36366" lon="-1.20116">
        <ele>67</ele>
        <time>2025-08-02T10:05:50.000Z</time>
      </trkpt>
      <trkpt lat="47.36366" lon="-1.20116">
        <ele>67</ele>
        <time>2025-08-02T10:05:51.000Z</time>
      </trkpt>
      <trkpt lat="47.36366" lon="-1.20116">
        <ele>67</ele>
        <time>2025-08-02T10:05:52.000Z</time>
      </trkpt>
      <trkpt lat="47.36366" lon="-1.20116">
        <ele>67</ele>
        <time>2025-08-02T10:05:53.000Z</time>
      </trkpt>
      <trkpt lat="47.36366" lon="-1.20116">
        <ele>67</ele>
        <time>2025-08-02T10:05:54.000Z</time>
      </trkpt>
      <trkpt lat="47.36366" lon="-1.20116">
        <ele>67</ele>
        <time>2025-08-02T10:05:55.000Z</time>
      </trkpt>
      <trkpt lat="47.36366" lon="-1.20116">
        <ele>67</ele>
        <time>2025-08-02T10:05:56.000Z</time>
      </trkpt>
      <trkpt lat="47.36366" lon="-1.20116">
        <ele>67</ele>
        <time>2025-08-02T10:05:57.000Z</time>
      </trkpt>
      <trkpt lat="47.36366" lon="-1.20116">
        <ele>67</ele>
        <time>2025-08-02T10:05:58.000Z</time>
      </trkpt>
      <trkpt lat="47.36366" lon="-1.20116">
        <ele>67</ele>
        <time>2025-08-02T10:05:59.000Z</time>
      </trkpt>
      <trkpt lat="47.36366" lon="-1.20116">
        <ele>67</ele>
        <time>2025-08-02T10:06:00.000Z</time>
      </trkpt>
      <trkpt lat="47.36366" lon="-1.20116">
        <ele>67</ele>
        <time>2025-08-02T10:06:01.000Z</time>
      </trkpt>
      <trkpt lat="47.36366" lon="-1.20116">
        <ele>67</ele>
        <time>2025-08-02T10:06:02.000Z</time>
      </trkpt>
      <trkpt lat="47.36366" lon="-1.20116">
        <ele>67</ele>
        <time>2025-08-02T10:06:03.000Z</time>
      </trkpt>
      <trkpt lat="47.36366" lon="-1.20116">
        <ele>67</ele>
        <time>2025-08-02T10:06:04.000Z</time>
      </trkpt>
      <trkpt lat="47.36366" lon="-1.20116">
        <ele>67</ele>
        <time>2025-08-02T10:06:05.000Z</time>
      </trkpt>
      <trkpt lat="47.36366" lon="-1.20116">
        <ele>67</ele>
        <time>2025-08-02T10:06:06.000Z</time>
      </trkpt>
      <trkpt lat="47.36366" lon="-1.20116">
        <ele>67</ele>
        <time>2025-08-02T10:06:07.000Z</time>
      </trkpt>
      <trkpt lat="47.36366" lon="-1.20116">
        <ele>67</ele>
        <time>2025-08-02T10:06:08.000Z</time>
      </trkpt>
      <trkpt lat="47.36366" lon="-1.20116">
        <ele>67</ele>
        <time>2025-08-02T10:06:09.000Z</time>
      </trkpt>
      <trkpt lat="47.36367" lon="-1.20116">
        <ele>67</ele>
        <time>2025-08-02T10:06:10.000Z</time>
      </trkpt>
      <trkpt lat="47.36369" lon="-1.20115">
        <ele>66</ele>
        <time>2025-08-02T10:06:11.000Z</time>
      </trkpt>
      <trkpt lat="47.3637" lon="-1.20114">
        <ele>66</ele>
        <time>2025-08-02T10:06:12.000Z</time>
      </trkpt>
      <trkpt lat="47.36371" lon="-1.20115">
        <ele>66</ele>
        <time>2025-08-02T10:06:13.000Z</time>
      </trkpt>
      <trkpt lat="47.36372" lon="-1.20117">
        <ele>66</ele>
        <time>2025-08-02T10:06:14.000Z</time>
      </trkpt>
      <trkpt lat="47.36374" lon="-1.20118">
        <ele>67</ele>
        <time>2025-08-02T10:06:15.000Z</time>
      </trkpt>
      <trkpt lat="47.36375" lon="-1.20119">
        <ele>66</ele>
        <time>2025-08-02T10:06:16.000Z</time>
      </trkpt>
      <trkpt lat="47.36376" lon="-1.20119">
        <ele>66</ele>
        <time>2025-08-02T10:06:17.000Z</time>
      </trkpt>
      <trkpt lat="47.36377" lon="-1.20119">
        <ele>66</ele>
        <time>2025-08-02T10:06:18.000Z</time>
      </trkpt>
      <trkpt lat="47.36378" lon="-1.20119">
        <ele>66</ele>
        <time>2025-08-02T10:06:19.000Z</time>
      </trkpt>
      <trkpt lat="47.36378" lon="-1.20119">
        <ele>66</ele>
        <time>2025-08-02T10:06:20.000Z</time>
      </trkpt>
      <trkpt lat="47.36379" lon="-1.20119">
        <ele>66</ele>
        <time>2025-08-02T10:06:21.000Z</time>
      </trkpt>
      <trkpt lat="47.3638" lon="-1.20119">
        <ele>66</ele>
        <time>2025-08-02T10:06:22.000Z</time>
      </trkpt>
      <trkpt lat="47.36381" lon="-1.20118">
        <ele>65</ele>
        <time>2025-08-02T10:06:23.000Z</time>
      </trkpt>
      <trkpt lat="47.36383" lon="-1.20119">
        <ele>65</ele>
        <time>2025-08-02T10:06:24.000Z</time>
      </trkpt>
      <trkpt lat="47.36384" lon="-1.20118">
        <ele>66</ele>
        <time>2025-08-02T10:06:25.000Z</time>
      </trkpt>
      <trkpt lat="47.36385" lon="-1.20118">
        <ele>66</ele>
        <time>2025-08-02T10:06:26.000Z</time>
      </trkpt>
      <trkpt lat="47.36386" lon="-1.20117">
        <ele>65</ele>
        <time>2025-08-02T10:06:27.000Z</time>
      </trkpt>
      <trkpt lat="47.36387" lon="-1.20117">
        <ele>66</ele>
        <time>2025-08-02T10:06:28.000Z</time>
      </trkpt>
      <trkpt lat="47.36389" lon="-1.20116">
        <ele>66</ele>
        <time>2025-08-02T10:06:29.000Z</time>
      </trkpt>
      <trkpt lat="47.3639" lon="-1.20116">
        <ele>66</ele>
        <time>2025-08-02T10:06:30.000Z</time>
      </trkpt>
      <trkpt lat="47.36392" lon="-1.20115">
        <ele>66</ele>
        <time>2025-08-02T10:06:31.000Z</time>
      </trkpt>
      <trkpt lat="47.36393" lon="-1.20114">
        <ele>66</ele>
        <time>2025-08-02T10:06:32.000Z</time>
      </trkpt>
      <trkpt lat="47.36395" lon="-1.20113">
        <ele>67</ele>
        <time>2025-08-02T10:06:33.000Z</time>
      </trkpt>
      <trkpt lat="47.36396" lon="-1.20112">
        <ele>67</ele>
        <time>2025-08-02T10:06:34.000Z</time>
      </trkpt>
      <trkpt lat="47.36397" lon="-1.20112">
        <ele>67</ele>
        <time>2025-08-02T10:06:35.000Z</time>
      </trkpt>
      <trkpt lat="47.36398" lon="-1.20111">
        <ele>67</ele>
        <time>2025-08-02T10:06:36.000Z</time>
      </trkpt>
      <trkpt lat="47.36398" lon="-1.2011">
        <ele>67</ele>
        <time>2025-08-02T10:06:37.000Z</time>
      </trkpt>
      <trkpt lat="47.36399" lon="-1.2011">
        <ele>67</ele>
        <time>2025-08-02T10:06:38.000Z</time>
      </trkpt>
      <trkpt lat="47.36401" lon="-1.20109">
        <ele>67</ele>
        <time>2025-08-02T10:06:39.000Z</time>
      </trkpt>
      <trkpt lat="47.36403" lon="-1.20109">
        <ele>67</ele>
        <time>2025-08-02T10:06:40.000Z</time>
      </trkpt>
      <trkpt lat="47.36404" lon="-1.20108">
        <ele>67</ele>
        <time>2025-08-02T10:06:41.000Z</time>
      </trkpt>
      <trkpt lat="47.36405" lon="-1.20108">
        <ele>67</ele>
        <time>2025-08-02T10:06:42.000Z</time>
      </trkpt>
      <trkpt lat="47.36407" lon="-1.20107">
        <ele>67</ele>
        <time>2025-08-02T10:06:43.000Z</time>
      </trkpt>
      <trkpt lat="47.36408" lon="-1.20106">
        <ele>67</ele>
        <time>2025-08-02T10:06:44.000Z</time>
      </trkpt>
      <trkpt lat="47.36409" lon="-1.20105">
        <ele>67</ele>
        <time>2025-08-02T10:06:45.000Z</time>
      </trkpt>
      <trkpt lat="47.3641" lon="-1.20105">
        <ele>67</ele>
        <time>2025-08-02T10:06:46.000Z</time>
      </trkpt>
      <trkpt lat="47.36411" lon="-1.20105">
        <ele>68</ele>
        <time>2025-08-02T10:06:47.000Z</time>
      </trkpt>
      <trkpt lat="47.36412" lon="-1.20105">
        <ele>68</ele>
        <time>2025-08-02T10:06:48.000Z</time>
      </trkpt>
      <trkpt lat="47.36413" lon="-1.20105">
        <ele>68</ele>
        <time>2025-08-02T10:06:49.000Z</time>
      </trkpt>
      <trkpt lat="47.36415" lon="-1.20104">
        <ele>68</ele>
        <time>2025-08-02T10:06:50.000Z</time>
      </trkpt>
      <trkpt lat="47.36416" lon="-1.20104">
        <ele>68</ele>
        <time>2025-08-02T10:06:51.000Z</time>
      </trkpt>
      <trkpt lat="47.36417" lon="-1.20103">
        <ele>68</ele>
        <time>2025-08-02T10:06:52.000Z</time>
      </trkpt>
      <trkpt lat="47.36419" lon="-1.20103">
        <ele>68</ele>
        <time>2025-08-02T10:06:53.000Z</time>
      </trkpt>
      <trkpt lat="47.3642" lon="-1.20103">
        <ele>69</ele>
        <time>2025-08-02T10:06:54.000Z</time>
      </trkpt>
      <trkpt lat="47.36421" lon="-1.20103">
        <ele>69</ele>
        <time>2025-08-02T10:06:55.000Z</time>
      </trkpt>
      <trkpt lat="47.36421" lon="-1.20102">
        <ele>69</ele>
        <time>2025-08-02T10:06:56.000Z</time>
      </trkpt>
      <trkpt lat="47.36422" lon="-1.20102">
        <ele>69</ele>
        <time>2025-08-02T10:06:57.000Z</time>
      </trkpt>
      <trkpt lat="47.36423" lon="-1.20102">
        <ele>69</ele>
        <time>2025-08-02T10:06:58.000Z</time>
      </trkpt>
      <trkpt lat="47.36425" lon="-1.20102">
        <ele>69</ele>
        <time>2025-08-02T10:06:59.000Z</time>
      </trkpt>
      <trkpt lat="47.36426" lon="-1.20101">
        <ele>69</ele>
        <time>2025-08-02T10:07:00.000Z</time>
      </trkpt>
      <trkpt lat="47.36427" lon="-1.20101">
        <ele>70</ele>
        <time>2025-08-02T10:07:01.000Z</time>
      </trkpt>
      <trkpt lat="47.36429" lon="-1.201">
        <ele>70</ele>
        <time>2025-08-02T10:07:02.000Z</time>
      </trkpt>
      <trkpt lat="47.3643" lon="-1.20099">
        <ele>70</ele>
        <time>2025-08-02T10:07:03.000Z</time>
      </trkpt>
      <trkpt lat="47.36429" lon="-1.20099">
        <ele>70</ele>
        <time>2025-08-02T10:07:04.000Z</time>
      </trkpt>
      <trkpt lat="47.36429" lon="-1.20099">
        <ele>70</ele>
        <time>2025-08-02T10:07:05.000Z</time>
      </trkpt>
      <trkpt lat="47.36428" lon="-1.20099">
        <ele>70</ele>
        <time>2025-08-02T10:07:06.000Z</time>
      </trkpt>
      <trkpt lat="47.36428" lon="-1.20101">
        <ele>70</ele>
        <time>2025-08-02T10:07:07.000Z</time>
      </trkpt>
      <trkpt lat="47.36428" lon="-1.20101">
        <ele>70</ele>
        <time>2025-08-02T10:07:08.000Z</time>
      </trkpt>
      <trkpt lat="47.36428" lon="-1.20101">
        <ele>70</ele>
        <time>2025-08-02T10:07:09.000Z</time>
      </trkpt>
      <trkpt lat="47.36428" lon="-1.20101">
        <ele>70</ele>
        <time>2025-08-02T10:07:10.000Z</time>
      </trkpt>
      <trkpt lat="47.36429" lon="-1.20102">
        <ele>71</ele>
        <time>2025-08-02T10:07:11.000Z</time>
      </trkpt>
      <trkpt lat="47.3643" lon="-1.20102">
        <ele>71</ele>
        <time>2025-08-02T10:07:12.000Z</time>
      </trkpt>
      <trkpt lat="47.36431" lon="-1.20102">
        <ele>71</ele>
        <time>2025-08-02T10:07:13.000Z</time>
      </trkpt>
      <trkpt lat="47.36432" lon="-1.20102">
        <ele>71</ele>
        <time>2025-08-02T10:07:14.000Z</time>
      </trkpt>
      <trkpt lat="47.36433" lon="-1.20101">
        <ele>71</ele>
        <time>2025-08-02T10:07:15.000Z</time>
      </trkpt>
      <trkpt lat="47.36435" lon="-1.20101">
        <ele>71</ele>
        <time>2025-08-02T10:07:16.000Z</time>
      </trkpt>
      <trkpt lat="47.36436" lon="-1.20101">
        <ele>71</ele>
        <time>2025-08-02T10:07:17.000Z</time>
      </trkpt>
      <trkpt lat="47.36437" lon="-1.20101">
        <ele>71</ele>
        <time>2025-08-02T10:07:18.000Z</time>
      </trkpt>
      <trkpt lat="47.36438" lon="-1.20101">
        <ele>71</ele>
        <time>2025-08-02T10:07:19.000Z</time>
      </trkpt>
      <trkpt lat="47.36439" lon="-1.201">
        <ele>71</ele>
        <time>2025-08-02T10:07:20.000Z</time>
      </trkpt>
      <trkpt lat="47.36441" lon="-1.201">
        <ele>71</ele>
        <time>2025-08-02T10:07:21.000Z</time>
      </trkpt>
      <trkpt lat="47.36442" lon="-1.20099">
        <ele>72</ele>
        <time>2025-08-02T10:07:22.000Z</time>
      </trkpt>
      <trkpt lat="47.36443" lon="-1.20098">
        <ele>72</ele>
        <time>2025-08-02T10:07:23.000Z</time>
      </trkpt>
      <trkpt lat="47.36444" lon="-1.20097">
        <ele>72</ele>
        <time>2025-08-02T10:07:24.000Z</time>
      </trkpt>
      <trkpt lat="47.36445" lon="-1.20095">
        <ele>72</ele>
        <time>2025-08-02T10:07:25.000Z</time>
      </trkpt>
      <trkpt lat="47.36445" lon="-1.20095">
        <ele>72</ele>
        <time>2025-08-02T10:07:26.000Z</time>
      </trkpt>
      <trkpt lat="47.36446" lon="-1.20094">
        <ele>72</ele>
        <time>2025-08-02T10:07:27.000Z</time>
      </trkpt>
      <trkpt lat="47.36446" lon="-1.20092">
        <ele>72</ele>
        <time>2025-08-02T10:07:28.000Z</time>
      </trkpt>
      <trkpt lat="47.36446" lon="-1.2009">
        <ele>72</ele>
        <time>2025-08-02T10:07:29.000Z</time>
      </trkpt>
      <trkpt lat="47.36446" lon="-1.20088">
        <ele>72</ele>
        <time>2025-08-02T10:07:30.000Z</time>
      </trkpt>
      <trkpt lat="47.36446" lon="-1.20087">
        <ele>73</ele>
        <time>2025-08-02T10:07:31.000Z</time>
      </trkpt>
      <trkpt lat="47.36445" lon="-1.20085">
        <ele>73</ele>
        <time>2025-08-02T10:07:32.000Z</time>
      </trkpt>
      <trkpt lat="47.36445" lon="-1.20084">
        <ele>74</ele>
        <time>2025-08-02T10:07:33.000Z</time>
      </trkpt>
      <trkpt lat="47.36444" lon="-1.20082">
        <ele>74</ele>
        <time>2025-08-02T10:07:34.000Z</time>
      </trkpt>
      <trkpt lat="47.36444" lon="-1.2008">
        <ele>74</ele>
        <time>2025-08-02T10:07:35.000Z</time>
      </trkpt>
      <trkpt lat="47.36444" lon="-1.20078">
        <ele>74</ele>
        <time>2025-08-02T10:07:36.000Z</time>
      </trkpt>
      <trkpt lat="47.36444" lon="-1.20076">
        <ele>74</ele>
        <time>2025-08-02T10:07:37.000Z</time>
      </trkpt>
      <trkpt lat="47.36444" lon="-1.20074">
        <ele>74</ele>
        <time>2025-08-02T10:07:38.000Z</time>
      </trkpt>
      <trkpt lat="47.36443" lon="-1.20072">
        <ele>74</ele>
        <time>2025-08-02T10:07:39.000Z</time>
      </trkpt>
      <trkpt lat="47.36443" lon="-1.2007">
        <ele>74</ele>
        <time>2025-08-02T10:07:40.000Z</time>
      </trkpt>
      <trkpt lat="47.36443" lon="-1.20067">
        <ele>74</ele>
        <time>2025-08-02T10:07:41.000Z</time>
      </trkpt>
      <trkpt lat="47.36443" lon="-1.20065">
        <ele>73</ele>
        <time>2025-08-02T10:07:42.000Z</time>
      </trkpt>
      <trkpt lat="47.36442" lon="-1.20064">
        <ele>74</ele>
        <time>2025-08-02T10:07:43.000Z</time>
      </trkpt>
      <trkpt lat="47.36442" lon="-1.20063">
        <ele>73</ele>
        <time>2025-08-02T10:07:44.000Z</time>
      </trkpt>
      <trkpt lat="47.36442" lon="-1.20061">
        <ele>73</ele>
        <time>2025-08-02T10:07:45.000Z</time>
      </trkpt>
      <trkpt lat="47.36442" lon="-1.20059">
        <ele>73</ele>
        <time>2025-08-02T10:07:46.000Z</time>
      </trkpt>
      <trkpt lat="47.36442" lon="-1.20057">
        <ele>73</ele>
        <time>2025-08-02T10:07:47.000Z</time>
      </trkpt>
      <trkpt lat="47.36441" lon="-1.20054">
        <ele>73</ele>
        <time>2025-08-02T10:07:48.000Z</time>
      </trkpt>
      <trkpt lat="47.36441" lon="-1.20052">
        <ele>73</ele>
        <time>2025-08-02T10:07:49.000Z</time>
      </trkpt>
      <trkpt lat="47.3644" lon="-1.2005">
        <ele>72</ele>
        <time>2025-08-02T10:07:50.000Z</time>
      </trkpt>
      <trkpt lat="47.3644" lon="-1.20048">
        <ele>72</ele>
        <time>2025-08-02T10:07:51.000Z</time>
      </trkpt>
      <trkpt lat="47.36441" lon="-1.20046">
        <ele>71</ele>
        <time>2025-08-02T10:07:52.000Z</time>
      </trkpt>
      <trkpt lat="47.3644" lon="-1.20045">
        <ele>71</ele>
        <time>2025-08-02T10:07:53.000Z</time>
      </trkpt>
      <trkpt lat="47.3644" lon="-1.20043">
        <ele>72</ele>
        <time>2025-08-02T10:07:54.000Z</time>
      </trkpt>
      <trkpt lat="47.3644" lon="-1.20041">
        <ele>71</ele>
        <time>2025-08-02T10:07:55.000Z</time>
      </trkpt>
      <trkpt lat="47.36439" lon="-1.20039">
        <ele>71</ele>
        <time>2025-08-02T10:07:56.000Z</time>
      </trkpt>
      <trkpt lat="47.36439" lon="-1.20037">
        <ele>71</ele>
        <time>2025-08-02T10:07:57.000Z</time>
      </trkpt>
      <trkpt lat="47.36439" lon="-1.20035">
        <ele>71</ele>
        <time>2025-08-02T10:07:58.000Z</time>
      </trkpt>
      <trkpt lat="47.36438" lon="-1.20034">
        <ele>71</ele>
        <time>2025-08-02T10:07:59.000Z</time>
      </trkpt>
      <trkpt lat="47.36438" lon="-1.20033">
        <ele>71</ele>
        <time>2025-08-02T10:08:00.000Z</time>
      </trkpt>
      <trkpt lat="47.36438" lon="-1.20031">
        <ele>71</ele>
        <time>2025-08-02T10:08:01.000Z</time>
      </trkpt>
      <trkpt lat="47.36438" lon="-1.20029">
        <ele>70</ele>
        <time>2025-08-02T10:08:02.000Z</time>
      </trkpt>
      <trkpt lat="47.36438" lon="-1.20026">
        <ele>71</ele>
        <time>2025-08-02T10:08:03.000Z</time>
      </trkpt>
      <trkpt lat="47.36438" lon="-1.20024">
        <ele>71</ele>
        <time>2025-08-02T10:08:04.000Z</time>
      </trkpt>
      <trkpt lat="47.36438" lon="-1.20022">
        <ele>71</ele>
        <time>2025-08-02T10:08:05.000Z</time>
      </trkpt>
      <trkpt lat="47.36437" lon="-1.2002">
        <ele>71</ele>
        <time>2025-08-02T10:08:06.000Z</time>
      </trkpt>
      <trkpt lat="47.36437" lon="-1.20018">
        <ele>71</ele>
        <time>2025-08-02T10:08:07.000Z</time>
      </trkpt>
      <trkpt lat="47.36437" lon="-1.20016">
        <ele>71</ele>
        <time>2025-08-02T10:08:08.000Z</time>
      </trkpt>
      <trkpt lat="47.36437" lon="-1.20015">
        <ele>70</ele>
        <time>2025-08-02T10:08:09.000Z</time>
      </trkpt>
      <trkpt lat="47.36437" lon="-1.20013">
        <ele>71</ele>
        <time>2025-08-02T10:08:10.000Z</time>
      </trkpt>
      <trkpt lat="47.36437" lon="-1.20011">
        <ele>71</ele>
        <time>2025-08-02T10:08:11.000Z</time>
      </trkpt>
      <trkpt lat="47.36437" lon="-1.20009">
        <ele>71</ele>
        <time>2025-08-02T10:08:12.000Z</time>
      </trkpt>
      <trkpt lat="47.36436" lon="-1.20007">
        <ele>71</ele>
        <time>2025-08-02T10:08:13.000Z</time>
      </trkpt>
      <trkpt lat="47.36436" lon="-1.20007">
        <ele>71</ele>
        <time>2025-08-02T10:08:14.000Z</time>
      </trkpt>
      <trkpt lat="47.36436" lon="-1.20006">
        <ele>71</ele>
        <time>2025-08-02T10:08:15.000Z</time>
      </trkpt>
      <trkpt lat="47.36435" lon="-1.20004">
        <ele>72</ele>
        <time>2025-08-02T10:08:16.000Z</time>
      </trkpt>
      <trkpt lat="47.36435" lon="-1.20002">
        <ele>72</ele>
        <time>2025-08-02T10:08:17.000Z</time>
      </trkpt>
      <trkpt lat="47.36435" lon="-1.2">
        <ele>71</ele>
        <time>2025-08-02T10:08:18.000Z</time>
      </trkpt>
      <trkpt lat="47.36435" lon="-1.19999">
        <ele>71</ele>
        <time>2025-08-02T10:08:19.000Z</time>
      </trkpt>
      <trkpt lat="47.36435" lon="-1.19998">
        <ele>71</ele>
        <time>2025-08-02T10:08:20.000Z</time>
      </trkpt>
      <trkpt lat="47.36435" lon="-1.19996">
        <ele>71</ele>
        <time>2025-08-02T10:08:21.000Z</time>
      </trkpt>
      <trkpt lat="47.36435" lon="-1.19995">
        <ele>71</ele>
        <time>2025-08-02T10:08:22.000Z</time>
      </trkpt>
      <trkpt lat="47.36434" lon="-1.19993">
        <ele>71</ele>
        <time>2025-08-02T10:08:23.000Z</time>
      </trkpt>
      <trkpt lat="47.36435" lon="-1.19991">
        <ele>71</ele>
        <time>2025-08-02T10:08:24.000Z</time>
      </trkpt>
      <trkpt lat="47.36435" lon="-1.19988">
        <ele>71</ele>
        <time>2025-08-02T10:08:25.000Z</time>
      </trkpt>
      <trkpt lat="47.36434" lon="-1.19986">
        <ele>71</ele>
        <time>2025-08-02T10:08:26.000Z</time>
      </trkpt>
      <trkpt lat="47.36434" lon="-1.19985">
        <ele>71</ele>
        <time>2025-08-02T10:08:27.000Z</time>
      </trkpt>
      <trkpt lat="47.36434" lon="-1.19983">
        <ele>71</ele>
        <time>2025-08-02T10:08:28.000Z</time>
      </trkpt>
      <trkpt lat="47.36433" lon="-1.1998">
        <ele>70</ele>
        <time>2025-08-02T10:08:29.000Z</time>
      </trkpt>
      <trkpt lat="47.36433" lon="-1.19979">
        <ele>70</ele>
        <time>2025-08-02T10:08:30.000Z</time>
      </trkpt>
      <trkpt lat="47.36433" lon="-1.19978">
        <ele>70</ele>
        <time>2025-08-02T10:08:31.000Z</time>
      </trkpt>
      <trkpt lat="47.36433" lon="-1.19976">
        <ele>70</ele>
        <time>2025-08-02T10:08:32.000Z</time>
      </trkpt>
      <trkpt lat="47.36434" lon="-1.19974">
        <ele>70</ele>
        <time>2025-08-02T10:08:33.000Z</time>
      </trkpt>
      <trkpt lat="47.36433" lon="-1.19972">
        <ele>70</ele>
        <time>2025-08-02T10:08:34.000Z</time>
      </trkpt>
      <trkpt lat="47.36433" lon="-1.19971">
        <ele>70</ele>
        <time>2025-08-02T10:08:35.000Z</time>
      </trkpt>
      <trkpt lat="47.36433" lon="-1.19969">
        <ele>70</ele>
        <time>2025-08-02T10:08:36.000Z</time>
      </trkpt>
      <trkpt lat="47.36433" lon="-1.19967">
        <ele>70</ele>
        <time>2025-08-02T10:08:37.000Z</time>
      </trkpt>
      <trkpt lat="47.36434" lon="-1.19965">
        <ele>70</ele>
        <time>2025-08-02T10:08:38.000Z</time>
      </trkpt>
      <trkpt lat="47.36434" lon="-1.19964">
        <ele>70</ele>
        <time>2025-08-02T10:08:39.000Z</time>
      </trkpt>
      <trkpt lat="47.36434" lon="-1.19962">
        <ele>70</ele>
        <time>2025-08-02T10:08:40.000Z</time>
      </trkpt>
      <trkpt lat="47.36434" lon="-1.19961">
        <ele>70</ele>
        <time>2025-08-02T10:08:41.000Z</time>
      </trkpt>
      <trkpt lat="47.36434" lon="-1.19959">
        <ele>70</ele>
        <time>2025-08-02T10:08:42.000Z</time>
      </trkpt>
      <trkpt lat="47.36435" lon="-1.19957">
        <ele>70</ele>
        <time>2025-08-02T10:08:43.000Z</time>
      </trkpt>
      <trkpt lat="47.36435" lon="-1.19955">
        <ele>70</ele>
        <time>2025-08-02T10:08:44.000Z</time>
      </trkpt>
      <trkpt lat="47.36436" lon="-1.19954">
        <ele>70</ele>
        <time>2025-08-02T10:08:45.000Z</time>
      </trkpt>
      <trkpt lat="47.36436" lon="-1.19952">
        <ele>70</ele>
        <time>2025-08-02T10:08:46.000Z</time>
      </trkpt>
      <trkpt lat="47.36437" lon="-1.19951">
        <ele>70</ele>
        <time>2025-08-02T10:08:47.000Z</time>
      </trkpt>
      <trkpt lat="47.36437" lon="-1.1995">
        <ele>70</ele>
        <time>2025-08-02T10:08:48.000Z</time>
      </trkpt>
      <trkpt lat="47.36438" lon="-1.19949">
        <ele>70</ele>
        <time>2025-08-02T10:08:49.000Z</time>
      </trkpt>
      <trkpt lat="47.36438" lon="-1.19948">
        <ele>70</ele>
        <time>2025-08-02T10:08:50.000Z</time>
      </trkpt>
      <trkpt lat="47.36439" lon="-1.19947">
        <ele>70</ele>
        <time>2025-08-02T10:08:51.000Z</time>
      </trkpt>
      <trkpt lat="47.36439" lon="-1.19946">
        <ele>70</ele>
        <time>2025-08-02T10:08:52.000Z</time>
      </trkpt>
      <trkpt lat="47.3644" lon="-1.19945">
        <ele>71</ele>
        <time>2025-08-02T10:08:53.000Z</time>
      </trkpt>
      <trkpt lat="47.36441" lon="-1.19944">
        <ele>71</ele>
        <time>2025-08-02T10:08:54.000Z</time>
      </trkpt>
      <trkpt lat="47.36442" lon="-1.19943">
        <ele>71</ele>
        <time>2025-08-02T10:08:55.000Z</time>
      </trkpt>
      <trkpt lat="47.36443" lon="-1.19943">
        <ele>71</ele>
        <time>2025-08-02T10:08:56.000Z</time>
      </trkpt>
      <trkpt lat="47.36444" lon="-1.19943">
        <ele>72</ele>
        <time>2025-08-02T10:08:57.000Z</time>
      </trkpt>
      <trkpt lat="47.36446" lon="-1.19943">
        <ele>72</ele>
        <time>2025-08-02T10:08:58.000Z</time>
      </trkpt>
      <trkpt lat="47.36447" lon="-1.19942">
        <ele>73</ele>
        <time>2025-08-02T10:08:59.000Z</time>
      </trkpt>
      <trkpt lat="47.36449" lon="-1.19942">
        <ele>73</ele>
        <time>2025-08-02T10:09:00.000Z</time>
      </trkpt>
      <trkpt lat="47.3645" lon="-1.19942">
        <ele>73</ele>
        <time>2025-08-02T10:09:01.000Z</time>
      </trkpt>
      <trkpt lat="47.36451" lon="-1.19941">
        <ele>73</ele>
        <time>2025-08-02T10:09:02.000Z</time>
      </trkpt>
      <trkpt lat="47.36453" lon="-1.19941">
        <ele>73</ele>
        <time>2025-08-02T10:09:03.000Z</time>
      </trkpt>
      <trkpt lat="47.36454" lon="-1.1994">
        <ele>73</ele>
        <time>2025-08-02T10:09:04.000Z</time>
      </trkpt>
      <trkpt lat="47.36455" lon="-1.1994">
        <ele>74</ele>
        <time>2025-08-02T10:09:05.000Z</time>
      </trkpt>
      <trkpt lat="47.36457" lon="-1.19939">
        <ele>74</ele>
        <time>2025-08-02T10:09:06.000Z</time>
      </trkpt>
      <trkpt lat="47.36458" lon="-1.19938">
        <ele>74</ele>
        <time>2025-08-02T10:09:07.000Z</time>
      </trkpt>
      <trkpt lat="47.36459" lon="-1.19937">
        <ele>74</ele>
        <time>2025-08-02T10:09:08.000Z</time>
      </trkpt>
      <trkpt lat="47.3646" lon="-1.19937">
        <ele>75</ele>
        <time>2025-08-02T10:09:09.000Z</time>
      </trkpt>
      <trkpt lat="47.36462" lon="-1.19937">
        <ele>75</ele>
        <time>2025-08-02T10:09:10.000Z</time>
      </trkpt>
      <trkpt lat="47.36463" lon="-1.19937">
        <ele>74</ele>
        <time>2025-08-02T10:09:11.000Z</time>
      </trkpt>
      <trkpt lat="47.36464" lon="-1.19937">
        <ele>74</ele>
        <time>2025-08-02T10:09:12.000Z</time>
      </trkpt>
      <trkpt lat="47.36466" lon="-1.19937">
        <ele>74</ele>
        <time>2025-08-02T10:09:13.000Z</time>
      </trkpt>
      <trkpt lat="47.36467" lon="-1.19937">
        <ele>74</ele>
        <time>2025-08-02T10:09:14.000Z</time>
      </trkpt>
      <trkpt lat="47.36467" lon="-1.19938">
        <ele>73</ele>
        <time>2025-08-02T10:09:15.000Z</time>
      </trkpt>
      <trkpt lat="47.36469" lon="-1.19938">
        <ele>73</ele>
        <time>2025-08-02T10:09:16.000Z</time>
      </trkpt>
      <trkpt lat="47.3647" lon="-1.19938">
        <ele>73</ele>
        <time>2025-08-02T10:09:17.000Z</time>
      </trkpt>
      <trkpt lat="47.36471" lon="-1.19938">
        <ele>73</ele>
        <time>2025-08-02T10:09:18.000Z</time>
      </trkpt>
      <trkpt lat="47.36473" lon="-1.19937">
        <ele>73</ele>
        <time>2025-08-02T10:09:19.000Z</time>
      </trkpt>
      <trkpt lat="47.36474" lon="-1.19937">
        <ele>73</ele>
        <time>2025-08-02T10:09:20.000Z</time>
      </trkpt>
      <trkpt lat="47.36475" lon="-1.19937">
        <ele>73</ele>
        <time>2025-08-02T10:09:21.000Z</time>
      </trkpt>
      <trkpt lat="47.36476" lon="-1.19938">
        <ele>74</ele>
        <time>2025-08-02T10:09:22.000Z</time>
      </trkpt>
      <trkpt lat="47.36478" lon="-1.19938">
        <ele>74</ele>
        <time>2025-08-02T10:09:23.000Z</time>
      </trkpt>
      <trkpt lat="47.36479" lon="-1.19938">
        <ele>74</ele>
        <time>2025-08-02T10:09:24.000Z</time>
      </trkpt>
      <trkpt lat="47.3648" lon="-1.19938">
        <ele>73</ele>
        <time>2025-08-02T10:09:25.000Z</time>
      </trkpt>
      <trkpt lat="47.36482" lon="-1.19938">
        <ele>74</ele>
        <time>2025-08-02T10:09:26.000Z</time>
      </trkpt>
      <trkpt lat="47.36483" lon="-1.19938">
        <ele>74</ele>
        <time>2025-08-02T10:09:27.000Z</time>
      </trkpt>
      <trkpt lat="47.36484" lon="-1.19938">
        <ele>74</ele>
        <time>2025-08-02T10:09:28.000Z</time>
      </trkpt>
      <trkpt lat="47.36485" lon="-1.19939">
        <ele>75</ele>
        <time>2025-08-02T10:09:29.000Z</time>
      </trkpt>
      <trkpt lat="47.36486" lon="-1.19939">
        <ele>75</ele>
        <time>2025-08-02T10:09:30.000Z</time>
      </trkpt>
      <trkpt lat="47.36487" lon="-1.1994">
        <ele>75</ele>
        <time>2025-08-02T10:09:31.000Z</time>
      </trkpt>
      <trkpt lat="47.36489" lon="-1.19941">
        <ele>75</ele>
        <time>2025-08-02T10:09:32.000Z</time>
      </trkpt>
      <trkpt lat="47.3649" lon="-1.19942">
        <ele>75</ele>
        <time>2025-08-02T10:09:33.000Z</time>
      </trkpt>
      <trkpt lat="47.36491" lon="-1.19943">
        <ele>75</ele>
        <time>2025-08-02T10:09:34.000Z</time>
      </trkpt>
      <trkpt lat="47.36492" lon="-1.19943">
        <ele>76</ele>
        <time>2025-08-02T10:09:35.000Z</time>
      </trkpt>
      <trkpt lat="47.36494" lon="-1.19945">
        <ele>76</ele>
        <time>2025-08-02T10:09:36.000Z</time>
      </trkpt>
      <trkpt lat="47.36495" lon="-1.19946">
        <ele>76</ele>
        <time>2025-08-02T10:09:37.000Z</time>
      </trkpt>
      <trkpt lat="47.36496" lon="-1.19948">
        <ele>76</ele>
        <time>2025-08-02T10:09:38.000Z</time>
      </trkpt>
      <trkpt lat="47.36497" lon="-1.1995">
        <ele>76</ele>
        <time>2025-08-02T10:09:39.000Z</time>
      </trkpt>
      <trkpt lat="47.36498" lon="-1.1995">
        <ele>76</ele>
        <time>2025-08-02T10:09:40.000Z</time>
      </trkpt>
      <trkpt lat="47.36499" lon="-1.19951">
        <ele>76</ele>
        <time>2025-08-02T10:09:41.000Z</time>
      </trkpt>
      <trkpt lat="47.365" lon="-1.19951">
        <ele>76</ele>
        <time>2025-08-02T10:09:42.000Z</time>
      </trkpt>
      <trkpt lat="47.36502" lon="-1.19952">
        <ele>76</ele>
        <time>2025-08-02T10:09:43.000Z</time>
      </trkpt>
      <trkpt lat="47.36503" lon="-1.19952">
        <ele>76</ele>
        <time>2025-08-02T10:09:44.000Z</time>
      </trkpt>
      <trkpt lat="47.36504" lon="-1.19952">
        <ele>76</ele>
        <time>2025-08-02T10:09:45.000Z</time>
      </trkpt>
      <trkpt lat="47.36505" lon="-1.19951">
        <ele>76</ele>
        <time>2025-08-02T10:09:46.000Z</time>
      </trkpt>
      <trkpt lat="47.36505" lon="-1.1995">
        <ele>76</ele>
        <time>2025-08-02T10:09:47.000Z</time>
      </trkpt>
      <trkpt lat="47.36506" lon="-1.19949">
        <ele>76</ele>
        <time>2025-08-02T10:09:48.000Z</time>
      </trkpt>
      <trkpt lat="47.36507" lon="-1.19948">
        <ele>76</ele>
        <time>2025-08-02T10:09:49.000Z</time>
      </trkpt>
      <trkpt lat="47.36508" lon="-1.19946">
        <ele>76</ele>
        <time>2025-08-02T10:09:50.000Z</time>
      </trkpt>
      <trkpt lat="47.36509" lon="-1.19945">
        <ele>76</ele>
        <time>2025-08-02T10:09:51.000Z</time>
      </trkpt>
      <trkpt lat="47.36509" lon="-1.19943">
        <ele>77</ele>
        <time>2025-08-02T10:09:52.000Z</time>
      </trkpt>
      <trkpt lat="47.3651" lon="-1.19941">
        <ele>77</ele>
        <time>2025-08-02T10:09:53.000Z</time>
      </trkpt>
      <trkpt lat="47.3651" lon="-1.19941">
        <ele>77</ele>
        <time>2025-08-02T10:09:54.000Z</time>
      </trkpt>
      <trkpt lat="47.3651" lon="-1.19941">
        <ele>77</ele>
        <time>2025-08-02T10:09:55.000Z</time>
      </trkpt>
      <trkpt lat="47.3651" lon="-1.19939">
        <ele>76</ele>
        <time>2025-08-02T10:09:56.000Z</time>
      </trkpt>
      <trkpt lat="47.3651" lon="-1.19936">
        <ele>76</ele>
        <time>2025-08-02T10:09:57.000Z</time>
      </trkpt>
      <trkpt lat="47.36511" lon="-1.19934">
        <ele>76</ele>
        <time>2025-08-02T10:09:58.000Z</time>
      </trkpt>
      <trkpt lat="47.36511" lon="-1.19931">
        <ele>77</ele>
        <time>2025-08-02T10:09:59.000Z</time>
      </trkpt>
      <trkpt lat="47.36511" lon="-1.19929">
        <ele>77</ele>
        <time>2025-08-02T10:10:00.000Z</time>
      </trkpt>
      <trkpt lat="47.36511" lon="-1.19927">
        <ele>77</ele>
        <time>2025-08-02T10:10:01.000Z</time>
      </trkpt>
      <trkpt lat="47.36511" lon="-1.19925">
        <ele>77</ele>
        <time>2025-08-02T10:10:02.000Z</time>
      </trkpt>
      <trkpt lat="47.36511" lon="-1.19923">
        <ele>77</ele>
        <time>2025-08-02T10:10:03.000Z</time>
      </trkpt>
      <trkpt lat="47.36511" lon="-1.1992">
        <ele>77</ele>
        <time>2025-08-02T10:10:04.000Z</time>
      </trkpt>
      <trkpt lat="47.36511" lon="-1.19917">
        <ele>78</ele>
        <time>2025-08-02T10:10:05.000Z</time>
      </trkpt>
      <trkpt lat="47.36511" lon="-1.19915">
        <ele>78</ele>
        <time>2025-08-02T10:10:06.000Z</time>
      </trkpt>
      <trkpt lat="47.36511" lon="-1.19913">
        <ele>78</ele>
        <time>2025-08-02T10:10:07.000Z</time>
      </trkpt>
      <trkpt lat="47.36511" lon="-1.19911">
        <ele>78</ele>
        <time>2025-08-02T10:10:08.000Z</time>
      </trkpt>
      <trkpt lat="47.36511" lon="-1.1991">
        <ele>78</ele>
        <time>2025-08-02T10:10:09.000Z</time>
      </trkpt>
      <trkpt lat="47.36511" lon="-1.19907">
        <ele>78</ele>
        <time>2025-08-02T10:10:10.000Z</time>
      </trkpt>
      <trkpt lat="47.36511" lon="-1.19905">
        <ele>78</ele>
        <time>2025-08-02T10:10:11.000Z</time>
      </trkpt>
      <trkpt lat="47.36511" lon="-1.19902">
        <ele>78</ele>
        <time>2025-08-02T10:10:12.000Z</time>
      </trkpt>
      <trkpt lat="47.36511" lon="-1.199">
        <ele>78</ele>
        <time>2025-08-02T10:10:13.000Z</time>
      </trkpt>
      <trkpt lat="47.36511" lon="-1.19898">
        <ele>78</ele>
        <time>2025-08-02T10:10:14.000Z</time>
      </trkpt>
      <trkpt lat="47.36511" lon="-1.19895">
        <ele>78</ele>
        <time>2025-08-02T10:10:15.000Z</time>
      </trkpt>
      <trkpt lat="47.3651" lon="-1.19893">
        <ele>77</ele>
        <time>2025-08-02T10:10:16.000Z</time>
      </trkpt>
      <trkpt lat="47.3651" lon="-1.19891">
        <ele>77</ele>
        <time>2025-08-02T10:10:17.000Z</time>
      </trkpt>
      <trkpt lat="47.36511" lon="-1.1989">
        <ele>77</ele>
        <time>2025-08-02T10:10:18.000Z</time>
      </trkpt>
      <trkpt lat="47.36511" lon="-1.19888">
        <ele>77</ele>
        <time>2025-08-02T10:10:19.000Z</time>
      </trkpt>
      <trkpt lat="47.36511" lon="-1.19887">
        <ele>77</ele>
        <time>2025-08-02T10:10:20.000Z</time>
      </trkpt>
      <trkpt lat="47.3651" lon="-1.19885">
        <ele>77</ele>
        <time>2025-08-02T10:10:21.000Z</time>
      </trkpt>
      <trkpt lat="47.3651" lon="-1.19884">
        <ele>77</ele>
        <time>2025-08-02T10:10:22.000Z</time>
      </trkpt>
      <trkpt lat="47.3651" lon="-1.19882">
        <ele>76</ele>
        <time>2025-08-02T10:10:23.000Z</time>
      </trkpt>
      <trkpt lat="47.36509" lon="-1.1988">
        <ele>77</ele>
        <time>2025-08-02T10:10:24.000Z</time>
      </trkpt>
      <trkpt lat="47.36509" lon="-1.19878">
        <ele>77</ele>
        <time>2025-08-02T10:10:25.000Z</time>
      </trkpt>
      <trkpt lat="47.36508" lon="-1.19876">
        <ele>77</ele>
        <time>2025-08-02T10:10:26.000Z</time>
      </trkpt>
      <trkpt lat="47.36508" lon="-1.19874">
        <ele>77</ele>
        <time>2025-08-02T10:10:27.000Z</time>
      </trkpt>
      <trkpt lat="47.36508" lon="-1.19872">
        <ele>77</ele>
        <time>2025-08-02T10:10:28.000Z</time>
      </trkpt>
      <trkpt lat="47.36508" lon="-1.1987">
        <ele>77</ele>
        <time>2025-08-02T10:10:29.000Z</time>
      </trkpt>
      <trkpt lat="47.36508" lon="-1.19869">
        <ele>77</ele>
        <time>2025-08-02T10:10:30.000Z</time>
      </trkpt>
      <trkpt lat="47.36509" lon="-1.19867">
        <ele>78</ele>
        <time>2025-08-02T10:10:31.000Z</time>
      </trkpt>
      <trkpt lat="47.36509" lon="-1.19866">
        <ele>78</ele>
        <time>2025-08-02T10:10:32.000Z</time>
      </trkpt>
      <trkpt lat="47.36509" lon="-1.19864">
        <ele>78</ele>
        <time>2025-08-02T10:10:33.000Z</time>
      </trkpt>
      <trkpt lat="47.36509" lon="-1.19862">
        <ele>78</ele>
        <time>2025-08-02T10:10:34.000Z</time>
      </trkpt>
      <trkpt lat="47.36509" lon="-1.1986">
        <ele>77</ele>
        <time>2025-08-02T10:10:35.000Z</time>
      </trkpt>
      <trkpt lat="47.3651" lon="-1.19859">
        <ele>77</ele>
        <time>2025-08-02T10:10:36.000Z</time>
      </trkpt>
      <trkpt lat="47.3651" lon="-1.19857">
        <ele>77</ele>
        <time>2025-08-02T10:10:37.000Z</time>
      </trkpt>
      <trkpt lat="47.3651" lon="-1.19855">
        <ele>77</ele>
        <time>2025-08-02T10:10:38.000Z</time>
      </trkpt>
      <trkpt lat="47.3651" lon="-1.19853">
        <ele>77</ele>
        <time>2025-08-02T10:10:39.000Z</time>
      </trkpt>
      <trkpt lat="47.36511" lon="-1.19852">
        <ele>77</ele>
        <time>2025-08-02T10:10:40.000Z</time>
      </trkpt>
      <trkpt lat="47.3651" lon="-1.1985">
        <ele>77</ele>
        <time>2025-08-02T10:10:41.000Z</time>
      </trkpt>
      <trkpt lat="47.36509" lon="-1.19848">
        <ele>77</ele>
        <time>2025-08-02T10:10:42.000Z</time>
      </trkpt>
      <trkpt lat="47.36509" lon="-1.19845">
        <ele>77</ele>
        <time>2025-08-02T10:10:43.000Z</time>
      </trkpt>
      <trkpt lat="47.36509" lon="-1.19844">
        <ele>77</ele>
        <time>2025-08-02T10:10:44.000Z</time>
      </trkpt>
      <trkpt lat="47.36508" lon="-1.19842">
        <ele>77</ele>
        <time>2025-08-02T10:10:45.000Z</time>
      </trkpt>
      <trkpt lat="47.36508" lon="-1.1984">
        <ele>77</ele>
        <time>2025-08-02T10:10:46.000Z</time>
      </trkpt>
      <trkpt lat="47.36508" lon="-1.19839">
        <ele>77</ele>
        <time>2025-08-02T10:10:47.000Z</time>
      </trkpt>
      <trkpt lat="47.36508" lon="-1.19837">
        <ele>77</ele>
        <time>2025-08-02T10:10:48.000Z</time>
      </trkpt>
      <trkpt lat="47.36508" lon="-1.19835">
        <ele>77</ele>
        <time>2025-08-02T10:10:49.000Z</time>
      </trkpt>
      <trkpt lat="47.36508" lon="-1.19833">
        <ele>77</ele>
        <time>2025-08-02T10:10:50.000Z</time>
      </trkpt>
      <trkpt lat="47.36508" lon="-1.19831">
        <ele>76</ele>
        <time>2025-08-02T10:10:51.000Z</time>
      </trkpt>
      <trkpt lat="47.36509" lon="-1.19829">
        <ele>76</ele>
        <time>2025-08-02T10:10:52.000Z</time>
      </trkpt>
      <trkpt lat="47.36509" lon="-1.19827">
        <ele>77</ele>
        <time>2025-08-02T10:10:53.000Z</time>
      </trkpt>
      <trkpt lat="47.36509" lon="-1.19826">
        <ele>77</ele>
        <time>2025-08-02T10:10:54.000Z</time>
      </trkpt>
      <trkpt lat="47.36509" lon="-1.19824">
        <ele>77</ele>
        <time>2025-08-02T10:10:55.000Z</time>
      </trkpt>
      <trkpt lat="47.36509" lon="-1.19823">
        <ele>76</ele>
        <time>2025-08-02T10:10:56.000Z</time>
      </trkpt>
      <trkpt lat="47.3651" lon="-1.19821">
        <ele>76</ele>
        <time>2025-08-02T10:10:57.000Z</time>
      </trkpt>
      <trkpt lat="47.3651" lon="-1.19819">
        <ele>76</ele>
        <time>2025-08-02T10:10:58.000Z</time>
      </trkpt>
      <trkpt lat="47.36511" lon="-1.19817">
        <ele>76</ele>
        <time>2025-08-02T10:10:59.000Z</time>
      </trkpt>
      <trkpt lat="47.36511" lon="-1.19816">
        <ele>76</ele>
        <time>2025-08-02T10:11:00.000Z</time>
      </trkpt>
      <trkpt lat="47.36511" lon="-1.19815">
        <ele>76</ele>
        <time>2025-08-02T10:11:01.000Z</time>
      </trkpt>
      <trkpt lat="47.36512" lon="-1.19813">
        <ele>76</ele>
        <time>2025-08-02T10:11:02.000Z</time>
      </trkpt>
      <trkpt lat="47.36512" lon="-1.19812">
        <ele>77</ele>
        <time>2025-08-02T10:11:03.000Z</time>
      </trkpt>
      <trkpt lat="47.36512" lon="-1.19811">
        <ele>77</ele>
        <time>2025-08-02T10:11:04.000Z</time>
      </trkpt>
      <trkpt lat="47.36512" lon="-1.1981">
        <ele>77</ele>
        <time>2025-08-02T10:11:05.000Z</time>
      </trkpt>
      <trkpt lat="47.36512" lon="-1.19809">
        <ele>77</ele>
        <time>2025-08-02T10:11:06.000Z</time>
      </trkpt>
      <trkpt lat="47.36512" lon="-1.19807">
        <ele>77</ele>
        <time>2025-08-02T10:11:07.000Z</time>
      </trkpt>
      <trkpt lat="47.36512" lon="-1.19806">
        <ele>78</ele>
        <time>2025-08-02T10:11:08.000Z</time>
      </trkpt>
      <trkpt lat="47.36511" lon="-1.19804">
        <ele>77</ele>
        <time>2025-08-02T10:11:09.000Z</time>
      </trkpt>
      <trkpt lat="47.36511" lon="-1.19803">
        <ele>77</ele>
        <time>2025-08-02T10:11:10.000Z</time>
      </trkpt>
      <trkpt lat="47.36511" lon="-1.19801">
        <ele>77</ele>
        <time>2025-08-02T10:11:11.000Z</time>
      </trkpt>
      <trkpt lat="47.36511" lon="-1.19798">
        <ele>77</ele>
        <time>2025-08-02T10:11:12.000Z</time>
      </trkpt>
      <trkpt lat="47.36512" lon="-1.19797">
        <ele>77</ele>
        <time>2025-08-02T10:11:13.000Z</time>
      </trkpt>
      <trkpt lat="47.36512" lon="-1.19795">
        <ele>77</ele>
        <time>2025-08-02T10:11:14.000Z</time>
      </trkpt>
      <trkpt lat="47.36513" lon="-1.19794">
        <ele>77</ele>
        <time>2025-08-02T10:11:15.000Z</time>
      </trkpt>
      <trkpt lat="47.36514" lon="-1.19792">
        <ele>77</ele>
        <time>2025-08-02T10:11:16.000Z</time>
      </trkpt>
      <trkpt lat="47.36514" lon="-1.1979">
        <ele>77</ele>
        <time>2025-08-02T10:11:17.000Z</time>
      </trkpt>
      <trkpt lat="47.36515" lon="-1.19788">
        <ele>77</ele>
        <time>2025-08-02T10:11:18.000Z</time>
      </trkpt>
      <trkpt lat="47.36515" lon="-1.19786">
        <ele>76</ele>
        <time>2025-08-02T10:11:19.000Z</time>
      </trkpt>
      <trkpt lat="47.36515" lon="-1.19785">
        <ele>76</ele>
        <time>2025-08-02T10:11:20.000Z</time>
      </trkpt>
      <trkpt lat="47.36516" lon="-1.19783">
        <ele>76</ele>
        <time>2025-08-02T10:11:21.000Z</time>
      </trkpt>
      <trkpt lat="47.36517" lon="-1.1978">
        <ele>77</ele>
        <time>2025-08-02T10:11:22.000Z</time>
      </trkpt>
      <trkpt lat="47.36517" lon="-1.19777">
        <ele>77</ele>
        <time>2025-08-02T10:11:23.000Z</time>
      </trkpt>
      <trkpt lat="47.36518" lon="-1.19775">
        <ele>76</ele>
        <time>2025-08-02T10:11:24.000Z</time>
      </trkpt>
      <trkpt lat="47.36518" lon="-1.19774">
        <ele>76</ele>
        <time>2025-08-02T10:11:25.000Z</time>
      </trkpt>
      <trkpt lat="47.36519" lon="-1.19774">
        <ele>77</ele>
        <time>2025-08-02T10:11:26.000Z</time>
      </trkpt>
      <trkpt lat="47.36519" lon="-1.19773">
        <ele>77</ele>
        <time>2025-08-02T10:11:27.000Z</time>
      </trkpt>
      <trkpt lat="47.3652" lon="-1.19773">
        <ele>76</ele>
        <time>2025-08-02T10:11:28.000Z</time>
      </trkpt>
      <trkpt lat="47.3652" lon="-1.19772">
        <ele>75</ele>
        <time>2025-08-02T10:11:29.000Z</time>
      </trkpt>
      <trkpt lat="47.3652" lon="-1.1977">
        <ele>74</ele>
        <time>2025-08-02T10:11:30.000Z</time>
      </trkpt>
      <trkpt lat="47.3652" lon="-1.19768">
        <ele>75</ele>
        <time>2025-08-02T10:11:31.000Z</time>
      </trkpt>
      <trkpt lat="47.3652" lon="-1.19767">
        <ele>75</ele>
        <time>2025-08-02T10:11:32.000Z</time>
      </trkpt>
      <trkpt lat="47.3652" lon="-1.19767">
        <ele>74</ele>
        <time>2025-08-02T10:11:33.000Z</time>
      </trkpt>
      <trkpt lat="47.3652" lon="-1.19766">
        <ele>74</ele>
        <time>2025-08-02T10:11:34.000Z</time>
      </trkpt>
      <trkpt lat="47.3652" lon="-1.19765">
        <ele>74</ele>
        <time>2025-08-02T10:11:35.000Z</time>
      </trkpt>
      <trkpt lat="47.3652" lon="-1.19764">
        <ele>73</ele>
        <time>2025-08-02T10:11:36.000Z</time>
      </trkpt>
      <trkpt lat="47.3652" lon="-1.19762">
        <ele>74</ele>
        <time>2025-08-02T10:11:37.000Z</time>
      </trkpt>
      <trkpt lat="47.36521" lon="-1.1976">
        <ele>75</ele>
        <time>2025-08-02T10:11:38.000Z</time>
      </trkpt>
      <trkpt lat="47.36522" lon="-1.19759">
        <ele>75</ele>
        <time>2025-08-02T10:11:39.000Z</time>
      </trkpt>
      <trkpt lat="47.36523" lon="-1.19758">
        <ele>75</ele>
        <time>2025-08-02T10:11:40.000Z</time>
      </trkpt>
      <trkpt lat="47.36523" lon="-1.19757">
        <ele>74</ele>
        <time>2025-08-02T10:11:41.000Z</time>
      </trkpt>
      <trkpt lat="47.36524" lon="-1.19755">
        <ele>74</ele>
        <time>2025-08-02T10:11:42.000Z</time>
      </trkpt>
      <trkpt lat="47.36525" lon="-1.19754">
        <ele>74</ele>
        <time>2025-08-02T10:11:43.000Z</time>
      </trkpt>
      <trkpt lat="47.36525" lon="-1.19753">
        <ele>74</ele>
        <time>2025-08-02T10:11:44.000Z</time>
      </trkpt>
      <trkpt lat="47.36526" lon="-1.19752">
        <ele>74</ele>
        <time>2025-08-02T10:11:45.000Z</time>
      </trkpt>
      <trkpt lat="47.36526" lon="-1.19752">
        <ele>74</ele>
        <time>2025-08-02T10:11:46.000Z</time>
      </trkpt>
      <trkpt lat="47.36527" lon="-1.1975">
        <ele>75</ele>
        <time>2025-08-02T10:11:47.000Z</time>
      </trkpt>
      <trkpt lat="47.36528" lon="-1.1975">
        <ele>75</ele>
        <time>2025-08-02T10:11:48.000Z</time>
      </trkpt>
      <trkpt lat="47.36529" lon="-1.19749">
        <ele>75</ele>
        <time>2025-08-02T10:11:49.000Z</time>
      </trkpt>
      <trkpt lat="47.3653" lon="-1.19748">
        <ele>76</ele>
        <time>2025-08-02T10:11:50.000Z</time>
      </trkpt>
      <trkpt lat="47.36531" lon="-1.19747">
        <ele>76</ele>
        <time>2025-08-02T10:11:51.000Z</time>
      </trkpt>
      <trkpt lat="47.36532" lon="-1.19747">
        <ele>76</ele>
        <time>2025-08-02T10:11:52.000Z</time>
      </trkpt>
      <trkpt lat="47.36533" lon="-1.19746">
        <ele>76</ele>
        <time>2025-08-02T10:11:53.000Z</time>
      </trkpt>
      <trkpt lat="47.36534" lon="-1.19746">
        <ele>76</ele>
        <time>2025-08-02T10:11:54.000Z</time>
      </trkpt>
      <trkpt lat="47.36536" lon="-1.19745">
        <ele>76</ele>
        <time>2025-08-02T10:11:55.000Z</time>
      </trkpt>
      <trkpt lat="47.36537" lon="-1.19745">
        <ele>76</ele>
        <time>2025-08-02T10:11:56.000Z</time>
      </trkpt>
      <trkpt lat="47.36538" lon="-1.19744">
        <ele>76</ele>
        <time>2025-08-02T10:11:57.000Z</time>
      </trkpt>
      <trkpt lat="47.36539" lon="-1.19744">
        <ele>77</ele>
        <time>2025-08-02T10:11:58.000Z</time>
      </trkpt>
      <trkpt lat="47.3654" lon="-1.19743">
        <ele>77</ele>
        <time>2025-08-02T10:11:59.000Z</time>
      </trkpt>
      <trkpt lat="47.36541" lon="-1.19744">
        <ele>77</ele>
        <time>2025-08-02T10:12:00.000Z</time>
      </trkpt>
      <trkpt lat="47.36542" lon="-1.19744">
        <ele>77</ele>
        <time>2025-08-02T10:12:01.000Z</time>
      </trkpt>
      <trkpt lat="47.36543" lon="-1.19744">
        <ele>76</ele>
        <time>2025-08-02T10:12:02.000Z</time>
      </trkpt>
      <trkpt lat="47.36544" lon="-1.19745">
        <ele>77</ele>
        <time>2025-08-02T10:12:03.000Z</time>
      </trkpt>
      <trkpt lat="47.36545" lon="-1.19746">
        <ele>77</ele>
        <time>2025-08-02T10:12:04.000Z</time>
      </trkpt>
      <trkpt lat="47.36546" lon="-1.19747">
        <ele>77</ele>
        <time>2025-08-02T10:12:05.000Z</time>
      </trkpt>
      <trkpt lat="47.36546" lon="-1.19747">
        <ele>77</ele>
        <time>2025-08-02T10:12:06.000Z</time>
      </trkpt>
      <trkpt lat="47.36546" lon="-1.19747">
        <ele>78</ele>
        <time>2025-08-02T10:12:07.000Z</time>
      </trkpt>
      <trkpt lat="47.36547" lon="-1.19747">
        <ele>78</ele>
        <time>2025-08-02T10:12:08.000Z</time>
      </trkpt>
      <trkpt lat="47.36548" lon="-1.19748">
        <ele>78</ele>
        <time>2025-08-02T10:12:09.000Z</time>
      </trkpt>
      <trkpt lat="47.36549" lon="-1.19748">
        <ele>78</ele>
        <time>2025-08-02T10:12:10.000Z</time>
      </trkpt>
      <trkpt lat="47.3655" lon="-1.19748">
        <ele>78</ele>
        <time>2025-08-02T10:12:11.000Z</time>
      </trkpt>
      <trkpt lat="47.36551" lon="-1.19748">
        <ele>79</ele>
        <time>2025-08-02T10:12:12.000Z</time>
      </trkpt>
      <trkpt lat="47.36552" lon="-1.19748">
        <ele>79</ele>
        <time>2025-08-02T10:12:13.000Z</time>
      </trkpt>
      <trkpt lat="47.36554" lon="-1.19748">
        <ele>79</ele>
        <time>2025-08-02T10:12:14.000Z</time>
      </trkpt>
      <trkpt lat="47.36555" lon="-1.19748">
        <ele>78</ele>
        <time>2025-08-02T10:12:15.000Z</time>
      </trkpt>
      <trkpt lat="47.36556" lon="-1.19748">
        <ele>78</ele>
        <time>2025-08-02T10:12:16.000Z</time>
      </trkpt>
      <trkpt lat="47.36557" lon="-1.19748">
        <ele>78</ele>
        <time>2025-08-02T10:12:17.000Z</time>
      </trkpt>
      <trkpt lat="47.36559" lon="-1.19748">
        <ele>78</ele>
        <time>2025-08-02T10:12:18.000Z</time>
      </trkpt>
      <trkpt lat="47.3656" lon="-1.19748">
        <ele>78</ele>
        <time>2025-08-02T10:12:19.000Z</time>
      </trkpt>
      <trkpt lat="47.36561" lon="-1.19748">
        <ele>78</ele>
        <time>2025-08-02T10:12:20.000Z</time>
      </trkpt>
      <trkpt lat="47.36563" lon="-1.19748">
        <ele>78</ele>
        <time>2025-08-02T10:12:21.000Z</time>
      </trkpt>
      <trkpt lat="47.36564" lon="-1.19747">
        <ele>78</ele>
        <time>2025-08-02T10:12:22.000Z</time>
      </trkpt>
      <trkpt lat="47.36565" lon="-1.19747">
        <ele>78</ele>
        <time>2025-08-02T10:12:23.000Z</time>
      </trkpt>
      <trkpt lat="47.36567" lon="-1.19747">
        <ele>78</ele>
        <time>2025-08-02T10:12:24.000Z</time>
      </trkpt>
      <trkpt lat="47.36568" lon="-1.19748">
        <ele>79</ele>
        <time>2025-08-02T10:12:25.000Z</time>
      </trkpt>
      <trkpt lat="47.36569" lon="-1.19749">
        <ele>79</ele>
        <time>2025-08-02T10:12:26.000Z</time>
      </trkpt>
      <trkpt lat="47.3657" lon="-1.19749">
        <ele>79</ele>
        <time>2025-08-02T10:12:27.000Z</time>
      </trkpt>
      <trkpt lat="47.36572" lon="-1.1975">
        <ele>80</ele>
        <time>2025-08-02T10:12:28.000Z</time>
      </trkpt>
      <trkpt lat="47.36573" lon="-1.1975">
        <ele>80</ele>
        <time>2025-08-02T10:12:29.000Z</time>
      </trkpt>
      <trkpt lat="47.36574" lon="-1.19749">
        <ele>79</ele>
        <time>2025-08-02T10:12:30.000Z</time>
      </trkpt>
      <trkpt lat="47.36575" lon="-1.19748">
        <ele>78</ele>
        <time>2025-08-02T10:12:31.000Z</time>
      </trkpt>
      <trkpt lat="47.36575" lon="-1.19747">
        <ele>78</ele>
        <time>2025-08-02T10:12:32.000Z</time>
      </trkpt>
      <trkpt lat="47.36576" lon="-1.19746">
        <ele>78</ele>
        <time>2025-08-02T10:12:33.000Z</time>
      </trkpt>
      <trkpt lat="47.36577" lon="-1.19745">
        <ele>78</ele>
        <time>2025-08-02T10:12:34.000Z</time>
      </trkpt>
      <trkpt lat="47.36578" lon="-1.19745">
        <ele>78</ele>
        <time>2025-08-02T10:12:35.000Z</time>
      </trkpt>
      <trkpt lat="47.3658" lon="-1.19744">
        <ele>78</ele>
        <time>2025-08-02T10:12:36.000Z</time>
      </trkpt>
      <trkpt lat="47.36581" lon="-1.19744">
        <ele>78</ele>
        <time>2025-08-02T10:12:37.000Z</time>
      </trkpt>
      <trkpt lat="47.36582" lon="-1.19743">
        <ele>78</ele>
        <time>2025-08-02T10:12:38.000Z</time>
      </trkpt>
      <trkpt lat="47.36583" lon="-1.19742">
        <ele>78</ele>
        <time>2025-08-02T10:12:39.000Z</time>
      </trkpt>
      <trkpt lat="47.36584" lon="-1.19741">
        <ele>78</ele>
        <time>2025-08-02T10:12:40.000Z</time>
      </trkpt>
      <trkpt lat="47.36585" lon="-1.19741">
        <ele>79</ele>
        <time>2025-08-02T10:12:41.000Z</time>
      </trkpt>
      <trkpt lat="47.36586" lon="-1.19742">
        <ele>79</ele>
        <time>2025-08-02T10:12:42.000Z</time>
      </trkpt>
      <trkpt lat="47.36587" lon="-1.19742">
        <ele>80</ele>
        <time>2025-08-02T10:12:43.000Z</time>
      </trkpt>
      <trkpt lat="47.36589" lon="-1.19742">
        <ele>80</ele>
        <time>2025-08-02T10:12:44.000Z</time>
      </trkpt>
      <trkpt lat="47.3659" lon="-1.19742">
        <ele>80</ele>
        <time>2025-08-02T10:12:45.000Z</time>
      </trkpt>
      <trkpt lat="47.36591" lon="-1.19742">
        <ele>81</ele>
        <time>2025-08-02T10:12:46.000Z</time>
      </trkpt>
      <trkpt lat="47.36593" lon="-1.19743">
        <ele>81</ele>
        <time>2025-08-02T10:12:47.000Z</time>
      </trkpt>
      <trkpt lat="47.36594" lon="-1.19743">
        <ele>81</ele>
        <time>2025-08-02T10:12:48.000Z</time>
      </trkpt>
      <trkpt lat="47.36595" lon="-1.19744">
        <ele>80</ele>
        <time>2025-08-02T10:12:49.000Z</time>
      </trkpt>
      <trkpt lat="47.36596" lon="-1.19745">
        <ele>80</ele>
        <time>2025-08-02T10:12:50.000Z</time>
      </trkpt>
      <trkpt lat="47.36597" lon="-1.19745">
        <ele>80</ele>
        <time>2025-08-02T10:12:51.000Z</time>
      </trkpt>
      <trkpt lat="47.36598" lon="-1.19747">
        <ele>79</ele>
        <time>2025-08-02T10:12:52.000Z</time>
      </trkpt>
      <trkpt lat="47.366" lon="-1.19747">
        <ele>79</ele>
        <time>2025-08-02T10:12:53.000Z</time>
      </trkpt>
      <trkpt lat="47.36601" lon="-1.19748">
        <ele>79</ele>
        <time>2025-08-02T10:12:54.000Z</time>
      </trkpt>
      <trkpt lat="47.36602" lon="-1.19749">
        <ele>79</ele>
        <time>2025-08-02T10:12:55.000Z</time>
      </trkpt>
      <trkpt lat="47.36603" lon="-1.19748">
        <ele>80</ele>
        <time>2025-08-02T10:12:56.000Z</time>
      </trkpt>
      <trkpt lat="47.36604" lon="-1.19749">
        <ele>80</ele>
        <time>2025-08-02T10:12:57.000Z</time>
      </trkpt>
      <trkpt lat="47.36605" lon="-1.19749">
        <ele>80</ele>
        <time>2025-08-02T10:12:58.000Z</time>
      </trkpt>
      <trkpt lat="47.36606" lon="-1.19749">
        <ele>80</ele>
        <time>2025-08-02T10:12:59.000Z</time>
      </trkpt>
      <trkpt lat="47.36607" lon="-1.19749">
        <ele>81</ele>
        <time>2025-08-02T10:13:00.000Z</time>
      </trkpt>
      <trkpt lat="47.36608" lon="-1.19749">
        <ele>81</ele>
        <time>2025-08-02T10:13:01.000Z</time>
      </trkpt>
      <trkpt lat="47.3661" lon="-1.19749">
        <ele>81</ele>
        <time>2025-08-02T10:13:02.000Z</time>
      </trkpt>
      <trkpt lat="47.36611" lon="-1.1975">
        <ele>80</ele>
        <time>2025-08-02T10:13:03.000Z</time>
      </trkpt>
      <trkpt lat="47.36612" lon="-1.19749">
        <ele>80</ele>
        <time>2025-08-02T10:13:04.000Z</time>
      </trkpt>
      <trkpt lat="47.36613" lon="-1.19749">
        <ele>81</ele>
        <time>2025-08-02T10:13:05.000Z</time>
      </trkpt>
      <trkpt lat="47.36614" lon="-1.19749">
        <ele>81</ele>
        <time>2025-08-02T10:13:06.000Z</time>
      </trkpt>
      <trkpt lat="47.36616" lon="-1.19749">
        <ele>80</ele>
        <time>2025-08-02T10:13:07.000Z</time>
      </trkpt>
      <trkpt lat="47.36617" lon="-1.1975">
        <ele>80</ele>
        <time>2025-08-02T10:13:08.000Z</time>
      </trkpt>
      <trkpt lat="47.36617" lon="-1.19751">
        <ele>80</ele>
        <time>2025-08-02T10:13:09.000Z</time>
      </trkpt>
      <trkpt lat="47.36618" lon="-1.19752">
        <ele>80</ele>
        <time>2025-08-02T10:13:10.000Z</time>
      </trkpt>
      <trkpt lat="47.36619" lon="-1.19753">
        <ele>79</ele>
        <time>2025-08-02T10:13:11.000Z</time>
      </trkpt>
      <trkpt lat="47.3662" lon="-1.19755">
        <ele>79</ele>
        <time>2025-08-02T10:13:12.000Z</time>
      </trkpt>
      <trkpt lat="47.36621" lon="-1.19755">
        <ele>79</ele>
        <time>2025-08-02T10:13:13.000Z</time>
      </trkpt>
      <trkpt lat="47.36623" lon="-1.19756">
        <ele>79</ele>
        <time>2025-08-02T10:13:14.000Z</time>
      </trkpt>
      <trkpt lat="47.36624" lon="-1.19757">
        <ele>79</ele>
        <time>2025-08-02T10:13:15.000Z</time>
      </trkpt>
      <trkpt lat="47.36624" lon="-1.19757">
        <ele>79</ele>
        <time>2025-08-02T10:13:16.000Z</time>
      </trkpt>
      <trkpt lat="47.36625" lon="-1.19757">
        <ele>80</ele>
        <time>2025-08-02T10:13:17.000Z</time>
      </trkpt>
      <trkpt lat="47.36626" lon="-1.19757">
        <ele>79</ele>
        <time>2025-08-02T10:13:18.000Z</time>
      </trkpt>
      <trkpt lat="47.36627" lon="-1.19758">
        <ele>80</ele>
        <time>2025-08-02T10:13:19.000Z</time>
      </trkpt>
      <trkpt lat="47.36628" lon="-1.19758">
        <ele>80</ele>
        <time>2025-08-02T10:13:20.000Z</time>
      </trkpt>
      <trkpt lat="47.36629" lon="-1.19758">
        <ele>80</ele>
        <time>2025-08-02T10:13:21.000Z</time>
      </trkpt>
      <trkpt lat="47.3663" lon="-1.19759">
        <ele>80</ele>
        <time>2025-08-02T10:13:22.000Z</time>
      </trkpt>
      <trkpt lat="47.36632" lon="-1.1976">
        <ele>80</ele>
        <time>2025-08-02T10:13:23.000Z</time>
      </trkpt>
      <trkpt lat="47.36633" lon="-1.1976">
        <ele>80</ele>
        <time>2025-08-02T10:13:24.000Z</time>
      </trkpt>
      <trkpt lat="47.36634" lon="-1.19761">
        <ele>80</ele>
        <time>2025-08-02T10:13:25.000Z</time>
      </trkpt>
      <trkpt lat="47.36635" lon="-1.19761">
        <ele>80</ele>
        <time>2025-08-02T10:13:26.000Z</time>
      </trkpt>
      <trkpt lat="47.36637" lon="-1.19761">
        <ele>80</ele>
        <time>2025-08-02T10:13:27.000Z</time>
      </trkpt>
      <trkpt lat="47.36638" lon="-1.19762">
        <ele>81</ele>
        <time>2025-08-02T10:13:28.000Z</time>
      </trkpt>
      <trkpt lat="47.36639" lon="-1.19762">
        <ele>81</ele>
        <time>2025-08-02T10:13:29.000Z</time>
      </trkpt>
      <trkpt lat="47.3664" lon="-1.19763">
        <ele>80</ele>
        <time>2025-08-02T10:13:30.000Z</time>
      </trkpt>
      <trkpt lat="47.36642" lon="-1.19764">
        <ele>79</ele>
        <time>2025-08-02T10:13:31.000Z</time>
      </trkpt>
      <trkpt lat="47.36643" lon="-1.19765">
        <ele>79</ele>
        <time>2025-08-02T10:13:32.000Z</time>
      </trkpt>
      <trkpt lat="47.36644" lon="-1.19766">
        <ele>79</ele>
        <time>2025-08-02T10:13:33.000Z</time>
      </trkpt>
      <trkpt lat="47.36646" lon="-1.19767">
        <ele>79</ele>
        <time>2025-08-02T10:13:34.000Z</time>
      </trkpt>
      <trkpt lat="47.36647" lon="-1.19768">
        <ele>79</ele>
        <time>2025-08-02T10:13:35.000Z</time>
      </trkpt>
      <trkpt lat="47.36647" lon="-1.19768">
        <ele>79</ele>
        <time>2025-08-02T10:13:36.000Z</time>
      </trkpt>
      <trkpt lat="47.36648" lon="-1.19768">
        <ele>79</ele>
        <time>2025-08-02T10:13:37.000Z</time>
      </trkpt>
      <trkpt lat="47.36649" lon="-1.19769">
        <ele>79</ele>
        <time>2025-08-02T10:13:38.000Z</time>
      </trkpt>
      <trkpt lat="47.36651" lon="-1.19769">
        <ele>80</ele>
        <time>2025-08-02T10:13:39.000Z</time>
      </trkpt>
      <trkpt lat="47.36651" lon="-1.1977">
        <ele>79</ele>
        <time>2025-08-02T10:13:40.000Z</time>
      </trkpt>
      <trkpt lat="47.36653" lon="-1.19771">
        <ele>79</ele>
        <time>2025-08-02T10:13:41.000Z</time>
      </trkpt>
      <trkpt lat="47.36654" lon="-1.19772">
        <ele>79</ele>
        <time>2025-08-02T10:13:42.000Z</time>
      </trkpt>
      <trkpt lat="47.36655" lon="-1.19773">
        <ele>79</ele>
        <time>2025-08-02T10:13:43.000Z</time>
      </trkpt>
      <trkpt lat="47.36657" lon="-1.19773">
        <ele>79</ele>
        <time>2025-08-02T10:13:44.000Z</time>
      </trkpt>
      <trkpt lat="47.36658" lon="-1.19773">
        <ele>79</ele>
        <time>2025-08-02T10:13:45.000Z</time>
      </trkpt>
      <trkpt lat="47.3666" lon="-1.19773">
        <ele>80</ele>
        <time>2025-08-02T10:13:46.000Z</time>
      </trkpt>
      <trkpt lat="47.36661" lon="-1.19773">
        <ele>80</ele>
        <time>2025-08-02T10:13:47.000Z</time>
      </trkpt>
      <trkpt lat="47.36663" lon="-1.19773">
        <ele>80</ele>
        <time>2025-08-02T10:13:48.000Z</time>
      </trkpt>
      <trkpt lat="47.36664" lon="-1.19774">
        <ele>80</ele>
        <time>2025-08-02T10:13:49.000Z</time>
      </trkpt>
      <trkpt lat="47.36666" lon="-1.19775">
        <ele>80</ele>
        <time>2025-08-02T10:13:50.000Z</time>
      </trkpt>
      <trkpt lat="47.36667" lon="-1.19775">
        <ele>80</ele>
        <time>2025-08-02T10:13:51.000Z</time>
      </trkpt>
      <trkpt lat="47.36668" lon="-1.19775">
        <ele>80</ele>
        <time>2025-08-02T10:13:52.000Z</time>
      </trkpt>
      <trkpt lat="47.36669" lon="-1.19776">
        <ele>80</ele>
        <time>2025-08-02T10:13:53.000Z</time>
      </trkpt>
      <trkpt lat="47.3667" lon="-1.19777">
        <ele>80</ele>
        <time>2025-08-02T10:13:54.000Z</time>
      </trkpt>
      <trkpt lat="47.36671" lon="-1.19777">
        <ele>80</ele>
        <time>2025-08-02T10:13:55.000Z</time>
      </trkpt>
      <trkpt lat="47.36672" lon="-1.19777">
        <ele>81</ele>
        <time>2025-08-02T10:13:56.000Z</time>
      </trkpt>
      <trkpt lat="47.36674" lon="-1.19778">
        <ele>81</ele>
        <time>2025-08-02T10:13:57.000Z</time>
      </trkpt>
      <trkpt lat="47.36675" lon="-1.19778">
        <ele>81</ele>
        <time>2025-08-02T10:13:58.000Z</time>
      </trkpt>
      <trkpt lat="47.36676" lon="-1.19777">
        <ele>81</ele>
        <time>2025-08-02T10:13:59.000Z</time>
      </trkpt>
      <trkpt lat="47.36677" lon="-1.19777">
        <ele>81</ele>
        <time>2025-08-02T10:14:00.000Z</time>
      </trkpt>
      <trkpt lat="47.36678" lon="-1.19776">
        <ele>81</ele>
        <time>2025-08-02T10:14:01.000Z</time>
      </trkpt>
      <trkpt lat="47.3668" lon="-1.19775">
        <ele>80</ele>
        <time>2025-08-02T10:14:02.000Z</time>
      </trkpt>
      <trkpt lat="47.36681" lon="-1.19774">
        <ele>80</ele>
        <time>2025-08-02T10:14:03.000Z</time>
      </trkpt>
      <trkpt lat="47.36682" lon="-1.19774">
        <ele>80</ele>
        <time>2025-08-02T10:14:04.000Z</time>
      </trkpt>
      <trkpt lat="47.36684" lon="-1.19773">
        <ele>80</ele>
        <time>2025-08-02T10:14:05.000Z</time>
      </trkpt>
      <trkpt lat="47.36685" lon="-1.19773">
        <ele>80</ele>
        <time>2025-08-02T10:14:06.000Z</time>
      </trkpt>
      <trkpt lat="47.36686" lon="-1.19773">
        <ele>80</ele>
        <time>2025-08-02T10:14:07.000Z</time>
      </trkpt>
      <trkpt lat="47.36687" lon="-1.19774">
        <ele>79</ele>
        <time>2025-08-02T10:14:08.000Z</time>
      </trkpt>
      <trkpt lat="47.36688" lon="-1.19774">
        <ele>79</ele>
        <time>2025-08-02T10:14:09.000Z</time>
      </trkpt>
      <trkpt lat="47.36689" lon="-1.19774">
        <ele>79</ele>
        <time>2025-08-02T10:14:10.000Z</time>
      </trkpt>
      <trkpt lat="47.36689" lon="-1.19774">
        <ele>79</ele>
        <time>2025-08-02T10:14:11.000Z</time>
      </trkpt>
      <trkpt lat="47.3669" lon="-1.19774">
        <ele>79</ele>
        <time>2025-08-02T10:14:12.000Z</time>
      </trkpt>
      <trkpt lat="47.36691" lon="-1.19773">
        <ele>79</ele>
        <time>2025-08-02T10:14:13.000Z</time>
      </trkpt>
      <trkpt lat="47.36691" lon="-1.19773">
        <ele>79</ele>
        <time>2025-08-02T10:14:14.000Z</time>
      </trkpt>
      <trkpt lat="47.36693" lon="-1.19773">
        <ele>79</ele>
        <time>2025-08-02T10:14:15.000Z</time>
      </trkpt>
      <trkpt lat="47.36694" lon="-1.19772">
        <ele>80</ele>
        <time>2025-08-02T10:14:16.000Z</time>
      </trkpt>
      <trkpt lat="47.36696" lon="-1.19773">
        <ele>80</ele>
        <time>2025-08-02T10:14:17.000Z</time>
      </trkpt>
      <trkpt lat="47.36697" lon="-1.19774">
        <ele>79</ele>
        <time>2025-08-02T10:14:18.000Z</time>
      </trkpt>
      <trkpt lat="47.36698" lon="-1.19774">
        <ele>79</ele>
        <time>2025-08-02T10:14:19.000Z</time>
      </trkpt>
      <trkpt lat="47.36699" lon="-1.19774">
        <ele>79</ele>
        <time>2025-08-02T10:14:20.000Z</time>
      </trkpt>
      <trkpt lat="47.367" lon="-1.19774">
        <ele>78</ele>
        <time>2025-08-02T10:14:21.000Z</time>
      </trkpt>
      <trkpt lat="47.36702" lon="-1.19773">
        <ele>78</ele>
        <time>2025-08-02T10:14:22.000Z</time>
      </trkpt>
      <trkpt lat="47.36702" lon="-1.19773">
        <ele>78</ele>
        <time>2025-08-02T10:14:23.000Z</time>
      </trkpt>
      <trkpt lat="47.36703" lon="-1.19773">
        <ele>79</ele>
        <time>2025-08-02T10:14:24.000Z</time>
      </trkpt>
      <trkpt lat="47.36704" lon="-1.19773">
        <ele>78</ele>
        <time>2025-08-02T10:14:25.000Z</time>
      </trkpt>
      <trkpt lat="47.36705" lon="-1.19774">
        <ele>78</ele>
        <time>2025-08-02T10:14:26.000Z</time>
      </trkpt>
      <trkpt lat="47.36707" lon="-1.19774">
        <ele>79</ele>
        <time>2025-08-02T10:14:27.000Z</time>
      </trkpt>
      <trkpt lat="47.36708" lon="-1.19774">
        <ele>79</ele>
        <time>2025-08-02T10:14:28.000Z</time>
      </trkpt>
      <trkpt lat="47.36709" lon="-1.19775">
        <ele>78</ele>
        <time>2025-08-02T10:14:29.000Z</time>
      </trkpt>
      <trkpt lat="47.3671" lon="-1.19774">
        <ele>79</ele>
        <time>2025-08-02T10:14:30.000Z</time>
      </trkpt>
      <trkpt lat="47.36711" lon="-1.19774">
        <ele>79</ele>
        <time>2025-08-02T10:14:31.000Z</time>
      </trkpt>
      <trkpt lat="47.36712" lon="-1.19774">
        <ele>79</ele>
        <time>2025-08-02T10:14:32.000Z</time>
      </trkpt>
      <trkpt lat="47.36713" lon="-1.19775">
        <ele>79</ele>
        <time>2025-08-02T10:14:33.000Z</time>
      </trkpt>
      <trkpt lat="47.36715" lon="-1.19775">
        <ele>79</ele>
        <time>2025-08-02T10:14:34.000Z</time>
      </trkpt>
      <trkpt lat="47.36716" lon="-1.19775">
        <ele>79</ele>
        <time>2025-08-02T10:14:35.000Z</time>
      </trkpt>
      <trkpt lat="47.36717" lon="-1.19775">
        <ele>79</ele>
        <time>2025-08-02T10:14:36.000Z</time>
      </trkpt>
      <trkpt lat="47.36718" lon="-1.19775">
        <ele>79</ele>
        <time>2025-08-02T10:14:37.000Z</time>
      </trkpt>
      <trkpt lat="47.36719" lon="-1.19775">
        <ele>79</ele>
        <time>2025-08-02T10:14:38.000Z</time>
      </trkpt>
      <trkpt lat="47.36719" lon="-1.19774">
        <ele>79</ele>
        <time>2025-08-02T10:14:39.000Z</time>
      </trkpt>
      <trkpt lat="47.3672" lon="-1.19773">
        <ele>80</ele>
        <time>2025-08-02T10:14:40.000Z</time>
      </trkpt>
      <trkpt lat="47.3672" lon="-1.19772">
        <ele>80</ele>
        <time>2025-08-02T10:14:41.000Z</time>
      </trkpt>
      <trkpt lat="47.3672" lon="-1.19772">
        <ele>80</ele>
        <time>2025-08-02T10:14:42.000Z</time>
      </trkpt>
      <trkpt lat="47.3672" lon="-1.19772">
        <ele>80</ele>
        <time>2025-08-02T10:14:43.000Z</time>
      </trkpt>
      <trkpt lat="47.3672" lon="-1.19771">
        <ele>80</ele>
        <time>2025-08-02T10:14:44.000Z</time>
      </trkpt>
      <trkpt lat="47.3672" lon="-1.19771">
        <ele>80</ele>
        <time>2025-08-02T10:14:45.000Z</time>
      </trkpt>
      <trkpt lat="47.3672" lon="-1.19771">
        <ele>80</ele>
        <time>2025-08-02T10:14:46.000Z</time>
      </trkpt>
      <trkpt lat="47.3672" lon="-1.19771">
        <ele>80</ele>
        <time>2025-08-02T10:14:47.000Z</time>
      </trkpt>
      <trkpt lat="47.3672" lon="-1.19771">
        <ele>80</ele>
        <time>2025-08-02T10:14:48.000Z</time>
      </trkpt>
      <trkpt lat="47.36721" lon="-1.19773">
        <ele>80</ele>
        <time>2025-08-02T10:14:49.000Z</time>
      </trkpt>
      <trkpt lat="47.36722" lon="-1.19772">
        <ele>79</ele>
        <time>2025-08-02T10:14:50.000Z</time>
      </trkpt>
      <trkpt lat="47.36723" lon="-1.19772">
        <ele>79</ele>
        <time>2025-08-02T10:14:51.000Z</time>
      </trkpt>
      <trkpt lat="47.36723" lon="-1.19772">
        <ele>79</ele>
        <time>2025-08-02T10:14:52.000Z</time>
      </trkpt>
      <trkpt lat="47.36723" lon="-1.19772">
        <ele>79</ele>
        <time>2025-08-02T10:14:53.000Z</time>
      </trkpt>
      <trkpt lat="47.36724" lon="-1.19772">
        <ele>79</ele>
        <time>2025-08-02T10:14:54.000Z</time>
      </trkpt>
      <trkpt lat="47.36724" lon="-1.19772">
        <ele>79</ele>
        <time>2025-08-02T10:14:55.000Z</time>
      </trkpt>
      <trkpt lat="47.36724" lon="-1.19772">
        <ele>79</ele>
        <time>2025-08-02T10:14:56.000Z</time>
      </trkpt>
      <trkpt lat="47.36724" lon="-1.19772">
        <ele>79</ele>
        <time>2025-08-02T10:14:57.000Z</time>
      </trkpt>
      <trkpt lat="47.36725" lon="-1.19774">
        <ele>79</ele>
        <time>2025-08-02T10:14:58.000Z</time>
      </trkpt>
      <trkpt lat="47.36726" lon="-1.19774">
        <ele>79</ele>
        <time>2025-08-02T10:14:59.000Z</time>
      </trkpt>
      <trkpt lat="47.36727" lon="-1.19774">
        <ele>79</ele>
        <time>2025-08-02T10:15:00.000Z</time>
      </trkpt>
      <trkpt lat="47.36728" lon="-1.19775">
        <ele>79</ele>
        <time>2025-08-02T10:15:01.000Z</time>
      </trkpt>
      <trkpt lat="47.36729" lon="-1.19775">
        <ele>79</ele>
        <time>2025-08-02T10:15:02.000Z</time>
      </trkpt>
      <trkpt lat="47.36731" lon="-1.19776">
        <ele>79</ele>
        <time>2025-08-02T10:15:03.000Z</time>
      </trkpt>
      <trkpt lat="47.36732" lon="-1.19777">
        <ele>79</ele>
        <time>2025-08-02T10:15:04.000Z</time>
      </trkpt>
      <trkpt lat="47.36732" lon="-1.19778">
        <ele>78</ele>
        <time>2025-08-02T10:15:05.000Z</time>
      </trkpt>
      <trkpt lat="47.36733" lon="-1.19779">
        <ele>78</ele>
        <time>2025-08-02T10:15:06.000Z</time>
      </trkpt>
      <trkpt lat="47.36734" lon="-1.19779">
        <ele>78</ele>
        <time>2025-08-02T10:15:07.000Z</time>
      </trkpt>
      <trkpt lat="47.36735" lon="-1.1978">
        <ele>77</ele>
        <time>2025-08-02T10:15:08.000Z</time>
      </trkpt>
      <trkpt lat="47.36736" lon="-1.1978">
        <ele>78</ele>
        <time>2025-08-02T10:15:09.000Z</time>
      </trkpt>
      <trkpt lat="47.36737" lon="-1.1978">
        <ele>77</ele>
        <time>2025-08-02T10:15:10.000Z</time>
      </trkpt>
      <trkpt lat="47.36738" lon="-1.1978">
        <ele>77</ele>
        <time>2025-08-02T10:15:11.000Z</time>
      </trkpt>
      <trkpt lat="47.36739" lon="-1.1978">
        <ele>77</ele>
        <time>2025-08-02T10:15:12.000Z</time>
      </trkpt>
      <trkpt lat="47.36739" lon="-1.1978">
        <ele>77</ele>
        <time>2025-08-02T10:15:13.000Z</time>
      </trkpt>
      <trkpt lat="47.36741" lon="-1.1978">
        <ele>77</ele>
        <time>2025-08-02T10:15:14.000Z</time>
      </trkpt>
      <trkpt lat="47.36742" lon="-1.19779">
        <ele>77</ele>
        <time>2025-08-02T10:15:15.000Z</time>
      </trkpt>
      <trkpt lat="47.36743" lon="-1.19778">
        <ele>77</ele>
        <time>2025-08-02T10:15:16.000Z</time>
      </trkpt>
      <trkpt lat="47.36744" lon="-1.19778">
        <ele>77</ele>
        <time>2025-08-02T10:15:17.000Z</time>
      </trkpt>
      <trkpt lat="47.36745" lon="-1.19777">
        <ele>77</ele>
        <time>2025-08-02T10:15:18.000Z</time>
      </trkpt>
      <trkpt lat="47.36746" lon="-1.19777">
        <ele>76</ele>
        <time>2025-08-02T10:15:19.000Z</time>
      </trkpt>
      <trkpt lat="47.36748" lon="-1.19777">
        <ele>76</ele>
        <time>2025-08-02T10:15:20.000Z</time>
      </trkpt>
      <trkpt lat="47.36749" lon="-1.19776">
        <ele>77</ele>
        <time>2025-08-02T10:15:21.000Z</time>
      </trkpt>
      <trkpt lat="47.36751" lon="-1.19776">
        <ele>77</ele>
        <time>2025-08-02T10:15:22.000Z</time>
      </trkpt>
      <trkpt lat="47.36752" lon="-1.19775">
        <ele>76</ele>
        <time>2025-08-02T10:15:23.000Z</time>
      </trkpt>
      <trkpt lat="47.36753" lon="-1.19775">
        <ele>76</ele>
        <time>2025-08-02T10:15:24.000Z</time>
      </trkpt>
      <trkpt lat="47.36754" lon="-1.19774">
        <ele>76</ele>
        <time>2025-08-02T10:15:25.000Z</time>
      </trkpt>
      <trkpt lat="47.36755" lon="-1.19774">
        <ele>76</ele>
        <time>2025-08-02T10:15:26.000Z</time>
      </trkpt>
      <trkpt lat="47.36757" lon="-1.19774">
        <ele>76</ele>
        <time>2025-08-02T10:15:27.000Z</time>
      </trkpt>
      <trkpt lat="47.36758" lon="-1.19773">
        <ele>75</ele>
        <time>2025-08-02T10:15:28.000Z</time>
      </trkpt>
      <trkpt lat="47.36759" lon="-1.19773">
        <ele>75</ele>
        <time>2025-08-02T10:15:29.000Z</time>
      </trkpt>
      <trkpt lat="47.3676" lon="-1.19772">
        <ele>75</ele>
        <time>2025-08-02T10:15:30.000Z</time>
      </trkpt>
      <trkpt lat="47.36761" lon="-1.19772">
        <ele>75</ele>
        <time>2025-08-02T10:15:31.000Z</time>
      </trkpt>
      <trkpt lat="47.36762" lon="-1.19772">
        <ele>75</ele>
        <time>2025-08-02T10:15:32.000Z</time>
      </trkpt>
      <trkpt lat="47.36763" lon="-1.19772">
        <ele>75</ele>
        <time>2025-08-02T10:15:33.000Z</time>
      </trkpt>
      <trkpt lat="47.36764" lon="-1.19771">
        <ele>75</ele>
        <time>2025-08-02T10:15:34.000Z</time>
      </trkpt>
      <trkpt lat="47.36765" lon="-1.19771">
        <ele>75</ele>
        <time>2025-08-02T10:15:35.000Z</time>
      </trkpt>
      <trkpt lat="47.36767" lon="-1.1977">
        <ele>75</ele>
        <time>2025-08-02T10:15:36.000Z</time>
      </trkpt>
      <trkpt lat="47.36768" lon="-1.1977">
        <ele>75</ele>
        <time>2025-08-02T10:15:37.000Z</time>
      </trkpt>
      <trkpt lat="47.36769" lon="-1.19769">
        <ele>75</ele>
        <time>2025-08-02T10:15:38.000Z</time>
      </trkpt>
      <trkpt lat="47.36769" lon="-1.19768">
        <ele>75</ele>
        <time>2025-08-02T10:15:39.000Z</time>
      </trkpt>
      <trkpt lat="47.3677" lon="-1.19767">
        <ele>75</ele>
        <time>2025-08-02T10:15:40.000Z</time>
      </trkpt>
      <trkpt lat="47.36771" lon="-1.19766">
        <ele>75</ele>
        <time>2025-08-02T10:15:41.000Z</time>
      </trkpt>
      <trkpt lat="47.36772" lon="-1.19765">
        <ele>75</ele>
        <time>2025-08-02T10:15:42.000Z</time>
      </trkpt>
      <trkpt lat="47.36773" lon="-1.19763">
        <ele>75</ele>
        <time>2025-08-02T10:15:43.000Z</time>
      </trkpt>
      <trkpt lat="47.36774" lon="-1.19761">
        <ele>75</ele>
        <time>2025-08-02T10:15:44.000Z</time>
      </trkpt>
      <trkpt lat="47.36774" lon="-1.19758">
        <ele>75</ele>
        <time>2025-08-02T10:15:45.000Z</time>
      </trkpt>
      <trkpt lat="47.36774" lon="-1.19755">
        <ele>75</ele>
        <time>2025-08-02T10:15:46.000Z</time>
      </trkpt>
      <trkpt lat="47.36775" lon="-1.19752">
        <ele>75</ele>
        <time>2025-08-02T10:15:47.000Z</time>
      </trkpt>
      <trkpt lat="47.36775" lon="-1.19749">
        <ele>74</ele>
        <time>2025-08-02T10:15:48.000Z</time>
      </trkpt>
      <trkpt lat="47.36776" lon="-1.19747">
        <ele>74</ele>
        <time>2025-08-02T10:15:49.000Z</time>
      </trkpt>
      <trkpt lat="47.36776" lon="-1.19745">
        <ele>75</ele>
        <time>2025-08-02T10:15:50.000Z</time>
      </trkpt>
      <trkpt lat="47.36776" lon="-1.19743">
        <ele>76</ele>
        <time>2025-08-02T10:15:51.000Z</time>
      </trkpt>
      <trkpt lat="47.36777" lon="-1.19743">
        <ele>77</ele>
        <time>2025-08-02T10:15:52.000Z</time>
      </trkpt>
      <trkpt lat="47.3678" lon="-1.19743">
        <ele>76</ele>
        <time>2025-08-02T10:15:53.000Z</time>
      </trkpt>
      <trkpt lat="47.36782" lon="-1.19745">
        <ele>76</ele>
        <time>2025-08-02T10:15:54.000Z</time>
      </trkpt>
      <trkpt lat="47.36784" lon="-1.19747">
        <ele>76</ele>
        <time>2025-08-02T10:15:55.000Z</time>
      </trkpt>
      <trkpt lat="47.36786" lon="-1.19747">
        <ele>76</ele>
        <time>2025-08-02T10:15:56.000Z</time>
      </trkpt>
      <trkpt lat="47.36787" lon="-1.19746">
        <ele>76</ele>
        <time>2025-08-02T10:15:57.000Z</time>
      </trkpt>
      <trkpt lat="47.36789" lon="-1.19745">
        <ele>76</ele>
        <time>2025-08-02T10:15:58.000Z</time>
      </trkpt>
      <trkpt lat="47.3679" lon="-1.19745">
        <ele>76</ele>
        <time>2025-08-02T10:15:59.000Z</time>
      </trkpt>
      <trkpt lat="47.36791" lon="-1.19745">
        <ele>76</ele>
        <time>2025-08-02T10:16:00.000Z</time>
      </trkpt>
      <trkpt lat="47.36792" lon="-1.19744">
        <ele>76</ele>
        <time>2025-08-02T10:16:01.000Z</time>
      </trkpt>
      <trkpt lat="47.36793" lon="-1.19743">
        <ele>76</ele>
        <time>2025-08-02T10:16:02.000Z</time>
      </trkpt>
      <trkpt lat="47.36794" lon="-1.19741">
        <ele>76</ele>
        <time>2025-08-02T10:16:03.000Z</time>
      </trkpt>
      <trkpt lat="47.36795" lon="-1.19739">
        <ele>76</ele>
        <time>2025-08-02T10:16:04.000Z</time>
      </trkpt>
      <trkpt lat="47.36795" lon="-1.19737">
        <ele>76</ele>
        <time>2025-08-02T10:16:05.000Z</time>
      </trkpt>
      <trkpt lat="47.36795" lon="-1.19736">
        <ele>77</ele>
        <time>2025-08-02T10:16:06.000Z</time>
      </trkpt>
      <trkpt lat="47.36794" lon="-1.19734">
        <ele>76</ele>
        <time>2025-08-02T10:16:07.000Z</time>
      </trkpt>
      <trkpt lat="47.36793" lon="-1.19732">
        <ele>76</ele>
        <time>2025-08-02T10:16:08.000Z</time>
      </trkpt>
      <trkpt lat="47.36792" lon="-1.1973">
        <ele>76</ele>
        <time>2025-08-02T10:16:09.000Z</time>
      </trkpt>
      <trkpt lat="47.36792" lon="-1.1973">
        <ele>76</ele>
        <time>2025-08-02T10:16:10.000Z</time>
      </trkpt>
      <trkpt lat="47.36791" lon="-1.19728">
        <ele>75</ele>
        <time>2025-08-02T10:16:11.000Z</time>
      </trkpt>
      <trkpt lat="47.36791" lon="-1.19727">
        <ele>75</ele>
        <time>2025-08-02T10:16:12.000Z</time>
      </trkpt>
      <trkpt lat="47.3679" lon="-1.19726">
        <ele>75</ele>
        <time>2025-08-02T10:16:13.000Z</time>
      </trkpt>
      <trkpt lat="47.3679" lon="-1.19726">
        <ele>76</ele>
        <time>2025-08-02T10:16:14.000Z</time>
      </trkpt>
      <trkpt lat="47.3679" lon="-1.19726">
        <ele>76</ele>
        <time>2025-08-02T10:16:15.000Z</time>
      </trkpt>
      <trkpt lat="47.3679" lon="-1.19726">
        <ele>76</ele>
        <time>2025-08-02T10:16:16.000Z</time>
      </trkpt>
      <trkpt lat="47.3679" lon="-1.19726">
        <ele>76</ele>
        <time>2025-08-02T10:16:17.000Z</time>
      </trkpt>
      <trkpt lat="47.3679" lon="-1.19725">
        <ele>76</ele>
        <time>2025-08-02T10:16:18.000Z</time>
      </trkpt>
      <trkpt lat="47.3679" lon="-1.19724">
        <ele>77</ele>
        <time>2025-08-02T10:16:19.000Z</time>
      </trkpt>
      <trkpt lat="47.3679" lon="-1.19722">
        <ele>77</ele>
        <time>2025-08-02T10:16:20.000Z</time>
      </trkpt>
      <trkpt lat="47.36788" lon="-1.19722">
        <ele>77</ele>
        <time>2025-08-02T10:16:21.000Z</time>
      </trkpt>
      <trkpt lat="47.36788" lon="-1.19721">
        <ele>77</ele>
        <time>2025-08-02T10:16:22.000Z</time>
      </trkpt>
      <trkpt lat="47.36787" lon="-1.19721">
        <ele>77</ele>
        <time>2025-08-02T10:16:23.000Z</time>
      </trkpt>
      <trkpt lat="47.36786" lon="-1.1972">
        <ele>77</ele>
        <time>2025-08-02T10:16:24.000Z</time>
      </trkpt>
      <trkpt lat="47.36785" lon="-1.19719">
        <ele>77</ele>
        <time>2025-08-02T10:16:25.000Z</time>
      </trkpt>
      <trkpt lat="47.36784" lon="-1.19717">
        <ele>77</ele>
        <time>2025-08-02T10:16:26.000Z</time>
      </trkpt>
      <trkpt lat="47.36784" lon="-1.19716">
        <ele>77</ele>
        <time>2025-08-02T10:16:27.000Z</time>
      </trkpt>
      <trkpt lat="47.36783" lon="-1.19715">
        <ele>77</ele>
        <time>2025-08-02T10:16:28.000Z</time>
      </trkpt>
      <trkpt lat="47.36783" lon="-1.19714">
        <ele>77</ele>
        <time>2025-08-02T10:16:29.000Z</time>
      </trkpt>
      <trkpt lat="47.36784" lon="-1.19712">
        <ele>77</ele>
        <time>2025-08-02T10:16:30.000Z</time>
      </trkpt>
      <trkpt lat="47.36785" lon="-1.19711">
        <ele>77</ele>
        <time>2025-08-02T10:16:31.000Z</time>
      </trkpt>
      <trkpt lat="47.36785" lon="-1.1971">
        <ele>78</ele>
        <time>2025-08-02T10:16:32.000Z</time>
      </trkpt>
      <trkpt lat="47.36785" lon="-1.19708">
        <ele>77</ele>
        <time>2025-08-02T10:16:33.000Z</time>
      </trkpt>
      <trkpt lat="47.36786" lon="-1.19706">
        <ele>78</ele>
        <time>2025-08-02T10:16:34.000Z</time>
      </trkpt>
      <trkpt lat="47.36787" lon="-1.19704">
        <ele>78</ele>
        <time>2025-08-02T10:16:35.000Z</time>
      </trkpt>
      <trkpt lat="47.36788" lon="-1.19703">
        <ele>78</ele>
        <time>2025-08-02T10:16:36.000Z</time>
      </trkpt>
      <trkpt lat="47.36789" lon="-1.19702">
        <ele>78</ele>
        <time>2025-08-02T10:16:37.000Z</time>
      </trkpt>
      <trkpt lat="47.36789" lon="-1.197">
        <ele>78</ele>
        <time>2025-08-02T10:16:38.000Z</time>
      </trkpt>
      <trkpt lat="47.36788" lon="-1.19698">
        <ele>78</ele>
        <time>2025-08-02T10:16:39.000Z</time>
      </trkpt>
      <trkpt lat="47.36789" lon="-1.19697">
        <ele>79</ele>
        <time>2025-08-02T10:16:40.000Z</time>
      </trkpt>
      <trkpt lat="47.36789" lon="-1.19698">
        <ele>79</ele>
        <time>2025-08-02T10:16:41.000Z</time>
      </trkpt>
      <trkpt lat="47.3679" lon="-1.19699">
        <ele>79</ele>
        <time>2025-08-02T10:16:42.000Z</time>
      </trkpt>
      <trkpt lat="47.3679" lon="-1.19699">
        <ele>79</ele>
        <time>2025-08-02T10:16:43.000Z</time>
      </trkpt>
      <trkpt lat="47.3679" lon="-1.19699">
        <ele>79</ele>
        <time>2025-08-02T10:16:44.000Z</time>
      </trkpt>
      <trkpt lat="47.3679" lon="-1.19699">
        <ele>79</ele>
        <time>2025-08-02T10:16:45.000Z</time>
      </trkpt>
      <trkpt lat="47.3679" lon="-1.19699">
        <ele>79</ele>
        <time>2025-08-02T10:16:46.000Z</time>
      </trkpt>
      <trkpt lat="47.3679" lon="-1.19699">
        <ele>79</ele>
        <time>2025-08-02T10:16:47.000Z</time>
      </trkpt>
      <trkpt lat="47.3679" lon="-1.19699">
        <ele>79</ele>
        <time>2025-08-02T10:16:48.000Z</time>
      </trkpt>
      <trkpt lat="47.36789" lon="-1.19697">
        <ele>78</ele>
        <time>2025-08-02T10:16:49.000Z</time>
      </trkpt>
      <trkpt lat="47.36789" lon="-1.19696">
        <ele>78</ele>
        <time>2025-08-02T10:16:50.000Z</time>
      </trkpt>
      <trkpt lat="47.3679" lon="-1.19694">
        <ele>77</ele>
        <time>2025-08-02T10:16:51.000Z</time>
      </trkpt>
      <trkpt lat="47.3679" lon="-1.19693">
        <ele>77</ele>
        <time>2025-08-02T10:16:52.000Z</time>
      </trkpt>
      <trkpt lat="47.36791" lon="-1.19693">
        <ele>78</ele>
        <time>2025-08-02T10:16:53.000Z</time>
      </trkpt>
      <trkpt lat="47.36791" lon="-1.19694">
        <ele>78</ele>
        <time>2025-08-02T10:16:54.000Z</time>
      </trkpt>
      <trkpt lat="47.36791" lon="-1.19694">
        <ele>78</ele>
        <time>2025-08-02T10:16:55.000Z</time>
      </trkpt>
      <trkpt lat="47.3679" lon="-1.19692">
        <ele>77</ele>
        <time>2025-08-02T10:16:56.000Z</time>
      </trkpt>
      <trkpt lat="47.36791" lon="-1.19691">
        <ele>77</ele>
        <time>2025-08-02T10:16:57.000Z</time>
      </trkpt>
      <trkpt lat="47.36792" lon="-1.19689">
        <ele>77</ele>
        <time>2025-08-02T10:16:58.000Z</time>
      </trkpt>
      <trkpt lat="47.36792" lon="-1.19687">
        <ele>77</ele>
        <time>2025-08-02T10:16:59.000Z</time>
      </trkpt>
      <trkpt lat="47.36793" lon="-1.19686">
        <ele>76</ele>
        <time>2025-08-02T10:17:00.000Z</time>
      </trkpt>
      <trkpt lat="47.36794" lon="-1.19685">
        <ele>76</ele>
        <time>2025-08-02T10:17:01.000Z</time>
      </trkpt>
      <trkpt lat="47.36794" lon="-1.19683">
        <ele>76</ele>
        <time>2025-08-02T10:17:02.000Z</time>
      </trkpt>
      <trkpt lat="47.36795" lon="-1.19682">
        <ele>76</ele>
        <time>2025-08-02T10:17:03.000Z</time>
      </trkpt>
      <trkpt lat="47.36796" lon="-1.19681">
        <ele>77</ele>
        <time>2025-08-02T10:17:04.000Z</time>
      </trkpt>
      <trkpt lat="47.36797" lon="-1.1968">
        <ele>77</ele>
        <time>2025-08-02T10:17:05.000Z</time>
      </trkpt>
      <trkpt lat="47.36798" lon="-1.19679">
        <ele>77</ele>
        <time>2025-08-02T10:17:06.000Z</time>
      </trkpt>
      <trkpt lat="47.36798" lon="-1.19679">
        <ele>77</ele>
        <time>2025-08-02T10:17:07.000Z</time>
      </trkpt>
      <trkpt lat="47.36799" lon="-1.19678">
        <ele>77</ele>
        <time>2025-08-02T10:17:08.000Z</time>
      </trkpt>
      <trkpt lat="47.368" lon="-1.19677">
        <ele>78</ele>
        <time>2025-08-02T10:17:09.000Z</time>
      </trkpt>
      <trkpt lat="47.368" lon="-1.19677">
        <ele>78</ele>
        <time>2025-08-02T10:17:10.000Z</time>
      </trkpt>
      <trkpt lat="47.368" lon="-1.19677">
        <ele>78</ele>
        <time>2025-08-02T10:17:11.000Z</time>
      </trkpt>
      <trkpt lat="47.368" lon="-1.19677">
        <ele>79</ele>
        <time>2025-08-02T10:17:12.000Z</time>
      </trkpt>
      <trkpt lat="47.368" lon="-1.19677">
        <ele>78</ele>
        <time>2025-08-02T10:17:13.000Z</time>
      </trkpt>
      <trkpt lat="47.36801" lon="-1.19677">
        <ele>78</ele>
        <time>2025-08-02T10:17:14.000Z</time>
      </trkpt>
      <trkpt lat="47.36801" lon="-1.19676">
        <ele>78</ele>
        <time>2025-08-02T10:17:15.000Z</time>
      </trkpt>
      <trkpt lat="47.36802" lon="-1.19675">
        <ele>78</ele>
        <time>2025-08-02T10:17:16.000Z</time>
      </trkpt>
      <trkpt lat="47.36803" lon="-1.19675">
        <ele>78</ele>
        <time>2025-08-02T10:17:17.000Z</time>
      </trkpt>
      <trkpt lat="47.36804" lon="-1.19675">
        <ele>79</ele>
        <time>2025-08-02T10:17:18.000Z</time>
      </trkpt>
      <trkpt lat="47.36805" lon="-1.19673">
        <ele>78</ele>
        <time>2025-08-02T10:17:19.000Z</time>
      </trkpt>
      <trkpt lat="47.36806" lon="-1.19672">
        <ele>78</ele>
        <time>2025-08-02T10:17:20.000Z</time>
      </trkpt>
      <trkpt lat="47.36807" lon="-1.19671">
        <ele>78</ele>
        <time>2025-08-02T10:17:21.000Z</time>
      </trkpt>
      <trkpt lat="47.36808" lon="-1.1967">
        <ele>78</ele>
        <time>2025-08-02T10:17:22.000Z</time>
      </trkpt>
      <trkpt lat="47.36809" lon="-1.19669">
        <ele>79</ele>
        <time>2025-08-02T10:17:23.000Z</time>
      </trkpt>
      <trkpt lat="47.36811" lon="-1.19668">
        <ele>79</ele>
        <time>2025-08-02T10:17:24.000Z</time>
      </trkpt>
      <trkpt lat="47.36812" lon="-1.19667">
        <ele>79</ele>
        <time>2025-08-02T10:17:25.000Z</time>
      </trkpt>
      <trkpt lat="47.36813" lon="-1.19667">
        <ele>79</ele>
        <time>2025-08-02T10:17:26.000Z</time>
      </trkpt>
      <trkpt lat="47.36815" lon="-1.19665">
        <ele>79</ele>
        <time>2025-08-02T10:17:27.000Z</time>
      </trkpt>
      <trkpt lat="47.36816" lon="-1.19664">
        <ele>79</ele>
        <time>2025-08-02T10:17:28.000Z</time>
      </trkpt>
      <trkpt lat="47.36818" lon="-1.19664">
        <ele>80</ele>
        <time>2025-08-02T10:17:29.000Z</time>
      </trkpt>
      <trkpt lat="47.36819" lon="-1.19663">
        <ele>80</ele>
        <time>2025-08-02T10:17:30.000Z</time>
      </trkpt>
      <trkpt lat="47.3682" lon="-1.19663">
        <ele>80</ele>
        <time>2025-08-02T10:17:31.000Z</time>
      </trkpt>
      <trkpt lat="47.36821" lon="-1.19662">
        <ele>80</ele>
        <time>2025-08-02T10:17:32.000Z</time>
      </trkpt>
      <trkpt lat="47.36822" lon="-1.19662">
        <ele>80</ele>
        <time>2025-08-02T10:17:33.000Z</time>
      </trkpt>
      <trkpt lat="47.36823" lon="-1.19662">
        <ele>80</ele>
        <time>2025-08-02T10:17:34.000Z</time>
      </trkpt>
      <trkpt lat="47.36825" lon="-1.19662">
        <ele>80</ele>
        <time>2025-08-02T10:17:35.000Z</time>
      </trkpt>
      <trkpt lat="47.36826" lon="-1.19662">
        <ele>79</ele>
        <time>2025-08-02T10:17:36.000Z</time>
      </trkpt>
      <trkpt lat="47.36827" lon="-1.19662">
        <ele>80</ele>
        <time>2025-08-02T10:17:37.000Z</time>
      </trkpt>
      <trkpt lat="47.36829" lon="-1.19663">
        <ele>80</ele>
        <time>2025-08-02T10:17:38.000Z</time>
      </trkpt>
      <trkpt lat="47.3683" lon="-1.19664">
        <ele>80</ele>
        <time>2025-08-02T10:17:39.000Z</time>
      </trkpt>
      <trkpt lat="47.3683" lon="-1.19664">
        <ele>80</ele>
        <time>2025-08-02T10:17:40.000Z</time>
      </trkpt>
      <trkpt lat="47.36832" lon="-1.19665">
        <ele>80</ele>
        <time>2025-08-02T10:17:41.000Z</time>
      </trkpt>
      <trkpt lat="47.36833" lon="-1.19665">
        <ele>79</ele>
        <time>2025-08-02T10:17:42.000Z</time>
      </trkpt>
      <trkpt lat="47.36833" lon="-1.19666">
        <ele>80</ele>
        <time>2025-08-02T10:17:43.000Z</time>
      </trkpt>
      <trkpt lat="47.36835" lon="-1.19668">
        <ele>79</ele>
        <time>2025-08-02T10:17:44.000Z</time>
      </trkpt>
      <trkpt lat="47.36836" lon="-1.19669">
        <ele>79</ele>
        <time>2025-08-02T10:17:45.000Z</time>
      </trkpt>
      <trkpt lat="47.36837" lon="-1.19669">
        <ele>79</ele>
        <time>2025-08-02T10:17:46.000Z</time>
      </trkpt>
      <trkpt lat="47.36838" lon="-1.1967">
        <ele>79</ele>
        <time>2025-08-02T10:17:47.000Z</time>
      </trkpt>
      <trkpt lat="47.36839" lon="-1.19671">
        <ele>79</ele>
        <time>2025-08-02T10:17:48.000Z</time>
      </trkpt>
      <trkpt lat="47.3684" lon="-1.19671">
        <ele>79</ele>
        <time>2025-08-02T10:17:49.000Z</time>
      </trkpt>
      <trkpt lat="47.36841" lon="-1.19672">
        <ele>79</ele>
        <time>2025-08-02T10:17:50.000Z</time>
      </trkpt>
      <trkpt lat="47.36842" lon="-1.19673">
        <ele>79</ele>
        <time>2025-08-02T10:17:51.000Z</time>
      </trkpt>
      <trkpt lat="47.36843" lon="-1.19673">
        <ele>79</ele>
        <time>2025-08-02T10:17:52.000Z</time>
      </trkpt>
      <trkpt lat="47.36843" lon="-1.19673">
        <ele>79</ele>
        <time>2025-08-02T10:17:53.000Z</time>
      </trkpt>
      <trkpt lat="47.36842" lon="-1.19673">
        <ele>78</ele>
        <time>2025-08-02T10:17:54.000Z</time>
      </trkpt>
      <trkpt lat="47.36842" lon="-1.19673">
        <ele>78</ele>
        <time>2025-08-02T10:17:55.000Z</time>
      </trkpt>
      <trkpt lat="47.36843" lon="-1.19674">
        <ele>79</ele>
        <time>2025-08-02T10:17:56.000Z</time>
      </trkpt>
      <trkpt lat="47.36844" lon="-1.19674">
        <ele>79</ele>
        <time>2025-08-02T10:17:57.000Z</time>
      </trkpt>
      <trkpt lat="47.36846" lon="-1.19675">
        <ele>80</ele>
        <time>2025-08-02T10:17:58.000Z</time>
      </trkpt>
      <trkpt lat="47.36847" lon="-1.19675">
        <ele>80</ele>
        <time>2025-08-02T10:17:59.000Z</time>
      </trkpt>
      <trkpt lat="47.36848" lon="-1.19676">
        <ele>80</ele>
        <time>2025-08-02T10:18:00.000Z</time>
      </trkpt>
      <trkpt lat="47.36849" lon="-1.19676">
        <ele>80</ele>
        <time>2025-08-02T10:18:01.000Z</time>
      </trkpt>
      <trkpt lat="47.36851" lon="-1.19676">
        <ele>80</ele>
        <time>2025-08-02T10:18:02.000Z</time>
      </trkpt>
      <trkpt lat="47.36852" lon="-1.19676">
        <ele>80</ele>
        <time>2025-08-02T10:18:03.000Z</time>
      </trkpt>
      <trkpt lat="47.36853" lon="-1.19675">
        <ele>80</ele>
        <time>2025-08-02T10:18:04.000Z</time>
      </trkpt>
      <trkpt lat="47.36854" lon="-1.19674">
        <ele>81</ele>
        <time>2025-08-02T10:18:05.000Z</time>
      </trkpt>
      <trkpt lat="47.36855" lon="-1.19674">
        <ele>81</ele>
        <time>2025-08-02T10:18:06.000Z</time>
      </trkpt>
      <trkpt lat="47.36857" lon="-1.19673">
        <ele>81</ele>
        <time>2025-08-02T10:18:07.000Z</time>
      </trkpt>
      <trkpt lat="47.36858" lon="-1.19673">
        <ele>81</ele>
        <time>2025-08-02T10:18:08.000Z</time>
      </trkpt>
      <trkpt lat="47.36859" lon="-1.19672">
        <ele>81</ele>
        <time>2025-08-02T10:18:09.000Z</time>
      </trkpt>
      <trkpt lat="47.3686" lon="-1.19672">
        <ele>81</ele>
        <time>2025-08-02T10:18:10.000Z</time>
      </trkpt>
      <trkpt lat="47.36861" lon="-1.19671">
        <ele>81</ele>
        <time>2025-08-02T10:18:11.000Z</time>
      </trkpt>
      <trkpt lat="47.36862" lon="-1.1967">
        <ele>82</ele>
        <time>2025-08-02T10:18:12.000Z</time>
      </trkpt>
      <trkpt lat="47.36863" lon="-1.1967">
        <ele>81</ele>
        <time>2025-08-02T10:18:13.000Z</time>
      </trkpt>
      <trkpt lat="47.36865" lon="-1.1967">
        <ele>81</ele>
        <time>2025-08-02T10:18:14.000Z</time>
      </trkpt>
      <trkpt lat="47.36866" lon="-1.1967">
        <ele>81</ele>
        <time>2025-08-02T10:18:15.000Z</time>
      </trkpt>
      <trkpt lat="47.36868" lon="-1.1967">
        <ele>81</ele>
        <time>2025-08-02T10:18:16.000Z</time>
      </trkpt>
      <trkpt lat="47.36869" lon="-1.1967">
        <ele>81</ele>
        <time>2025-08-02T10:18:17.000Z</time>
      </trkpt>
      <trkpt lat="47.3687" lon="-1.1967">
        <ele>81</ele>
        <time>2025-08-02T10:18:18.000Z</time>
      </trkpt>
      <trkpt lat="47.36871" lon="-1.19669">
        <ele>81</ele>
        <time>2025-08-02T10:18:19.000Z</time>
      </trkpt>
      <trkpt lat="47.36871" lon="-1.19669">
        <ele>81</ele>
        <time>2025-08-02T10:18:20.000Z</time>
      </trkpt>
      <trkpt lat="47.36873" lon="-1.1967">
        <ele>82</ele>
        <time>2025-08-02T10:18:21.000Z</time>
      </trkpt>
      <trkpt lat="47.36874" lon="-1.1967">
        <ele>82</ele>
        <time>2025-08-02T10:18:22.000Z</time>
      </trkpt>
      <trkpt lat="47.36875" lon="-1.1967">
        <ele>82</ele>
        <time>2025-08-02T10:18:23.000Z</time>
      </trkpt>
      <trkpt lat="47.36876" lon="-1.1967">
        <ele>82</ele>
        <time>2025-08-02T10:18:24.000Z</time>
      </trkpt>
      <trkpt lat="47.36878" lon="-1.19669">
        <ele>81</ele>
        <time>2025-08-02T10:18:25.000Z</time>
      </trkpt>
      <trkpt lat="47.36879" lon="-1.19668">
        <ele>82</ele>
        <time>2025-08-02T10:18:26.000Z</time>
      </trkpt>
      <trkpt lat="47.3688" lon="-1.19668">
        <ele>82</ele>
        <time>2025-08-02T10:18:27.000Z</time>
      </trkpt>
      <trkpt lat="47.36881" lon="-1.19667">
        <ele>82</ele>
        <time>2025-08-02T10:18:28.000Z</time>
      </trkpt>
      <trkpt lat="47.36882" lon="-1.19666">
        <ele>82</ele>
        <time>2025-08-02T10:18:29.000Z</time>
      </trkpt>
      <trkpt lat="47.36884" lon="-1.19666">
        <ele>82</ele>
        <time>2025-08-02T10:18:30.000Z</time>
      </trkpt>
      <trkpt lat="47.36886" lon="-1.19666">
        <ele>81</ele>
        <time>2025-08-02T10:18:31.000Z</time>
      </trkpt>
      <trkpt lat="47.36887" lon="-1.19665">
        <ele>81</ele>
        <time>2025-08-02T10:18:32.000Z</time>
      </trkpt>
      <trkpt lat="47.36888" lon="-1.19666">
        <ele>80</ele>
        <time>2025-08-02T10:18:33.000Z</time>
      </trkpt>
      <trkpt lat="47.3689" lon="-1.19666">
        <ele>80</ele>
        <time>2025-08-02T10:18:34.000Z</time>
      </trkpt>
      <trkpt lat="47.36891" lon="-1.19667">
        <ele>80</ele>
        <time>2025-08-02T10:18:35.000Z</time>
      </trkpt>
      <trkpt lat="47.36892" lon="-1.19667">
        <ele>80</ele>
        <time>2025-08-02T10:18:36.000Z</time>
      </trkpt>
      <trkpt lat="47.36893" lon="-1.19667">
        <ele>81</ele>
        <time>2025-08-02T10:18:37.000Z</time>
      </trkpt>
      <trkpt lat="47.36894" lon="-1.19667">
        <ele>81</ele>
        <time>2025-08-02T10:18:38.000Z</time>
      </trkpt>
      <trkpt lat="47.36895" lon="-1.19667">
        <ele>81</ele>
        <time>2025-08-02T10:18:39.000Z</time>
      </trkpt>
      <trkpt lat="47.36896" lon="-1.19668">
        <ele>81</ele>
        <time>2025-08-02T10:18:40.000Z</time>
      </trkpt>
      <trkpt lat="47.36897" lon="-1.19668">
        <ele>81</ele>
        <time>2025-08-02T10:18:41.000Z</time>
      </trkpt>
      <trkpt lat="47.36897" lon="-1.19667">
        <ele>80</ele>
        <time>2025-08-02T10:18:42.000Z</time>
      </trkpt>
      <trkpt lat="47.36898" lon="-1.19667">
        <ele>80</ele>
        <time>2025-08-02T10:18:43.000Z</time>
      </trkpt>
      <trkpt lat="47.36899" lon="-1.19667">
        <ele>80</ele>
        <time>2025-08-02T10:18:44.000Z</time>
      </trkpt>
      <trkpt lat="47.369" lon="-1.19667">
        <ele>80</ele>
        <time>2025-08-02T10:18:45.000Z</time>
      </trkpt>
      <trkpt lat="47.369" lon="-1.19667">
        <ele>79</ele>
        <time>2025-08-02T10:18:46.000Z</time>
      </trkpt>
      <trkpt lat="47.369" lon="-1.19668">
        <ele>80</ele>
        <time>2025-08-02T10:18:47.000Z</time>
      </trkpt>
      <trkpt lat="47.369" lon="-1.19668">
        <ele>80</ele>
        <time>2025-08-02T10:18:48.000Z</time>
      </trkpt>
      <trkpt lat="47.369" lon="-1.19668">
        <ele>80</ele>
        <time>2025-08-02T10:18:49.000Z</time>
      </trkpt>
      <trkpt lat="47.369" lon="-1.19668">
        <ele>80</ele>
        <time>2025-08-02T10:18:50.000Z</time>
      </trkpt>
      <trkpt lat="47.369" lon="-1.19668">
        <ele>80</ele>
        <time>2025-08-02T10:18:51.000Z</time>
      </trkpt>
      <trkpt lat="47.36901" lon="-1.19668">
        <ele>80</ele>
        <time>2025-08-02T10:18:52.000Z</time>
      </trkpt>
      <trkpt lat="47.36903" lon="-1.19669">
        <ele>80</ele>
        <time>2025-08-02T10:18:53.000Z</time>
      </trkpt>
      <trkpt lat="47.36905" lon="-1.19669">
        <ele>80</ele>
        <time>2025-08-02T10:18:54.000Z</time>
      </trkpt>
      <trkpt lat="47.36907" lon="-1.19668">
        <ele>80</ele>
        <time>2025-08-02T10:18:55.000Z</time>
      </trkpt>
      <trkpt lat="47.36908" lon="-1.19668">
        <ele>80</ele>
        <time>2025-08-02T10:18:56.000Z</time>
      </trkpt>
      <trkpt lat="47.36909" lon="-1.19667">
        <ele>80</ele>
        <time>2025-08-02T10:18:57.000Z</time>
      </trkpt>
      <trkpt lat="47.3691" lon="-1.19666">
        <ele>80</ele>
        <time>2025-08-02T10:18:58.000Z</time>
      </trkpt>
      <trkpt lat="47.3691" lon="-1.19665">
        <ele>80</ele>
        <time>2025-08-02T10:18:59.000Z</time>
      </trkpt>
      <trkpt lat="47.36912" lon="-1.19664">
        <ele>80</ele>
        <time>2025-08-02T10:19:00.000Z</time>
      </trkpt>
      <trkpt lat="47.36913" lon="-1.19664">
        <ele>81</ele>
        <time>2025-08-02T10:19:01.000Z</time>
      </trkpt>
      <trkpt lat="47.36915" lon="-1.19665">
        <ele>81</ele>
        <time>2025-08-02T10:19:02.000Z</time>
      </trkpt>
      <trkpt lat="47.36916" lon="-1.19665">
        <ele>80</ele>
        <time>2025-08-02T10:19:03.000Z</time>
      </trkpt>
      <trkpt lat="47.36917" lon="-1.19664">
        <ele>80</ele>
        <time>2025-08-02T10:19:04.000Z</time>
      </trkpt>
      <trkpt lat="47.36918" lon="-1.19664">
        <ele>80</ele>
        <time>2025-08-02T10:19:05.000Z</time>
      </trkpt>
      <trkpt lat="47.3692" lon="-1.19664">
        <ele>80</ele>
        <time>2025-08-02T10:19:06.000Z</time>
      </trkpt>
      <trkpt lat="47.36921" lon="-1.19664">
        <ele>80</ele>
        <time>2025-08-02T10:19:07.000Z</time>
      </trkpt>
      <trkpt lat="47.36921" lon="-1.19664">
        <ele>79</ele>
        <time>2025-08-02T10:19:08.000Z</time>
      </trkpt>
      <trkpt lat="47.36922" lon="-1.19665">
        <ele>80</ele>
        <time>2025-08-02T10:19:09.000Z</time>
      </trkpt>
      <trkpt lat="47.36922" lon="-1.19665">
        <ele>80</ele>
        <time>2025-08-02T10:19:10.000Z</time>
      </trkpt>
      <trkpt lat="47.36923" lon="-1.19666">
        <ele>80</ele>
        <time>2025-08-02T10:19:11.000Z</time>
      </trkpt>
      <trkpt lat="47.36925" lon="-1.19665">
        <ele>80</ele>
        <time>2025-08-02T10:19:12.000Z</time>
      </trkpt>
      <trkpt lat="47.36926" lon="-1.19665">
        <ele>80</ele>
        <time>2025-08-02T10:19:13.000Z</time>
      </trkpt>
      <trkpt lat="47.36927" lon="-1.19665">
        <ele>80</ele>
        <time>2025-08-02T10:19:14.000Z</time>
      </trkpt>
      <trkpt lat="47.36928" lon="-1.19665">
        <ele>80</ele>
        <time>2025-08-02T10:19:15.000Z</time>
      </trkpt>
      <trkpt lat="47.3693" lon="-1.19665">
        <ele>80</ele>
        <time>2025-08-02T10:19:16.000Z</time>
      </trkpt>
      <trkpt lat="47.36931" lon="-1.19665">
        <ele>80</ele>
        <time>2025-08-02T10:19:17.000Z</time>
      </trkpt>
      <trkpt lat="47.36932" lon="-1.19666">
        <ele>80</ele>
        <time>2025-08-02T10:19:18.000Z</time>
      </trkpt>
      <trkpt lat="47.36934" lon="-1.19667">
        <ele>81</ele>
        <time>2025-08-02T10:19:19.000Z</time>
      </trkpt>
      <trkpt lat="47.36935" lon="-1.19668">
        <ele>81</ele>
        <time>2025-08-02T10:19:20.000Z</time>
      </trkpt>
      <trkpt lat="47.36936" lon="-1.19668">
        <ele>81</ele>
        <time>2025-08-02T10:19:21.000Z</time>
      </trkpt>
      <trkpt lat="47.36938" lon="-1.19668">
        <ele>81</ele>
        <time>2025-08-02T10:19:22.000Z</time>
      </trkpt>
      <trkpt lat="47.36939" lon="-1.19668">
        <ele>81</ele>
        <time>2025-08-02T10:19:23.000Z</time>
      </trkpt>
      <trkpt lat="47.36941" lon="-1.19668">
        <ele>81</ele>
        <time>2025-08-02T10:19:24.000Z</time>
      </trkpt>
      <trkpt lat="47.36943" lon="-1.19668">
        <ele>81</ele>
        <time>2025-08-02T10:19:25.000Z</time>
      </trkpt>
      <trkpt lat="47.36944" lon="-1.19669">
        <ele>82</ele>
        <time>2025-08-02T10:19:26.000Z</time>
      </trkpt>
      <trkpt lat="47.36945" lon="-1.1967">
        <ele>81</ele>
        <time>2025-08-02T10:19:27.000Z</time>
      </trkpt>
      <trkpt lat="47.36946" lon="-1.1967">
        <ele>81</ele>
        <time>2025-08-02T10:19:28.000Z</time>
      </trkpt>
      <trkpt lat="47.36947" lon="-1.19671">
        <ele>81</ele>
        <time>2025-08-02T10:19:29.000Z</time>
      </trkpt>
      <trkpt lat="47.36948" lon="-1.19672">
        <ele>81</ele>
        <time>2025-08-02T10:19:30.000Z</time>
      </trkpt>
      <trkpt lat="47.36949" lon="-1.19672">
        <ele>81</ele>
        <time>2025-08-02T10:19:31.000Z</time>
      </trkpt>
      <trkpt lat="47.36951" lon="-1.19672">
        <ele>81</ele>
        <time>2025-08-02T10:19:32.000Z</time>
      </trkpt>
      <trkpt lat="47.36952" lon="-1.19672">
        <ele>81</ele>
        <time>2025-08-02T10:19:33.000Z</time>
      </trkpt>
      <trkpt lat="47.36953" lon="-1.19673">
        <ele>81</ele>
        <time>2025-08-02T10:19:34.000Z</time>
      </trkpt>
      <trkpt lat="47.36954" lon="-1.19673">
        <ele>81</ele>
        <time>2025-08-02T10:19:35.000Z</time>
      </trkpt>
      <trkpt lat="47.36955" lon="-1.19675">
        <ele>82</ele>
        <time>2025-08-02T10:19:36.000Z</time>
      </trkpt>
      <trkpt lat="47.36956" lon="-1.19676">
        <ele>82</ele>
        <time>2025-08-02T10:19:37.000Z</time>
      </trkpt>
      <trkpt lat="47.36957" lon="-1.19677">
        <ele>82</ele>
        <time>2025-08-02T10:19:38.000Z</time>
      </trkpt>
      <trkpt lat="47.36958" lon="-1.19678">
        <ele>82</ele>
        <time>2025-08-02T10:19:39.000Z</time>
      </trkpt>
      <trkpt lat="47.36959" lon="-1.19679">
        <ele>82</ele>
        <time>2025-08-02T10:19:40.000Z</time>
      </trkpt>
      <trkpt lat="47.3696" lon="-1.1968">
        <ele>82</ele>
        <time>2025-08-02T10:19:41.000Z</time>
      </trkpt>
      <trkpt lat="47.36962" lon="-1.19681">
        <ele>82</ele>
        <time>2025-08-02T10:19:42.000Z</time>
      </trkpt>
      <trkpt lat="47.36963" lon="-1.19682">
        <ele>82</ele>
        <time>2025-08-02T10:19:43.000Z</time>
      </trkpt>
      <trkpt lat="47.36964" lon="-1.19682">
        <ele>82</ele>
        <time>2025-08-02T10:19:44.000Z</time>
      </trkpt>
      <trkpt lat="47.36965" lon="-1.19683">
        <ele>82</ele>
        <time>2025-08-02T10:19:45.000Z</time>
      </trkpt>
      <trkpt lat="47.36966" lon="-1.19683">
        <ele>81</ele>
        <time>2025-08-02T10:19:46.000Z</time>
      </trkpt>
      <trkpt lat="47.36967" lon="-1.19684">
        <ele>80</ele>
        <time>2025-08-02T10:19:47.000Z</time>
      </trkpt>
      <trkpt lat="47.36968" lon="-1.19685">
        <ele>80</ele>
        <time>2025-08-02T10:19:48.000Z</time>
      </trkpt>
      <trkpt lat="47.36969" lon="-1.19686">
        <ele>81</ele>
        <time>2025-08-02T10:19:49.000Z</time>
      </trkpt>
      <trkpt lat="47.3697" lon="-1.19686">
        <ele>81</ele>
        <time>2025-08-02T10:19:50.000Z</time>
      </trkpt>
      <trkpt lat="47.36971" lon="-1.19687">
        <ele>81</ele>
        <time>2025-08-02T10:19:51.000Z</time>
      </trkpt>
      <trkpt lat="47.36972" lon="-1.19687">
        <ele>81</ele>
        <time>2025-08-02T10:19:52.000Z</time>
      </trkpt>
      <trkpt lat="47.36972" lon="-1.19688">
        <ele>81</ele>
        <time>2025-08-02T10:19:53.000Z</time>
      </trkpt>
      <trkpt lat="47.36973" lon="-1.19689">
        <ele>81</ele>
        <time>2025-08-02T10:19:54.000Z</time>
      </trkpt>
      <trkpt lat="47.36975" lon="-1.1969">
        <ele>82</ele>
        <time>2025-08-02T10:19:55.000Z</time>
      </trkpt>
      <trkpt lat="47.36976" lon="-1.19691">
        <ele>81</ele>
        <time>2025-08-02T10:19:56.000Z</time>
      </trkpt>
      <trkpt lat="47.36977" lon="-1.19691">
        <ele>81</ele>
        <time>2025-08-02T10:19:57.000Z</time>
      </trkpt>
      <trkpt lat="47.36978" lon="-1.19692">
        <ele>81</ele>
        <time>2025-08-02T10:19:58.000Z</time>
      </trkpt>
      <trkpt lat="47.36979" lon="-1.19693">
        <ele>81</ele>
        <time>2025-08-02T10:19:59.000Z</time>
      </trkpt>
      <trkpt lat="47.3698" lon="-1.19695">
        <ele>81</ele>
        <time>2025-08-02T10:20:00.000Z</time>
      </trkpt>
      <trkpt lat="47.36982" lon="-1.19696">
        <ele>81</ele>
        <time>2025-08-02T10:20:01.000Z</time>
      </trkpt>
      <trkpt lat="47.36983" lon="-1.19698">
        <ele>81</ele>
        <time>2025-08-02T10:20:02.000Z</time>
      </trkpt>
      <trkpt lat="47.36984" lon="-1.19699">
        <ele>81</ele>
        <time>2025-08-02T10:20:03.000Z</time>
      </trkpt>
      <trkpt lat="47.36986" lon="-1.197">
        <ele>81</ele>
        <time>2025-08-02T10:20:04.000Z</time>
      </trkpt>
      <trkpt lat="47.36987" lon="-1.197">
        <ele>81</ele>
        <time>2025-08-02T10:20:05.000Z</time>
      </trkpt>
      <trkpt lat="47.36988" lon="-1.19701">
        <ele>81</ele>
        <time>2025-08-02T10:20:06.000Z</time>
      </trkpt>
      <trkpt lat="47.36989" lon="-1.19702">
        <ele>81</ele>
        <time>2025-08-02T10:20:07.000Z</time>
      </trkpt>
      <trkpt lat="47.3699" lon="-1.19703">
        <ele>81</ele>
        <time>2025-08-02T10:20:08.000Z</time>
      </trkpt>
      <trkpt lat="47.36991" lon="-1.19704">
        <ele>81</ele>
        <time>2025-08-02T10:20:09.000Z</time>
      </trkpt>
      <trkpt lat="47.36991" lon="-1.19705">
        <ele>81</ele>
        <time>2025-08-02T10:20:10.000Z</time>
      </trkpt>
      <trkpt lat="47.36993" lon="-1.19705">
        <ele>81</ele>
        <time>2025-08-02T10:20:11.000Z</time>
      </trkpt>
      <trkpt lat="47.36994" lon="-1.19706">
        <ele>81</ele>
        <time>2025-08-02T10:20:12.000Z</time>
      </trkpt>
      <trkpt lat="47.36994" lon="-1.19707">
        <ele>81</ele>
        <time>2025-08-02T10:20:13.000Z</time>
      </trkpt>
      <trkpt lat="47.36995" lon="-1.19707">
        <ele>80</ele>
        <time>2025-08-02T10:20:14.000Z</time>
      </trkpt>
      <trkpt lat="47.36996" lon="-1.19708">
        <ele>80</ele>
        <time>2025-08-02T10:20:15.000Z</time>
      </trkpt>
      <trkpt lat="47.36997" lon="-1.19708">
        <ele>81</ele>
        <time>2025-08-02T10:20:16.000Z</time>
      </trkpt>
      <trkpt lat="47.36998" lon="-1.19709">
        <ele>81</ele>
        <time>2025-08-02T10:20:17.000Z</time>
      </trkpt>
      <trkpt lat="47.36999" lon="-1.19709">
        <ele>81</ele>
        <time>2025-08-02T10:20:18.000Z</time>
      </trkpt>
      <trkpt lat="47.37" lon="-1.19709">
        <ele>81</ele>
        <time>2025-08-02T10:20:19.000Z</time>
      </trkpt>
    </trkseg>
  </trk>
</gpx>